<?xml version='1.0' encoding='UTF-8'?><gpx version="1.1" creator="JPX - https://github.com/jenetics/jpx" xmlns="http://www.topografix.com/GPX/1/1"><trk><trkseg><trkpt lat="38.046910304293085" lon="-1.1992156647591208"><ele>108.0</ele><time>2026-04-09T08:04:12Z</time></trkpt><trkpt lat="38.04705482983098" lon="-1.1992557653299563"><ele>108.0</ele><time>2026-04-09T08:05:37Z</time></trkpt><trkpt lat="38.047154076011545" lon="-1.1992922778746817"><ele>108.0</ele><time>2026-04-09T08:05:39Z</time></trkpt><trkpt lat="38.04724668171338" lon="-1.1992987198845393"><ele>108.0</ele><time>2026-04-09T08:05:41Z</time></trkpt><trkpt lat="38.04732459916039" lon="-1.1991459809996214"><ele>108.0</ele><time>2026-04-09T08:05:43Z</time></trkpt><trkpt lat="38.0473462703532" lon="-1.1990343923500715"><ele>108.00000000000001</ele><time>2026-04-09T08:05:44Z</time></trkpt><trkpt lat="38.0473577156325" lon="-1.1989553592996458"><ele>108.00000000000001</ele><time>2026-04-09T08:05:45Z</time></trkpt><trkpt lat="38.04740875382473" lon="-1.1988458371933015"><ele>108.0</ele><time>2026-04-09T08:05:47Z</time></trkpt><trkpt lat="38.04750056400592" lon="-1.1987327519240496"><ele>108.0</ele><time>2026-04-09T08:05:49Z</time></trkpt><trkpt lat="38.04755499272371" lon="-1.1986148001869203"><ele>108.66666666666667</ele><time>2026-04-09T08:05:51Z</time></trkpt><trkpt lat="38.047522199129475" lon="-1.1984881092211799"><ele>109.33333333333334</ele><time>2026-04-09T08:05:53Z</time></trkpt><trkpt lat="38.04747500385727" lon="-1.198360227059774"><ele>110.0</ele><time>2026-04-09T08:05:55Z</time></trkpt><trkpt lat="38.04744014266188" lon="-1.1982792946447496"><ele>110.66666666666667</ele><time>2026-04-09T08:05:56Z</time></trkpt><trkpt lat="38.0474243453164" lon="-1.1981996071697283"><ele>111.33333333333334</ele><time>2026-04-09T08:05:57Z</time></trkpt><trkpt lat="38.04741914413253" lon="-1.1981159036376736"><ele>112.0</ele><time>2026-04-09T08:05:58Z</time></trkpt><trkpt lat="38.04740101131283" lon="-1.1980333285807967"><ele>112.39999999999999</ele><time>2026-04-09T08:05:59Z</time></trkpt><trkpt lat="38.047336277950905" lon="-1.1979031710723156"><ele>112.79999999999998</ele><time>2026-04-09T08:06:01Z</time></trkpt><trkpt lat="38.04732401507035" lon="-1.1978024429337197"><ele>113.2</ele><time>2026-04-09T08:06:02Z</time></trkpt><trkpt lat="38.04730711996955" lon="-1.197686369523694"><ele>113.6</ele><time>2026-04-09T08:06:03Z</time></trkpt><trkpt lat="38.04730132149706" lon="-1.1975755299467852"><ele>114.0</ele><time>2026-04-09T08:06:04Z</time></trkpt><trkpt lat="38.04732165531423" lon="-1.197484765703046"><ele>114.0</ele><time>2026-04-09T08:06:05Z</time></trkpt><trkpt lat="38.04736973228149" lon="-1.1973830402522159"><ele>114.0</ele><time>2026-04-09T08:06:07Z</time></trkpt><trkpt lat="38.04733739563899" lon="-1.197272047238755"><ele>114.0</ele><time>2026-04-09T08:06:09Z</time></trkpt><trkpt lat="38.04728151774499" lon="-1.1972098058611826"><ele>114.0</ele><time>2026-04-09T08:06:10Z</time></trkpt><trkpt lat="38.04722933047115" lon="-1.197124455636344"><ele>114.0</ele><time>2026-04-09T08:06:11Z</time></trkpt><trkpt lat="38.047196345635776" lon="-1.1970472033796482"><ele>114.0</ele><time>2026-04-09T08:06:12Z</time></trkpt><trkpt lat="38.047114790687786" lon="-1.1969778457945783"><ele>115.0</ele><time>2026-04-09T08:06:14Z</time></trkpt><trkpt lat="38.04705193317519" lon="-1.1969422071601563"><ele>116.0</ele><time>2026-04-09T08:06:27Z</time></trkpt><trkpt lat="38.04714974131801" lon="-1.1969754394709553"><ele>117.0</ele><time>2026-04-09T08:17:26Z</time></trkpt><trkpt lat="38.04718699673295" lon="-1.1970455950501344"><ele>118.0</ele><time>2026-04-09T08:17:27Z</time></trkpt><trkpt lat="38.04722923938026" lon="-1.1971170782902243"><ele>119.0</ele><time>2026-04-09T08:17:28Z</time></trkpt><trkpt lat="38.047283793453076" lon="-1.1971617405398112"><ele>120.0</ele><time>2026-04-09T08:17:29Z</time></trkpt><trkpt lat="38.04737801194501" lon="-1.1971540706014785"><ele>120.0</ele><time>2026-04-09T08:17:31Z</time></trkpt><trkpt lat="38.04743172867467" lon="-1.1970345322438405"><ele>120.0</ele><time>2026-04-09T08:17:33Z</time></trkpt><trkpt lat="38.047478064924434" lon="-1.1969592211430553"><ele>120.0</ele><time>2026-04-09T08:17:34Z</time></trkpt><trkpt lat="38.0475260216093" lon="-1.1968837320741905"><ele>120.0</ele><time>2026-04-09T08:17:35Z</time></trkpt><trkpt lat="38.04756347245348" lon="-1.1967762146754828"><ele>120.0</ele><time>2026-04-09T08:17:36Z</time></trkpt><trkpt lat="38.047597127451084" lon="-1.196654357933573"><ele>120.75</ele><time>2026-04-09T08:17:37Z</time></trkpt><trkpt lat="38.04765011245929" lon="-1.1965222838758338"><ele>121.5</ele><time>2026-04-09T08:17:38Z</time></trkpt><trkpt lat="38.04772421252043" lon="-1.196396087208533"><ele>122.25</ele><time>2026-04-09T08:17:39Z</time></trkpt><trkpt lat="38.04780204599639" lon="-1.1963006783764352"><ele>123.0</ele><time>2026-04-09T08:17:40Z</time></trkpt><trkpt lat="38.04789285814232" lon="-1.1962160644795352"><ele>123.60000000000001</ele><time>2026-04-09T08:17:41Z</time></trkpt><trkpt lat="38.047981144777516" lon="-1.196133957166946"><ele>124.20000000000002</ele><time>2026-04-09T08:17:42Z</time></trkpt><trkpt lat="38.04805657960668" lon="-1.1960568754829457"><ele>124.8</ele><time>2026-04-09T08:17:43Z</time></trkpt><trkpt lat="38.04813701681432" lon="-1.1959894251024414"><ele>125.4</ele><time>2026-04-09T08:17:44Z</time></trkpt><trkpt lat="38.048213153925296" lon="-1.1959006911694958"><ele>126.0</ele><time>2026-04-09T08:17:45Z</time></trkpt><trkpt lat="38.04830168733519" lon="-1.1957777829057274"><ele>123.19999999999999</ele><time>2026-04-09T08:17:46Z</time></trkpt><trkpt lat="38.04839321808547" lon="-1.195665473259667"><ele>120.39999999999999</ele><time>2026-04-09T08:17:47Z</time></trkpt><trkpt lat="38.04845987027452" lon="-1.1955651464422064"><ele>117.6</ele><time>2026-04-09T08:17:48Z</time></trkpt><trkpt lat="38.04850834614101" lon="-1.1954657427890774"><ele>114.8</ele><time>2026-04-09T08:17:49Z</time></trkpt><trkpt lat="38.04854663061483" lon="-1.1953801039933427"><ele>112.0</ele><time>2026-04-09T08:17:50Z</time></trkpt><trkpt lat="38.04858331257579" lon="-1.195313486177786"><ele>112.00000000000001</ele><time>2026-04-09T08:17:51Z</time></trkpt><trkpt lat="38.04863739544746" lon="-1.1952049971260021"><ele>112.0</ele><time>2026-04-09T08:17:54Z</time></trkpt><trkpt lat="38.04870663863191" lon="-1.1951360952200263"><ele>112.0</ele><time>2026-04-09T08:17:55Z</time></trkpt><trkpt lat="38.04877618369518" lon="-1.1950766794032508"><ele>112.0</ele><time>2026-04-09T08:17:56Z</time></trkpt><trkpt lat="38.04886164940775" lon="-1.1950456424898162"><ele>112.00000000000001</ele><time>2026-04-09T08:17:57Z</time></trkpt><trkpt lat="38.04894412345478" lon="-1.1950229353369324"><ele>112.0</ele><time>2026-04-09T08:17:58Z</time></trkpt><trkpt lat="38.049011049029346" lon="-1.1949996150051794"><ele>112.0</ele><time>2026-04-09T08:17:59Z</time></trkpt><trkpt lat="38.04911917126095" lon="-1.1949779014166537"><ele>111.99999999999999</ele><time>2026-04-09T08:18:01Z</time></trkpt><trkpt lat="38.049247324776566" lon="-1.1949610285221235"><ele>111.99999999999999</ele><time>2026-04-09T08:18:03Z</time></trkpt><trkpt lat="38.04936144671269" lon="-1.1949359344719823"><ele>112.0</ele><time>2026-04-09T08:18:05Z</time></trkpt><trkpt lat="38.04943782453313" lon="-1.1949353127012106"><ele>112.0</ele><time>2026-04-09T08:18:07Z</time></trkpt><trkpt lat="38.04941868499847" lon="-1.1948312627258255"><ele>111.0</ele><time>2026-04-09T08:18:13Z</time></trkpt><trkpt lat="38.04927240645952" lon="-1.1947812815387981"><ele>109.99999999999999</ele><time>2026-04-09T08:18:15Z</time></trkpt><trkpt lat="38.04920137603767" lon="-1.194762308739821"><ele>108.99999999999999</ele><time>2026-04-09T08:18:16Z</time></trkpt><trkpt lat="38.049133180590985" lon="-1.1947297600155204"><ele>108.0</ele><time>2026-04-09T08:18:17Z</time></trkpt><trkpt lat="38.04907143798645" lon="-1.1946832241910226"><ele>107.0</ele><time>2026-04-09T08:18:18Z</time></trkpt><trkpt lat="38.048969682084696" lon="-1.1946335222559314"><ele>106.99999999999999</ele><time>2026-04-09T08:18:20Z</time></trkpt><trkpt lat="38.048886957512174" lon="-1.1946483030431747"><ele>107.0</ele><time>2026-04-09T08:18:21Z</time></trkpt><trkpt lat="38.04879055918335" lon="-1.1946386829567255"><ele>107.0</ele><time>2026-04-09T08:18:22Z</time></trkpt><trkpt lat="38.04869031766104" lon="-1.1946217675484085"><ele>107.0</ele><time>2026-04-09T08:18:23Z</time></trkpt><trkpt lat="38.04859055092846" lon="-1.1946060997903272"><ele>106.99999999999999</ele><time>2026-04-09T08:18:24Z</time></trkpt><trkpt lat="38.04852911810188" lon="-1.1945852733128393"><ele>107.0</ele><time>2026-04-09T08:18:25Z</time></trkpt><trkpt lat="38.048448130636146" lon="-1.1945060587603717"><ele>106.99999999999999</ele><time>2026-04-09T08:18:27Z</time></trkpt><trkpt lat="38.04835962095393" lon="-1.194465784874392"><ele>107.0</ele><time>2026-04-09T08:18:29Z</time></trkpt><trkpt lat="38.048336483793406" lon="-1.1943338836760722"><ele>107.0</ele><time>2026-04-09T08:18:31Z</time></trkpt><trkpt lat="38.048345867075646" lon="-1.194246032332163"><ele>107.0</ele><time>2026-04-09T08:18:32Z</time></trkpt><trkpt lat="38.04835540264616" lon="-1.194163794395439"><ele>106.99999999999999</ele><time>2026-04-09T08:18:33Z</time></trkpt><trkpt lat="38.04831341818402" lon="-1.1940809373132417"><ele>107.0</ele><time>2026-04-09T08:18:35Z</time></trkpt><trkpt lat="38.0482284502402" lon="-1.1940878758248137"><ele>108.0</ele><time>2026-04-09T08:18:37Z</time></trkpt><trkpt lat="38.0481360394882" lon="-1.1940848392570274"><ele>108.99999999999999</ele><time>2026-04-09T08:18:38Z</time></trkpt><trkpt lat="38.04804929352532" lon="-1.1940895840734533"><ele>109.99999999999999</ele><time>2026-04-09T08:18:39Z</time></trkpt><trkpt lat="38.04801702384369" lon="-1.1939718740654504"><ele>111.0</ele><time>2026-04-09T08:18:41Z</time></trkpt><trkpt lat="38.04803496269149" lon="-1.1937982469406185"><ele>112.0</ele><time>2026-04-09T08:18:43Z</time></trkpt><trkpt lat="38.048005478473975" lon="-1.1936671168818502"><ele>112.0</ele><time>2026-04-09T08:18:45Z</time></trkpt><trkpt lat="38.04790655700387" lon="-1.1935956378000727"><ele>111.99999999999999</ele><time>2026-04-09T08:18:47Z</time></trkpt><trkpt lat="38.047846274337054" lon="-1.1935065096449287"><ele>111.99999999999999</ele><time>2026-04-09T08:18:49Z</time></trkpt><trkpt lat="38.04785487160488" lon="-1.1933860693159999"><ele>112.0</ele><time>2026-04-09T08:18:50Z</time></trkpt><trkpt lat="38.04786242259184" lon="-1.193305169961888"><ele>112.0</ele><time>2026-04-09T08:18:51Z</time></trkpt><trkpt lat="38.0478865833683" lon="-1.193165616786582"><ele>111.83333333333334</ele><time>2026-04-09T08:18:53Z</time></trkpt><trkpt lat="38.04785573589533" lon="-1.193079699196964"><ele>111.66666666666667</ele><time>2026-04-09T08:18:55Z</time></trkpt><trkpt lat="38.04777554452108" lon="-1.1930596673220972"><ele>111.5</ele><time>2026-04-09T08:18:57Z</time></trkpt><trkpt lat="38.04770971375012" lon="-1.1930330833769107"><ele>111.33333333333334</ele><time>2026-04-09T08:18:58Z</time></trkpt><trkpt lat="38.04762164462725" lon="-1.192959060490619"><ele>111.16666666666667</ele><time>2026-04-09T08:18:59Z</time></trkpt><trkpt lat="38.04756436473669" lon="-1.1928821023761675"><ele>111.0</ele><time>2026-04-09T08:19:00Z</time></trkpt><trkpt lat="38.0475200019297" lon="-1.1927875557771337"><ele>111.0</ele><time>2026-04-09T08:19:01Z</time></trkpt><trkpt lat="38.04747925397902" lon="-1.1927065318745933"><ele>111.0</ele><time>2026-04-09T08:19:02Z</time></trkpt><trkpt lat="38.047372516282834" lon="-1.1926538168968752"><ele>111.0</ele><time>2026-04-09T08:19:04Z</time></trkpt><trkpt lat="38.0472948106297" lon="-1.1926201760464727"><ele>111.0</ele><time>2026-04-09T08:19:05Z</time></trkpt><trkpt lat="38.0472143990149" lon="-1.192584534362745"><ele>111.0</ele><time>2026-04-09T08:19:06Z</time></trkpt><trkpt lat="38.047122307605946" lon="-1.192531456721223"><ele>111.83333333333333</ele><time>2026-04-09T08:19:08Z</time></trkpt><trkpt lat="38.04704608569994" lon="-1.1925198253398588"><ele>112.66666666666666</ele><time>2026-04-09T08:19:11Z</time></trkpt><trkpt lat="38.04703454734697" lon="-1.1923844980808036"><ele>113.5</ele><time>2026-04-09T08:19:23Z</time></trkpt><trkpt lat="38.04706854951859" lon="-1.1923139142164387"><ele>114.33333333333333</ele><time>2026-04-09T08:19:26Z</time></trkpt><trkpt lat="38.047113813911984" lon="-1.1922430623474136"><ele>115.16666666666666</ele><time>2026-04-09T08:19:28Z</time></trkpt><trkpt lat="38.04720024858486" lon="-1.1921830998675864"><ele>116.0</ele><time>2026-04-09T08:19:32Z</time></trkpt><trkpt lat="38.047250833628745" lon="-1.1920999876175187"><ele>115.99999999999999</ele><time>2026-04-09T08:19:34Z</time></trkpt><trkpt lat="38.04721786571113" lon="-1.1920139147670208"><ele>116.0</ele><time>2026-04-09T08:19:36Z</time></trkpt><trkpt lat="38.047167080250766" lon="-1.191959208784267"><ele>116.0</ele><time>2026-04-09T08:19:37Z</time></trkpt><trkpt lat="38.047122132788814" lon="-1.1919000020587247"><ele>116.0</ele><time>2026-04-09T08:19:38Z</time></trkpt><trkpt lat="38.0471116934901" lon="-1.1918127446088833"><ele>115.99999999999999</ele><time>2026-04-09T08:19:39Z</time></trkpt><trkpt lat="38.04716637431941" lon="-1.1916742487153853"><ele>116.0</ele><time>2026-04-09T08:19:41Z</time></trkpt><trkpt lat="38.0472081360147" lon="-1.1916110423178978"><ele>115.66666666666666</ele><time>2026-04-09T08:19:42Z</time></trkpt><trkpt lat="38.0472452447034" lon="-1.1915000166737322"><ele>115.33333333333333</ele><time>2026-04-09T08:19:44Z</time></trkpt><trkpt lat="38.04721999404027" lon="-1.1914237570191997"><ele>115.0</ele><time>2026-04-09T08:19:45Z</time></trkpt><trkpt lat="38.04718277375774" lon="-1.1913525745385867"><ele>114.66666666666666</ele><time>2026-04-09T08:19:46Z</time></trkpt><trkpt lat="38.047112306862104" lon="-1.1912721752207482"><ele>114.33333333333333</ele><time>2026-04-09T08:19:48Z</time></trkpt><trkpt lat="38.04702350186376" lon="-1.191236690315645"><ele>114.0</ele><time>2026-04-09T08:19:50Z</time></trkpt><trkpt lat="38.04693056315981" lon="-1.191234862406771"><ele>114.0</ele><time>2026-04-09T08:19:52Z</time></trkpt><trkpt lat="38.04685305002514" lon="-1.1912349758136007"><ele>114.0</ele><time>2026-04-09T08:19:53Z</time></trkpt><trkpt lat="38.04676794976915" lon="-1.191205144105022"><ele>114.0</ele><time>2026-04-09T08:19:55Z</time></trkpt><trkpt lat="38.04672170185084" lon="-1.191121768972749"><ele>114.0</ele><time>2026-04-09T08:19:57Z</time></trkpt><trkpt lat="38.04673226798727" lon="-1.191001825452437"><ele>114.0</ele><time>2026-04-09T08:19:59Z</time></trkpt><trkpt lat="38.0467732639792" lon="-1.1909024700251343"><ele>114.0</ele><time>2026-04-09T08:20:01Z</time></trkpt><trkpt lat="38.04675437164444" lon="-1.190785035644751"><ele>114.0</ele><time>2026-04-09T08:20:03Z</time></trkpt><trkpt lat="38.04670318476337" lon="-1.1907031561298982"><ele>114.0</ele><time>2026-04-09T08:20:04Z</time></trkpt><trkpt lat="38.046631941931054" lon="-1.19060622013797"><ele>114.0</ele><time>2026-04-09T08:20:05Z</time></trkpt><trkpt lat="38.04657649750815" lon="-1.1905245849011716"><ele>114.0</ele><time>2026-04-09T08:20:06Z</time></trkpt><trkpt lat="38.04653374941921" lon="-1.1904380832569958"><ele>114.0</ele><time>2026-04-09T08:20:07Z</time></trkpt><trkpt lat="38.04652969450795" lon="-1.1903205415976361"><ele>114.0</ele><time>2026-04-09T08:20:09Z</time></trkpt><trkpt lat="38.04652614124403" lon="-1.190237370962303"><ele>114.66666666666667</ele><time>2026-04-09T08:20:11Z</time></trkpt><trkpt lat="38.04651852080319" lon="-1.190155827766421"><ele>115.33333333333334</ele><time>2026-04-09T08:20:12Z</time></trkpt><trkpt lat="38.04646284756901" lon="-1.1900276746874598"><ele>116.0</ele><time>2026-04-09T08:20:14Z</time></trkpt><trkpt lat="38.04642223476107" lon="-1.189959705049051"><ele>116.66666666666667</ele><time>2026-04-09T08:20:15Z</time></trkpt><trkpt lat="38.046367689551396" lon="-1.1898744659250176"><ele>117.33333333333334</ele><time>2026-04-09T08:20:16Z</time></trkpt><trkpt lat="38.04631060450262" lon="-1.1897966425691378"><ele>118.0</ele><time>2026-04-09T08:20:17Z</time></trkpt><trkpt lat="38.046233073338705" lon="-1.1897040833234225"><ele>118.0</ele><time>2026-04-09T08:20:19Z</time></trkpt><trkpt lat="38.04619948246347" lon="-1.18960785414339"><ele>118.00000000000001</ele><time>2026-04-09T08:20:21Z</time></trkpt><trkpt lat="38.046145675277366" lon="-1.1895122619803413"><ele>118.00000000000001</ele><time>2026-04-09T08:20:23Z</time></trkpt><trkpt lat="38.04609686801983" lon="-1.189432508948453"><ele>118.0</ele><time>2026-04-09T08:20:25Z</time></trkpt><trkpt lat="38.04602567682124" lon="-1.189367533321589"><ele>118.0</ele><time>2026-04-09T08:20:28Z</time></trkpt><trkpt lat="38.04609812581275" lon="-1.189229760948257"><ele>118.0</ele><time>2026-04-09T08:20:31Z</time></trkpt><trkpt lat="38.04616590004968" lon="-1.189186562366011"><ele>118.0</ele><time>2026-04-09T08:20:34Z</time></trkpt><trkpt lat="38.046308876361785" lon="-1.189004210955313"><ele>118.0</ele><time>2026-04-09T08:20:37Z</time></trkpt><trkpt lat="38.04640781613753" lon="-1.188914844324415"><ele>118.0</ele><time>2026-04-09T08:20:39Z</time></trkpt><trkpt lat="38.04649839119645" lon="-1.1888491472307299"><ele>119.00000000000001</ele><time>2026-04-09T08:20:41Z</time></trkpt><trkpt lat="38.04652094300542" lon="-1.188693823585664"><ele>120.0</ele><time>2026-04-09T08:20:43Z</time></trkpt><trkpt lat="38.046501863513065" lon="-1.1886041226759128"><ele>121.0</ele><time>2026-04-09T08:20:44Z</time></trkpt><trkpt lat="38.0464784931738" lon="-1.1885136168363297"><ele>122.0</ele><time>2026-04-09T08:20:45Z</time></trkpt><trkpt lat="38.04646506660149" lon="-1.1884222162524818"><ele>123.00000000000001</ele><time>2026-04-09T08:20:46Z</time></trkpt><trkpt lat="38.04646776058388" lon="-1.1883375722714609"><ele>124.0</ele><time>2026-04-09T08:20:47Z</time></trkpt><trkpt lat="38.04647673013369" lon="-1.1882539863188284"><ele>123.66666666666667</ele><time>2026-04-09T08:20:48Z</time></trkpt><trkpt lat="38.04645658691311" lon="-1.1881611665326837"><ele>123.33333333333334</ele><time>2026-04-09T08:20:49Z</time></trkpt><trkpt lat="38.04643478999631" lon="-1.1880856975637373"><ele>123.0</ele><time>2026-04-09T08:20:50Z</time></trkpt><trkpt lat="38.04638992424305" lon="-1.188025597132557"><ele>122.66666666666666</ele><time>2026-04-09T08:20:51Z</time></trkpt><trkpt lat="38.04630688650356" lon="-1.1879828317762093"><ele>122.33333333333333</ele><time>2026-04-09T08:20:52Z</time></trkpt><trkpt lat="38.04627813052122" lon="-1.1878094918862838"><ele>122.0</ele><time>2026-04-09T08:20:54Z</time></trkpt><trkpt lat="38.04627062562522" lon="-1.1876965123703584"><ele>121.99999999999999</ele><time>2026-04-09T08:20:55Z</time></trkpt><trkpt lat="38.04625184227412" lon="-1.1875733012687852"><ele>122.0</ele><time>2026-04-09T08:20:56Z</time></trkpt><trkpt lat="38.04625791711566" lon="-1.187443171885916"><ele>122.0</ele><time>2026-04-09T08:20:57Z</time></trkpt><trkpt lat="38.0462654342878" lon="-1.1873487917295527"><ele>122.0</ele><time>2026-04-09T08:20:58Z</time></trkpt><trkpt lat="38.04628112971394" lon="-1.1872504010985443"><ele>121.99999999999999</ele><time>2026-04-09T08:20:59Z</time></trkpt><trkpt lat="38.046282663621014" lon="-1.1871586831716578"><ele>122.0</ele><time>2026-04-09T08:21:00Z</time></trkpt><trkpt lat="38.046299840488004" lon="-1.1870754578142646"><ele>124.19999999999999</ele><time>2026-04-09T08:21:01Z</time></trkpt><trkpt lat="38.04633176959389" lon="-1.1869872425955366"><ele>126.39999999999999</ele><time>2026-04-09T08:21:02Z</time></trkpt><trkpt lat="38.04637234413456" lon="-1.1869081224898665"><ele>128.60000000000002</ele><time>2026-04-09T08:21:03Z</time></trkpt><trkpt lat="38.04643470109278" lon="-1.186790890443074"><ele>130.8</ele><time>2026-04-09T08:21:05Z</time></trkpt><trkpt lat="38.04641007907507" lon="-1.1866516861344352"><ele>133.0</ele><time>2026-04-09T08:21:07Z</time></trkpt><trkpt lat="38.04645734996285" lon="-1.186498494268911"><ele>135.0</ele><time>2026-04-09T08:21:09Z</time></trkpt><trkpt lat="38.04647131070521" lon="-1.1864037921857673"><ele>137.0</ele><time>2026-04-09T08:21:10Z</time></trkpt><trkpt lat="38.0464661863677" lon="-1.186316461066011"><ele>139.0</ele><time>2026-04-09T08:21:11Z</time></trkpt><trkpt lat="38.04645602767162" lon="-1.186237215736428"><ele>141.0</ele><time>2026-04-09T08:21:12Z</time></trkpt><trkpt lat="38.046459844023616" lon="-1.1861297785796474"><ele>143.0</ele><time>2026-04-09T08:21:14Z</time></trkpt><trkpt lat="38.04642783240411" lon="-1.1860343393940278"><ele>145.0</ele><time>2026-04-09T08:21:16Z</time></trkpt><trkpt lat="38.046419557884555" lon="-1.1859320098112767"><ele>145.0</ele><time>2026-04-09T08:21:18Z</time></trkpt><trkpt lat="38.04642886742508" lon="-1.1858360502104561"><ele>145.0</ele><time>2026-04-09T08:21:20Z</time></trkpt><trkpt lat="38.04640161179137" lon="-1.185745208785543"><ele>145.0</ele><time>2026-04-09T08:21:22Z</time></trkpt><trkpt lat="38.04633933352845" lon="-1.1857177513512287"><ele>145.0</ele><time>2026-04-09T08:21:24Z</time></trkpt><trkpt lat="38.04625799201627" lon="-1.1856632117364247"><ele>145.0</ele><time>2026-04-09T08:21:26Z</time></trkpt><trkpt lat="38.046238382124685" lon="-1.1855832613832598"><ele>145.0</ele><time>2026-04-09T08:21:28Z</time></trkpt><trkpt lat="38.04617589179264" lon="-1.185553092995622"><ele>145.0</ele><time>2026-04-09T08:21:30Z</time></trkpt><trkpt lat="38.04614195056098" lon="-1.1854705261456222"><ele>145.2</ele><time>2026-04-09T08:21:32Z</time></trkpt><trkpt lat="38.04610726065361" lon="-1.1853713764657112"><ele>145.4</ele><time>2026-04-09T08:21:35Z</time></trkpt><trkpt lat="38.04604312279045" lon="-1.1853115665480187"><ele>145.6</ele><time>2026-04-09T08:21:38Z</time></trkpt><trkpt lat="38.04599259752459" lon="-1.1854169155843695"><ele>145.8</ele><time>2026-04-09T08:21:40Z</time></trkpt><trkpt lat="38.045913828184815" lon="-1.1854541929841917"><ele>146.0</ele><time>2026-04-09T08:21:41Z</time></trkpt><trkpt lat="38.04591488235461" lon="-1.1855913237347373"><ele>145.83333333333331</ele><time>2026-04-09T08:21:42Z</time></trkpt><trkpt lat="38.04593961594325" lon="-1.1857126493473642"><ele>145.66666666666666</ele><time>2026-04-09T08:21:43Z</time></trkpt><trkpt lat="38.0459781411679" lon="-1.1858300986522814"><ele>145.5</ele><time>2026-04-09T08:21:44Z</time></trkpt><trkpt lat="38.0460226176806" lon="-1.1859273514112738"><ele>145.33333333333334</ele><time>2026-04-09T08:21:45Z</time></trkpt><trkpt lat="38.04605497071726" lon="-1.186020624477556"><ele>145.16666666666669</ele><time>2026-04-09T08:21:46Z</time></trkpt><trkpt lat="38.046048156258266" lon="-1.186101648182725"><ele>145.0</ele><time>2026-04-09T08:21:47Z</time></trkpt><trkpt lat="38.045952393724164" lon="-1.1862091120418883"><ele>145.0</ele><time>2026-04-09T08:21:49Z</time></trkpt><trkpt lat="38.045853507078846" lon="-1.1862679050783471"><ele>145.0</ele><time>2026-04-09T08:21:50Z</time></trkpt><trkpt lat="38.04577434958099" lon="-1.1862931517928046"><ele>145.0</ele><time>2026-04-09T08:21:51Z</time></trkpt><trkpt lat="38.04571241739597" lon="-1.1863458071659692"><ele>145.0</ele><time>2026-04-09T08:21:52Z</time></trkpt><trkpt lat="38.045666852738194" lon="-1.1864322395230182"><ele>145.0</ele><time>2026-04-09T08:21:53Z</time></trkpt><trkpt lat="38.04559408106179" lon="-1.1864865254382864"><ele>145.0</ele><time>2026-04-09T08:21:54Z</time></trkpt><trkpt lat="38.04546876197457" lon="-1.186529314201066"><ele>143.8</ele><time>2026-04-09T08:21:56Z</time></trkpt><trkpt lat="38.04540051702834" lon="-1.1865272041220254"><ele>142.6</ele><time>2026-04-09T08:21:57Z</time></trkpt><trkpt lat="38.045341294768626" lon="-1.1864933335855763"><ele>141.4</ele><time>2026-04-09T08:21:58Z</time></trkpt><trkpt lat="38.04527539162212" lon="-1.1863766015313768"><ele>140.2</ele><time>2026-04-09T08:22:00Z</time></trkpt><trkpt lat="38.04521058957991" lon="-1.1862291163972063"><ele>139.0</ele><time>2026-04-09T08:22:02Z</time></trkpt><trkpt lat="38.045194721826576" lon="-1.1861325620166423"><ele>139.0</ele><time>2026-04-09T08:22:03Z</time></trkpt><trkpt lat="38.045188239487565" lon="-1.186011388580644"><ele>139.0</ele><time>2026-04-09T08:22:04Z</time></trkpt><trkpt lat="38.0451635862617" lon="-1.1859155781673625"><ele>139.0</ele><time>2026-04-09T08:22:05Z</time></trkpt><trkpt lat="38.04514144836514" lon="-1.1858069638174369"><ele>139.0</ele><time>2026-04-09T08:22:06Z</time></trkpt><trkpt lat="38.04511251612945" lon="-1.1857044277061266"><ele>139.0</ele><time>2026-04-09T08:22:07Z</time></trkpt><trkpt lat="38.04510118622696" lon="-1.1856202871648691"><ele>139.0</ele><time>2026-04-09T08:22:08Z</time></trkpt><trkpt lat="38.04511592547568" lon="-1.1855167743282835"><ele>139.6</ele><time>2026-04-09T08:22:10Z</time></trkpt><trkpt lat="38.04510058533818" lon="-1.185364060408284"><ele>140.2</ele><time>2026-04-09T08:22:12Z</time></trkpt><trkpt lat="38.045077082525914" lon="-1.1852891151315073"><ele>140.79999999999998</ele><time>2026-04-09T08:22:13Z</time></trkpt><trkpt lat="38.044997499922026" lon="-1.1852177019836172"><ele>141.4</ele><time>2026-04-09T08:22:15Z</time></trkpt><trkpt lat="38.04491609895027" lon="-1.1851319538083909"><ele>142.0</ele><time>2026-04-09T08:22:17Z</time></trkpt><trkpt lat="38.04487421037559" lon="-1.1850087898735533"><ele>142.0</ele><time>2026-04-09T08:22:19Z</time></trkpt><trkpt lat="38.04485829402247" lon="-1.1848462876240702"><ele>142.0</ele><time>2026-04-09T08:22:21Z</time></trkpt><trkpt lat="38.044831783183305" lon="-1.1847570556446554"><ele>142.0</ele><time>2026-04-09T08:22:22Z</time></trkpt><trkpt lat="38.044800916980314" lon="-1.1846859429942185"><ele>142.0</ele><time>2026-04-09T08:22:23Z</time></trkpt><trkpt lat="38.04469900291565" lon="-1.1845845722771748"><ele>142.0</ele><time>2026-04-09T08:22:25Z</time></trkpt><trkpt lat="38.04463796009189" lon="-1.1845430890540876"><ele>143.4</ele><time>2026-04-09T08:22:26Z</time></trkpt><trkpt lat="38.04453398541447" lon="-1.1845516068696502"><ele>144.79999999999998</ele><time>2026-04-09T08:22:28Z</time></trkpt><trkpt lat="38.044452483681184" lon="-1.1846040356953715"><ele>146.2</ele><time>2026-04-09T08:22:29Z</time></trkpt><trkpt lat="38.044372082507614" lon="-1.1846328612230828"><ele>147.6</ele><time>2026-04-09T08:22:30Z</time></trkpt><trkpt lat="38.044305932315424" lon="-1.1846505821201743"><ele>149.0</ele><time>2026-04-09T08:22:31Z</time></trkpt><trkpt lat="38.0441951317188" lon="-1.1846492010163978"><ele>148.4</ele><time>2026-04-09T08:22:33Z</time></trkpt><trkpt lat="38.044100753189845" lon="-1.1846407435032913"><ele>147.8</ele><time>2026-04-09T08:22:35Z</time></trkpt><trkpt lat="38.0439896377768" lon="-1.1846288464329366"><ele>147.2</ele><time>2026-04-09T08:22:38Z</time></trkpt><trkpt lat="38.0438938625831" lon="-1.184628009844358"><ele>146.6</ele><time>2026-04-09T08:22:40Z</time></trkpt><trkpt lat="38.04382701256485" lon="-1.1846002885460936"><ele>146.0</ele><time>2026-04-09T08:22:41Z</time></trkpt><trkpt lat="38.043770317166484" lon="-1.1845013108821947"><ele>146.0</ele><time>2026-04-09T08:22:43Z</time></trkpt><trkpt lat="38.043763052535304" lon="-1.1844185639884992"><ele>146.0</ele><time>2026-04-09T08:22:44Z</time></trkpt><trkpt lat="38.04377602821787" lon="-1.184285392946955"><ele>146.0</ele><time>2026-04-09T08:22:45Z</time></trkpt><trkpt lat="38.0437896787974" lon="-1.1841403444654077"><ele>146.0</ele><time>2026-04-09T08:22:46Z</time></trkpt><trkpt lat="38.04380948471086" lon="-1.184021485393886"><ele>146.0</ele><time>2026-04-09T08:22:47Z</time></trkpt><trkpt lat="38.043806127904084" lon="-1.1839056430774255"><ele>146.4</ele><time>2026-04-09T08:22:48Z</time></trkpt><trkpt lat="38.04377931664989" lon="-1.183780630426958"><ele>146.8</ele><time>2026-04-09T08:22:49Z</time></trkpt><trkpt lat="38.04374065539924" lon="-1.1836711285909223"><ele>147.20000000000002</ele><time>2026-04-09T08:22:50Z</time></trkpt><trkpt lat="38.043695938472766" lon="-1.183556972089484"><ele>147.6</ele><time>2026-04-09T08:22:51Z</time></trkpt><trkpt lat="38.04366582642546" lon="-1.1834451492129092"><ele>148.0</ele><time>2026-04-09T08:22:52Z</time></trkpt><trkpt lat="38.04364855107738" lon="-1.1833563667003424"><ele>148.0</ele><time>2026-04-09T08:22:53Z</time></trkpt><trkpt lat="38.04356827387161" lon="-1.1832410586332174"><ele>148.0</ele><time>2026-04-09T08:22:55Z</time></trkpt><trkpt lat="38.043494585526744" lon="-1.183197027192017"><ele>148.0</ele><time>2026-04-09T08:22:56Z</time></trkpt><trkpt lat="38.04343748355507" lon="-1.1831523624315181"><ele>148.0</ele><time>2026-04-09T08:22:57Z</time></trkpt><trkpt lat="38.04337980830158" lon="-1.1830240897682172"><ele>148.0</ele><time>2026-04-09T08:22:59Z</time></trkpt><trkpt lat="38.043381191004094" lon="-1.1829363674520437"><ele>148.8</ele><time>2026-04-09T08:23:00Z</time></trkpt><trkpt lat="38.04339311939455" lon="-1.182826433963336"><ele>149.60000000000002</ele><time>2026-04-09T08:23:01Z</time></trkpt><trkpt lat="38.04342193212189" lon="-1.1827246200929606"><ele>150.39999999999998</ele><time>2026-04-09T08:23:02Z</time></trkpt><trkpt lat="38.04347041180684" lon="-1.1826389892494653"><ele>151.2</ele><time>2026-04-09T08:23:03Z</time></trkpt><trkpt lat="38.04355192681707" lon="-1.18255295811798"><ele>152.0</ele><time>2026-04-09T08:23:04Z</time></trkpt><trkpt lat="38.04362527171852" lon="-1.1824904005999184"><ele>152.0</ele><time>2026-04-09T08:23:05Z</time></trkpt><trkpt lat="38.04366789136122" lon="-1.182363088540313"><ele>152.0</ele><time>2026-04-09T08:23:07Z</time></trkpt><trkpt lat="38.04364676078596" lon="-1.182264753188674"><ele>152.0</ele><time>2026-04-09T08:23:08Z</time></trkpt><trkpt lat="38.04359898100952" lon="-1.1821573440313888"><ele>152.0</ele><time>2026-04-09T08:23:09Z</time></trkpt><trkpt lat="38.04354599767867" lon="-1.1820409673516143"><ele>152.0</ele><time>2026-04-09T08:23:10Z</time></trkpt><trkpt lat="38.043478722969596" lon="-1.181919532022987"><ele>153.0</ele><time>2026-04-09T08:23:11Z</time></trkpt><trkpt lat="38.04340727270431" lon="-1.1818237540150611"><ele>154.0</ele><time>2026-04-09T08:23:12Z</time></trkpt><trkpt lat="38.04334478007068" lon="-1.181748520618219"><ele>155.0</ele><time>2026-04-09T08:23:13Z</time></trkpt><trkpt lat="38.043289116679006" lon="-1.1816881236093677"><ele>156.0</ele><time>2026-04-09T08:23:14Z</time></trkpt><trkpt lat="38.043219912502835" lon="-1.1816425391286294"><ele>157.0</ele><time>2026-04-09T08:23:15Z</time></trkpt><trkpt lat="38.043134581673186" lon="-1.1816117949933644"><ele>158.0</ele><time>2026-04-09T08:23:16Z</time></trkpt><trkpt lat="38.043050766812264" lon="-1.1815644436743253"><ele>158.33333333333331</ele><time>2026-04-09T08:23:17Z</time></trkpt><trkpt lat="38.04298697834185" lon="-1.1815059162063148"><ele>158.66666666666666</ele><time>2026-04-09T08:23:18Z</time></trkpt><trkpt lat="38.042935734003365" lon="-1.1814282416570814"><ele>159.0</ele><time>2026-04-09T08:23:19Z</time></trkpt><trkpt lat="38.042901569395305" lon="-1.1813357739711827"><ele>159.33333333333334</ele><time>2026-04-09T08:23:20Z</time></trkpt><trkpt lat="38.042876703633134" lon="-1.1812155135924667"><ele>159.66666666666669</ele><time>2026-04-09T08:23:21Z</time></trkpt><trkpt lat="38.04285651935088" lon="-1.1811090761514187"><ele>160.0</ele><time>2026-04-09T08:23:22Z</time></trkpt><trkpt lat="38.04283733088507" lon="-1.181024470352493"><ele>160.0</ele><time>2026-04-09T08:23:23Z</time></trkpt><trkpt lat="38.04275718100355" lon="-1.180944137276319"><ele>160.0</ele><time>2026-04-09T08:23:25Z</time></trkpt><trkpt lat="38.04266262610619" lon="-1.1808413301066374"><ele>160.0</ele><time>2026-04-09T08:23:27Z</time></trkpt><trkpt lat="38.0426034198018" lon="-1.1807871630821418"><ele>160.0</ele><time>2026-04-09T08:23:28Z</time></trkpt><trkpt lat="38.04251934297301" lon="-1.1807342602476896"><ele>160.0</ele><time>2026-04-09T08:23:29Z</time></trkpt><trkpt lat="38.04242861532353" lon="-1.180657051916377"><ele>160.33333333333334</ele><time>2026-04-09T08:23:30Z</time></trkpt><trkpt lat="38.042356220018185" lon="-1.1805848184696175"><ele>160.66666666666669</ele><time>2026-04-09T08:23:31Z</time></trkpt><trkpt lat="38.04229126851514" lon="-1.180534604030301"><ele>161.0</ele><time>2026-04-09T08:23:32Z</time></trkpt><trkpt lat="38.04218023295412" lon="-1.1804751973051664"><ele>161.33333333333334</ele><time>2026-04-09T08:23:34Z</time></trkpt><trkpt lat="38.04210369548398" lon="-1.1804523012277677"><ele>161.66666666666666</ele><time>2026-04-09T08:23:35Z</time></trkpt><trkpt lat="38.04205145826578" lon="-1.1804045734507145"><ele>162.0</ele><time>2026-04-09T08:23:36Z</time></trkpt><trkpt lat="38.042015901495255" lon="-1.1803099451946921"><ele>162.0</ele><time>2026-04-09T08:23:38Z</time></trkpt><trkpt lat="38.04191649392127" lon="-1.18030393371932"><ele>162.0</ele><time>2026-04-09T08:24:29Z</time></trkpt><trkpt lat="38.04201292433932" lon="-1.1803052905471427"><ele>162.0</ele><time>2026-04-09T08:24:36Z</time></trkpt><trkpt lat="38.04204613202305" lon="-1.180410051094649"><ele>162.0</ele><time>2026-04-09T08:24:38Z</time></trkpt><trkpt lat="38.042040413198016" lon="-1.1805258578002158"><ele>162.0</ele><time>2026-04-09T08:24:39Z</time></trkpt><trkpt lat="38.04203664435941" lon="-1.1806542284124668"><ele>162.0</ele><time>2026-04-09T08:24:40Z</time></trkpt><trkpt lat="38.04203134424088" lon="-1.1807922656274756"><ele>162.0</ele><time>2026-04-09T08:24:41Z</time></trkpt><trkpt lat="38.042046018242" lon="-1.1808782077475486"><ele>162.0</ele><time>2026-04-09T08:24:42Z</time></trkpt><trkpt lat="38.042066066727266" lon="-1.1809759325187903"><ele>162.0</ele><time>2026-04-09T08:24:44Z</time></trkpt><trkpt lat="38.042060010628525" lon="-1.1808920267115222"><ele>162.0</ele><time>2026-04-09T08:26:10Z</time></trkpt><trkpt lat="38.042033626336874" lon="-1.1807490765602353"><ele>162.0</ele><time>2026-04-09T08:26:27Z</time></trkpt><trkpt lat="38.04202675599105" lon="-1.1806571471120602"><ele>162.0</ele><time>2026-04-09T08:26:39Z</time></trkpt><trkpt lat="38.042030052893054" lon="-1.1805728609121484"><ele>162.0</ele><time>2026-04-09T08:26:40Z</time></trkpt><trkpt lat="38.04203549256834" lon="-1.180477691692253"><ele>162.0</ele><time>2026-04-09T08:26:41Z</time></trkpt><trkpt lat="38.042021381689146" lon="-1.1803514409235565"><ele>162.0</ele><time>2026-04-09T08:26:43Z</time></trkpt><trkpt lat="38.04195487263979" lon="-1.1803024775446544"><ele>162.0</ele><time>2026-04-09T08:26:45Z</time></trkpt><trkpt lat="38.041880081596325" lon="-1.1802985296358581"><ele>162.0</ele><time>2026-04-09T08:26:47Z</time></trkpt><trkpt lat="38.04195404826467" lon="-1.1802708656474128"><ele>162.0</ele><time>2026-04-09T08:27:10Z</time></trkpt><trkpt lat="38.04201340036909" lon="-1.1803005882140112"><ele>162.0</ele><time>2026-04-09T08:27:11Z</time></trkpt><trkpt lat="38.04204816565723" lon="-1.1804021721812463"><ele>162.0</ele><time>2026-04-09T08:27:13Z</time></trkpt><trkpt lat="38.04204464482943" lon="-1.1805041092661963"><ele>162.0</ele><time>2026-04-09T08:27:14Z</time></trkpt><trkpt lat="38.04204086263606" lon="-1.1806335295911727"><ele>162.0</ele><time>2026-04-09T08:27:15Z</time></trkpt><trkpt lat="38.04203764395771" lon="-1.1807544182598393"><ele>162.0</ele><time>2026-04-09T08:27:16Z</time></trkpt><trkpt lat="38.04204678760838" lon="-1.1808437913821388"><ele>162.0</ele><time>2026-04-09T08:27:17Z</time></trkpt><trkpt lat="38.04206847472914" lon="-1.180953187060234"><ele>162.0</ele><time>2026-04-09T08:27:19Z</time></trkpt><trkpt lat="38.042052208992594" lon="-1.180850774418382"><ele>162.0</ele><time>2026-04-09T08:28:21Z</time></trkpt><trkpt lat="38.042039067174024" lon="-1.1807079120664612"><ele>162.0</ele><time>2026-04-09T08:28:40Z</time></trkpt><trkpt lat="38.042030728232135" lon="-1.1806251034123885"><ele>162.0</ele><time>2026-04-09T08:28:48Z</time></trkpt><trkpt lat="38.04202673735138" lon="-1.1805313797965382"><ele>162.0</ele><time>2026-04-09T08:28:49Z</time></trkpt><trkpt lat="38.042018747278505" lon="-1.1804245437297614"><ele>162.0</ele><time>2026-04-09T08:28:51Z</time></trkpt><trkpt lat="38.04196182106701" lon="-1.1803215447042386"><ele>162.0</ele><time>2026-04-09T08:28:54Z</time></trkpt><trkpt lat="38.041839367773704" lon="-1.180262814141149"><ele>162.0</ele><time>2026-04-09T08:28:56Z</time></trkpt><trkpt lat="38.04175184297167" lon="-1.1801861607969497"><ele>162.0</ele><time>2026-04-09T08:28:58Z</time></trkpt><trkpt lat="38.0417049768219" lon="-1.1800460443397385"><ele>162.0</ele><time>2026-04-09T08:29:00Z</time></trkpt><trkpt lat="38.04168649847279" lon="-1.1799625457799174"><ele>162.0</ele><time>2026-04-09T08:29:01Z</time></trkpt><trkpt lat="38.041623389042144" lon="-1.1798321725516876"><ele>162.0</ele><time>2026-04-09T08:29:03Z</time></trkpt><trkpt lat="38.04157114322922" lon="-1.1797871116932634"><ele>162.0</ele><time>2026-04-09T08:29:04Z</time></trkpt><trkpt lat="38.04155019008467" lon="-1.1797043161116896"><ele>162.0</ele><time>2026-04-09T08:29:06Z</time></trkpt><trkpt lat="38.04153072051809" lon="-1.1795687545861864"><ele>162.0</ele><time>2026-04-09T08:29:07Z</time></trkpt><trkpt lat="38.0414751759429" lon="-1.1794704735087789"><ele>162.33333333333334</ele><time>2026-04-09T08:29:09Z</time></trkpt><trkpt lat="38.041456897282146" lon="-1.1793926232768615"><ele>162.66666666666666</ele><time>2026-04-09T08:29:10Z</time></trkpt><trkpt lat="38.04135743094955" lon="-1.1793082954442664"><ele>163.0</ele><time>2026-04-09T08:29:12Z</time></trkpt><trkpt lat="38.04128481873255" lon="-1.1792497252793042"><ele>163.33333333333331</ele><time>2026-04-09T08:29:13Z</time></trkpt><trkpt lat="38.04119706313254" lon="-1.1792108527690102"><ele>163.66666666666666</ele><time>2026-04-09T08:29:14Z</time></trkpt><trkpt lat="38.0411379465065" lon="-1.1791582648681793"><ele>164.0</ele><time>2026-04-09T08:29:15Z</time></trkpt><trkpt lat="38.041069215235616" lon="-1.179101518046651"><ele>164.0</ele><time>2026-04-09T08:29:16Z</time></trkpt><trkpt lat="38.0410342443395" lon="-1.179021981180683"><ele>164.0</ele><time>2026-04-09T08:29:17Z</time></trkpt><trkpt lat="38.0410471619569" lon="-1.1788931488518488"><ele>164.0</ele><time>2026-04-09T08:29:18Z</time></trkpt><trkpt lat="38.04106288856558" lon="-1.1787783813222663"><ele>164.0</ele><time>2026-04-09T08:29:19Z</time></trkpt><trkpt lat="38.04105370847068" lon="-1.178643761087796"><ele>164.0</ele><time>2026-04-09T08:29:20Z</time></trkpt><trkpt lat="38.041051584739655" lon="-1.1785116322935878"><ele>164.2</ele><time>2026-04-09T08:29:21Z</time></trkpt><trkpt lat="38.041062328447424" lon="-1.1784300146652607"><ele>164.39999999999998</ele><time>2026-04-09T08:29:22Z</time></trkpt><trkpt lat="38.040980774095914" lon="-1.1783309128007746"><ele>164.6</ele><time>2026-04-09T08:29:24Z</time></trkpt><trkpt lat="38.040903591464144" lon="-1.1783052593013275"><ele>164.8</ele><time>2026-04-09T08:29:25Z</time></trkpt><trkpt lat="38.04083678610806" lon="-1.17827851022976"><ele>165.0</ele><time>2026-04-09T08:29:26Z</time></trkpt><trkpt lat="38.04083445656883" lon="-1.1781193647321844"><ele>165.4</ele><time>2026-04-09T08:29:28Z</time></trkpt><trkpt lat="38.04084833424846" lon="-1.1780073173276104"><ele>165.8</ele><time>2026-04-09T08:29:29Z</time></trkpt><trkpt lat="38.04083113351279" lon="-1.177870015980764"><ele>166.2</ele><time>2026-04-09T08:29:30Z</time></trkpt><trkpt lat="38.040805915486686" lon="-1.1777653819825116"><ele>166.6</ele><time>2026-04-09T08:29:31Z</time></trkpt><trkpt lat="38.040751918406876" lon="-1.1776762935781016"><ele>167.0</ele><time>2026-04-09T08:29:32Z</time></trkpt><trkpt lat="38.040680760682" lon="-1.177552959648417"><ele>167.6</ele><time>2026-04-09T08:29:33Z</time></trkpt><trkpt lat="38.04062030441479" lon="-1.1773987750078474"><ele>168.2</ele><time>2026-04-09T08:29:34Z</time></trkpt><trkpt lat="38.040567889760304" lon="-1.1772809867288139"><ele>168.8</ele><time>2026-04-09T08:29:35Z</time></trkpt><trkpt lat="38.04051940917631" lon="-1.1771815188636285"><ele>169.4</ele><time>2026-04-09T08:29:36Z</time></trkpt><trkpt lat="38.04049898690908" lon="-1.1771056631855412"><ele>170.0</ele><time>2026-04-09T08:29:37Z</time></trkpt><trkpt lat="38.04049639097168" lon="-1.1769719901437314"><ele>170.5</ele><time>2026-04-09T08:29:39Z</time></trkpt><trkpt lat="38.040492636907615" lon="-1.1768892651791432"><ele>171.0</ele><time>2026-04-09T08:29:40Z</time></trkpt><trkpt lat="38.04048413472359" lon="-1.1768066133995383"><ele>171.5</ele><time>2026-04-09T08:29:41Z</time></trkpt><trkpt lat="38.04045121600333" lon="-1.1767133542062156"><ele>172.0</ele><time>2026-04-09T08:29:42Z</time></trkpt><trkpt lat="38.04042764357547" lon="-1.176624365148169"><ele>172.5</ele><time>2026-04-09T08:29:43Z</time></trkpt><trkpt lat="38.040415439327006" lon="-1.1765402304779478"><ele>173.0</ele><time>2026-04-09T08:29:44Z</time></trkpt><trkpt lat="38.040333719412295" lon="-1.1764593486740795"><ele>173.0</ele><time>2026-04-09T08:29:46Z</time></trkpt><trkpt lat="38.04025761724501" lon="-1.1764268479808113"><ele>173.0</ele><time>2026-04-09T08:29:48Z</time></trkpt><trkpt lat="38.040141771586974" lon="-1.1764597890316555"><ele>173.0</ele><time>2026-04-09T08:29:51Z</time></trkpt><trkpt lat="38.040092626278344" lon="-1.176524610761825"><ele>173.0</ele><time>2026-04-09T08:29:52Z</time></trkpt><trkpt lat="38.04002451313859" lon="-1.1766094329770203"><ele>173.0</ele><time>2026-04-09T08:29:54Z</time></trkpt><trkpt lat="38.039956151587404" lon="-1.1766425128785658"><ele>173.0</ele><time>2026-04-09T08:29:56Z</time></trkpt><trkpt lat="38.039864998817535" lon="-1.1767128499769408"><ele>174.2</ele><time>2026-04-09T08:29:58Z</time></trkpt><trkpt lat="38.03978771467853" lon="-1.1767699445906663"><ele>175.4</ele><time>2026-04-09T08:30:00Z</time></trkpt><trkpt lat="38.039725305222284" lon="-1.1768183786783921"><ele>176.6</ele><time>2026-04-09T08:30:02Z</time></trkpt><trkpt lat="38.03961843645011" lon="-1.1768583095426002"><ele>177.79999999999998</ele><time>2026-04-09T08:30:04Z</time></trkpt><trkpt lat="38.03948873210482" lon="-1.176897532497946"><ele>179.0</ele><time>2026-04-09T08:30:06Z</time></trkpt><trkpt lat="38.03940898069907" lon="-1.1769099179735043"><ele>179.0</ele><time>2026-04-09T08:30:07Z</time></trkpt><trkpt lat="38.039314682268234" lon="-1.1769055870113725"><ele>179.0</ele><time>2026-04-09T08:30:08Z</time></trkpt><trkpt lat="38.03921415316155" lon="-1.1768890469801216"><ele>179.0</ele><time>2026-04-09T08:30:09Z</time></trkpt><trkpt lat="38.03911796290187" lon="-1.176858907480957"><ele>179.0</ele><time>2026-04-09T08:30:10Z</time></trkpt><trkpt lat="38.039021081043046" lon="-1.176824569815321"><ele>179.0</ele><time>2026-04-09T08:30:11Z</time></trkpt><trkpt lat="38.03892371038344" lon="-1.176787995062927"><ele>179.79999999999998</ele><time>2026-04-09T08:30:12Z</time></trkpt><trkpt lat="38.03882173295888" lon="-1.1767472086651871"><ele>180.6</ele><time>2026-04-09T08:30:13Z</time></trkpt><trkpt lat="38.03872548702094" lon="-1.1767132703907237"><ele>181.4</ele><time>2026-04-09T08:30:14Z</time></trkpt><trkpt lat="38.03861746633611" lon="-1.1766860732227695"><ele>182.2</ele><time>2026-04-09T08:30:15Z</time></trkpt><trkpt lat="38.038490223810065" lon="-1.1766748860854275"><ele>183.0</ele><time>2026-04-09T08:30:16Z</time></trkpt><trkpt lat="38.03837480304916" lon="-1.1767129651192172"><ele>181.83333333333334</ele><time>2026-04-09T08:30:17Z</time></trkpt><trkpt lat="38.03827092199775" lon="-1.17670928009016"><ele>180.66666666666666</ele><time>2026-04-09T08:30:18Z</time></trkpt><trkpt lat="38.038178241688435" lon="-1.1767207153250359"><ele>179.5</ele><time>2026-04-09T08:30:19Z</time></trkpt><trkpt lat="38.03809015961286" lon="-1.1767323419635505"><ele>178.33333333333331</ele><time>2026-04-09T08:30:20Z</time></trkpt><trkpt lat="38.0380066965567" lon="-1.1767419172304399"><ele>177.16666666666666</ele><time>2026-04-09T08:30:21Z</time></trkpt><trkpt lat="38.03792893279581" lon="-1.176747901452007"><ele>176.0</ele><time>2026-04-09T08:30:22Z</time></trkpt><trkpt lat="38.03785494479123" lon="-1.1767559188084045"><ele>176.0</ele><time>2026-04-09T08:30:23Z</time></trkpt><trkpt lat="38.037747771209524" lon="-1.176773037140854"><ele>176.0</ele><time>2026-04-09T08:30:25Z</time></trkpt><trkpt lat="38.037657912061775" lon="-1.1765603534599913"><ele>176.0</ele><time>2026-04-09T08:30:30Z</time></trkpt><trkpt lat="38.03769538446448" lon="-1.1764877013931692"><ele>176.0</ele><time>2026-04-09T08:30:33Z</time></trkpt><trkpt lat="38.037739319767205" lon="-1.1764109609215414"><ele>176.0</ele><time>2026-04-09T08:30:37Z</time></trkpt><trkpt lat="38.0377992027089" lon="-1.1763267237363526"><ele>177.83333333333331</ele><time>2026-04-09T08:30:40Z</time></trkpt><trkpt lat="38.03784791937392" lon="-1.1762621399371376"><ele>179.66666666666666</ele><time>2026-04-09T08:30:43Z</time></trkpt><trkpt lat="38.03790008940047" lon="-1.1762052906102756"><ele>181.5</ele><time>2026-04-09T08:30:47Z</time></trkpt><trkpt lat="38.03783751886719" lon="-1.1762759278426524"><ele>183.33333333333334</ele><time>2026-04-09T08:30:51Z</time></trkpt><trkpt lat="38.03791550218383" lon="-1.1761947330902702"><ele>185.16666666666669</ele><time>2026-04-09T08:31:12Z</time></trkpt><trkpt lat="38.03797291659663" lon="-1.1760999779978685"><ele>187.0</ele><time>2026-04-09T08:31:13Z</time></trkpt><trkpt lat="38.03802283050084" lon="-1.1759898337500714"><ele>187.0</ele><time>2026-04-09T08:31:14Z</time></trkpt><trkpt lat="38.038058881819886" lon="-1.1758783372756874"><ele>187.0</ele><time>2026-04-09T08:31:15Z</time></trkpt><trkpt lat="38.038063339936684" lon="-1.1757542205875575"><ele>187.0</ele><time>2026-04-09T08:31:16Z</time></trkpt><trkpt lat="38.03805752993352" lon="-1.1756322757724258"><ele>187.0</ele><time>2026-04-09T08:31:17Z</time></trkpt><trkpt lat="38.038045921635565" lon="-1.1754761758124215"><ele>187.0</ele><time>2026-04-09T08:31:18Z</time></trkpt><trkpt lat="38.03802805171864" lon="-1.175313020262194"><ele>187.0</ele><time>2026-04-09T08:31:19Z</time></trkpt><trkpt lat="38.03800181167964" lon="-1.1751750265953984"><ele>187.0</ele><time>2026-04-09T08:31:20Z</time></trkpt><trkpt lat="38.03798421296293" lon="-1.1750481407172446"><ele>187.0</ele><time>2026-04-09T08:31:21Z</time></trkpt><trkpt lat="38.037981333402776" lon="-1.1749286578851719"><ele>187.0</ele><time>2026-04-09T08:31:22Z</time></trkpt><trkpt lat="38.03800756761142" lon="-1.1748230775598056"><ele>187.0</ele><time>2026-04-09T08:31:23Z</time></trkpt><trkpt lat="38.03807532969753" lon="-1.1747308850055154"><ele>187.0</ele><time>2026-04-09T08:31:24Z</time></trkpt><trkpt lat="38.03814996022312" lon="-1.1746461723993584"><ele>187.0</ele><time>2026-04-09T08:31:25Z</time></trkpt><trkpt lat="38.03819991048556" lon="-1.1745648533212023"><ele>187.0</ele><time>2026-04-09T08:31:26Z</time></trkpt><trkpt lat="38.038234842224156" lon="-1.1744423848194887"><ele>187.0</ele><time>2026-04-09T08:31:28Z</time></trkpt><trkpt lat="38.03812126984326" lon="-1.1743533516418883"><ele>187.0</ele><time>2026-04-09T08:31:31Z</time></trkpt><trkpt lat="38.03804815187734" lon="-1.1743431904198414"><ele>187.0</ele><time>2026-04-09T08:31:32Z</time></trkpt><trkpt lat="38.037962817430305" lon="-1.17434011211983"><ele>187.0</ele><time>2026-04-09T08:31:33Z</time></trkpt><trkpt lat="38.03786304308963" lon="-1.1743430907740453"><ele>187.0</ele><time>2026-04-09T08:31:34Z</time></trkpt><trkpt lat="38.037752826023066" lon="-1.1743358900766923"><ele>187.0</ele><time>2026-04-09T08:31:35Z</time></trkpt><trkpt lat="38.03765105272915" lon="-1.1743291746439153"><ele>187.0</ele><time>2026-04-09T08:31:36Z</time></trkpt><trkpt lat="38.0375456010293" lon="-1.1743256500563797"><ele>185.66666666666669</ele><time>2026-04-09T08:31:37Z</time></trkpt><trkpt lat="38.03746610847581" lon="-1.1743199291072628"><ele>184.33333333333334</ele><time>2026-04-09T08:31:38Z</time></trkpt><trkpt lat="38.03741640189493" lon="-1.1742383888902939"><ele>183.0</ele><time>2026-04-09T08:32:05Z</time></trkpt><trkpt lat="38.037331823682585" lon="-1.174203672744948"><ele>181.66666666666666</ele><time>2026-04-09T08:32:08Z</time></trkpt><trkpt lat="38.03725598545852" lon="-1.1741713784337406"><ele>180.33333333333331</ele><time>2026-04-09T08:32:40Z</time></trkpt><trkpt lat="38.03717710782643" lon="-1.1740932608314052"><ele>179.0</ele><time>2026-04-09T08:32:42Z</time></trkpt><trkpt lat="38.03708695693148" lon="-1.1739996889146502"><ele>178.33333333333331</ele><time>2026-04-09T08:32:44Z</time></trkpt><trkpt lat="38.03702920441512" lon="-1.1739609807677833"><ele>177.66666666666666</ele><time>2026-04-09T08:32:45Z</time></trkpt><trkpt lat="38.036968295228604" lon="-1.173919952438664"><ele>177.0</ele><time>2026-04-09T08:32:46Z</time></trkpt><trkpt lat="38.03691219725544" lon="-1.1738482304477822"><ele>176.33333333333334</ele><time>2026-04-09T08:32:47Z</time></trkpt><trkpt lat="38.03685509113547" lon="-1.1737560706180707"><ele>175.66666666666669</ele><time>2026-04-09T08:32:48Z</time></trkpt><trkpt lat="38.036807976188136" lon="-1.1736742962858961"><ele>175.0</ele><time>2026-04-09T08:32:49Z</time></trkpt><trkpt lat="38.03677411599381" lon="-1.173599740874258"><ele>175.0</ele><time>2026-04-09T08:32:50Z</time></trkpt><trkpt lat="38.03673534926602" lon="-1.173524874467755"><ele>175.0</ele><time>2026-04-09T08:32:51Z</time></trkpt><trkpt lat="38.03668110463236" lon="-1.1734575682064636"><ele>175.0</ele><time>2026-04-09T08:32:52Z</time></trkpt><trkpt lat="38.036617014787886" lon="-1.173399052332162"><ele>175.0</ele><time>2026-04-09T08:32:53Z</time></trkpt><trkpt lat="38.036549615400475" lon="-1.17333905032637"><ele>175.0</ele><time>2026-04-09T08:32:54Z</time></trkpt><trkpt lat="38.03647321531121" lon="-1.1732712090746018"><ele>175.0</ele><time>2026-04-09T08:32:55Z</time></trkpt><trkpt lat="38.036394849386326" lon="-1.1731996757277396"><ele>173.83333333333334</ele><time>2026-04-09T08:32:56Z</time></trkpt><trkpt lat="38.03631709055596" lon="-1.1731308104259637"><ele>172.66666666666669</ele><time>2026-04-09T08:32:57Z</time></trkpt><trkpt lat="38.03624163808703" lon="-1.1730652545648848"><ele>171.5</ele><time>2026-04-09T08:32:58Z</time></trkpt><trkpt lat="38.03617284490712" lon="-1.1730055574927016"><ele>170.33333333333334</ele><time>2026-04-09T08:32:59Z</time></trkpt><trkpt lat="38.03610445604867" lon="-1.1729590015353923"><ele>169.16666666666666</ele><time>2026-04-09T08:33:00Z</time></trkpt><trkpt lat="38.03603172705062" lon="-1.1729134763105418"><ele>168.0</ele><time>2026-04-09T08:33:01Z</time></trkpt><trkpt lat="38.03595953100366" lon="-1.1728698471300512"><ele>168.0</ele><time>2026-04-09T08:33:02Z</time></trkpt><trkpt lat="38.035883156349136" lon="-1.17281682947683"><ele>168.0</ele><time>2026-04-09T08:33:03Z</time></trkpt><trkpt lat="38.03582623865097" lon="-1.1727533625189577"><ele>168.0</ele><time>2026-04-09T08:33:04Z</time></trkpt><trkpt lat="38.03579076875489" lon="-1.172679092684756"><ele>168.0</ele><time>2026-04-09T08:33:05Z</time></trkpt><trkpt lat="38.035728313140304" lon="-1.172552062026532"><ele>168.0</ele><time>2026-04-09T08:33:07Z</time></trkpt><trkpt lat="38.035631862133364" lon="-1.172484569821524"><ele>165.4</ele><time>2026-04-09T08:33:09Z</time></trkpt><trkpt lat="38.03554876896245" lon="-1.1724254193167525"><ele>162.8</ele><time>2026-04-09T08:33:11Z</time></trkpt><trkpt lat="38.035410167604766" lon="-1.1723926012654182"><ele>160.2</ele><time>2026-04-09T08:33:13Z</time></trkpt><trkpt lat="38.03532679764888" lon="-1.1723866466442243"><ele>157.6</ele><time>2026-04-09T08:33:15Z</time></trkpt><trkpt lat="38.03525367093909" lon="-1.1723719882574557"><ele>155.0</ele><time>2026-04-09T08:33:21Z</time></trkpt><trkpt lat="38.03518656524202" lon="-1.1723284363347244"><ele>154.75</ele><time>2026-04-09T08:33:25Z</time></trkpt><trkpt lat="38.03511889345014" lon="-1.1723220777934076"><ele>154.5</ele><time>2026-04-09T08:33:28Z</time></trkpt><trkpt lat="38.035037266348624" lon="-1.1723055793686388"><ele>154.25</ele><time>2026-04-09T08:33:31Z</time></trkpt><trkpt lat="38.03494893274183" lon="-1.172297864801732"><ele>154.0</ele><time>2026-04-09T08:33:34Z</time></trkpt><trkpt lat="38.03471331861658" lon="-1.1722847184739729"><ele>152.83333333333334</ele><time>2026-04-09T08:33:36Z</time></trkpt><trkpt lat="38.03463904137839" lon="-1.1722753108829225"><ele>151.66666666666669</ele><time>2026-04-09T08:33:37Z</time></trkpt><trkpt lat="38.03457623966215" lon="-1.1722659512392135"><ele>150.5</ele><time>2026-04-09T08:33:38Z</time></trkpt><trkpt lat="38.03449176016238" lon="-1.1722711179997718"><ele>149.33333333333334</ele><time>2026-04-09T08:33:40Z</time></trkpt><trkpt lat="38.03443334693842" lon="-1.1723460461182953"><ele>148.16666666666666</ele><time>2026-04-09T08:33:43Z</time></trkpt><trkpt lat="38.03451606885258" lon="-1.1722986872139116"><ele>147.0</ele><time>2026-04-09T08:34:43Z</time></trkpt><trkpt lat="38.03461154537004" lon="-1.17225951107642"><ele>147.0</ele><time>2026-04-09T08:34:45Z</time></trkpt><trkpt lat="38.03468085472867" lon="-1.1722696893163917"><ele>147.0</ele><time>2026-04-09T08:34:46Z</time></trkpt><trkpt lat="38.03475133652913" lon="-1.1722857163446592"><ele>147.0</ele><time>2026-04-09T08:34:47Z</time></trkpt><trkpt lat="38.034825693972124" lon="-1.1722981153322676"><ele>147.0</ele><time>2026-04-09T08:34:48Z</time></trkpt><trkpt lat="38.03490235846757" lon="-1.172303620531967"><ele>147.0</ele><time>2026-04-09T08:34:49Z</time></trkpt><trkpt lat="38.035023108128144" lon="-1.1723093293217517"><ele>147.0</ele><time>2026-04-09T08:34:51Z</time></trkpt><trkpt lat="38.03510657533712" lon="-1.1723363142621777"><ele>148.4</ele><time>2026-04-09T08:34:53Z</time></trkpt><trkpt lat="38.03518022555502" lon="-1.1723072616885488"><ele>149.79999999999998</ele><time>2026-04-09T08:34:55Z</time></trkpt><trkpt lat="38.03524473669356" lon="-1.1722020708876895"><ele>151.2</ele><time>2026-04-09T08:34:58Z</time></trkpt><trkpt lat="38.03532340749278" lon="-1.1721382521948165"><ele>152.6</ele><time>2026-04-09T08:35:00Z</time></trkpt><trkpt lat="38.03541081781097" lon="-1.1721787302949318"><ele>154.0</ele><time>2026-04-09T08:35:02Z</time></trkpt><trkpt lat="38.03549391913001" lon="-1.1723105561202314"><ele>154.16666666666669</ele><time>2026-04-09T08:35:04Z</time></trkpt><trkpt lat="38.035535564607024" lon="-1.1723915316839277"><ele>154.33333333333334</ele><time>2026-04-09T08:35:05Z</time></trkpt><trkpt lat="38.03558029015404" lon="-1.172455006600094"><ele>154.5</ele><time>2026-04-09T08:35:06Z</time></trkpt><trkpt lat="38.03563660242339" lon="-1.1724978619688227"><ele>154.66666666666666</ele><time>2026-04-09T08:35:07Z</time></trkpt><trkpt lat="38.03573584400582" lon="-1.1725692730271082"><ele>154.83333333333331</ele><time>2026-04-09T08:35:09Z</time></trkpt><trkpt lat="38.03581413393768" lon="-1.1726742968667232"><ele>155.0</ele><time>2026-04-09T08:35:11Z</time></trkpt><trkpt lat="38.035850582763636" lon="-1.1727647947216122"><ele>157.16666666666666</ele><time>2026-04-09T08:35:13Z</time></trkpt><trkpt lat="38.0358986290348" lon="-1.1728228500126403"><ele>159.33333333333331</ele><time>2026-04-09T08:35:15Z</time></trkpt><trkpt lat="38.0359802983235" lon="-1.1728788364558775"><ele>161.5</ele><time>2026-04-09T08:35:19Z</time></trkpt><trkpt lat="38.036105827110646" lon="-1.1729574617247145"><ele>163.66666666666666</ele><time>2026-04-09T08:35:21Z</time></trkpt><trkpt lat="38.036157316671144" lon="-1.1730170422060096"><ele>165.83333333333334</ele><time>2026-04-09T08:35:22Z</time></trkpt><trkpt lat="38.0362245960485" lon="-1.173060365284997"><ele>168.0</ele><time>2026-04-09T08:35:23Z</time></trkpt><trkpt lat="38.03629066907456" lon="-1.1731095620934489"><ele>168.0</ele><time>2026-04-09T08:35:24Z</time></trkpt><trkpt lat="38.03636660515314" lon="-1.1731774121302496"><ele>168.0</ele><time>2026-04-09T08:35:26Z</time></trkpt><trkpt lat="38.0363018685642" lon="-1.1731150003212718"><ele>168.0</ele><time>2026-04-09T08:35:49Z</time></trkpt><trkpt lat="38.0362176508607" lon="-1.1730455524187364"><ele>168.0</ele><time>2026-04-09T08:35:51Z</time></trkpt><trkpt lat="38.03614575492167" lon="-1.172991871744915"><ele>168.0</ele><time>2026-04-09T08:35:52Z</time></trkpt><trkpt lat="38.03606115572891" lon="-1.1729350585955067"><ele>168.0</ele><time>2026-04-09T08:35:53Z</time></trkpt><trkpt lat="38.03598642497151" lon="-1.172887842724662"><ele>168.0</ele><time>2026-04-09T08:35:54Z</time></trkpt><trkpt lat="38.03591876124574" lon="-1.1728450676873194"><ele>168.0</ele><time>2026-04-09T08:35:55Z</time></trkpt><trkpt lat="38.03585736868105" lon="-1.172789941925816"><ele>168.0</ele><time>2026-04-09T08:35:56Z</time></trkpt><trkpt lat="38.035810510677635" lon="-1.1727273012994772"><ele>168.0</ele><time>2026-04-09T08:35:57Z</time></trkpt><trkpt lat="38.03578587211282" lon="-1.1726496969114335"><ele>168.0</ele><time>2026-04-09T08:35:58Z</time></trkpt><trkpt lat="38.03571505169109" lon="-1.1725380440116937"><ele>165.83333333333334</ele><time>2026-04-09T08:36:00Z</time></trkpt><trkpt lat="38.03561746842602" lon="-1.1724751411127132"><ele>163.66666666666666</ele><time>2026-04-09T08:36:02Z</time></trkpt><trkpt lat="38.03552226562974" lon="-1.172411043128022"><ele>161.5</ele><time>2026-04-09T08:36:04Z</time></trkpt><trkpt lat="38.035449802339095" lon="-1.172392836168516"><ele>159.33333333333331</ele><time>2026-04-09T08:36:05Z</time></trkpt><trkpt lat="38.03537474989081" lon="-1.1723827315871984"><ele>157.16666666666666</ele><time>2026-04-09T08:36:06Z</time></trkpt><trkpt lat="38.03531182033256" lon="-1.172394438900763"><ele>155.0</ele><time>2026-04-09T08:36:09Z</time></trkpt><trkpt lat="38.0352391459189" lon="-1.1723585552365634"><ele>154.83333333333331</ele><time>2026-04-09T08:36:13Z</time></trkpt><trkpt lat="38.03515439455301" lon="-1.1723120011951773"><ele>154.66666666666666</ele><time>2026-04-09T08:36:16Z</time></trkpt><trkpt lat="38.03506522043774" lon="-1.1723213068491287"><ele>154.5</ele><time>2026-04-09T08:36:19Z</time></trkpt><trkpt lat="38.03498963619298" lon="-1.1723020232144257"><ele>154.33333333333334</ele><time>2026-04-09T08:36:21Z</time></trkpt><trkpt lat="38.03490833937867" lon="-1.1722920818160052"><ele>154.16666666666669</ele><time>2026-04-09T08:36:23Z</time></trkpt><trkpt lat="38.0348099950729" lon="-1.172291917986323"><ele>154.0</ele><time>2026-04-09T08:36:25Z</time></trkpt><trkpt lat="38.034728894015934" lon="-1.1722823733056948"><ele>152.8</ele><time>2026-04-09T08:36:26Z</time></trkpt><trkpt lat="38.03465290993808" lon="-1.1722714459827372"><ele>151.60000000000002</ele><time>2026-04-09T08:36:27Z</time></trkpt><trkpt lat="38.0345890478583" lon="-1.172261050230253"><ele>150.4</ele><time>2026-04-09T08:36:28Z</time></trkpt><trkpt lat="38.03449415580644" lon="-1.1722924188332062"><ele>149.20000000000002</ele><time>2026-04-09T08:36:30Z</time></trkpt><trkpt lat="38.034404648319196" lon="-1.172436357255383"><ele>148.0</ele><time>2026-04-09T08:36:32Z</time></trkpt><trkpt lat="38.03434978436534" lon="-1.1725191961272845"><ele>148.0</ele><time>2026-04-09T08:36:33Z</time></trkpt><trkpt lat="38.03429769669668" lon="-1.1725931163052385"><ele>148.0</ele><time>2026-04-09T08:36:34Z</time></trkpt><trkpt lat="38.034241159472344" lon="-1.1726461523297684"><ele>148.0</ele><time>2026-04-09T08:36:35Z</time></trkpt><trkpt lat="38.034179523152766" lon="-1.1726853043719427"><ele>148.0</ele><time>2026-04-09T08:36:36Z</time></trkpt><trkpt lat="38.034107477658765" lon="-1.1727287785530291"><ele>148.0</ele><time>2026-04-09T08:36:37Z</time></trkpt><trkpt lat="38.0340298147487" lon="-1.172776237794379"><ele>148.0</ele><time>2026-04-09T08:36:38Z</time></trkpt><trkpt lat="38.0339495616581" lon="-1.172830804563101"><ele>147.20000000000002</ele><time>2026-04-09T08:36:39Z</time></trkpt><trkpt lat="38.03388268556379" lon="-1.1728858162529106"><ele>146.4</ele><time>2026-04-09T08:36:40Z</time></trkpt><trkpt lat="38.03383138368589" lon="-1.172945134372386"><ele>145.60000000000002</ele><time>2026-04-09T08:36:41Z</time></trkpt><trkpt lat="38.033788566101855" lon="-1.1730063328188842"><ele>144.8</ele><time>2026-04-09T08:36:42Z</time></trkpt><trkpt lat="38.0337021817772" lon="-1.1731168176816287"><ele>144.0</ele><time>2026-04-09T08:36:44Z</time></trkpt><trkpt lat="38.03361355288211" lon="-1.173238592879986"><ele>143.83333333333334</ele><time>2026-04-09T08:36:46Z</time></trkpt><trkpt lat="38.03356211583978" lon="-1.1733046667378155"><ele>143.66666666666666</ele><time>2026-04-09T08:36:47Z</time></trkpt><trkpt lat="38.03348370941631" lon="-1.173380898672685"><ele>143.5</ele><time>2026-04-09T08:36:48Z</time></trkpt><trkpt lat="38.03341163754642" lon="-1.1734656145662676"><ele>143.33333333333331</ele><time>2026-04-09T08:36:49Z</time></trkpt><trkpt lat="38.03335718058735" lon="-1.173548501964045"><ele>143.16666666666666</ele><time>2026-04-09T08:36:50Z</time></trkpt><trkpt lat="38.03330979223482" lon="-1.173626330275432"><ele>143.0</ele><time>2026-04-09T08:36:51Z</time></trkpt><trkpt lat="38.03325872218015" lon="-1.1736938873446157"><ele>143.0</ele><time>2026-04-09T08:36:52Z</time></trkpt><trkpt lat="38.033189071990556" lon="-1.1737774067255795"><ele>143.0</ele><time>2026-04-09T08:36:54Z</time></trkpt><trkpt lat="38.03312582170894" lon="-1.1738421750411914"><ele>143.0</ele><time>2026-04-09T08:36:56Z</time></trkpt><trkpt lat="38.0330703940778" lon="-1.173913323298587"><ele>143.0</ele><time>2026-04-09T08:36:57Z</time></trkpt><trkpt lat="38.03300299634653" lon="-1.1739931917682982"><ele>143.0</ele><time>2026-04-09T08:36:58Z</time></trkpt><trkpt lat="38.03295178477837" lon="-1.1740635968877922"><ele>143.0</ele><time>2026-04-09T08:36:59Z</time></trkpt><trkpt lat="38.03290774475019" lon="-1.1741331141050726"><ele>143.33333333333331</ele><time>2026-04-09T08:37:00Z</time></trkpt><trkpt lat="38.032858910180764" lon="-1.174193476493553"><ele>143.66666666666666</ele><time>2026-04-09T08:37:01Z</time></trkpt><trkpt lat="38.03281192016762" lon="-1.1742616487027673"><ele>144.0</ele><time>2026-04-09T08:37:02Z</time></trkpt><trkpt lat="38.032764948310316" lon="-1.174332664095909"><ele>144.33333333333334</ele><time>2026-04-09T08:37:03Z</time></trkpt><trkpt lat="38.03271506250183" lon="-1.174390359300145"><ele>144.66666666666669</ele><time>2026-04-09T08:37:04Z</time></trkpt><trkpt lat="38.032658151786485" lon="-1.1745186559979461"><ele>145.0</ele><time>2026-04-09T08:37:06Z</time></trkpt><trkpt lat="38.03261759834188" lon="-1.1746014387717942"><ele>145.0</ele><time>2026-04-09T08:37:07Z</time></trkpt><trkpt lat="38.03255880721736" lon="-1.1746786483245686"><ele>145.0</ele><time>2026-04-09T08:37:08Z</time></trkpt><trkpt lat="38.03251150624594" lon="-1.17475840824385"><ele>145.0</ele><time>2026-04-09T08:37:09Z</time></trkpt><trkpt lat="38.03245829404209" lon="-1.174833015182635"><ele>145.0</ele><time>2026-04-09T08:37:10Z</time></trkpt><trkpt lat="38.032401916938746" lon="-1.1749120594996076"><ele>145.0</ele><time>2026-04-09T08:37:11Z</time></trkpt><trkpt lat="38.03234333382768" lon="-1.1749941967909245"><ele>145.0</ele><time>2026-04-09T08:37:12Z</time></trkpt><trkpt lat="38.03228682284758" lon="-1.175073428812349"><ele>145.0</ele><time>2026-04-09T08:37:13Z</time></trkpt><trkpt lat="38.032234545037696" lon="-1.17514672565192"><ele>145.0</ele><time>2026-04-09T08:37:14Z</time></trkpt><trkpt lat="38.03217128034826" lon="-1.1752064053962548"><ele>145.0</ele><time>2026-04-09T08:37:15Z</time></trkpt><trkpt lat="38.03210681733162" lon="-1.175295228208301"><ele>145.0</ele><time>2026-04-09T08:37:16Z</time></trkpt><trkpt lat="38.032060189423795" lon="-1.1753912859239273"><ele>145.0</ele><time>2026-04-09T08:37:17Z</time></trkpt><trkpt lat="38.03199461598192" lon="-1.1754530667964986"><ele>145.0</ele><time>2026-04-09T08:37:18Z</time></trkpt><trkpt lat="38.031933118456806" lon="-1.1755415084344512"><ele>145.0</ele><time>2026-04-09T08:37:19Z</time></trkpt><trkpt lat="38.031871897101084" lon="-1.175637368523964"><ele>145.0</ele><time>2026-04-09T08:37:20Z</time></trkpt><trkpt lat="38.03180871308862" lon="-1.1757249016599924"><ele>145.0</ele><time>2026-04-09T08:37:21Z</time></trkpt><trkpt lat="38.03174610039256" lon="-1.1758130759778491"><ele>145.0</ele><time>2026-04-09T08:37:22Z</time></trkpt><trkpt lat="38.03168784529722" lon="-1.175890686281941"><ele>145.0</ele><time>2026-04-09T08:37:23Z</time></trkpt><trkpt lat="38.03163650763198" lon="-1.1759609905779786"><ele>145.0</ele><time>2026-04-09T08:37:24Z</time></trkpt><trkpt lat="38.03159464440309" lon="-1.1760322989452143"><ele>145.0</ele><time>2026-04-09T08:37:25Z</time></trkpt><trkpt lat="38.03155019846939" lon="-1.1760939544060958"><ele>145.0</ele><time>2026-04-09T08:37:27Z</time></trkpt><trkpt lat="38.03145936828272" lon="-1.176232025478852"><ele>145.0</ele><time>2026-04-09T08:37:33Z</time></trkpt><trkpt lat="38.031417025753576" lon="-1.1762918289902444"><ele>145.0</ele><time>2026-04-09T08:37:34Z</time></trkpt><trkpt lat="38.03136947208565" lon="-1.1763511426908542"><ele>145.0</ele><time>2026-04-09T08:37:35Z</time></trkpt><trkpt lat="38.031303309935346" lon="-1.1764556264007324"><ele>145.0</ele><time>2026-04-09T08:37:37Z</time></trkpt><trkpt lat="38.03115726176009" lon="-1.1763717600520467"><ele>145.0</ele><time>2026-04-09T08:37:38Z</time></trkpt><trkpt lat="38.03110013085662" lon="-1.1762710199111492"><ele>145.0</ele><time>2026-04-09T08:37:39Z</time></trkpt><trkpt lat="38.031013719190135" lon="-1.1761634265975327"><ele>145.0</ele><time>2026-04-09T08:37:40Z</time></trkpt><trkpt lat="38.03092880259713" lon="-1.1760683220582147"><ele>145.0</ele><time>2026-04-09T08:37:41Z</time></trkpt><trkpt lat="38.030846436334215" lon="-1.176000058456597"><ele>145.0</ele><time>2026-04-09T08:37:42Z</time></trkpt><trkpt lat="38.03076451191519" lon="-1.1759388290001713"><ele>145.2</ele><time>2026-04-09T08:37:43Z</time></trkpt><trkpt lat="38.03068455132387" lon="-1.1758709321148417"><ele>145.4</ele><time>2026-04-09T08:37:44Z</time></trkpt><trkpt lat="38.030602345582324" lon="-1.1758090941571993"><ele>145.6</ele><time>2026-04-09T08:37:45Z</time></trkpt><trkpt lat="38.03052747988595" lon="-1.1757422444064451"><ele>145.8</ele><time>2026-04-09T08:37:46Z</time></trkpt><trkpt lat="38.030448982027835" lon="-1.1756740779481345"><ele>146.0</ele><time>2026-04-09T08:37:47Z</time></trkpt><trkpt lat="38.0303798408797" lon="-1.1756163699247917"><ele>145.4</ele><time>2026-04-09T08:37:48Z</time></trkpt><trkpt lat="38.030319303705255" lon="-1.1755616521800258"><ele>144.8</ele><time>2026-04-09T08:37:49Z</time></trkpt><trkpt lat="38.03024356901459" lon="-1.1754935387378145"><ele>144.20000000000002</ele><time>2026-04-09T08:37:50Z</time></trkpt><trkpt lat="38.03017078620549" lon="-1.1754323442464183"><ele>143.6</ele><time>2026-04-09T08:37:51Z</time></trkpt><trkpt lat="38.03010192218479" lon="-1.175316201285558"><ele>143.0</ele><time>2026-04-09T08:37:52Z</time></trkpt><trkpt lat="38.03003317628792" lon="-1.1752012313890563"><ele>142.5</ele><time>2026-04-09T08:37:53Z</time></trkpt><trkpt lat="38.02995729212361" lon="-1.1750923658773171"><ele>142.0</ele><time>2026-04-09T08:37:54Z</time></trkpt><trkpt lat="38.02988115198066" lon="-1.1749712289923957"><ele>141.5</ele><time>2026-04-09T08:37:55Z</time></trkpt><trkpt lat="38.02980733238769" lon="-1.1748385546242603"><ele>141.0</ele><time>2026-04-09T08:37:56Z</time></trkpt><trkpt lat="38.029739117413456" lon="-1.1747204305802457"><ele>140.4</ele><time>2026-04-09T08:37:57Z</time></trkpt><trkpt lat="38.02967834061385" lon="-1.1746033557464706"><ele>139.8</ele><time>2026-04-09T08:37:58Z</time></trkpt><trkpt lat="38.02961397106036" lon="-1.1744906818208434"><ele>139.20000000000002</ele><time>2026-04-09T08:37:59Z</time></trkpt><trkpt lat="38.02954867465378" lon="-1.1743795374494008"><ele>138.6</ele><time>2026-04-09T08:38:00Z</time></trkpt><trkpt lat="38.02948824679511" lon="-1.1742748921219486"><ele>138.0</ele><time>2026-04-09T08:38:01Z</time></trkpt><trkpt lat="38.029431515778406" lon="-1.174174165223364"><ele>138.0</ele><time>2026-04-09T08:38:02Z</time></trkpt><trkpt lat="38.0293929005673" lon="-1.1740649515334696"><ele>138.0</ele><time>2026-04-09T08:38:03Z</time></trkpt><trkpt lat="38.0293456984895" lon="-1.1739741972366275"><ele>138.0</ele><time>2026-04-09T08:38:04Z</time></trkpt><trkpt lat="38.029300247131395" lon="-1.1738868089627439"><ele>138.0</ele><time>2026-04-09T08:38:05Z</time></trkpt><trkpt lat="38.02925218158596" lon="-1.173810131732083"><ele>138.0</ele><time>2026-04-09T08:38:06Z</time></trkpt><trkpt lat="38.02920602179417" lon="-1.173700658542191"><ele>138.0</ele><time>2026-04-09T08:38:08Z</time></trkpt><trkpt lat="38.02915146993579" lon="-1.1735895803051295"><ele>137.66666666666666</ele><time>2026-04-09T08:38:11Z</time></trkpt><trkpt lat="38.02908713584115" lon="-1.1734570838983762"><ele>137.33333333333334</ele><time>2026-04-09T08:38:13Z</time></trkpt><trkpt lat="38.02905043924223" lon="-1.1733810205504818"><ele>137.0</ele><time>2026-04-09T08:38:14Z</time></trkpt><trkpt lat="38.029003252323086" lon="-1.1733184742781422"><ele>136.66666666666669</ele><time>2026-04-09T08:38:15Z</time></trkpt><trkpt lat="38.02896243646933" lon="-1.173226054455495"><ele>136.33333333333334</ele><time>2026-04-09T08:38:17Z</time></trkpt><trkpt lat="38.02892486457542" lon="-1.1731551711600812"><ele>136.0</ele><time>2026-04-09T08:38:18Z</time></trkpt><trkpt lat="38.02888398129633" lon="-1.1730636618787735"><ele>135.83333333333334</ele><time>2026-04-09T08:38:19Z</time></trkpt><trkpt lat="38.028844490906515" lon="-1.1729921880423086"><ele>135.66666666666669</ele><time>2026-04-09T08:38:20Z</time></trkpt><trkpt lat="38.02880446371232" lon="-1.1729291271223625"><ele>135.5</ele><time>2026-04-09T08:38:21Z</time></trkpt><trkpt lat="38.02874448010385" lon="-1.172806223546634"><ele>135.33333333333334</ele><time>2026-04-09T08:38:23Z</time></trkpt><trkpt lat="38.02871303074439" lon="-1.172728745178909"><ele>135.16666666666666</ele><time>2026-04-09T08:38:25Z</time></trkpt><trkpt lat="38.02875898463054" lon="-1.1726183185288754"><ele>135.0</ele><time>2026-04-09T08:39:30Z</time></trkpt><trkpt lat="38.0288380133353" lon="-1.1725878441184403"><ele>135.0</ele><time>2026-04-09T08:39:32Z</time></trkpt><trkpt lat="38.028926536351676" lon="-1.1725735728780138"><ele>135.0</ele><time>2026-04-09T08:39:34Z</time></trkpt><trkpt lat="38.0290385666736" lon="-1.1726563740480522"><ele>135.0</ele><time>2026-04-09T08:39:36Z</time></trkpt><trkpt lat="38.02908886813382" lon="-1.17274265350144"><ele>135.0</ele><time>2026-04-09T08:39:37Z</time></trkpt><trkpt lat="38.02913592180224" lon="-1.17283897004605"><ele>135.0</ele><time>2026-04-09T08:39:38Z</time></trkpt><trkpt lat="38.029188957504296" lon="-1.1729434894236384"><ele>135.6</ele><time>2026-04-09T08:39:39Z</time></trkpt><trkpt lat="38.02923653537596" lon="-1.173036318722429"><ele>136.2</ele><time>2026-04-09T08:39:40Z</time></trkpt><trkpt lat="38.02927707572862" lon="-1.1731135994953252"><ele>136.8</ele><time>2026-04-09T08:39:41Z</time></trkpt><trkpt lat="38.02934683272412" lon="-1.1732312053434821"><ele>137.4</ele><time>2026-04-09T08:39:43Z</time></trkpt><trkpt lat="38.02938297586982" lon="-1.1733359469801437"><ele>138.0</ele><time>2026-04-09T08:39:45Z</time></trkpt><trkpt lat="38.02941503374472" lon="-1.1734503812123138"><ele>138.0</ele><time>2026-04-09T08:39:47Z</time></trkpt><trkpt lat="38.02946460673501" lon="-1.1735282795231803"><ele>138.0</ele><time>2026-04-09T08:39:50Z</time></trkpt><trkpt lat="38.02954756267725" lon="-1.1737141591539053"><ele>138.0</ele><time>2026-04-09T08:41:53Z</time></trkpt><trkpt lat="38.0295927009557" lon="-1.1737813738847873"><ele>138.0</ele><time>2026-04-09T08:41:54Z</time></trkpt><trkpt lat="38.029694713621566" lon="-1.1739083218507163"><ele>138.0</ele><time>2026-04-09T08:41:56Z</time></trkpt><trkpt lat="38.02976846053019" lon="-1.1740184293938951"><ele>138.0</ele><time>2026-04-09T08:41:57Z</time></trkpt><trkpt lat="38.02987180583571" lon="-1.1741792196782754"><ele>138.0</ele><time>2026-04-09T08:41:58Z</time></trkpt><trkpt lat="38.02997403316642" lon="-1.1743303121011082"><ele>138.0</ele><time>2026-04-09T08:41:59Z</time></trkpt><trkpt lat="38.03006571448377" lon="-1.1744706240985552"><ele>138.0</ele><time>2026-04-09T08:42:00Z</time></trkpt><trkpt lat="38.0301540282982" lon="-1.1746201369123552"><ele>138.0</ele><time>2026-04-09T08:42:01Z</time></trkpt><trkpt lat="38.030232141963154" lon="-1.1747541857755044"><ele>138.0</ele><time>2026-04-09T08:42:02Z</time></trkpt><trkpt lat="38.03032099585194" lon="-1.1748907591762396"><ele>138.0</ele><time>2026-04-09T08:42:03Z</time></trkpt><trkpt lat="38.03040913907432" lon="-1.175019263111853"><ele>139.25</ele><time>2026-04-09T08:42:04Z</time></trkpt><trkpt lat="38.030490833952705" lon="-1.1751187994098868"><ele>140.5</ele><time>2026-04-09T08:42:05Z</time></trkpt><trkpt lat="38.03056863089772" lon="-1.1752244936267255"><ele>141.75</ele><time>2026-04-09T08:42:06Z</time></trkpt><trkpt lat="38.03065341262581" lon="-1.175310495060533"><ele>143.0</ele><time>2026-04-09T08:42:07Z</time></trkpt><trkpt lat="38.03076583041644" lon="-1.175406094914434"><ele>143.5</ele><time>2026-04-09T08:42:08Z</time></trkpt><trkpt lat="38.030872998739596" lon="-1.1754856063602235"><ele>144.0</ele><time>2026-04-09T08:42:09Z</time></trkpt><trkpt lat="38.0309751364399" lon="-1.1755716294798526"><ele>144.5</ele><time>2026-04-09T08:42:10Z</time></trkpt><trkpt lat="38.03107005106686" lon="-1.175644056440498"><ele>145.0</ele><time>2026-04-09T08:42:11Z</time></trkpt><trkpt lat="38.03115569365533" lon="-1.17571732120017"><ele>145.0</ele><time>2026-04-09T08:42:12Z</time></trkpt><trkpt lat="38.0312288977157" lon="-1.1757821428966106"><ele>145.0</ele><time>2026-04-09T08:42:13Z</time></trkpt><trkpt lat="38.03129946801697" lon="-1.1758519949914326"><ele>145.0</ele><time>2026-04-09T08:42:14Z</time></trkpt><trkpt lat="38.03135891019784" lon="-1.1759154590313818"><ele>145.0</ele><time>2026-04-09T08:42:15Z</time></trkpt><trkpt lat="38.03141539628666" lon="-1.1759734173696277"><ele>145.0</ele><time>2026-04-09T08:42:16Z</time></trkpt><trkpt lat="38.03147318903198" lon="-1.1760799109277391"><ele>145.0</ele><time>2026-04-09T08:42:18Z</time></trkpt><trkpt lat="38.031456685797984" lon="-1.176168928016367"><ele>145.0</ele><time>2026-04-09T08:42:19Z</time></trkpt><trkpt lat="38.03141363329203" lon="-1.1762612123536085"><ele>145.0</ele><time>2026-04-09T08:42:20Z</time></trkpt><trkpt lat="38.03136017015696" lon="-1.1763415962981947"><ele>145.0</ele><time>2026-04-09T08:42:21Z</time></trkpt><trkpt lat="38.03131788170123" lon="-1.1764537531630828"><ele>145.0</ele><time>2026-04-09T08:42:23Z</time></trkpt><trkpt lat="38.03139767390271" lon="-1.1765728661871853"><ele>145.0</ele><time>2026-04-09T08:42:25Z</time></trkpt><trkpt lat="38.031482713466445" lon="-1.1766301412093123"><ele>145.33333333333334</ele><time>2026-04-09T08:42:26Z</time></trkpt><trkpt lat="38.031570005408724" lon="-1.1767043164184412"><ele>145.66666666666669</ele><time>2026-04-09T08:42:27Z</time></trkpt><trkpt lat="38.0316246041518" lon="-1.1767583496184373"><ele>146.0</ele><time>2026-04-09T08:42:28Z</time></trkpt><trkpt lat="38.03168799669732" lon="-1.1768000529892086"><ele>146.33333333333334</ele><time>2026-04-09T08:42:31Z</time></trkpt><trkpt lat="38.03173362930929" lon="-1.176874546029857"><ele>146.66666666666666</ele><time>2026-04-09T08:42:34Z</time></trkpt><trkpt lat="38.0317156588798" lon="-1.1770217866676813"><ele>147.0</ele><time>2026-04-09T08:42:36Z</time></trkpt><trkpt lat="38.031666581196895" lon="-1.177101918317646"><ele>147.5</ele><time>2026-04-09T08:42:37Z</time></trkpt><trkpt lat="38.03161649676243" lon="-1.1772299088083247"><ele>148.0</ele><time>2026-04-09T08:42:38Z</time></trkpt><trkpt lat="38.031572712860665" lon="-1.1773438396181164"><ele>148.5</ele><time>2026-04-09T08:42:39Z</time></trkpt><trkpt lat="38.03151273011135" lon="-1.177479218045513"><ele>149.0</ele><time>2026-04-09T08:42:40Z</time></trkpt><trkpt lat="38.031445447907636" lon="-1.177648968052729"><ele>150.66666666666666</ele><time>2026-04-09T08:42:41Z</time></trkpt><trkpt lat="38.03139212271014" lon="-1.1778230581595748"><ele>152.33333333333334</ele><time>2026-04-09T08:42:42Z</time></trkpt><trkpt lat="38.03131829679791" lon="-1.178005850191975"><ele>154.0</ele><time>2026-04-09T08:42:43Z</time></trkpt><trkpt lat="38.03124212758812" lon="-1.178196500031414"><ele>156.33333333333334</ele><time>2026-04-09T08:42:44Z</time></trkpt><trkpt lat="38.03116343250803" lon="-1.1783934723514078"><ele>158.66666666666666</ele><time>2026-04-09T08:42:45Z</time></trkpt><trkpt lat="38.03108278745977" lon="-1.178587792346583"><ele>161.0</ele><time>2026-04-09T08:42:46Z</time></trkpt><trkpt lat="38.030999384210986" lon="-1.1787812404813787"><ele>161.0</ele><time>2026-04-09T08:42:47Z</time></trkpt><trkpt lat="38.03093248869244" lon="-1.178946556266398"><ele>161.0</ele><time>2026-04-09T08:42:48Z</time></trkpt><trkpt lat="38.03086310543047" lon="-1.1790883666059273"><ele>161.0</ele><time>2026-04-09T08:42:49Z</time></trkpt><trkpt lat="38.030808853803165" lon="-1.1792539392517156"><ele>161.0</ele><time>2026-04-09T08:42:50Z</time></trkpt><trkpt lat="38.030786669125156" lon="-1.179441288461178"><ele>162.0</ele><time>2026-04-09T08:42:51Z</time></trkpt><trkpt lat="38.03073723880367" lon="-1.1796294825224156"><ele>163.0</ele><time>2026-04-09T08:42:52Z</time></trkpt><trkpt lat="38.03071493329751" lon="-1.1798149692878312"><ele>164.0</ele><time>2026-04-09T08:42:53Z</time></trkpt><trkpt lat="38.030691972369745" lon="-1.179957837856128"><ele>165.0</ele><time>2026-04-09T08:42:54Z</time></trkpt><trkpt lat="38.03066609989842" lon="-1.1800904406179484"><ele>165.0</ele><time>2026-04-09T08:42:55Z</time></trkpt><trkpt lat="38.03063997183732" lon="-1.1802183295719906"><ele>165.0</ele><time>2026-04-09T08:42:56Z</time></trkpt><trkpt lat="38.0306056396547" lon="-1.1803135572478456"><ele>165.0</ele><time>2026-04-09T08:42:57Z</time></trkpt><trkpt lat="38.03056790500609" lon="-1.1803967168253515"><ele>165.0</ele><time>2026-04-09T08:42:58Z</time></trkpt><trkpt lat="38.030519561356755" lon="-1.1804887434827052"><ele>165.0</ele><time>2026-04-09T08:43:00Z</time></trkpt><trkpt lat="38.03043544941319" lon="-1.1805569441304882"><ele>165.0</ele><time>2026-04-09T08:43:02Z</time></trkpt><trkpt lat="38.03034096936029" lon="-1.1806271233921388"><ele>165.0</ele><time>2026-04-09T08:43:04Z</time></trkpt><trkpt lat="38.03026753431156" lon="-1.1805909360171458"><ele>165.0</ele><time>2026-04-09T08:43:07Z</time></trkpt><trkpt lat="38.03020649562536" lon="-1.1804879300975109"><ele>165.0</ele><time>2026-04-09T08:43:09Z</time></trkpt><trkpt lat="38.030153911333464" lon="-1.1804291041958124"><ele>165.0</ele><time>2026-04-09T08:43:10Z</time></trkpt><trkpt lat="38.03007043006381" lon="-1.1803481927023138"><ele>165.0</ele><time>2026-04-09T08:43:12Z</time></trkpt><trkpt lat="38.03001590380626" lon="-1.1803009275400387"><ele>165.0</ele><time>2026-04-09T08:43:14Z</time></trkpt><trkpt lat="38.029950383920905" lon="-1.1802457583041646"><ele>164.0</ele><time>2026-04-09T08:43:17Z</time></trkpt><trkpt lat="38.029893532518" lon="-1.180201104502637"><ele>163.0</ele><time>2026-04-09T08:43:30Z</time></trkpt><trkpt lat="38.02983178506628" lon="-1.1801563939714212"><ele>162.0</ele><time>2026-04-09T08:43:31Z</time></trkpt><trkpt lat="38.02976345162653" lon="-1.1801241360381902"><ele>161.0</ele><time>2026-04-09T08:43:32Z</time></trkpt><trkpt lat="38.02975108386541" lon="-1.1799943293260682"><ele>160.0</ele><time>2026-04-09T08:43:33Z</time></trkpt><trkpt lat="38.029694722356446" lon="-1.1799503645183753"><ele>159.0</ele><time>2026-04-09T08:43:34Z</time></trkpt><trkpt lat="38.02963230469361" lon="-1.1799005453143476"><ele>158.66666666666666</ele><time>2026-04-09T08:43:35Z</time></trkpt><trkpt lat="38.029559811820015" lon="-1.1798426844703829"><ele>158.33333333333334</ele><time>2026-04-09T08:43:36Z</time></trkpt><trkpt lat="38.029491293900996" lon="-1.1797879963005162"><ele>158.0</ele><time>2026-04-09T08:43:37Z</time></trkpt><trkpt lat="38.02942763325687" lon="-1.179737184990077"><ele>157.66666666666669</ele><time>2026-04-09T08:43:38Z</time></trkpt><trkpt lat="38.029356129259035" lon="-1.1796790591860045"><ele>157.33333333333334</ele><time>2026-04-09T08:43:39Z</time></trkpt><trkpt lat="38.02927474754359" lon="-1.17962445759246"><ele>157.0</ele><time>2026-04-09T08:43:40Z</time></trkpt><trkpt lat="38.029203366345314" lon="-1.1795814744516067"><ele>156.0</ele><time>2026-04-09T08:43:41Z</time></trkpt><trkpt lat="38.02910527072518" lon="-1.1795390244580952"><ele>155.0</ele><time>2026-04-09T08:43:43Z</time></trkpt><trkpt lat="38.02874066974529" lon="-1.1800084358896281"><ele>155.0</ele><time>2026-04-09T08:43:45Z</time></trkpt><trkpt lat="38.02862846996669" lon="-1.1800679041076445"><ele>155.0</ele><time>2026-04-09T08:43:46Z</time></trkpt><trkpt lat="38.02851492737296" lon="-1.1801233865208036"><ele>155.0</ele><time>2026-04-09T08:43:47Z</time></trkpt><trkpt lat="38.02840922800572" lon="-1.1801500341353273"><ele>155.0</ele><time>2026-04-09T08:43:48Z</time></trkpt><trkpt lat="38.028315817777894" lon="-1.180179982695766"><ele>155.0</ele><time>2026-04-09T08:43:49Z</time></trkpt><trkpt lat="38.02823073391549" lon="-1.180220385333256"><ele>153.16666666666666</ele><time>2026-04-09T08:43:50Z</time></trkpt><trkpt lat="38.02814487622472" lon="-1.1802542205918478"><ele>151.33333333333331</ele><time>2026-04-09T08:43:51Z</time></trkpt><trkpt lat="38.02806202327077" lon="-1.1802929417101984"><ele>149.5</ele><time>2026-04-09T08:43:52Z</time></trkpt><trkpt lat="38.02798178477982" lon="-1.1803319386363305"><ele>147.66666666666666</ele><time>2026-04-09T08:43:53Z</time></trkpt><trkpt lat="38.027904526009586" lon="-1.1803639105354056"><ele>145.83333333333334</ele><time>2026-04-09T08:43:54Z</time></trkpt><trkpt lat="38.02783126646346" lon="-1.18038969395938"><ele>144.0</ele><time>2026-04-09T08:43:55Z</time></trkpt><trkpt lat="38.02775545446456" lon="-1.180411251159571"><ele>144.0</ele><time>2026-04-09T08:43:56Z</time></trkpt><trkpt lat="38.02768347145665" lon="-1.180440108665779"><ele>144.0</ele><time>2026-04-09T08:43:57Z</time></trkpt><trkpt lat="38.02761861116681" lon="-1.1804744688987996"><ele>144.0</ele><time>2026-04-09T08:43:58Z</time></trkpt><trkpt lat="38.02755312754062" lon="-1.180519024018982"><ele>144.0</ele><time>2026-04-09T08:43:59Z</time></trkpt><trkpt lat="38.02745805083344" lon="-1.1805812208450728"><ele>144.0</ele><time>2026-04-09T08:44:00Z</time></trkpt><trkpt lat="38.02734669823804" lon="-1.1806572498015082"><ele>142.8</ele><time>2026-04-09T08:44:01Z</time></trkpt><trkpt lat="38.02724183932777" lon="-1.1807210766734662"><ele>141.60000000000002</ele><time>2026-04-09T08:44:02Z</time></trkpt><trkpt lat="38.027139582640274" lon="-1.1807719410377162"><ele>140.4</ele><time>2026-04-09T08:44:03Z</time></trkpt><trkpt lat="38.02704229551912" lon="-1.1808079497658837"><ele>139.20000000000002</ele><time>2026-04-09T08:44:04Z</time></trkpt><trkpt lat="38.02692687644976" lon="-1.1808233092644242"><ele>138.0</ele><time>2026-04-09T08:44:05Z</time></trkpt><trkpt lat="38.026811672887256" lon="-1.1808431444025744"><ele>138.0</ele><time>2026-04-09T08:44:06Z</time></trkpt><trkpt lat="38.026719485536844" lon="-1.1808748014647674"><ele>138.0</ele><time>2026-04-09T08:44:07Z</time></trkpt><trkpt lat="38.02663419606243" lon="-1.180961674075993"><ele>138.0</ele><time>2026-04-09T08:44:09Z</time></trkpt><trkpt lat="38.02659990572146" lon="-1.1811125811338008"><ele>138.0</ele><time>2026-04-09T08:44:11Z</time></trkpt><trkpt lat="38.026598832579886" lon="-1.181238214460224"><ele>138.0</ele><time>2026-04-09T08:44:12Z</time></trkpt><trkpt lat="38.026599245394884" lon="-1.1813844227075116"><ele>137.83333333333334</ele><time>2026-04-09T08:44:13Z</time></trkpt><trkpt lat="38.026592905403625" lon="-1.1815094820051828"><ele>137.66666666666666</ele><time>2026-04-09T08:44:14Z</time></trkpt><trkpt lat="38.0265863035006" lon="-1.181606758902479"><ele>137.5</ele><time>2026-04-09T08:44:15Z</time></trkpt><trkpt lat="38.02658212769336" lon="-1.1817339653243508"><ele>137.33333333333331</ele><time>2026-04-09T08:44:17Z</time></trkpt><trkpt lat="38.02655191727097" lon="-1.1818140264648247"><ele>137.16666666666666</ele><time>2026-04-09T08:44:19Z</time></trkpt><trkpt lat="38.026452309043584" lon="-1.1818199389093256"><ele>137.0</ele><time>2026-04-09T08:44:21Z</time></trkpt><trkpt lat="38.02638697588769" lon="-1.1818554256279998"><ele>137.0</ele><time>2026-04-09T08:44:23Z</time></trkpt><trkpt lat="38.02631809288218" lon="-1.1819300433823148"><ele>137.0</ele><time>2026-04-09T08:44:25Z</time></trkpt><trkpt lat="38.02625977592351" lon="-1.1819944100723876"><ele>137.0</ele><time>2026-04-09T08:44:26Z</time></trkpt><trkpt lat="38.02619854616149" lon="-1.1820932670540147"><ele>137.0</ele><time>2026-04-09T08:44:33Z</time></trkpt><trkpt lat="38.02610836631371" lon="-1.1821921054865467"><ele>137.0</ele><time>2026-04-09T08:44:35Z</time></trkpt><trkpt lat="38.02603535782825" lon="-1.182316077066105"><ele>136.0</ele><time>2026-04-09T08:44:37Z</time></trkpt><trkpt lat="38.02593852017311" lon="-1.182452523912673"><ele>135.0</ele><time>2026-04-09T08:44:39Z</time></trkpt><trkpt lat="38.025888543258056" lon="-1.182531333917097"><ele>134.0</ele><time>2026-04-09T08:44:40Z</time></trkpt><trkpt lat="38.02585407994857" lon="-1.1826137679162363"><ele>133.0</ele><time>2026-04-09T08:44:41Z</time></trkpt><trkpt lat="38.02582680349203" lon="-1.1826892125730497"><ele>132.0</ele><time>2026-04-09T08:44:42Z</time></trkpt><trkpt lat="38.02579384155571" lon="-1.182764416946503"><ele>131.0</ele><time>2026-04-09T08:44:43Z</time></trkpt><trkpt lat="38.025772214042135" lon="-1.1828607052023825"><ele>132.8</ele><time>2026-04-09T08:44:44Z</time></trkpt><trkpt lat="38.025750844962886" lon="-1.1829582991894394"><ele>134.6</ele><time>2026-04-09T08:44:45Z</time></trkpt><trkpt lat="38.02570107325036" lon="-1.1830876417595002"><ele>136.4</ele><time>2026-04-09T08:44:47Z</time></trkpt><trkpt lat="38.02564221579554" lon="-1.1831339570395323"><ele>138.2</ele><time>2026-04-09T08:44:49Z</time></trkpt><trkpt lat="38.0255994699662" lon="-1.1833003147190488"><ele>140.0</ele><time>2026-04-09T08:44:51Z</time></trkpt><trkpt lat="38.02558977432511" lon="-1.183386965598742"><ele>140.0</ele><time>2026-04-09T08:44:52Z</time></trkpt><trkpt lat="38.025605652678486" lon="-1.1835237804624796"><ele>140.0</ele><time>2026-04-09T08:44:54Z</time></trkpt><trkpt lat="38.02561437097595" lon="-1.1836402158096333"><ele>140.0</ele><time>2026-04-09T08:44:57Z</time></trkpt><trkpt lat="38.02563822866063" lon="-1.1837488929294389"><ele>140.0</ele><time>2026-04-09T08:44:59Z</time></trkpt><trkpt lat="38.02567132013066" lon="-1.1838787022866653"><ele>140.0</ele><time>2026-04-09T08:45:02Z</time></trkpt><trkpt lat="38.025705689960354" lon="-1.1840429724287331"><ele>139.5</ele><time>2026-04-09T08:45:04Z</time></trkpt><trkpt lat="38.025723087240806" lon="-1.1841570418413425"><ele>139.0</ele><time>2026-04-09T08:45:05Z</time></trkpt><trkpt lat="38.02563868576318" lon="-1.1843241913641112"><ele>138.5</ele><time>2026-04-09T08:45:06Z</time></trkpt><trkpt lat="38.02567828192836" lon="-1.1844573127430214"><ele>138.0</ele><time>2026-04-09T08:45:07Z</time></trkpt><trkpt lat="38.02571785447028" lon="-1.1845916880145904"><ele>138.0</ele><time>2026-04-09T08:45:08Z</time></trkpt><trkpt lat="38.02574993983787" lon="-1.18470063919768"><ele>138.0</ele><time>2026-04-09T08:45:09Z</time></trkpt><trkpt lat="38.02577914496506" lon="-1.1847992753675283"><ele>138.0</ele><time>2026-04-09T08:45:10Z</time></trkpt><trkpt lat="38.02580575013272" lon="-1.1848891113019686"><ele>138.0</ele><time>2026-04-09T08:45:11Z</time></trkpt><trkpt lat="38.02582927628068" lon="-1.1849685505963985"><ele>138.0</ele><time>2026-04-09T08:45:12Z</time></trkpt><trkpt lat="38.02585250322626" lon="-1.1850464431846883"><ele>138.0</ele><time>2026-04-09T08:45:13Z</time></trkpt><trkpt lat="38.02600658426803" lon="-1.1850591592071087"><ele>137.57142857142858</ele><time>2026-04-09T08:45:14Z</time></trkpt><trkpt lat="38.026031529598036" lon="-1.185137034994487"><ele>137.14285714285717</ele><time>2026-04-09T08:45:15Z</time></trkpt><trkpt lat="38.026051832136694" lon="-1.185218738939285"><ele>136.71428571428572</ele><time>2026-04-09T08:45:17Z</time></trkpt><trkpt lat="38.02600899371954" lon="-1.1852797649598965"><ele>136.28571428571428</ele><time>2026-04-09T08:45:20Z</time></trkpt><trkpt lat="38.02594187902668" lon="-1.1853330366262838"><ele>135.85714285714283</ele><time>2026-04-09T08:45:22Z</time></trkpt><trkpt lat="38.02588768077746" lon="-1.1853898560494671"><ele>135.42857142857142</ele><time>2026-04-09T08:45:24.018Z</time></trkpt><trkpt lat="38.02582002652802" lon="-1.1854581513012719"><ele>135.0</ele><time>2026-04-09T08:45:26.018Z</time></trkpt><trkpt lat="38.02575936698394" lon="-1.1855160439955392"><ele>135.0</ele><time>2026-04-09T08:45:28Z</time></trkpt><trkpt lat="38.02566770502485" lon="-1.1855519911288321"><ele>135.0</ele><time>2026-04-09T08:45:29Z</time></trkpt><trkpt lat="38.02562545863653" lon="-1.1856169462467034"><ele>135.0</ele><time>2026-04-09T08:45:31Z</time></trkpt><trkpt lat="38.02557335075333" lon="-1.1856691483927648"><ele>135.0</ele><time>2026-04-09T08:45:35Z</time></trkpt><trkpt lat="38.02555147889422" lon="-1.185758699495259"><ele>135.0</ele><time>2026-04-09T08:46:17Z</time></trkpt><trkpt lat="38.02547080333907" lon="-1.1857684179128223"><ele>135.0</ele><time>2026-04-09T08:46:45Z</time></trkpt><trkpt lat="38.0253816946245" lon="-1.185767315894292"><ele>134.0</ele><time>2026-04-09T08:46:47Z</time></trkpt><trkpt lat="38.025288256710226" lon="-1.1858348809816208"><ele>133.0</ele><time>2026-04-09T08:46:49Z</time></trkpt><trkpt lat="38.02524284869404" lon="-1.185911823236526"><ele>132.0</ele><time>2026-04-09T08:46:51Z</time></trkpt><trkpt lat="38.02526093800267" lon="-1.1860299430446557"><ele>131.0</ele><time>2026-04-09T08:46:53Z</time></trkpt><trkpt lat="38.025303903041994" lon="-1.1861489929093207"><ele>130.0</ele><time>2026-04-09T08:46:55Z</time></trkpt><trkpt lat="38.02537263015479" lon="-1.1862516563197238"><ele>130.0</ele><time>2026-04-09T08:46:57Z</time></trkpt><trkpt lat="38.02541889322108" lon="-1.1863517377304726"><ele>130.0</ele><time>2026-04-09T08:46:59Z</time></trkpt><trkpt lat="38.025347051415075" lon="-1.1864354971073678"><ele>130.0</ele><time>2026-04-09T08:47:02Z</time></trkpt><trkpt lat="38.02525916580063" lon="-1.1864708691995447"><ele>130.0</ele><time>2026-04-09T08:47:04Z</time></trkpt><trkpt lat="38.025172503404484" lon="-1.18647231502571"><ele>130.0</ele><time>2026-04-09T08:47:06Z</time></trkpt><trkpt lat="38.02509195520285" lon="-1.1865081391406496"><ele>129.83333333333334</ele><time>2026-04-09T08:47:08Z</time></trkpt><trkpt lat="38.025030411897944" lon="-1.1866026660420017"><ele>129.66666666666669</ele><time>2026-04-09T08:47:10Z</time></trkpt><trkpt lat="38.02499899797475" lon="-1.1866740725561484"><ele>129.5</ele><time>2026-04-09T08:47:11Z</time></trkpt><trkpt lat="38.02495708952241" lon="-1.1867450153514496"><ele>129.33333333333334</ele><time>2026-04-09T08:47:12Z</time></trkpt><trkpt lat="38.024923249568076" lon="-1.1868527136224256"><ele>129.16666666666666</ele><time>2026-04-09T08:47:14Z</time></trkpt><trkpt lat="38.02496887155507" lon="-1.186972863720358"><ele>129.0</ele><time>2026-04-09T08:47:16Z</time></trkpt><trkpt lat="38.02496170511258" lon="-1.1871092057090098"><ele>129.0</ele><time>2026-04-09T08:47:18Z</time></trkpt><trkpt lat="38.02490909434508" lon="-1.1872368323495217"><ele>129.0</ele><time>2026-04-09T08:47:20Z</time></trkpt><trkpt lat="38.024912769293195" lon="-1.1873887665613196"><ele>129.0</ele><time>2026-04-09T08:47:22Z</time></trkpt><trkpt lat="38.024895640428895" lon="-1.1874685441044879"><ele>129.0</ele><time>2026-04-09T08:47:23Z</time></trkpt><trkpt lat="38.02486966087893" lon="-1.1875442521629742"><ele>129.0</ele><time>2026-04-09T08:47:24Z</time></trkpt><trkpt lat="38.02484787527538" lon="-1.1876206484886933"><ele>129.0</ele><time>2026-04-09T08:47:25Z</time></trkpt><trkpt lat="38.024819813551545" lon="-1.1876987255742613"><ele>128.5</ele><time>2026-04-09T08:47:26Z</time></trkpt><trkpt lat="38.02479757133596" lon="-1.1877754891184007"><ele>128.0</ele><time>2026-04-09T08:47:27Z</time></trkpt><trkpt lat="38.024749518582496" lon="-1.1879090024161816"><ele>127.5</ele><time>2026-04-09T08:47:29Z</time></trkpt><trkpt lat="38.02466082514396" lon="-1.1879193090303528"><ele>127.0</ele><time>2026-04-09T08:47:33Z</time></trkpt><trkpt lat="38.024595360998504" lon="-1.1878789185762073"><ele>126.5</ele><time>2026-04-09T08:47:35Z</time></trkpt><trkpt lat="38.024541325447466" lon="-1.187949009367759"><ele>126.0</ele><time>2026-04-09T08:47:38Z</time></trkpt><trkpt lat="38.02460087031267" lon="-1.1880784926977923"><ele>126.0</ele><time>2026-04-09T08:47:40Z</time></trkpt><trkpt lat="38.024634167632065" lon="-1.1881690138831453"><ele>126.0</ele><time>2026-04-09T08:47:41Z</time></trkpt><trkpt lat="38.02463576948415" lon="-1.1882627691901395"><ele>126.0</ele><time>2026-04-09T08:47:42Z</time></trkpt><trkpt lat="38.02457939429411" lon="-1.188318776194277"><ele>126.0</ele><time>2026-04-09T08:47:44Z</time></trkpt><trkpt lat="38.02452185069299" lon="-1.1883680840776014"><ele>126.0</ele><time>2026-04-09T08:47:46Z</time></trkpt><trkpt lat="38.02453028241071" lon="-1.1884513018241347"><ele>126.0</ele><time>2026-04-09T08:47:47Z</time></trkpt><trkpt lat="38.02455451531528" lon="-1.1885680605157023"><ele>124.4</ele><time>2026-04-09T08:47:49Z</time></trkpt><trkpt lat="38.0246409466558" lon="-1.1886260659870185"><ele>122.8</ele><time>2026-04-09T08:47:51Z</time></trkpt><trkpt lat="38.024723314100754" lon="-1.1886291390338855"><ele>121.20000000000002</ele><time>2026-04-09T08:47:52Z</time></trkpt><trkpt lat="38.024830094012934" lon="-1.1886460643279178"><ele>119.60000000000001</ele><time>2026-04-09T08:47:53Z</time></trkpt><trkpt lat="38.0249178469615" lon="-1.1886705948761536"><ele>118.0</ele><time>2026-04-09T08:47:54Z</time></trkpt><trkpt lat="38.024981523918655" lon="-1.18872904343626"><ele>118.0</ele><time>2026-04-09T08:47:56Z</time></trkpt><trkpt lat="38.024932318875656" lon="-1.1888266917969064"><ele>118.00000000000001</ele><time>2026-04-09T08:47:58Z</time></trkpt><trkpt lat="38.024884453124116" lon="-1.1888925776596213"><ele>118.00000000000001</ele><time>2026-04-09T08:47:59Z</time></trkpt><trkpt lat="38.0248324554555" lon="-1.1889534580950982"><ele>118.0</ele><time>2026-04-09T08:48:00Z</time></trkpt><trkpt lat="38.02469884760761" lon="-1.188983009661981"><ele>118.0</ele><time>2026-04-09T08:48:02Z</time></trkpt><trkpt lat="38.02460671770325" lon="-1.1890269386522792"><ele>117.80000000000001</ele><time>2026-04-09T08:48:03Z</time></trkpt><trkpt lat="38.024502145054825" lon="-1.1890883363379288"><ele>117.60000000000001</ele><time>2026-04-09T08:48:04Z</time></trkpt><trkpt lat="38.02440665402154" lon="-1.1891243284259776"><ele>117.39999999999999</ele><time>2026-04-09T08:48:05Z</time></trkpt><trkpt lat="38.024328247132374" lon="-1.189141309898431"><ele>117.19999999999999</ele><time>2026-04-09T08:48:06Z</time></trkpt><trkpt lat="38.02425572059153" lon="-1.1891433413082018"><ele>117.0</ele><time>2026-04-09T08:48:07Z</time></trkpt><trkpt lat="38.02416819849041" lon="-1.1891835426803266"><ele>117.0</ele><time>2026-04-09T08:48:09Z</time></trkpt><trkpt lat="38.02416863034309" lon="-1.1892670395961893"><ele>117.0</ele><time>2026-04-09T08:48:11Z</time></trkpt><trkpt lat="38.02424666536197" lon="-1.1893601380856202"><ele>117.0</ele><time>2026-04-09T08:48:13Z</time></trkpt><trkpt lat="38.02430524506207" lon="-1.189394189496265"><ele>117.0</ele><time>2026-04-09T08:48:14Z</time></trkpt><trkpt lat="38.02436531508238" lon="-1.1894397357256141"><ele>117.0</ele><time>2026-04-09T08:48:15Z</time></trkpt><trkpt lat="38.024425475768155" lon="-1.189556143001618"><ele>117.0</ele><time>2026-04-09T08:48:17Z</time></trkpt><trkpt lat="38.0244470095242" lon="-1.1896353160812754"><ele>117.0</ele><time>2026-04-09T08:48:18Z</time></trkpt><trkpt lat="38.02446654617327" lon="-1.1897430135411373"><ele>117.0</ele><time>2026-04-09T08:48:20Z</time></trkpt><trkpt lat="38.02437217612676" lon="-1.1897628427467375"><ele>117.0</ele><time>2026-04-09T08:48:22Z</time></trkpt><trkpt lat="38.02430928837721" lon="-1.1898170204246152"><ele>117.0</ele><time>2026-04-09T08:48:24Z</time></trkpt><trkpt lat="38.02423426194883" lon="-1.1898273035472902"><ele>117.0</ele><time>2026-04-09T08:48:26Z</time></trkpt><trkpt lat="38.024160751466155" lon="-1.189769485601662"><ele>117.0</ele><time>2026-04-09T08:48:28Z</time></trkpt><trkpt lat="38.02412526072707" lon="-1.18968640625474"><ele>117.39999999999999</ele><time>2026-04-09T08:48:30Z</time></trkpt><trkpt lat="38.0241251695329" lon="-1.1895424434550372"><ele>117.79999999999998</ele><time>2026-04-09T08:48:32Z</time></trkpt><trkpt lat="38.02410541922964" lon="-1.1894052210252644"><ele>118.2</ele><time>2026-04-09T08:48:34Z</time></trkpt><trkpt lat="38.0240431745419" lon="-1.1893438688323121"><ele>118.6</ele><time>2026-04-09T08:48:35Z</time></trkpt><trkpt lat="38.02398755373712" lon="-1.1892746098830498"><ele>119.0</ele><time>2026-04-09T08:48:36Z</time></trkpt><trkpt lat="38.02393300992346" lon="-1.1892078144985285"><ele>118.99999999999999</ele><time>2026-04-09T08:48:37Z</time></trkpt><trkpt lat="38.023875269953614" lon="-1.1891707040482087"><ele>119.0</ele><time>2026-04-09T08:48:38Z</time></trkpt><trkpt lat="38.023793336132584" lon="-1.1892454739100933"><ele>119.0</ele><time>2026-04-09T08:48:40Z</time></trkpt><trkpt lat="38.02373541988606" lon="-1.18930306968617"><ele>119.0</ele><time>2026-04-09T08:48:41Z</time></trkpt><trkpt lat="38.02366632744821" lon="-1.1893802138527207"><ele>118.99999999999999</ele><time>2026-04-09T08:48:42Z</time></trkpt><trkpt lat="38.023608332695055" lon="-1.1894615012889374"><ele>119.0</ele><time>2026-04-09T08:48:43Z</time></trkpt><trkpt lat="38.02354773055239" lon="-1.1895135236682597"><ele>118.99999999999999</ele><time>2026-04-09T08:48:44Z</time></trkpt><trkpt lat="38.02347289057809" lon="-1.1895292983852792"><ele>119.0</ele><time>2026-04-09T08:48:45Z</time></trkpt><trkpt lat="38.023390293315686" lon="-1.1895302772436067"><ele>119.0</ele><time>2026-04-09T08:48:46Z</time></trkpt><trkpt lat="38.02330847813848" lon="-1.1895512345427144"><ele>119.0</ele><time>2026-04-09T08:48:47Z</time></trkpt><trkpt lat="38.02324377235023" lon="-1.189579052140926"><ele>118.99999999999999</ele><time>2026-04-09T08:48:48Z</time></trkpt><trkpt lat="38.023153798748034" lon="-1.1896832109608697"><ele>119.0</ele><time>2026-04-09T08:48:50Z</time></trkpt><trkpt lat="38.023120080695115" lon="-1.1897643239371312"><ele>117.4</ele><time>2026-04-09T08:48:51Z</time></trkpt><trkpt lat="38.02307363941478" lon="-1.189875959550163"><ele>115.80000000000001</ele><time>2026-04-09T08:48:52Z</time></trkpt><trkpt lat="38.023012168842925" lon="-1.189989919551517"><ele>114.19999999999999</ele><time>2026-04-09T08:48:53Z</time></trkpt><trkpt lat="38.022948506963765" lon="-1.190087118119085"><ele>112.6</ele><time>2026-04-09T08:48:54Z</time></trkpt><trkpt lat="38.02287687370964" lon="-1.190178334373668"><ele>111.0</ele><time>2026-04-09T08:48:55Z</time></trkpt><trkpt lat="38.0228011374637" lon="-1.1902481713064823"><ele>111.0</ele><time>2026-04-09T08:48:56Z</time></trkpt><trkpt lat="38.022726229537824" lon="-1.1902906176631067"><ele>111.0</ele><time>2026-04-09T08:48:57Z</time></trkpt><trkpt lat="38.02266779996503" lon="-1.1903238833874301"><ele>111.0</ele><time>2026-04-09T08:48:58Z</time></trkpt><trkpt lat="38.02261032560552" lon="-1.1904030760542421"><ele>111.0</ele><time>2026-04-09T08:49:00Z</time></trkpt><trkpt lat="38.02259286855424" lon="-1.1904991558634412"><ele>111.0</ele><time>2026-04-09T08:49:02Z</time></trkpt><trkpt lat="38.02259344513279" lon="-1.190587855801475"><ele>111.0</ele><time>2026-04-09T08:49:05Z</time></trkpt><trkpt lat="38.022625503618286" lon="-1.1906806473709153"><ele>110.33333333333333</ele><time>2026-04-09T08:49:13Z</time></trkpt><trkpt lat="38.02265899222746" lon="-1.1907981747334386"><ele>109.66666666666666</ele><time>2026-04-09T08:49:15Z</time></trkpt><trkpt lat="38.0226817096366" lon="-1.190873544185227"><ele>109.0</ele><time>2026-04-09T08:49:16Z</time></trkpt><trkpt lat="38.02269988331463" lon="-1.1909832794653954"><ele>108.33333333333333</ele><time>2026-04-09T08:49:18Z</time></trkpt><trkpt lat="38.02265327220358" lon="-1.1911005417933025"><ele>107.66666666666666</ele><time>2026-04-09T08:49:20Z</time></trkpt><trkpt lat="38.022595697783" lon="-1.1911782721656292"><ele>107.0</ele><time>2026-04-09T08:49:21Z</time></trkpt><trkpt lat="38.02253181751537" lon="-1.1912650777338645"><ele>106.99999999999999</ele><time>2026-04-09T08:49:22Z</time></trkpt><trkpt lat="38.02248755137513" lon="-1.191344121658639"><ele>107.0</ele><time>2026-04-09T08:49:23Z</time></trkpt><trkpt lat="38.022465292680536" lon="-1.191422801953805"><ele>107.0</ele><time>2026-04-09T08:49:25Z</time></trkpt><trkpt lat="38.02241258334512" lon="-1.1914745692675823"><ele>107.0</ele><time>2026-04-09T08:49:27Z</time></trkpt><trkpt lat="38.02233929584961" lon="-1.191491335382057"><ele>106.99999999999999</ele><time>2026-04-09T08:49:28Z</time></trkpt><trkpt lat="38.0222055004323" lon="-1.1914784861904901"><ele>107.0</ele><time>2026-04-09T08:49:30Z</time></trkpt><trkpt lat="38.02215303896667" lon="-1.1914277232533383"><ele>106.66666666666666</ele><time>2026-04-09T08:49:31Z</time></trkpt><trkpt lat="38.02207090445881" lon="-1.1913650563075087"><ele>106.33333333333333</ele><time>2026-04-09T08:49:33Z</time></trkpt><trkpt lat="38.022002530194236" lon="-1.1913690718464665"><ele>106.0</ele><time>2026-04-09T08:49:35Z</time></trkpt><trkpt lat="38.02195767598572" lon="-1.1912757164589007"><ele>105.66666666666666</ele><time>2026-04-09T08:49:37Z</time></trkpt><trkpt lat="38.021886463245785" lon="-1.191175552410445"><ele>105.33333333333333</ele><time>2026-04-09T08:49:39Z</time></trkpt><trkpt lat="38.02186776254381" lon="-1.1910823586588417"><ele>105.0</ele><time>2026-04-09T08:49:40Z</time></trkpt><trkpt lat="38.021857840974285" lon="-1.1909721108249112"><ele>105.0</ele><time>2026-04-09T08:49:41Z</time></trkpt><trkpt lat="38.02183059815045" lon="-1.1908178808767207"><ele>105.0</ele><time>2026-04-09T08:49:42Z</time></trkpt><trkpt lat="38.021790345944915" lon="-1.1906742442669818"><ele>105.0</ele><time>2026-04-09T08:49:43Z</time></trkpt><trkpt lat="38.021758829591434" lon="-1.1905492886675484"><ele>105.0</ele><time>2026-04-09T08:49:44Z</time></trkpt><trkpt lat="38.02174317378119" lon="-1.190440278099032"><ele>105.0</ele><time>2026-04-09T08:49:45Z</time></trkpt><trkpt lat="38.021737523081974" lon="-1.190328816624075"><ele>105.33333333333333</ele><time>2026-04-09T08:49:46Z</time></trkpt><trkpt lat="38.02172564838178" lon="-1.190233108224132"><ele>105.66666666666666</ele><time>2026-04-09T08:49:47Z</time></trkpt><trkpt lat="38.021707836204435" lon="-1.1901371589041898"><ele>106.0</ele><time>2026-04-09T08:49:48Z</time></trkpt><trkpt lat="38.02170089058408" lon="-1.1900448871250393"><ele>106.33333333333333</ele><time>2026-04-09T08:49:49Z</time></trkpt><trkpt lat="38.021694938933706" lon="-1.189960892069423"><ele>106.66666666666666</ele><time>2026-04-09T08:49:50Z</time></trkpt><trkpt lat="38.02164498763801" lon="-1.18982261545084"><ele>107.0</ele><time>2026-04-09T08:49:52Z</time></trkpt><trkpt lat="38.021601641010655" lon="-1.1897545582815878"><ele>107.49999999999999</ele><time>2026-04-09T08:49:53Z</time></trkpt><trkpt lat="38.021549418538925" lon="-1.1896847957119998"><ele>108.0</ele><time>2026-04-09T08:49:54Z</time></trkpt><trkpt lat="38.021510351309374" lon="-1.1896195078015537"><ele>108.5</ele><time>2026-04-09T08:49:55Z</time></trkpt><trkpt lat="38.021462469599015" lon="-1.1895617007414234"><ele>109.0</ele><time>2026-04-09T08:49:56Z</time></trkpt><trkpt lat="38.02139882550408" lon="-1.189502055303815"><ele>109.49999999999999</ele><time>2026-04-09T08:49:57Z</time></trkpt><trkpt lat="38.021338911603685" lon="-1.189440822201609"><ele>110.0</ele><time>2026-04-09T08:49:58Z</time></trkpt><trkpt lat="38.021292383234226" lon="-1.1893461620430106"><ele>110.0</ele><time>2026-04-09T08:50:00Z</time></trkpt><trkpt lat="38.02122673777805" lon="-1.1893398947071698"><ele>110.0</ele><time>2026-04-09T08:50:12Z</time></trkpt><trkpt lat="38.021118443995476" lon="-1.1893191417801452"><ele>110.0</ele><time>2026-04-09T08:50:14Z</time></trkpt><trkpt lat="38.021056262848965" lon="-1.1892379160526767"><ele>110.0</ele><time>2026-04-09T08:50:16Z</time></trkpt><trkpt lat="38.02099482209359" lon="-1.1891249604358605"><ele>110.0</ele><time>2026-04-09T08:50:18Z</time></trkpt><trkpt lat="38.02090206234646" lon="-1.1890808574034668"><ele>110.0</ele><time>2026-04-09T08:50:20Z</time></trkpt><trkpt lat="38.02082524455406" lon="-1.1890560975256357"><ele>110.0</ele><time>2026-04-09T08:50:22Z</time></trkpt><trkpt lat="38.02075205351246" lon="-1.1889567524739413"><ele>110.0</ele><time>2026-04-09T08:50:24Z</time></trkpt><trkpt lat="38.020664689918036" lon="-1.1888857437163916"><ele>110.0</ele><time>2026-04-09T08:50:26Z</time></trkpt><trkpt lat="38.0205852758322" lon="-1.1888798821722653"><ele>110.0</ele><time>2026-04-09T08:50:28Z</time></trkpt><trkpt lat="38.02051965634156" lon="-1.1889599000967164"><ele>112.0</ele><time>2026-04-09T08:50:30Z</time></trkpt><trkpt lat="38.020433139525394" lon="-1.1889801293990336"><ele>114.0</ele><time>2026-04-09T08:50:32Z</time></trkpt><trkpt lat="38.02032478602383" lon="-1.1889653357711916"><ele>116.0</ele><time>2026-04-09T08:50:34Z</time></trkpt><trkpt lat="38.02021107455621" lon="-1.1889537164605528"><ele>118.0</ele><time>2026-04-09T08:50:36Z</time></trkpt><trkpt lat="38.02011618332405" lon="-1.1888731255585077"><ele>120.0</ele><time>2026-04-09T08:50:38Z</time></trkpt><trkpt lat="38.02005743460287" lon="-1.188828516534905"><ele>121.83333333333333</ele><time>2026-04-09T08:50:40Z</time></trkpt><trkpt lat="38.019968827506105" lon="-1.1888892205413781"><ele>123.66666666666666</ele><time>2026-04-09T08:50:42Z</time></trkpt><trkpt lat="38.01988055450624" lon="-1.1888984726102325"><ele>125.5</ele><time>2026-04-09T08:50:44Z</time></trkpt><trkpt lat="38.019809937280606" lon="-1.188908122869053"><ele>127.33333333333333</ele><time>2026-04-09T08:50:47Z</time></trkpt><trkpt lat="38.01973444353787" lon="-1.188934960966583"><ele>129.16666666666666</ele><time>2026-04-09T08:50:48Z</time></trkpt><trkpt lat="38.01966483376917" lon="-1.1889055891693128"><ele>131.0</ele><time>2026-04-09T08:50:50Z</time></trkpt><trkpt lat="38.01958964822372" lon="-1.1888783788213733"><ele>131.0</ele><time>2026-04-09T08:50:51Z</time></trkpt><trkpt lat="38.019517693870384" lon="-1.1888884469806928"><ele>131.0</ele><time>2026-04-09T08:50:53Z</time></trkpt><trkpt lat="38.01943464723555" lon="-1.188930674566004"><ele>131.0</ele><time>2026-04-09T08:50:55Z</time></trkpt><trkpt lat="38.01934401740016" lon="-1.1889374519304448"><ele>131.0</ele><time>2026-04-09T08:50:57Z</time></trkpt><trkpt lat="38.01925719030695" lon="-1.1888965574401096"><ele>131.0</ele><time>2026-04-09T08:50:59Z</time></trkpt><trkpt lat="38.01919502413067" lon="-1.1888709040405705"><ele>131.0</ele><time>2026-04-09T08:51:01Z</time></trkpt><trkpt lat="38.019126051901665" lon="-1.1889095518586321"><ele>131.5</ele><time>2026-04-09T08:51:03Z</time></trkpt><trkpt lat="38.019050797966074" lon="-1.1889689045201894"><ele>132.0</ele><time>2026-04-09T08:51:05Z</time></trkpt><trkpt lat="38.01900755108295" lon="-1.1890319257469018"><ele>132.5</ele><time>2026-04-09T08:51:07Z</time></trkpt><trkpt lat="38.019009080038764" lon="-1.1891614091015796"><ele>133.0</ele><time>2026-04-09T08:51:10Z</time></trkpt><trkpt lat="38.01901166484124" lon="-1.189248088396701"><ele>133.5</ele><time>2026-04-09T08:51:12Z</time></trkpt><trkpt lat="38.018978097653964" lon="-1.1893319566894343"><ele>134.0</ele><time>2026-04-09T08:51:15Z</time></trkpt><trkpt lat="38.018957388481155" lon="-1.1894145496456414"><ele>134.0</ele><time>2026-04-09T08:51:34Z</time></trkpt><trkpt lat="38.01892910997701" lon="-1.1894939840108318"><ele>134.0</ele><time>2026-04-09T08:51:37Z</time></trkpt><trkpt lat="38.0189311566869" lon="-1.1895972190583195"><ele>134.0</ele><time>2026-04-09T08:51:41Z</time></trkpt><trkpt lat="38.018919681873406" lon="-1.1896865198610747"><ele>134.0</ele><time>2026-04-09T08:51:51Z</time></trkpt><trkpt lat="38.01887018113719" lon="-1.1897842513452874"><ele>134.0</ele><time>2026-04-09T08:51:55Z</time></trkpt><trkpt lat="38.018836260970346" lon="-1.189866413285188"><ele>134.0</ele><time>2026-04-09T08:52:00Z</time></trkpt><trkpt lat="38.018813698002376" lon="-1.1899563329890879"><ele>134.5</ele><time>2026-04-09T08:52:06Z</time></trkpt><trkpt lat="38.01876774791572" lon="-1.1900414416763485"><ele>135.0</ele><time>2026-04-09T08:52:23Z</time></trkpt><trkpt lat="38.018769362106504" lon="-1.1901324227945225"><ele>135.5</ele><time>2026-04-09T08:52:27Z</time></trkpt><trkpt lat="38.01874573141765" lon="-1.1902358249640477"><ele>136.0</ele><time>2026-04-09T08:52:30Z</time></trkpt><trkpt lat="38.01872664092219" lon="-1.1903260432190408"><ele>136.5</ele><time>2026-04-09T08:52:33Z</time></trkpt><trkpt lat="38.018698158247126" lon="-1.1904283378173615"><ele>137.0</ele><time>2026-04-09T08:52:39Z</time></trkpt><trkpt lat="38.0186637835524" lon="-1.190515530456738"><ele>137.0</ele><time>2026-04-09T08:52:42Z</time></trkpt><trkpt lat="38.01861280974584" lon="-1.1905773798180592"><ele>137.0</ele><time>2026-04-09T08:52:46Z</time></trkpt><trkpt lat="38.01857081994242" lon="-1.1906388720575376"><ele>137.0</ele><time>2026-04-09T08:52:49Z</time></trkpt><trkpt lat="38.01851405317722" lon="-1.1907006065579724"><ele>137.0</ele><time>2026-04-09T08:52:51Z</time></trkpt><trkpt lat="38.01845567083055" lon="-1.190775567613415"><ele>137.0</ele><time>2026-04-09T08:52:53Z</time></trkpt><trkpt lat="38.01839374122912" lon="-1.1908157306993727"><ele>137.0</ele><time>2026-04-09T08:52:55Z</time></trkpt><trkpt lat="38.0182487740551" lon="-1.190951128021431"><ele>139.0</ele><time>2026-04-09T08:52:56Z</time></trkpt><trkpt lat="38.01814148088237" lon="-1.191053858452502"><ele>141.0</ele><time>2026-04-09T08:52:58Z</time></trkpt><trkpt lat="38.01808137363039" lon="-1.1911165904202679"><ele>143.0</ele><time>2026-04-09T08:52:59Z</time></trkpt><trkpt lat="38.01803078438851" lon="-1.1911754336082176"><ele>145.0</ele><time>2026-04-09T08:53:00Z</time></trkpt><trkpt lat="38.017967914774694" lon="-1.191268754439569"><ele>147.0</ele><time>2026-04-09T08:53:02Z</time></trkpt><trkpt lat="38.01791061417474" lon="-1.1911719848979703"><ele>147.0</ele><time>2026-04-09T08:53:05Z</time></trkpt><trkpt lat="38.01787619958854" lon="-1.1910788871804117"><ele>147.0</ele><time>2026-04-09T08:53:06Z</time></trkpt><trkpt lat="38.01781945805901" lon="-1.1909611756450755"><ele>147.0</ele><time>2026-04-09T08:53:07Z</time></trkpt><trkpt lat="38.01775970901032" lon="-1.1908617148168057"><ele>147.0</ele><time>2026-04-09T08:53:08Z</time></trkpt><trkpt lat="38.01770844814537" lon="-1.1907844741107811"><ele>147.0</ele><time>2026-04-09T08:53:09Z</time></trkpt><trkpt lat="38.017656518674094" lon="-1.1907072691218217"><ele>147.0</ele><time>2026-04-09T08:53:10Z</time></trkpt><trkpt lat="38.01760984319471" lon="-1.1906318775050593"><ele>146.5</ele><time>2026-04-09T08:53:11Z</time></trkpt><trkpt lat="38.017587826796785" lon="-1.190479022352752"><ele>146.0</ele><time>2026-04-09T08:53:12Z</time></trkpt><trkpt lat="38.01754787417858" lon="-1.190350771222323"><ele>145.5</ele><time>2026-04-09T08:53:13Z</time></trkpt><trkpt lat="38.017510320117594" lon="-1.1901975323597407"><ele>145.0</ele><time>2026-04-09T08:53:14Z</time></trkpt><trkpt lat="38.017464067787174" lon="-1.1900325177955258"><ele>145.4</ele><time>2026-04-09T08:53:15Z</time></trkpt><trkpt lat="38.017427751319644" lon="-1.1898947311598735"><ele>145.8</ele><time>2026-04-09T08:53:16Z</time></trkpt><trkpt lat="38.0174001188804" lon="-1.1897473134826615"><ele>146.2</ele><time>2026-04-09T08:53:17Z</time></trkpt><trkpt lat="38.01738340791362" lon="-1.189613793438615"><ele>146.6</ele><time>2026-04-09T08:53:18Z</time></trkpt><trkpt lat="38.01739093042106" lon="-1.1895014517366298"><ele>147.0</ele><time>2026-04-09T08:53:19Z</time></trkpt><trkpt lat="38.017379351520844" lon="-1.1893665764647325"><ele>147.0</ele><time>2026-04-09T08:53:20Z</time></trkpt><trkpt lat="38.017362996580886" lon="-1.1892560565641892"><ele>147.0</ele><time>2026-04-09T08:53:21Z</time></trkpt><trkpt lat="38.01732164720504" lon="-1.1891782710726322"><ele>147.0</ele><time>2026-04-09T08:53:22Z</time></trkpt><trkpt lat="38.01725248850274" lon="-1.1891200306303955"><ele>147.0</ele><time>2026-04-09T08:53:23Z</time></trkpt><trkpt lat="38.017140173799184" lon="-1.1890950481443947"><ele>147.0</ele><time>2026-04-09T08:53:24Z</time></trkpt><trkpt lat="38.01701314485506" lon="-1.1890674103611107"><ele>147.0</ele><time>2026-04-09T08:53:25Z</time></trkpt><trkpt lat="38.016913039877764" lon="-1.1890334471982607"><ele>147.0</ele><time>2026-04-09T08:53:26Z</time></trkpt><trkpt lat="38.016819740255464" lon="-1.1889962275393917"><ele>147.0</ele><time>2026-04-09T08:53:27Z</time></trkpt><trkpt lat="38.01672339313763" lon="-1.1889643667263574"><ele>147.0</ele><time>2026-04-09T08:53:28Z</time></trkpt><trkpt lat="38.016632435048905" lon="-1.1889369473203921"><ele>147.0</ele><time>2026-04-09T08:53:29Z</time></trkpt><trkpt lat="38.01653010396029" lon="-1.1888974243254484"><ele>147.6</ele><time>2026-04-09T08:53:30Z</time></trkpt><trkpt lat="38.01640605938445" lon="-1.1888520044097173"><ele>148.2</ele><time>2026-04-09T08:53:31Z</time></trkpt><trkpt lat="38.01629452639871" lon="-1.1888094619618474"><ele>148.8</ele><time>2026-04-09T08:53:32Z</time></trkpt><trkpt lat="38.016210104438066" lon="-1.1887852893042845"><ele>149.4</ele><time>2026-04-09T08:53:33Z</time></trkpt><trkpt lat="38.01612038942487" lon="-1.1887558381993273"><ele>150.0</ele><time>2026-04-09T08:53:35Z</time></trkpt><trkpt lat="38.016077468683925" lon="-1.1886959671645911"><ele>150.0</ele><time>2026-04-09T08:53:40Z</time></trkpt><trkpt lat="38.0160212649015" lon="-1.188633929483138"><ele>150.0</ele><time>2026-04-09T08:53:42Z</time></trkpt><trkpt lat="38.01590727313611" lon="-1.1885256233345787"><ele>150.0</ele><time>2026-04-09T08:53:44Z</time></trkpt><trkpt lat="38.015852687312425" lon="-1.188457098633687"><ele>150.0</ele><time>2026-04-09T08:53:45Z</time></trkpt><trkpt lat="38.01580159484654" lon="-1.1883964145376489"><ele>150.0</ele><time>2026-04-09T08:53:46Z</time></trkpt><trkpt lat="38.015702390671365" lon="-1.1883195125427275"><ele>150.0</ele><time>2026-04-09T08:53:48Z</time></trkpt><trkpt lat="38.015623581542904" lon="-1.1882512656786854"><ele>150.0</ele><time>2026-04-09T08:53:50Z</time></trkpt><trkpt lat="38.015594375202234" lon="-1.188158243161252"><ele>150.0</ele><time>2026-04-09T08:53:52Z</time></trkpt><trkpt lat="38.0155879061723" lon="-1.1880298442619999"><ele>150.0</ele><time>2026-04-09T08:53:54Z</time></trkpt><trkpt lat="38.015535074898565" lon="-1.1879211140404708"><ele>150.0</ele><time>2026-04-09T08:53:56Z</time></trkpt><trkpt lat="38.01547331537274" lon="-1.187816818548233"><ele>152.33333333333334</ele><time>2026-04-09T08:53:58Z</time></trkpt><trkpt lat="38.01544646759787" lon="-1.1877192555095961"><ele>154.66666666666666</ele><time>2026-04-09T08:54:02Z</time></trkpt><trkpt lat="38.015401586348304" lon="-1.187660781675526"><ele>157.0</ele><time>2026-04-09T08:54:06Z</time></trkpt><trkpt lat="38.0153604171849" lon="-1.1875859100816182"><ele>159.33333333333331</ele><time>2026-04-09T08:54:19Z</time></trkpt><trkpt lat="38.015289014120114" lon="-1.1875491552990198"><ele>161.66666666666666</ele><time>2026-04-09T08:54:33Z</time></trkpt><trkpt lat="38.01523780898822" lon="-1.187470069727987"><ele>164.0</ele><time>2026-04-09T08:54:37Z</time></trkpt><trkpt lat="38.01520997864182" lon="-1.1873707912971114"><ele>164.16666666666666</ele><time>2026-04-09T08:54:40Z</time></trkpt><trkpt lat="38.01523015199464" lon="-1.1872943147466601"><ele>164.33333333333331</ele><time>2026-04-09T08:56:03Z</time></trkpt><trkpt lat="38.01518882837859" lon="-1.1872273293861635"><ele>164.5</ele><time>2026-04-09T09:01:18Z</time></trkpt><trkpt lat="38.0151575111821" lon="-1.1871317815127194"><ele>164.66666666666666</ele><time>2026-04-09T09:01:20Z</time></trkpt><trkpt lat="38.0150763649845" lon="-1.187111789451056"><ele>164.83333333333334</ele><time>2026-04-09T09:01:22Z</time></trkpt><trkpt lat="38.01497376783592" lon="-1.1871690105475954"><ele>165.0</ele><time>2026-04-09T09:01:24Z</time></trkpt><trkpt lat="38.01492006416825" lon="-1.1872483924125303"><ele>164.83333333333334</ele><time>2026-04-09T09:01:26Z</time></trkpt><trkpt lat="38.01490297199646" lon="-1.1873458758921034"><ele>164.66666666666666</ele><time>2026-04-09T09:01:28Z</time></trkpt><trkpt lat="38.014935699727594" lon="-1.1874288462763523"><ele>164.5</ele><time>2026-04-09T09:01:30Z</time></trkpt><trkpt lat="38.01496758903507" lon="-1.1875098287419634"><ele>164.33333333333331</ele><time>2026-04-09T09:01:32Z</time></trkpt><trkpt lat="38.01499821616253" lon="-1.1875975188501853"><ele>164.16666666666666</ele><time>2026-04-09T09:01:35Z</time></trkpt><trkpt lat="38.015027291393295" lon="-1.1876899079630805"><ele>164.0</ele><time>2026-04-09T09:01:39Z</time></trkpt><trkpt lat="38.01507162893611" lon="-1.187772767731134"><ele>164.0</ele><time>2026-04-09T09:01:41Z</time></trkpt><trkpt lat="38.01507892583804" lon="-1.1878632096110235"><ele>164.0</ele><time>2026-04-09T09:01:43Z</time></trkpt><trkpt lat="38.015103564839166" lon="-1.187962652365577"><ele>164.0</ele><time>2026-04-09T09:01:45Z</time></trkpt><trkpt lat="38.01513018074957" lon="-1.1880972051003207"><ele>164.0</ele><time>2026-04-09T09:01:47Z</time></trkpt><trkpt lat="38.01513875730539" lon="-1.1881766010198955"><ele>164.0</ele><time>2026-04-09T09:01:48Z</time></trkpt><trkpt lat="38.015150662055134" lon="-1.1882703182591208"><ele>164.0</ele><time>2026-04-09T09:01:49Z</time></trkpt><trkpt lat="38.01518683590388" lon="-1.1883797265248304"><ele>161.2</ele><time>2026-04-09T09:01:50Z</time></trkpt><trkpt lat="38.01524725880605" lon="-1.1884909937168822"><ele>158.39999999999998</ele><time>2026-04-09T09:01:51Z</time></trkpt><trkpt lat="38.01531580514891" lon="-1.1886023758884432"><ele>155.6</ele><time>2026-04-09T09:01:52Z</time></trkpt><trkpt lat="38.01537685734658" lon="-1.188698332962972"><ele>152.8</ele><time>2026-04-09T09:01:53Z</time></trkpt><trkpt lat="38.01543390503134" lon="-1.1887780936471735"><ele>150.0</ele><time>2026-04-09T09:01:54Z</time></trkpt><trkpt lat="38.01548350968036" lon="-1.1888408476005023"><ele>150.0</ele><time>2026-04-09T09:01:55Z</time></trkpt><trkpt lat="38.01553383689013" lon="-1.1889123818601592"><ele>150.0</ele><time>2026-04-09T09:01:56Z</time></trkpt><trkpt lat="38.01557393979599" lon="-1.1889886373851652"><ele>150.0</ele><time>2026-04-09T09:01:57Z</time></trkpt><trkpt lat="38.01560861128025" lon="-1.1890726667226763"><ele>150.0</ele><time>2026-04-09T09:01:58Z</time></trkpt><trkpt lat="38.01562976941061" lon="-1.1891634984066703"><ele>150.0</ele><time>2026-04-09T09:01:59Z</time></trkpt><trkpt lat="38.01561044097919" lon="-1.1892741169147976"><ele>150.0</ele><time>2026-04-09T09:02:01Z</time></trkpt><trkpt lat="38.015540683082165" lon="-1.1892939483500682"><ele>149.4</ele><time>2026-04-09T09:02:03Z</time></trkpt><trkpt lat="38.01541754946541" lon="-1.1893255909325289"><ele>148.8</ele><time>2026-04-09T09:02:05Z</time></trkpt><trkpt lat="38.01535462903033" lon="-1.1893825888027556"><ele>148.2</ele><time>2026-04-09T09:02:06Z</time></trkpt><trkpt lat="38.01530202637449" lon="-1.1894284116779639"><ele>147.6</ele><time>2026-04-09T09:02:07Z</time></trkpt><trkpt lat="38.01518565297026" lon="-1.1894449569686263"><ele>147.0</ele><time>2026-04-09T09:02:09Z</time></trkpt><trkpt lat="38.015065021258245" lon="-1.189474995266953"><ele>147.0</ele><time>2026-04-09T09:02:11Z</time></trkpt><trkpt lat="38.01496909804605" lon="-1.189561265701108"><ele>147.0</ele><time>2026-04-09T09:02:13Z</time></trkpt><trkpt lat="38.01490508935823" lon="-1.1895980363680743"><ele>147.0</ele><time>2026-04-09T09:02:14Z</time></trkpt><trkpt lat="38.01481306842332" lon="-1.1896707473286017"><ele>147.0</ele><time>2026-04-09T09:02:16Z</time></trkpt><trkpt lat="38.01478807472558" lon="-1.1897551872631724"><ele>147.0</ele><time>2026-04-09T09:02:17Z</time></trkpt><trkpt lat="38.01478399272686" lon="-1.1898763841759956"><ele>147.79999999999998</ele><time>2026-04-09T09:02:18Z</time></trkpt><trkpt lat="38.014798720867645" lon="-1.1900096033610081"><ele>148.6</ele><time>2026-04-09T09:02:19Z</time></trkpt><trkpt lat="38.0147911561765" lon="-1.1901314575300768"><ele>149.39999999999998</ele><time>2026-04-09T09:02:20Z</time></trkpt><trkpt lat="38.01475452196608" lon="-1.1902235123529126"><ele>150.2</ele><time>2026-04-09T09:02:21Z</time></trkpt><trkpt lat="38.01469396583119" lon="-1.190294499873035"><ele>151.0</ele><time>2026-04-09T09:02:22Z</time></trkpt><trkpt lat="38.01461835432823" lon="-1.1903433479683223"><ele>151.0</ele><time>2026-04-09T09:02:23Z</time></trkpt><trkpt lat="38.014533792612916" lon="-1.190385288276427"><ele>151.0</ele><time>2026-04-09T09:02:24Z</time></trkpt><trkpt lat="38.0144384130993" lon="-1.1904385085351652"><ele>151.0</ele><time>2026-04-09T09:02:25Z</time></trkpt><trkpt lat="38.0143387863481" lon="-1.1904940226077425"><ele>151.0</ele><time>2026-04-09T09:02:26Z</time></trkpt><trkpt lat="38.014256212087766" lon="-1.190555932585505"><ele>151.0</ele><time>2026-04-09T09:02:27Z</time></trkpt><trkpt lat="38.01419440198581" lon="-1.1906415939163058"><ele>150.2</ele><time>2026-04-09T09:02:28Z</time></trkpt><trkpt lat="38.01414892554042" lon="-1.1907492683370364"><ele>149.39999999999998</ele><time>2026-04-09T09:02:29Z</time></trkpt><trkpt lat="38.01410546325026" lon="-1.190861410900148"><ele>148.6</ele><time>2026-04-09T09:02:30Z</time></trkpt><trkpt lat="38.01404466408458" lon="-1.190981379432583"><ele>147.79999999999998</ele><time>2026-04-09T09:02:31Z</time></trkpt><trkpt lat="38.013980045061665" lon="-1.1911012404982217"><ele>147.0</ele><time>2026-04-09T09:02:32Z</time></trkpt><trkpt lat="38.013927701226415" lon="-1.191192674075947"><ele>147.0</ele><time>2026-04-09T09:02:33Z</time></trkpt><trkpt lat="38.0138732114454" lon="-1.191250678636056"><ele>147.0</ele><time>2026-04-09T09:02:34Z</time></trkpt><trkpt lat="38.013801532584544" lon="-1.1912940515709418"><ele>147.0</ele><time>2026-04-09T09:02:35Z</time></trkpt><trkpt lat="38.01371825645561" lon="-1.1913163626531074"><ele>147.0</ele><time>2026-04-09T09:02:36Z</time></trkpt><trkpt lat="38.0136298682449" lon="-1.1913474533359034"><ele>147.0</ele><time>2026-04-09T09:02:37Z</time></trkpt><trkpt lat="38.01354458397246" lon="-1.1914026899892582"><ele>147.0</ele><time>2026-04-09T09:02:38Z</time></trkpt><trkpt lat="38.013475639820975" lon="-1.1914658111213048"><ele>147.28571428571428</ele><time>2026-04-09T09:02:39Z</time></trkpt><trkpt lat="38.0134243053116" lon="-1.1915315501810568"><ele>147.57142857142856</ele><time>2026-04-09T09:02:40Z</time></trkpt><trkpt lat="38.013384338375815" lon="-1.1916071347020065"><ele>147.85714285714286</ele><time>2026-04-09T09:02:41Z</time></trkpt><trkpt lat="38.01335622596983" lon="-1.191681233382012"><ele>148.14285714285714</ele><time>2026-04-09T09:02:42Z</time></trkpt><trkpt lat="38.01333657604718" lon="-1.1917590405919607"><ele>148.42857142857142</ele><time>2026-04-09T09:02:43Z</time></trkpt><trkpt lat="38.01332961479855" lon="-1.1918492084565557"><ele>148.71428571428572</ele><time>2026-04-09T09:02:44Z</time></trkpt><trkpt lat="38.01333535711867" lon="-1.1919435728143208"><ele>149.0</ele><time>2026-04-09T09:02:45Z</time></trkpt><trkpt lat="38.01334692567037" lon="-1.1920433458742143"><ele>149.0</ele><time>2026-04-09T09:02:46Z</time></trkpt><trkpt lat="38.013363402216854" lon="-1.1921398608955138"><ele>149.0</ele><time>2026-04-09T09:02:47Z</time></trkpt><trkpt lat="38.01338379450691" lon="-1.1922367288389648"><ele>149.0</ele><time>2026-04-09T09:02:48Z</time></trkpt><trkpt lat="38.01341484987668" lon="-1.1923258148798306"><ele>149.0</ele><time>2026-04-09T09:02:49Z</time></trkpt><trkpt lat="38.013452018751316" lon="-1.1924073935750685"><ele>149.0</ele><time>2026-04-09T09:02:50Z</time></trkpt><trkpt lat="38.01349826217115" lon="-1.1924765249911926"><ele>149.0</ele><time>2026-04-09T09:02:51Z</time></trkpt><trkpt lat="38.01356007772087" lon="-1.1925290744401105"><ele>148.8</ele><time>2026-04-09T09:02:52Z</time></trkpt><trkpt lat="38.01362372629954" lon="-1.1925752046242046"><ele>148.60000000000002</ele><time>2026-04-09T09:02:53Z</time></trkpt><trkpt lat="38.01370377485651" lon="-1.192676775379314"><ele>148.4</ele><time>2026-04-09T09:02:55Z</time></trkpt><trkpt lat="38.01376585571607" lon="-1.1927839174211383"><ele>148.20000000000002</ele><time>2026-04-09T09:02:57Z</time></trkpt><trkpt lat="38.01382738483391" lon="-1.192899944399131"><ele>148.0</ele><time>2026-04-09T09:02:59Z</time></trkpt><trkpt lat="38.01388801412718" lon="-1.193018601822552"><ele>148.0</ele><time>2026-04-09T09:03:01Z</time></trkpt><trkpt lat="38.01390634403513" lon="-1.193097715506954"><ele>148.0</ele><time>2026-04-09T09:03:02Z</time></trkpt><trkpt lat="38.01391390633631" lon="-1.1931807483104042"><ele>148.0</ele><time>2026-04-09T09:03:03Z</time></trkpt><trkpt lat="38.013900850399025" lon="-1.1932798211305653"><ele>148.0</ele><time>2026-04-09T09:03:04Z</time></trkpt><trkpt lat="38.01387188595974" lon="-1.19340937711638"><ele>148.0</ele><time>2026-04-09T09:03:05Z</time></trkpt><trkpt lat="38.013826337601635" lon="-1.1935666276096975"><ele>148.0</ele><time>2026-04-09T09:03:06Z</time></trkpt><trkpt lat="38.01377156824168" lon="-1.1937358127682265"><ele>147.33333333333334</ele><time>2026-04-09T09:03:07Z</time></trkpt><trkpt lat="38.01373841603877" lon="-1.1939261195448823"><ele>146.66666666666666</ele><time>2026-04-09T09:03:08Z</time></trkpt><trkpt lat="38.013721785487064" lon="-1.1941557066725133"><ele>146.0</ele><time>2026-04-09T09:03:09Z</time></trkpt><trkpt lat="38.01370945504207" lon="-1.1943694947350154"><ele>146.8</ele><time>2026-04-09T09:03:10Z</time></trkpt><trkpt lat="38.01369583097248" lon="-1.1945506043314593"><ele>147.6</ele><time>2026-04-09T09:03:11Z</time></trkpt><trkpt lat="38.01368566734266" lon="-1.1946922574721897"><ele>148.4</ele><time>2026-04-09T09:03:12Z</time></trkpt><trkpt lat="38.01367641291034" lon="-1.1948070219437965"><ele>149.2</ele><time>2026-04-09T09:03:13Z</time></trkpt><trkpt lat="38.01367103997913" lon="-1.1948975619243953"><ele>150.0</ele><time>2026-04-09T09:03:14Z</time></trkpt><trkpt lat="38.013724657338244" lon="-1.195042130686009"><ele>151.25</ele><time>2026-04-09T09:03:16Z</time></trkpt><trkpt lat="38.0138183815701" lon="-1.1951376647292613"><ele>152.5</ele><time>2026-04-09T09:03:17Z</time></trkpt><trkpt lat="38.01392455851354" lon="-1.1952547252133996"><ele>153.75</ele><time>2026-04-09T09:03:18Z</time></trkpt><trkpt lat="38.014007532583484" lon="-1.1953675092891196"><ele>155.0</ele><time>2026-04-09T09:03:19Z</time></trkpt><trkpt lat="38.014068882511225" lon="-1.1954598750737568"><ele>155.0</ele><time>2026-04-09T09:03:20Z</time></trkpt><trkpt lat="38.01411485912126" lon="-1.1955332741252844"><ele>155.0</ele><time>2026-04-09T09:03:21Z</time></trkpt><trkpt lat="38.01415039079909" lon="-1.195600232166054"><ele>155.0</ele><time>2026-04-09T09:03:22Z</time></trkpt><trkpt lat="38.014189664407496" lon="-1.195669702305222"><ele>155.0</ele><time>2026-04-09T09:03:23Z</time></trkpt><trkpt lat="38.01423136534963" lon="-1.1957440492806766"><ele>155.0</ele><time>2026-04-09T09:03:24Z</time></trkpt><trkpt lat="38.01427456593377" lon="-1.1958190749364808"><ele>155.0</ele><time>2026-04-09T09:03:25Z</time></trkpt><trkpt lat="38.01432262505166" lon="-1.1958937201499942"><ele>155.0</ele><time>2026-04-09T09:03:26Z</time></trkpt><trkpt lat="38.01437653272314" lon="-1.195958471835134"><ele>155.6</ele><time>2026-04-09T09:03:27Z</time></trkpt><trkpt lat="38.014441961776726" lon="-1.1960085353762064"><ele>156.2</ele><time>2026-04-09T09:03:28Z</time></trkpt><trkpt lat="38.014530234630215" lon="-1.1960563592782274"><ele>156.8</ele><time>2026-04-09T09:03:29Z</time></trkpt><trkpt lat="38.01462890139945" lon="-1.1961017268322365"><ele>157.4</ele><time>2026-04-09T09:03:30Z</time></trkpt><trkpt lat="38.01472070508311" lon="-1.1961572438089858"><ele>158.0</ele><time>2026-04-09T09:03:31Z</time></trkpt><trkpt lat="38.014805636556076" lon="-1.1962154917719114"><ele>158.0</ele><time>2026-04-09T09:03:32Z</time></trkpt><trkpt lat="38.01487483580833" lon="-1.1962876215302503"><ele>158.0</ele><time>2026-04-09T09:03:33Z</time></trkpt><trkpt lat="38.01492580206606" lon="-1.1963701341140602"><ele>158.0</ele><time>2026-04-09T09:03:34Z</time></trkpt><trkpt lat="38.014962270719764" lon="-1.196466223861707"><ele>158.0</ele><time>2026-04-09T09:03:35Z</time></trkpt><trkpt lat="38.01497780409164" lon="-1.1965804023165105"><ele>158.0</ele><time>2026-04-09T09:03:36Z</time></trkpt><trkpt lat="38.01497879265452" lon="-1.1967095084026662"><ele>158.0</ele><time>2026-04-09T09:03:37Z</time></trkpt><trkpt lat="38.0149815782368" lon="-1.1968416599260676"><ele>156.83333333333331</ele><time>2026-04-09T09:03:38Z</time></trkpt><trkpt lat="38.01499321279707" lon="-1.1969558732348227"><ele>155.66666666666666</ele><time>2026-04-09T09:03:39Z</time></trkpt><trkpt lat="38.01500896616455" lon="-1.1970447227185965"><ele>154.5</ele><time>2026-04-09T09:03:40Z</time></trkpt><trkpt lat="38.01507759202859" lon="-1.1971767328439151"><ele>153.33333333333334</ele><time>2026-04-09T09:03:42Z</time></trkpt><trkpt lat="38.01513385990613" lon="-1.1972444791719328"><ele>152.16666666666669</ele><time>2026-04-09T09:03:43Z</time></trkpt><trkpt lat="38.01520097340979" lon="-1.1973101546342622"><ele>151.0</ele><time>2026-04-09T09:03:44Z</time></trkpt><trkpt lat="38.0152707833426" lon="-1.1973750298967207"><ele>150.16666666666669</ele><time>2026-04-09T09:03:45Z</time></trkpt><trkpt lat="38.01534249217432" lon="-1.19745117139511"><ele>149.33333333333334</ele><time>2026-04-09T09:03:46Z</time></trkpt><trkpt lat="38.01541158156845" lon="-1.197496418162279"><ele>148.5</ele><time>2026-04-09T09:03:47Z</time></trkpt><trkpt lat="38.01548404217755" lon="-1.1975177310324792"><ele>147.66666666666666</ele><time>2026-04-09T09:03:48Z</time></trkpt><trkpt lat="38.01556620384834" lon="-1.1975179180195912"><ele>146.83333333333331</ele><time>2026-04-09T09:03:49Z</time></trkpt><trkpt lat="38.01564871425074" lon="-1.1975351606060471"><ele>146.0</ele><time>2026-04-09T09:03:50Z</time></trkpt><trkpt lat="38.01572304010275" lon="-1.1975842030133639"><ele>146.0</ele><time>2026-04-09T09:03:51Z</time></trkpt><trkpt lat="38.0157972803488" lon="-1.1976595449001393"><ele>146.0</ele><time>2026-04-09T09:03:52Z</time></trkpt><trkpt lat="38.01587770923479" lon="-1.197757900871652"><ele>146.0</ele><time>2026-04-09T09:03:53Z</time></trkpt><trkpt lat="38.01595703591401" lon="-1.1978473788810424"><ele>146.0</ele><time>2026-04-09T09:03:54Z</time></trkpt><trkpt lat="38.01602996255432" lon="-1.1979074443684188"><ele>146.0</ele><time>2026-04-09T09:03:55Z</time></trkpt><trkpt lat="38.01610561245423" lon="-1.1979377571915266"><ele>146.14285714285714</ele><time>2026-04-09T09:03:56Z</time></trkpt><trkpt lat="38.01617430635468" lon="-1.19795914000935"><ele>146.28571428571428</ele><time>2026-04-09T09:03:57Z</time></trkpt><trkpt lat="38.01623318837174" lon="-1.1980033627152702"><ele>146.42857142857144</ele><time>2026-04-09T09:03:58Z</time></trkpt><trkpt lat="38.016273628299146" lon="-1.1980700931535513"><ele>146.57142857142856</ele><time>2026-04-09T09:03:59Z</time></trkpt><trkpt lat="38.01630787875354" lon="-1.198153927143359"><ele>146.71428571428572</ele><time>2026-04-09T09:04:00Z</time></trkpt><trkpt lat="38.016345787654465" lon="-1.1982417569160684"><ele>146.85714285714286</ele><time>2026-04-09T09:04:01Z</time></trkpt><trkpt lat="38.016383012490095" lon="-1.198333301867487"><ele>147.0</ele><time>2026-04-09T09:04:02Z</time></trkpt><trkpt lat="38.01640615158315" lon="-1.1984127493119194"><ele>145.6</ele><time>2026-04-09T09:04:03Z</time></trkpt><trkpt lat="38.01642898669668" lon="-1.198553769239624"><ele>144.2</ele><time>2026-04-09T09:04:05Z</time></trkpt><trkpt lat="38.016425463918516" lon="-1.1986878042509148"><ele>142.8</ele><time>2026-04-09T09:04:07Z</time></trkpt><trkpt lat="38.01639476674364" lon="-1.198847132451039"><ele>141.4</ele><time>2026-04-09T09:04:09Z</time></trkpt><trkpt lat="38.016374341765825" lon="-1.1989285647987866"><ele>140.0</ele><time>2026-04-09T09:04:10Z</time></trkpt><trkpt lat="38.01635436609244" lon="-1.1990078090598624"><ele>137.0</ele><time>2026-04-09T09:04:11Z</time></trkpt><trkpt lat="38.01634157276258" lon="-1.1991477748395745"><ele>134.0</ele><time>2026-04-09T09:04:13Z</time></trkpt><trkpt lat="38.01635964918235" lon="-1.1992462436504105"><ele>131.0</ele><time>2026-04-09T09:04:15Z</time></trkpt><trkpt lat="38.016390866347926" lon="-1.1993464085062449"><ele>128.0</ele><time>2026-04-09T09:04:17Z</time></trkpt><trkpt lat="38.016404029345246" lon="-1.1994490053791003"><ele>125.0</ele><time>2026-04-09T09:04:19Z</time></trkpt><trkpt lat="38.01641084931195" lon="-1.1995668721224033"><ele>124.99999999999999</ele><time>2026-04-09T09:04:22Z</time></trkpt><trkpt lat="38.016423251477576" lon="-1.1996671559909349"><ele>125.0</ele><time>2026-04-09T09:04:24Z</time></trkpt><trkpt lat="38.01643066875477" lon="-1.199764339010878"><ele>125.0</ele><time>2026-04-09T09:04:26Z</time></trkpt><trkpt lat="38.01644278943964" lon="-1.199843079718724"><ele>125.0</ele><time>2026-04-09T09:04:28Z</time></trkpt><trkpt lat="38.01646309638679" lon="-1.1999372818496512"><ele>124.99999999999999</ele><time>2026-04-09T09:04:30Z</time></trkpt><trkpt lat="38.01651534918347" lon="-1.2000211201801247"><ele>125.0</ele><time>2026-04-09T09:04:32Z</time></trkpt><trkpt lat="38.016580219231024" lon="-1.200098933391943"><ele>123.6</ele><time>2026-04-09T09:04:34Z</time></trkpt><trkpt lat="38.01664275236903" lon="-1.2001861010804424"><ele>122.2</ele><time>2026-04-09T09:04:36Z</time></trkpt><trkpt lat="38.01671069599994" lon="-1.2002814697242896"><ele>120.80000000000001</ele><time>2026-04-09T09:04:38Z</time></trkpt><trkpt lat="38.01677778368348" lon="-1.2003726013899143"><ele>119.4</ele><time>2026-04-09T09:04:40Z</time></trkpt><trkpt lat="38.016842209974925" lon="-1.2004935521115998"><ele>118.0</ele><time>2026-04-09T09:04:42Z</time></trkpt><trkpt lat="38.01686731130002" lon="-1.2006015772255183"><ele>116.0</ele><time>2026-04-09T09:04:44Z</time></trkpt><trkpt lat="38.016863232506886" lon="-1.2006836326929564"><ele>114.0</ele><time>2026-04-09T09:04:46Z</time></trkpt><trkpt lat="38.01686837546129" lon="-1.2007699175874003"><ele>112.0</ele><time>2026-04-09T09:04:49Z</time></trkpt><trkpt lat="38.016862716063486" lon="-1.2008520749967417"><ele>110.0</ele><time>2026-04-09T09:04:53Z</time></trkpt><trkpt lat="38.016812131599984" lon="-1.200787061813027"><ele>108.0</ele><time>2026-04-09T09:05:25Z</time></trkpt><trkpt lat="38.016749465737036" lon="-1.2007446709731957"><ele>106.0</ele><time>2026-04-09T09:05:32Z</time></trkpt><trkpt lat="38.016812484666154" lon="-1.200693281686686"><ele>104.0</ele><time>2026-04-09T09:05:41Z</time></trkpt><trkpt lat="38.016882964889646" lon="-1.200753960967185"><ele>104.0</ele><time>2026-04-09T09:05:43Z</time></trkpt><trkpt lat="38.01686472617938" lon="-1.2008308247838504"><ele>104.0</ele><time>2026-04-09T09:05:47Z</time></trkpt><trkpt lat="38.01679324191176" lon="-1.2008141804739751"><ele>104.0</ele><time>2026-04-09T09:05:53Z</time></trkpt><trkpt lat="38.016713794327664" lon="-1.2008127194729956"><ele>104.0</ele><time>2026-04-09T09:06:03Z</time></trkpt><trkpt lat="38.01669042179129" lon="-1.2007375131295979"><ele>104.0</ele><time>2026-04-09T09:06:16Z</time></trkpt><trkpt lat="38.01664688940997" lon="-1.2006628243469921"><ele>104.0</ele><time>2026-04-09T09:06:19Z</time></trkpt><trkpt lat="38.01659450798391" lon="-1.2006067785969046"><ele>104.0</ele><time>2026-04-09T09:06:22Z</time></trkpt><trkpt lat="38.016536773227614" lon="-1.2005686907318651"><ele>106.0</ele><time>2026-04-09T09:06:25Z</time></trkpt><trkpt lat="38.01646989628931" lon="-1.2005619521894404"><ele>108.0</ele><time>2026-04-09T09:06:29Z</time></trkpt><trkpt lat="38.01637898531553" lon="-1.2005683144529342"><ele>110.0</ele><time>2026-04-09T09:06:32Z</time></trkpt><trkpt lat="38.0162990513805" lon="-1.2005367532619078"><ele>112.0</ele><time>2026-04-09T09:07:48Z</time></trkpt><trkpt lat="38.0162340590473" lon="-1.2005175724682822"><ele>114.0</ele><time>2026-04-09T09:07:56Z</time></trkpt><trkpt lat="38.01618002077814" lon="-1.2004643429719632"><ele>116.0</ele><time>2026-04-09T09:08:00Z</time></trkpt><trkpt lat="38.01615433259011" lon="-1.2003886436227034"><ele>118.0</ele><time>2026-04-09T09:08:04Z</time></trkpt><trkpt lat="38.01614755383693" lon="-1.2003086926081667"><ele>118.0</ele><time>2026-04-09T09:08:07Z</time></trkpt><trkpt lat="38.01616007150401" lon="-1.2004147748346305"><ele>118.0</ele><time>2026-04-09T09:08:47Z</time></trkpt><trkpt lat="38.01619772702291" lon="-1.200486515760759"><ele>118.0</ele><time>2026-04-09T09:08:50Z</time></trkpt><trkpt lat="38.016259587485806" lon="-1.2005161418528492"><ele>118.0</ele><time>2026-04-09T09:08:56Z</time></trkpt><trkpt lat="38.01632280226537" lon="-1.2005302435842173"><ele>118.0</ele><time>2026-04-09T09:09:06Z</time></trkpt><trkpt lat="38.01639623951969" lon="-1.2005571250558336"><ele>118.0</ele><time>2026-04-09T09:09:17Z</time></trkpt><trkpt lat="38.01646709920878" lon="-1.200539613822621"><ele>118.0</ele><time>2026-04-09T09:09:20Z</time></trkpt><trkpt lat="38.01654388712486" lon="-1.2005699500016989"><ele>118.00000000000001</ele><time>2026-04-09T09:09:24Z</time></trkpt><trkpt lat="38.01660451179068" lon="-1.200620568529052"><ele>118.0</ele><time>2026-04-09T09:09:27Z</time></trkpt><trkpt lat="38.016648087673055" lon="-1.2007012007029674"><ele>118.0</ele><time>2026-04-09T09:09:31Z</time></trkpt><trkpt lat="38.01664292206484" lon="-1.20080470241828"><ele>118.0</ele><time>2026-04-09T09:09:34Z</time></trkpt><trkpt lat="38.01662692909378" lon="-1.200907639791684"><ele>118.00000000000001</ele><time>2026-04-09T09:10:06Z</time></trkpt><trkpt lat="38.01657863094398" lon="-1.200971461354"><ele>118.0</ele><time>2026-04-09T09:10:11Z</time></trkpt><trkpt lat="38.016504016085015" lon="-1.2010031744400245"><ele>118.00000000000001</ele><time>2026-04-09T09:10:38Z</time></trkpt><trkpt lat="38.01644058444964" lon="-1.2010013736242358"><ele>118.0</ele><time>2026-04-09T09:10:40Z</time></trkpt><trkpt lat="38.016391483720476" lon="-1.2010814012696416"><ele>118.0</ele><time>2026-04-09T09:10:43Z</time></trkpt><trkpt lat="38.01638564501251" lon="-1.201171951515835"><ele>118.0</ele><time>2026-04-09T09:10:45Z</time></trkpt><trkpt lat="38.016395118630136" lon="-1.2013028369320067"><ele>118.00000000000001</ele><time>2026-04-09T09:10:48Z</time></trkpt><trkpt lat="38.016423968109585" lon="-1.2014076407236354"><ele>118.0</ele><time>2026-04-09T09:10:51Z</time></trkpt><trkpt lat="38.016461292096125" lon="-1.201474309174087"><ele>119.33333333333334</ele><time>2026-04-09T09:10:53Z</time></trkpt><trkpt lat="38.016524098150164" lon="-1.2015547396847879"><ele>120.66666666666667</ele><time>2026-04-09T09:10:56Z</time></trkpt><trkpt lat="38.016572324994435" lon="-1.2016068748536735"><ele>122.0</ele><time>2026-04-09T09:10:58Z</time></trkpt><trkpt lat="38.01663473917501" lon="-1.2016669547976626"><ele>123.33333333333334</ele><time>2026-04-09T09:11:01Z</time></trkpt><trkpt lat="38.01671542467653" lon="-1.2017189293359787"><ele>124.66666666666667</ele><time>2026-04-09T09:11:04Z</time></trkpt><trkpt lat="38.01676871240129" lon="-1.201763646749792"><ele>126.0</ele><time>2026-04-09T09:11:06Z</time></trkpt><trkpt lat="38.0168398582913" lon="-1.2017629457900292"><ele>122.66666666666667</ele><time>2026-04-09T09:11:08Z</time></trkpt><trkpt lat="38.016923198172435" lon="-1.201766658276867"><ele>119.33333333333334</ele><time>2026-04-09T09:11:11Z</time></trkpt><trkpt lat="38.01700149401665" lon="-1.2018050365039166"><ele>116.0</ele><time>2026-04-09T09:11:14Z</time></trkpt><trkpt lat="38.01707350887359" lon="-1.201829626556956"><ele>112.66666666666667</ele><time>2026-04-09T09:11:16Z</time></trkpt><trkpt lat="38.017127953420335" lon="-1.2018761927043857"><ele>109.33333333333334</ele><time>2026-04-09T09:11:18Z</time></trkpt><trkpt lat="38.017170146529246" lon="-1.2019482632076983"><ele>106.0</ele><time>2026-04-09T09:11:20Z</time></trkpt><trkpt lat="38.01719604657039" lon="-1.2020517062673048"><ele>106.00000000000001</ele><time>2026-04-09T09:11:23Z</time></trkpt><trkpt lat="38.01719461815091" lon="-1.2021448306495726"><ele>106.0</ele><time>2026-04-09T09:11:26Z</time></trkpt><trkpt lat="38.01716341316302" lon="-1.2022412744243798"><ele>106.0</ele><time>2026-04-09T09:11:46Z</time></trkpt><trkpt lat="38.017097862398636" lon="-1.202307349085466"><ele>106.0</ele><time>2026-04-09T09:11:48Z</time></trkpt><trkpt lat="38.0170315885177" lon="-1.2023681015287064"><ele>106.00000000000001</ele><time>2026-04-09T09:11:50Z</time></trkpt><trkpt lat="38.01694192275983" lon="-1.2024134325581757"><ele>106.0</ele><time>2026-04-09T09:11:52Z</time></trkpt><trkpt lat="38.016862653483386" lon="-1.2024535550018725"><ele>106.66666666666667</ele><time>2026-04-09T09:11:54Z</time></trkpt><trkpt lat="38.01677800854648" lon="-1.2025001330543605"><ele>107.33333333333334</ele><time>2026-04-09T09:11:56Z</time></trkpt><trkpt lat="38.01669523504528" lon="-1.202554626282036"><ele>108.0</ele><time>2026-04-09T09:11:58Z</time></trkpt><trkpt lat="38.01660850325515" lon="-1.202591992746596"><ele>108.66666666666666</ele><time>2026-04-09T09:12:00Z</time></trkpt><trkpt lat="38.01653097214912" lon="-1.2026452571142452"><ele>109.33333333333333</ele><time>2026-04-09T09:12:02Z</time></trkpt><trkpt lat="38.01647241324169" lon="-1.2026986728983975"><ele>110.0</ele><time>2026-04-09T09:12:04Z</time></trkpt><trkpt lat="38.01640887564098" lon="-1.2027088210817538"><ele>110.14285714285714</ele><time>2026-04-09T09:12:09Z</time></trkpt><trkpt lat="38.01642986206123" lon="-1.2027864797570116"><ele>110.28571428571428</ele><time>2026-04-09T09:12:37Z</time></trkpt><trkpt lat="38.01643509078523" lon="-1.2028667751349058"><ele>110.42857142857142</ele><time>2026-04-09T09:12:48Z</time></trkpt><trkpt lat="38.01649099055267" lon="-1.2029161986768606"><ele>110.57142857142857</ele><time>2026-04-09T09:12:51Z</time></trkpt><trkpt lat="38.01653506458741" lon="-1.2030079896663606"><ele>110.71428571428572</ele><time>2026-04-09T09:12:53Z</time></trkpt><trkpt lat="38.0165336753462" lon="-1.2031280010139656"><ele>110.85714285714285</ele><time>2026-04-09T09:12:56Z</time></trkpt><trkpt lat="38.01653576910008" lon="-1.2032139211917574"><ele>111.0</ele><time>2026-04-09T09:12:59Z</time></trkpt><trkpt lat="38.016531073500964" lon="-1.2034519572265139"><ele>111.0</ele><time>2026-04-09T09:13:02Z</time></trkpt><trkpt lat="38.01654220599367" lon="-1.2035440827810175"><ele>111.0</ele><time>2026-04-09T09:13:04Z</time></trkpt><trkpt lat="38.01653684803729" lon="-1.203629510614002"><ele>111.0</ele><time>2026-04-09T09:13:06Z</time></trkpt><trkpt lat="38.01656802583544" lon="-1.2037338375077613"><ele>111.0</ele><time>2026-04-09T09:13:08Z</time></trkpt><trkpt lat="38.016616667583385" lon="-1.203845814241248"><ele>111.0</ele><time>2026-04-09T09:13:10Z</time></trkpt><trkpt lat="38.01666561999799" lon="-1.2039717308582707"><ele>111.0</ele><time>2026-04-09T09:13:12Z</time></trkpt><trkpt lat="38.01671538065911" lon="-1.2040987480742957"><ele>108.66666666666667</ele><time>2026-04-09T09:13:14Z</time></trkpt><trkpt lat="38.01676020749767" lon="-1.2041570685415655"><ele>106.33333333333334</ele><time>2026-04-09T09:13:15Z</time></trkpt><trkpt lat="38.01681595994918" lon="-1.204218455224019"><ele>104.0</ele><time>2026-04-09T09:13:16Z</time></trkpt><trkpt lat="38.01691673607993" lon="-1.2043037075032537"><ele>101.66666666666667</ele><time>2026-04-09T09:13:18Z</time></trkpt><trkpt lat="38.01698234162649" lon="-1.204377853226955"><ele>99.33333333333334</ele><time>2026-04-09T09:13:20Z</time></trkpt><trkpt lat="38.01706120882959" lon="-1.2044577517116337"><ele>97.0</ele><time>2026-04-09T09:13:22Z</time></trkpt><trkpt lat="38.01715730644969" lon="-1.2044934107547842"><ele>97.00000000000001</ele><time>2026-04-09T09:13:24Z</time></trkpt><trkpt lat="38.017199730013246" lon="-1.2046103357589735"><ele>97.0</ele><time>2026-04-09T09:13:26Z</time></trkpt><trkpt lat="38.017210256933204" lon="-1.2046963603118275"><ele>97.0</ele><time>2026-04-09T09:13:30Z</time></trkpt><trkpt lat="38.01722790935449" lon="-1.2048094686531108"><ele>97.0</ele><time>2026-04-09T09:13:33Z</time></trkpt><trkpt lat="38.01721237712725" lon="-1.2048889825233071"><ele>97.00000000000001</ele><time>2026-04-09T09:13:35Z</time></trkpt><trkpt lat="38.017199342177" lon="-1.2049827822191859"><ele>97.0</ele><time>2026-04-09T09:13:37Z</time></trkpt><trkpt lat="38.01720999997265" lon="-1.2050841598149025"><ele>96.16666666666667</ele><time>2026-04-09T09:13:38Z</time></trkpt><trkpt lat="38.017167605633055" lon="-1.2051577476652122"><ele>95.33333333333334</ele><time>2026-04-09T09:13:41Z</time></trkpt><trkpt lat="38.0170890423703" lon="-1.205180995629546"><ele>94.5</ele><time>2026-04-09T09:13:44Z</time></trkpt><trkpt lat="38.0170438503894" lon="-1.2052390659918784"><ele>93.66666666666667</ele><time>2026-04-09T09:13:46Z</time></trkpt><trkpt lat="38.016977488217385" lon="-1.2052905264385174"><ele>92.83333333333334</ele><time>2026-04-09T09:13:48Z</time></trkpt><trkpt lat="38.01690847955395" lon="-1.2052777796866323"><ele>92.0</ele><time>2026-04-09T09:13:49Z</time></trkpt><trkpt lat="38.01680486744838" lon="-1.2052285992870213"><ele>92.0</ele><time>2026-04-09T09:13:51Z</time></trkpt><trkpt lat="38.0167272536903" lon="-1.205235904725284"><ele>92.0</ele><time>2026-04-09T09:13:53Z</time></trkpt><trkpt lat="38.01668518450155" lon="-1.2053198090217265"><ele>92.0</ele><time>2026-04-09T09:13:55Z</time></trkpt><trkpt lat="38.016778237365706" lon="-1.2054351347165753"><ele>92.0</ele><time>2026-04-09T09:13:57Z</time></trkpt><trkpt lat="38.01684602321726" lon="-1.2054932313030058"><ele>92.0</ele><time>2026-04-09T09:14:01Z</time></trkpt><trkpt lat="38.01691051630832" lon="-1.2055255452464535"><ele>92.0</ele><time>2026-04-09T09:14:03Z</time></trkpt><trkpt lat="38.01698172156486" lon="-1.2056252076736296"><ele>91.75</ele><time>2026-04-09T09:14:06Z</time></trkpt><trkpt lat="38.01716966765835" lon="-1.2058541630874977"><ele>91.5</ele><time>2026-04-09T09:14:07Z</time></trkpt><trkpt lat="38.017230462459715" lon="-1.2059745007833482"><ele>91.25</ele><time>2026-04-09T09:14:09Z</time></trkpt><trkpt lat="38.01726615484344" lon="-1.2060598373601765"><ele>91.0</ele><time>2026-04-09T09:14:11Z</time></trkpt><trkpt lat="38.01732420699019" lon="-1.2061000404237547"><ele>91.0</ele><time>2026-04-09T09:14:13Z</time></trkpt><trkpt lat="38.0173897431242" lon="-1.2060534025386243"><ele>91.0</ele><time>2026-04-09T09:14:15Z</time></trkpt><trkpt lat="38.017434730972106" lon="-1.2059919994900374"><ele>91.0</ele><time>2026-04-09T09:14:16Z</time></trkpt><trkpt lat="38.01749005471891" lon="-1.2058795976879892"><ele>91.0</ele><time>2026-04-09T09:14:18Z</time></trkpt><trkpt lat="38.017564804555896" lon="-1.2058484344528997"><ele>91.0</ele><time>2026-04-09T09:14:21Z</time></trkpt><trkpt lat="38.017598609105285" lon="-1.2059430455978"><ele>91.0</ele><time>2026-04-09T09:14:23Z</time></trkpt><trkpt lat="38.017586481536306" lon="-1.206119141077566"><ele>89.6</ele><time>2026-04-09T09:14:25Z</time></trkpt><trkpt lat="38.01760657953038" lon="-1.2062870378204138"><ele>88.19999999999999</ele><time>2026-04-09T09:14:27Z</time></trkpt><trkpt lat="38.01768470467597" lon="-1.2063818977763758"><ele>86.80000000000001</ele><time>2026-04-09T09:14:28Z</time></trkpt><trkpt lat="38.017754829417655" lon="-1.2064518160354791"><ele>85.4</ele><time>2026-04-09T09:14:29Z</time></trkpt><trkpt lat="38.01780660901092" lon="-1.2065191259906687"><ele>84.0</ele><time>2026-04-09T09:14:30Z</time></trkpt><trkpt lat="38.01786837060129" lon="-1.2065792278670664"><ele>83.28571428571429</ele><time>2026-04-09T09:14:33Z</time></trkpt><trkpt lat="38.01787141777572" lon="-1.2066791771554755"><ele>82.57142857142857</ele><time>2026-04-09T09:14:35Z</time></trkpt><trkpt lat="38.01788144364635" lon="-1.206760039801392"><ele>81.85714285714286</ele><time>2026-04-09T09:14:37Z</time></trkpt><trkpt lat="38.017839004400315" lon="-1.2068356960032163"><ele>81.14285714285714</ele><time>2026-04-09T09:14:40Z</time></trkpt><trkpt lat="38.01776284958778" lon="-1.2068824256366526"><ele>80.42857142857143</ele><time>2026-04-09T09:14:42Z</time></trkpt><trkpt lat="38.01769471085057" lon="-1.2068721679828358"><ele>79.71428571428572</ele><time>2026-04-09T09:14:45Z</time></trkpt><trkpt lat="38.01762487595338" lon="-1.2068326321223701"><ele>79.0</ele><time>2026-04-09T09:14:48Z</time></trkpt><trkpt lat="38.017543159152964" lon="-1.2068096278244662"><ele>81.5</ele><time>2026-04-09T09:14:49Z</time></trkpt><trkpt lat="38.0174824325737" lon="-1.206830970790964"><ele>84.0</ele><time>2026-04-09T09:14:51Z</time></trkpt><trkpt lat="38.01741624122903" lon="-1.2068596927051642"><ele>86.5</ele><time>2026-04-09T09:14:52Z</time></trkpt><trkpt lat="38.01735731935594" lon="-1.2069086937430995"><ele>89.0</ele><time>2026-04-09T09:14:54Z</time></trkpt><trkpt lat="38.017264312672914" lon="-1.2069952255539516"><ele>91.5</ele><time>2026-04-09T09:14:56Z</time></trkpt><trkpt lat="38.017178883161435" lon="-1.207071650568779"><ele>94.0</ele><time>2026-04-09T09:14:58Z</time></trkpt><trkpt lat="38.01714191175915" lon="-1.2071502609410836"><ele>94.0</ele><time>2026-04-09T09:15:00Z</time></trkpt><trkpt lat="38.017063530534244" lon="-1.2072613690051226"><ele>94.0</ele><time>2026-04-09T09:15:02Z</time></trkpt><trkpt lat="38.01701740532397" lon="-1.2073414251085286"><ele>94.0</ele><time>2026-04-09T09:15:03Z</time></trkpt><trkpt lat="38.01699887257209" lon="-1.2074637233885865"><ele>94.0</ele><time>2026-04-09T09:15:05Z</time></trkpt><trkpt lat="38.01706047373126" lon="-1.2075561203758916"><ele>94.0</ele><time>2026-04-09T09:15:14Z</time></trkpt><trkpt lat="38.017098055043995" lon="-1.2076287814036732"><ele>93.0</ele><time>2026-04-09T09:15:17Z</time></trkpt><trkpt lat="38.01714185159077" lon="-1.2077470052689063"><ele>92.0</ele><time>2026-04-09T09:15:20Z</time></trkpt><trkpt lat="38.01719379495109" lon="-1.2078489996389492"><ele>91.0</ele><time>2026-04-09T09:15:22Z</time></trkpt><trkpt lat="38.01723583123117" lon="-1.2079309462260075"><ele>90.0</ele><time>2026-04-09T09:15:24Z</time></trkpt><trkpt lat="38.01728755076657" lon="-1.2080044029797012"><ele>89.0</ele><time>2026-04-09T09:15:26Z</time></trkpt><trkpt lat="38.017353585552556" lon="-1.2081077732067416"><ele>87.83333333333334</ele><time>2026-04-09T09:15:28Z</time></trkpt><trkpt lat="38.01740713498315" lon="-1.208171475592441"><ele>86.66666666666667</ele><time>2026-04-09T09:15:30Z</time></trkpt><trkpt lat="38.01746147667038" lon="-1.208239739950344"><ele>85.5</ele><time>2026-04-09T09:15:32Z</time></trkpt><trkpt lat="38.01748074451097" lon="-1.2083492117322803"><ele>84.33333333333333</ele><time>2026-04-09T09:15:34Z</time></trkpt><trkpt lat="38.017445786525364" lon="-1.2085074753160698"><ele>83.16666666666666</ele><time>2026-04-09T09:15:36Z</time></trkpt><trkpt lat="38.01742082033544" lon="-1.2085839538576095"><ele>82.0</ele><time>2026-04-09T09:15:37Z</time></trkpt><trkpt lat="38.01739856630543" lon="-1.208661075841259"><ele>82.0</ele><time>2026-04-09T09:15:38Z</time></trkpt><trkpt lat="38.01738161448028" lon="-1.2087398143042505"><ele>82.0</ele><time>2026-04-09T09:15:39Z</time></trkpt><trkpt lat="38.017368204632845" lon="-1.208830281158259"><ele>82.0</ele><time>2026-04-09T09:15:40Z</time></trkpt><trkpt lat="38.01736107730253" lon="-1.208933715710984"><ele>82.0</ele><time>2026-04-09T09:15:41Z</time></trkpt><trkpt lat="38.01735945567632" lon="-1.2090463164891174"><ele>82.0</ele><time>2026-04-09T09:15:42Z</time></trkpt><trkpt lat="38.01736438509279" lon="-1.2091402574849923"><ele>82.0</ele><time>2026-04-09T09:15:43Z</time></trkpt><trkpt lat="38.017386647493986" lon="-1.209242255829279"><ele>80.16666666666666</ele><time>2026-04-09T09:15:44Z</time></trkpt><trkpt lat="38.01741491420482" lon="-1.20936336942489"><ele>78.33333333333333</ele><time>2026-04-09T09:15:45Z</time></trkpt><trkpt lat="38.01743360346001" lon="-1.209460366322983"><ele>76.5</ele><time>2026-04-09T09:15:46Z</time></trkpt><trkpt lat="38.017449261545316" lon="-1.2095780643617475"><ele>74.66666666666667</ele><time>2026-04-09T09:15:48Z</time></trkpt><trkpt lat="38.01742017325032" lon="-1.2096804046754177"><ele>72.83333333333334</ele><time>2026-04-09T09:16:05Z</time></trkpt><trkpt lat="38.01739108123935" lon="-1.209600028184772"><ele>71.0</ele><time>2026-04-09T09:16:09Z</time></trkpt><trkpt lat="38.01740974100493" lon="-1.2094174881475994"><ele>71.0</ele><time>2026-04-09T09:16:11Z</time></trkpt><trkpt lat="38.017376035924244" lon="-1.209294903593189"><ele>71.0</ele><time>2026-04-09T09:16:12Z</time></trkpt><trkpt lat="38.017346309721034" lon="-1.2091491406944328"><ele>71.0</ele><time>2026-04-09T09:16:13Z</time></trkpt><trkpt lat="38.017336292619426" lon="-1.209042560390475"><ele>71.0</ele><time>2026-04-09T09:16:14Z</time></trkpt><trkpt lat="38.01733343265992" lon="-1.2089422299761388"><ele>71.0</ele><time>2026-04-09T09:16:15Z</time></trkpt><trkpt lat="38.017343084852364" lon="-1.2088236514731563"><ele>72.83333333333334</ele><time>2026-04-09T09:16:16Z</time></trkpt><trkpt lat="38.01736249310162" lon="-1.2087351386505842"><ele>74.66666666666667</ele><time>2026-04-09T09:16:17Z</time></trkpt><trkpt lat="38.01739003116413" lon="-1.2086448664631864"><ele>76.5</ele><time>2026-04-09T09:16:18Z</time></trkpt><trkpt lat="38.017421679391056" lon="-1.2085447254474249"><ele>78.33333333333333</ele><time>2026-04-09T09:16:19Z</time></trkpt><trkpt lat="38.0174483185285" lon="-1.2084371461606889"><ele>80.16666666666666</ele><time>2026-04-09T09:16:20Z</time></trkpt><trkpt lat="38.01746431120747" lon="-1.208350250163248"><ele>82.0</ele><time>2026-04-09T09:16:21Z</time></trkpt><trkpt lat="38.01744946882823" lon="-1.2082514657193753"><ele>82.0</ele><time>2026-04-09T09:16:23Z</time></trkpt><trkpt lat="38.017405957953464" lon="-1.2081721900950653"><ele>82.0</ele><time>2026-04-09T09:16:25Z</time></trkpt><trkpt lat="38.01732504049624" lon="-1.2080895896880202"><ele>82.0</ele><time>2026-04-09T09:16:27Z</time></trkpt><trkpt lat="38.017264479570386" lon="-1.2079913784346847"><ele>82.0</ele><time>2026-04-09T09:16:30Z</time></trkpt><trkpt lat="38.01721705179845" lon="-1.2079258055713282"><ele>82.0</ele><time>2026-04-09T09:16:32Z</time></trkpt><trkpt lat="38.01717610342827" lon="-1.2078458730589696"><ele>82.0</ele><time>2026-04-09T09:16:35Z</time></trkpt><trkpt lat="38.01713407954899" lon="-1.2077586552243205"><ele>83.39999999999999</ele><time>2026-04-09T09:16:36Z</time></trkpt><trkpt lat="38.017104647597115" lon="-1.2076840246917442"><ele>84.8</ele><time>2026-04-09T09:16:39Z</time></trkpt><trkpt lat="38.01703134398799" lon="-1.207562778037097"><ele>86.2</ele><time>2026-04-09T09:16:42Z</time></trkpt><trkpt lat="38.01699723205071" lon="-1.2074943084655816"><ele>87.6</ele><time>2026-04-09T09:16:43Z</time></trkpt><trkpt lat="38.01702133181136" lon="-1.207419549771165"><ele>89.0</ele><time>2026-04-09T09:16:45Z</time></trkpt><trkpt lat="38.01705699896723" lon="-1.2071942470975727"><ele>89.83333333333334</ele><time>2026-04-09T09:16:47Z</time></trkpt><trkpt lat="38.0171179483436" lon="-1.2071219220711606"><ele>90.66666666666667</ele><time>2026-04-09T09:16:48Z</time></trkpt><trkpt lat="38.01717057597202" lon="-1.2070648257095251"><ele>91.5</ele><time>2026-04-09T09:16:49Z</time></trkpt><trkpt lat="38.0172373907298" lon="-1.2069981409470478"><ele>92.33333333333333</ele><time>2026-04-09T09:16:51Z</time></trkpt><trkpt lat="38.01731258119969" lon="-1.2069475328158457"><ele>93.16666666666666</ele><time>2026-04-09T09:16:53Z</time></trkpt><trkpt lat="38.01739032180198" lon="-1.2068951015969023"><ele>94.0</ele><time>2026-04-09T09:16:55Z</time></trkpt><trkpt lat="38.01746494419176" lon="-1.206843627319848"><ele>91.0</ele><time>2026-04-09T09:16:57Z</time></trkpt><trkpt lat="38.01754651996237" lon="-1.2068016482613595"><ele>88.0</ele><time>2026-04-09T09:16:59Z</time></trkpt><trkpt lat="38.01764397124691" lon="-1.2068182311549518"><ele>85.0</ele><time>2026-04-09T09:17:01Z</time></trkpt><trkpt lat="38.01774864264666" lon="-1.2068645680744512"><ele>82.0</ele><time>2026-04-09T09:17:03Z</time></trkpt><trkpt lat="38.01782583338974" lon="-1.2069019217348795"><ele>79.0</ele><time>2026-04-09T09:17:05Z</time></trkpt><trkpt lat="38.01788149756497" lon="-1.206812058023254"><ele>79.0</ele><time>2026-04-09T09:17:07Z</time></trkpt><trkpt lat="38.01790368132897" lon="-1.2067331627483158"><ele>79.0</ele><time>2026-04-09T09:17:09Z</time></trkpt><trkpt lat="38.01786147928218" lon="-1.206626994444361"><ele>79.0</ele><time>2026-04-09T09:17:11Z</time></trkpt><trkpt lat="38.017798470716286" lon="-1.2065258394017833"><ele>79.0</ele><time>2026-04-09T09:17:15Z</time></trkpt><trkpt lat="38.01771119275748" lon="-1.2064019419165415"><ele>79.0</ele><time>2026-04-09T09:17:16Z</time></trkpt><trkpt lat="38.01763824193376" lon="-1.2063096312220511"><ele>80.0</ele><time>2026-04-09T09:17:17Z</time></trkpt><trkpt lat="38.01756515099149" lon="-1.2061981017234533"><ele>81.0</ele><time>2026-04-09T09:17:19Z</time></trkpt><trkpt lat="38.01755619226172" lon="-1.2060652699349659"><ele>82.0</ele><time>2026-04-09T09:17:21Z</time></trkpt><trkpt lat="38.01756080720355" lon="-1.2059257190069266"><ele>83.0</ele><time>2026-04-09T09:17:23Z</time></trkpt><trkpt lat="38.017551586901206" lon="-1.205846355627434"><ele>84.0</ele><time>2026-04-09T09:17:25Z</time></trkpt><trkpt lat="38.017487282250435" lon="-1.2058608854221295"><ele>85.4</ele><time>2026-04-09T09:17:27Z</time></trkpt><trkpt lat="38.017432949415664" lon="-1.2059384317526698"><ele>86.80000000000001</ele><time>2026-04-09T09:17:29Z</time></trkpt><trkpt lat="38.01738124071833" lon="-1.2060167696302937"><ele>88.19999999999999</ele><time>2026-04-09T09:17:30Z</time></trkpt><trkpt lat="38.01730103678648" lon="-1.2060764803428794"><ele>89.6</ele><time>2026-04-09T09:17:32Z</time></trkpt><trkpt lat="38.01727785351009" lon="-1.2059766256258106"><ele>91.0</ele><time>2026-04-09T09:17:35Z</time></trkpt><trkpt lat="38.01719979825722" lon="-1.2058571161285367"><ele>91.0</ele><time>2026-04-09T09:17:38Z</time></trkpt><trkpt lat="38.01711501838945" lon="-1.2057633825362537"><ele>91.0</ele><time>2026-04-09T09:17:40Z</time></trkpt><trkpt lat="38.016973939374" lon="-1.2056115366238476"><ele>91.0</ele><time>2026-04-09T09:17:42Z</time></trkpt><trkpt lat="38.01691647837811" lon="-1.2055495180527702"><ele>91.0</ele><time>2026-04-09T09:17:43Z</time></trkpt><trkpt lat="38.01684157272076" lon="-1.2054828027807516"><ele>91.19999999999999</ele><time>2026-04-09T09:17:45Z</time></trkpt><trkpt lat="38.016760033020546" lon="-1.205428329234002"><ele>91.39999999999999</ele><time>2026-04-09T09:17:47Z</time></trkpt><trkpt lat="38.01670019747552" lon="-1.2053559170415482"><ele>91.6</ele><time>2026-04-09T09:17:49Z</time></trkpt><trkpt lat="38.016696680865046" lon="-1.2052247963706597"><ele>91.8</ele><time>2026-04-09T09:17:51Z</time></trkpt><trkpt lat="38.01677791053246" lon="-1.20515671495387"><ele>92.0</ele><time>2026-04-09T09:17:53Z</time></trkpt><trkpt lat="38.01688278455999" lon="-1.2051522747576704"><ele>92.0</ele><time>2026-04-09T09:17:54Z</time></trkpt><trkpt lat="38.01711553797899" lon="-1.2052753528012417"><ele>92.0</ele><time>2026-04-09T09:17:55Z</time></trkpt><trkpt lat="38.017189012228044" lon="-1.2053100184046504"><ele>92.0</ele><time>2026-04-09T09:17:56Z</time></trkpt><trkpt lat="38.01731135224773" lon="-1.2053145803422671"><ele>92.0</ele><time>2026-04-09T09:17:58Z</time></trkpt><trkpt lat="38.017389343748086" lon="-1.205316143743092"><ele>92.0</ele><time>2026-04-09T09:17:59Z</time></trkpt><trkpt lat="38.01747889445581" lon="-1.2052718778774512"><ele>92.0</ele><time>2026-04-09T09:18:00Z</time></trkpt><trkpt lat="38.01756564769706" lon="-1.205291284470446"><ele>92.0</ele><time>2026-04-09T09:18:02Z</time></trkpt><trkpt lat="38.01761484543587" lon="-1.2052137267119536"><ele>92.0</ele><time>2026-04-09T09:18:05Z</time></trkpt><trkpt lat="38.017607689033106" lon="-1.205115622950976"><ele>92.0</ele><time>2026-04-09T09:18:07Z</time></trkpt><trkpt lat="38.01762368182926" lon="-1.2047903871139958"><ele>92.0</ele><time>2026-04-09T09:18:10Z</time></trkpt><trkpt lat="38.01764227245856" lon="-1.2046966608114889"><ele>92.0</ele><time>2026-04-09T09:18:12Z</time></trkpt><trkpt lat="38.01766439025188" lon="-1.2045840150336729"><ele>92.0</ele><time>2026-04-09T09:18:26Z</time></trkpt><trkpt lat="38.01759443067138" lon="-1.2045304621976491"><ele>92.0</ele><time>2026-04-09T09:18:30Z</time></trkpt><trkpt lat="38.01752462948978" lon="-1.2044916307178444"><ele>92.0</ele><time>2026-04-09T09:18:37Z</time></trkpt><trkpt lat="38.01746484266557" lon="-1.2044424533912994"><ele>92.0</ele><time>2026-04-09T09:18:39Z</time></trkpt><trkpt lat="38.017404796533555" lon="-1.2043898130597055"><ele>92.83333333333334</ele><time>2026-04-09T09:18:42Z</time></trkpt><trkpt lat="38.01732688547489" lon="-1.2043543159798287"><ele>93.66666666666667</ele><time>2026-04-09T09:18:44Z</time></trkpt><trkpt lat="38.017239621699254" lon="-1.204291404692807"><ele>94.5</ele><time>2026-04-09T09:18:46Z</time></trkpt><trkpt lat="38.01716979107515" lon="-1.204217732320965"><ele>95.33333333333334</ele><time>2026-04-09T09:18:49Z</time></trkpt><trkpt lat="38.0171323484044" lon="-1.204129957549715"><ele>96.16666666666667</ele><time>2026-04-09T09:18:51Z</time></trkpt><trkpt lat="38.01707856213475" lon="-1.2040722597052707"><ele>97.0</ele><time>2026-04-09T09:18:52Z</time></trkpt><trkpt lat="38.017028844923615" lon="-1.2039963421553443"><ele>98.33333333333334</ele><time>2026-04-09T09:18:55Z</time></trkpt><trkpt lat="38.01696733224359" lon="-1.2039256917443613"><ele>99.66666666666667</ele><time>2026-04-09T09:18:58Z</time></trkpt><trkpt lat="38.01690074984804" lon="-1.2038681304049397"><ele>101.0</ele><time>2026-04-09T09:18:59Z</time></trkpt><trkpt lat="38.01683013509145" lon="-1.2037725161190878"><ele>102.33333333333334</ele><time>2026-04-09T09:19:01Z</time></trkpt><trkpt lat="38.0167957556619" lon="-1.2036742952071666"><ele>103.66666666666667</ele><time>2026-04-09T09:19:03Z</time></trkpt><trkpt lat="38.0168095171004" lon="-1.203586972331407"><ele>105.0</ele><time>2026-04-09T09:19:05Z</time></trkpt><trkpt lat="38.01686349023499" lon="-1.203516516974611"><ele>105.0</ele><time>2026-04-09T09:19:07Z</time></trkpt><trkpt lat="38.01695839808573" lon="-1.2034683038199308"><ele>105.0</ele><time>2026-04-09T09:19:09Z</time></trkpt><trkpt lat="38.01707662367171" lon="-1.2034402045103556"><ele>105.0</ele><time>2026-04-09T09:19:11Z</time></trkpt><trkpt lat="38.017143678072046" lon="-1.2034270613634335"><ele>105.0</ele><time>2026-04-09T09:19:12Z</time></trkpt><trkpt lat="38.01721324890768" lon="-1.2034069315788467"><ele>105.0</ele><time>2026-04-09T09:19:13Z</time></trkpt><trkpt lat="38.017299575526025" lon="-1.2033642333995498"><ele>105.0</ele><time>2026-04-09T09:19:15Z</time></trkpt><trkpt lat="38.0173767794311" lon="-1.203334297134251"><ele>105.0</ele><time>2026-04-09T09:19:17Z</time></trkpt><trkpt lat="38.017463757608226" lon="-1.203349608803746"><ele>105.0</ele><time>2026-04-09T09:19:19Z</time></trkpt><trkpt lat="38.01754551660782" lon="-1.203376583910045"><ele>105.0</ele><time>2026-04-09T09:19:21Z</time></trkpt><trkpt lat="38.01760374306094" lon="-1.20334364195602"><ele>105.0</ele><time>2026-04-09T09:19:24Z</time></trkpt><trkpt lat="38.01766720094944" lon="-1.2032744789280614"><ele>105.0</ele><time>2026-04-09T09:19:27Z</time></trkpt><trkpt lat="38.01772350480683" lon="-1.2032368584605933"><ele>104.14285714285714</ele><time>2026-04-09T09:19:32Z</time></trkpt><trkpt lat="38.01778071466692" lon="-1.2031846140897386"><ele>103.28571428571428</ele><time>2026-04-09T09:19:57Z</time></trkpt><trkpt lat="38.017804247603635" lon="-1.2030989352442913"><ele>102.42857142857143</ele><time>2026-04-09T09:20:31Z</time></trkpt><trkpt lat="38.01785045101363" lon="-1.2030393063506222"><ele>101.57142857142857</ele><time>2026-04-09T09:32:31Z</time></trkpt><trkpt lat="38.01783326568825" lon="-1.202954572636859"><ele>100.71428571428571</ele><time>2026-04-09T09:32:37Z</time></trkpt><trkpt lat="38.01777847287147" lon="-1.2028792045057293"><ele>99.85714285714286</ele><time>2026-04-09T09:32:41Z</time></trkpt><trkpt lat="38.01775826946892" lon="-1.2027953131488727"><ele>99.0</ele><time>2026-04-09T09:32:53Z</time></trkpt><trkpt lat="38.01774091839742" lon="-1.202716559644667"><ele>99.0</ele><time>2026-04-09T09:33:01Z</time></trkpt><trkpt lat="38.01767383750575" lon="-1.2026829545597408"><ele>99.0</ele><time>2026-04-09T09:33:11Z</time></trkpt><trkpt lat="38.017606821885416" lon="-1.2026372648677246"><ele>99.0</ele><time>2026-04-09T09:33:19Z</time></trkpt><trkpt lat="38.01754471846792" lon="-1.2026505799058342"><ele>99.0</ele><time>2026-04-09T09:33:25Z</time></trkpt><trkpt lat="38.017475061519384" lon="-1.2026766989526994"><ele>99.0</ele><time>2026-04-09T09:33:32Z</time></trkpt><trkpt lat="38.01740280053932" lon="-1.202681144926232"><ele>99.0</ele><time>2026-04-09T09:33:44Z</time></trkpt><trkpt lat="38.01747418115774" lon="-1.202702689696524"><ele>99.0</ele><time>2026-04-09T09:34:43Z</time></trkpt><trkpt lat="38.017537005293654" lon="-1.2026714973987598"><ele>99.0</ele><time>2026-04-09T09:34:50Z</time></trkpt><trkpt lat="38.01760855070563" lon="-1.2026676942435284"><ele>99.0</ele><time>2026-04-09T09:35:00Z</time></trkpt><trkpt lat="38.0176684182259" lon="-1.2027012642742956"><ele>99.0</ele><time>2026-04-09T09:35:09Z</time></trkpt><trkpt lat="38.017726559623114" lon="-1.2027531000294167"><ele>99.0</ele><time>2026-04-09T09:35:18Z</time></trkpt><trkpt lat="38.0177629230731" lon="-1.2028304210088188"><ele>99.0</ele><time>2026-04-09T09:35:27Z</time></trkpt><trkpt lat="38.01779131275375" lon="-1.2029076512440404"><ele>99.0</ele><time>2026-04-09T09:35:37Z</time></trkpt><trkpt lat="38.017787003965246" lon="-1.2029900915681226"><ele>99.0</ele><time>2026-04-09T09:35:52Z</time></trkpt><trkpt lat="38.01779214946513" lon="-1.2030697333691736"><ele>99.0</ele><time>2026-04-09T09:36:01Z</time></trkpt><trkpt lat="38.01778230054547" lon="-1.2031555749415326"><ele>99.0</ele><time>2026-04-09T09:36:24Z</time></trkpt><trkpt lat="38.0177246397514" lon="-1.2032345192873508"><ele>99.0</ele><time>2026-04-09T09:38:04Z</time></trkpt><trkpt lat="38.01766357713594" lon="-1.203275449774891"><ele>99.0</ele><time>2026-04-09T09:43:34Z</time></trkpt><trkpt lat="38.01760559233963" lon="-1.2033243409551564"><ele>99.0</ele><time>2026-04-09T09:43:35Z</time></trkpt><trkpt lat="38.01752809282761" lon="-1.203352433813454"><ele>99.0</ele><time>2026-04-09T09:43:37Z</time></trkpt><trkpt lat="38.01745846261592" lon="-1.203360066778932"><ele>99.0</ele><time>2026-04-09T09:43:39Z</time></trkpt><trkpt lat="38.0173798464112" lon="-1.2033068887809035"><ele>100.0</ele><time>2026-04-09T09:43:41Z</time></trkpt><trkpt lat="38.01730294615975" lon="-1.203360262138697"><ele>101.0</ele><time>2026-04-09T09:43:44Z</time></trkpt><trkpt lat="38.017222173981814" lon="-1.2033869357211642"><ele>102.0</ele><time>2026-04-09T09:43:46Z</time></trkpt><trkpt lat="38.01714718015259" lon="-1.2034156302263403"><ele>103.0</ele><time>2026-04-09T09:43:49Z</time></trkpt><trkpt lat="38.017055946571745" lon="-1.2034479067674595"><ele>104.0</ele><time>2026-04-09T09:43:52Z</time></trkpt><trkpt lat="38.01699310017894" lon="-1.2034957375227544"><ele>105.0</ele><time>2026-04-09T09:43:54Z</time></trkpt><trkpt lat="38.01693681143545" lon="-1.2035694431215862"><ele>105.0</ele><time>2026-04-09T09:43:56Z</time></trkpt><trkpt lat="38.016906247580366" lon="-1.2036489225622231"><ele>105.0</ele><time>2026-04-09T09:43:57Z</time></trkpt><trkpt lat="38.01693631377024" lon="-1.2037541733950636"><ele>105.0</ele><time>2026-04-09T09:43:59Z</time></trkpt><trkpt lat="38.01699167870898" lon="-1.2038710034285651"><ele>105.0</ele><time>2026-04-09T09:44:01Z</time></trkpt><trkpt lat="38.01705827925073" lon="-1.2039651089272758"><ele>105.0</ele><time>2026-04-09T09:44:03Z</time></trkpt><trkpt lat="38.017091927120326" lon="-1.204062995589215"><ele>105.0</ele><time>2026-04-09T09:44:06Z</time></trkpt><trkpt lat="38.017141263518745" lon="-1.2041695281542277"><ele>103.66666666666667</ele><time>2026-04-09T09:44:08Z</time></trkpt><trkpt lat="38.01722045364335" lon="-1.2042464309444532"><ele>102.33333333333334</ele><time>2026-04-09T09:44:10Z</time></trkpt><trkpt lat="38.017312219683234" lon="-1.204327606966765"><ele>101.0</ele><time>2026-04-09T09:44:12Z</time></trkpt><trkpt lat="38.01739141982298" lon="-1.204379972202452"><ele>99.66666666666667</ele><time>2026-04-09T09:44:14Z</time></trkpt><trkpt lat="38.017449219166146" lon="-1.2044237969749312"><ele>98.33333333333334</ele><time>2026-04-09T09:44:23Z</time></trkpt><trkpt lat="38.017509224225606" lon="-1.2044863226565716"><ele>97.0</ele><time>2026-04-09T09:44:27Z</time></trkpt><trkpt lat="38.01756451860139" lon="-1.2045441318099233"><ele>96.28571428571428</ele><time>2026-04-09T09:44:30Z</time></trkpt><trkpt lat="38.01761515633396" lon="-1.2045969486173649"><ele>95.57142857142858</ele><time>2026-04-09T09:44:43Z</time></trkpt><trkpt lat="38.01767977733471" lon="-1.204627403474797"><ele>94.85714285714286</ele><time>2026-04-09T09:45:02Z</time></trkpt><trkpt lat="38.01760284408024" lon="-1.2046441898217863"><ele>94.14285714285714</ele><time>2026-04-09T09:45:04Z</time></trkpt><trkpt lat="38.01766305943111" lon="-1.2046133711208233"><ele>93.42857142857142</ele><time>2026-04-09T09:45:15Z</time></trkpt><trkpt lat="38.01762865230906" lon="-1.2047388580755176"><ele>92.71428571428572</ele><time>2026-04-09T09:45:47Z</time></trkpt><trkpt lat="38.017617178453136" lon="-1.2048181827003352"><ele>92.0</ele><time>2026-04-09T09:46:12Z</time></trkpt><trkpt lat="38.017597144367215" lon="-1.204940758940775"><ele>92.0</ele><time>2026-04-09T09:46:14Z</time></trkpt><trkpt lat="38.01760840036888" lon="-1.2050423608818785"><ele>92.0</ele><time>2026-04-09T09:46:16Z</time></trkpt><trkpt lat="38.01767499468716" lon="-1.2050153224541498"><ele>92.0</ele><time>2026-04-09T09:46:42Z</time></trkpt><trkpt lat="38.01773660492694" lon="-1.2049652859132698"><ele>92.0</ele><time>2026-04-09T09:46:45Z</time></trkpt><trkpt lat="38.01780009188535" lon="-1.2049778032802736"><ele>92.0</ele><time>2026-04-09T09:46:51Z</time></trkpt><trkpt lat="38.017859525155835" lon="-1.2049339609087377"><ele>92.0</ele><time>2026-04-09T09:46:57Z</time></trkpt><trkpt lat="38.01792240475418" lon="-1.2048876537048296"><ele>92.0</ele><time>2026-04-09T09:47:16Z</time></trkpt><trkpt lat="38.017956811600854" lon="-1.2047898241238968"><ele>92.0</ele><time>2026-04-09T09:47:57Z</time></trkpt><trkpt lat="38.018010180762694" lon="-1.2047354800616619"><ele>92.0</ele><time>2026-04-09T09:48:10Z</time></trkpt><trkpt lat="38.018077266249485" lon="-1.2047110470102118"><ele>92.0</ele><time>2026-04-09T09:48:47Z</time></trkpt><trkpt lat="38.01816240254239" lon="-1.2046918326878213"><ele>92.0</ele><time>2026-04-09T09:48:59Z</time></trkpt><trkpt lat="38.0182246245434" lon="-1.2046788864761304"><ele>92.0</ele><time>2026-04-09T09:49:18Z</time></trkpt><trkpt lat="38.01829782352517" lon="-1.2046742347755717"><ele>92.0</ele><time>2026-04-09T09:49:31Z</time></trkpt><trkpt lat="38.018377193995626" lon="-1.2046533931803092"><ele>92.0</ele><time>2026-04-09T09:50:39Z</time></trkpt><trkpt lat="38.01845126238109" lon="-1.2046569515871386"><ele>93.57142857142857</ele><time>2026-04-09T09:52:04Z</time></trkpt><trkpt lat="38.01850785685357" lon="-1.204701459464052"><ele>95.14285714285714</ele><time>2026-04-09T09:52:12Z</time></trkpt><trkpt lat="38.01858621448436" lon="-1.2047036744918864"><ele>96.71428571428571</ele><time>2026-04-09T09:52:24Z</time></trkpt><trkpt lat="38.018657422843596" lon="-1.204718810550327"><ele>98.28571428571428</ele><time>2026-04-09T09:52:44Z</time></trkpt><trkpt lat="38.01872369278586" lon="-1.2047377683773923"><ele>99.85714285714286</ele><time>2026-04-09T09:53:29Z</time></trkpt><trkpt lat="38.018788531784445" lon="-1.2047170461622385"><ele>101.42857142857142</ele><time>2026-04-09T09:56:43Z</time></trkpt><trkpt lat="38.018868177934664" lon="-1.204700331854564"><ele>103.0</ele><time>2026-04-09T09:57:07Z</time></trkpt><trkpt lat="38.018938696747" lon="-1.2046763107104643"><ele>103.00000000000001</ele><time>2026-04-09T09:57:31Z</time></trkpt><trkpt lat="38.019019688299686" lon="-1.2046258647537442"><ele>103.0</ele><time>2026-04-09T09:57:33Z</time></trkpt><trkpt lat="38.01910074305437" lon="-1.2045773405991815"><ele>103.0</ele><time>2026-04-09T09:57:35Z</time></trkpt><trkpt lat="38.01919413508062" lon="-1.2045339928577998"><ele>103.0</ele><time>2026-04-09T09:57:37Z</time></trkpt><trkpt lat="38.019286410994006" lon="-1.2045006362149897"><ele>103.00000000000001</ele><time>2026-04-09T09:57:39Z</time></trkpt><trkpt lat="38.01935453774222" lon="-1.204494741280513"><ele>103.0</ele><time>2026-04-09T09:57:41Z</time></trkpt><trkpt lat="38.0194358911727" lon="-1.20446597372179"><ele>104.60000000000001</ele><time>2026-04-09T09:57:55Z</time></trkpt><trkpt lat="38.01942984746601" lon="-1.2043737599384268"><ele>106.2</ele><time>2026-04-09T09:57:58Z</time></trkpt><trkpt lat="38.01936317544756" lon="-1.2042746446525558"><ele>107.8</ele><time>2026-04-09T09:58:00Z</time></trkpt><trkpt lat="38.01936095054562" lon="-1.2041290672940421"><ele>109.4</ele><time>2026-04-09T09:58:02Z</time></trkpt><trkpt lat="38.01935431382977" lon="-1.2039713321416017"><ele>111.0</ele><time>2026-04-09T09:58:04Z</time></trkpt><trkpt lat="38.01936757814467" lon="-1.203863059741091"><ele>111.0</ele><time>2026-04-09T09:58:06Z</time></trkpt><trkpt lat="38.019393273771875" lon="-1.2037329083901973"><ele>111.0</ele><time>2026-04-09T09:58:08Z</time></trkpt><trkpt lat="38.0194310435573" lon="-1.2035867136430767"><ele>111.0</ele><time>2026-04-09T09:58:10Z</time></trkpt><trkpt lat="38.01945266007906" lon="-1.2035109183190804"><ele>111.0</ele><time>2026-04-09T09:58:11Z</time></trkpt><trkpt lat="38.01946094981876" lon="-1.2034266627587034"><ele>111.0</ele><time>2026-04-09T09:58:12Z</time></trkpt><trkpt lat="38.01945072001364" lon="-1.203334671984593"><ele>111.0</ele><time>2026-04-09T09:58:13Z</time></trkpt><trkpt lat="38.0194330691195" lon="-1.2032362303270194"><ele>111.28571428571428</ele><time>2026-04-09T09:58:14Z</time></trkpt><trkpt lat="38.019410304498294" lon="-1.2031363101872676"><ele>111.57142857142858</ele><time>2026-04-09T09:58:15Z</time></trkpt><trkpt lat="38.019398903974675" lon="-1.2030311092388397"><ele>111.85714285714286</ele><time>2026-04-09T09:58:16Z</time></trkpt><trkpt lat="38.0193987016862" lon="-1.2029356230346056"><ele>112.14285714285714</ele><time>2026-04-09T09:58:17Z</time></trkpt><trkpt lat="38.019402319545115" lon="-1.2028461205207641"><ele>112.42857142857142</ele><time>2026-04-09T09:58:18Z</time></trkpt><trkpt lat="38.01940947346218" lon="-1.202760926113503"><ele>112.71428571428572</ele><time>2026-04-09T09:58:19Z</time></trkpt><trkpt lat="38.01939655047927" lon="-1.2026730347478947"><ele>113.0</ele><time>2026-04-09T09:58:20Z</time></trkpt><trkpt lat="38.01936510746343" lon="-1.2025910149174779"><ele>112.99999999999999</ele><time>2026-04-09T09:58:21Z</time></trkpt><trkpt lat="38.01933269643671" lon="-1.2025061359779312"><ele>113.0</ele><time>2026-04-09T09:58:22Z</time></trkpt><trkpt lat="38.019336456977086" lon="-1.2024102536162458"><ele>113.0</ele><time>2026-04-09T09:58:23Z</time></trkpt><trkpt lat="38.01934987811392" lon="-1.2023055040483905"><ele>113.0</ele><time>2026-04-09T09:58:24Z</time></trkpt><trkpt lat="38.01935797530156" lon="-1.2021993640816833"><ele>112.99999999999999</ele><time>2026-04-09T09:58:25Z</time></trkpt><trkpt lat="38.01936077538268" lon="-1.2020925200626764"><ele>113.0</ele><time>2026-04-09T09:58:26Z</time></trkpt><trkpt lat="38.0193496064191" lon="-1.201995944820434"><ele>114.16666666666666</ele><time>2026-04-09T09:58:27Z</time></trkpt><trkpt lat="38.01933218770971" lon="-1.2018960812953623"><ele>115.33333333333333</ele><time>2026-04-09T09:58:28Z</time></trkpt><trkpt lat="38.0193358547685" lon="-1.2017912393971883"><ele>116.5</ele><time>2026-04-09T09:58:29Z</time></trkpt><trkpt lat="38.01934297408304" lon="-1.2016795736286814"><ele>117.66666666666666</ele><time>2026-04-09T09:58:30Z</time></trkpt><trkpt lat="38.01934960212969" lon="-1.201564391842983"><ele>118.83333333333333</ele><time>2026-04-09T09:58:31Z</time></trkpt><trkpt lat="38.01936214537306" lon="-1.2014672871577587"><ele>120.0</ele><time>2026-04-09T09:58:32Z</time></trkpt><trkpt lat="38.01937402312198" lon="-1.2013542161508366"><ele>121.33333333333333</ele><time>2026-04-09T09:58:33Z</time></trkpt><trkpt lat="38.01937056276308" lon="-1.201239022100445"><ele>122.66666666666666</ele><time>2026-04-09T09:58:34Z</time></trkpt><trkpt lat="38.01934782941185" lon="-1.2011277669450358"><ele>124.0</ele><time>2026-04-09T09:58:35Z</time></trkpt><trkpt lat="38.019329699729646" lon="-1.2010229265694363"><ele>125.33333333333333</ele><time>2026-04-09T09:58:36Z</time></trkpt><trkpt lat="38.019309401779594" lon="-1.2009379218660923"><ele>126.66666666666666</ele><time>2026-04-09T09:58:37Z</time></trkpt><trkpt lat="38.01927747321342" lon="-1.2008621861295545"><ele>128.0</ele><time>2026-04-09T09:58:38Z</time></trkpt><trkpt lat="38.01923167319078" lon="-1.2007876400452349"><ele>127.99999999999999</ele><time>2026-04-09T09:58:39Z</time></trkpt><trkpt lat="38.01917977803934" lon="-1.2007040803258375"><ele>128.0</ele><time>2026-04-09T09:58:40Z</time></trkpt><trkpt lat="38.019135913788055" lon="-1.2006185893680736"><ele>128.0</ele><time>2026-04-09T09:58:41Z</time></trkpt><trkpt lat="38.019093054480045" lon="-1.2005355427377775"><ele>128.0</ele><time>2026-04-09T09:58:42Z</time></trkpt><trkpt lat="38.01904349914814" lon="-1.2004643400259316"><ele>127.99999999999999</ele><time>2026-04-09T09:58:43Z</time></trkpt><trkpt lat="38.018980189915816" lon="-1.200400364613983"><ele>128.0</ele><time>2026-04-09T09:58:44Z</time></trkpt><trkpt lat="38.018918460854266" lon="-1.2003236700259927"><ele>129.33333333333331</ele><time>2026-04-09T09:58:45Z</time></trkpt><trkpt lat="38.018862110542926" lon="-1.2002639890979427"><ele>130.66666666666666</ele><time>2026-04-09T09:58:46Z</time></trkpt><trkpt lat="38.01879822246951" lon="-1.2002210577274224"><ele>132.0</ele><time>2026-04-09T09:58:47Z</time></trkpt><trkpt lat="38.01873605453168" lon="-1.20017910523012"><ele>133.33333333333334</ele><time>2026-04-09T09:58:48Z</time></trkpt><trkpt lat="38.018682701723684" lon="-1.2001147534900678"><ele>134.66666666666669</ele><time>2026-04-09T09:58:50Z</time></trkpt><trkpt lat="38.01866882323702" lon="-1.2002279250058323"><ele>136.0</ele><time>2026-04-09T09:59:11Z</time></trkpt><trkpt lat="38.01864681221063" lon="-1.2003322636502718"><ele>136.0</ele><time>2026-04-09T09:59:13Z</time></trkpt><trkpt lat="38.018604086062524" lon="-1.2004308867297662"><ele>136.0</ele><time>2026-04-09T09:59:15Z</time></trkpt><trkpt lat="38.018549614344316" lon="-1.2005245074278343"><ele>136.0</ele><time>2026-04-09T09:59:17Z</time></trkpt><trkpt lat="38.01849406841047" lon="-1.2005979911011706"><ele>136.0</ele><time>2026-04-09T09:59:19Z</time></trkpt><trkpt lat="38.01841840048194" lon="-1.200666477400413"><ele>136.0</ele><time>2026-04-09T09:59:21Z</time></trkpt><trkpt lat="38.01831935549257" lon="-1.2007252534912642"><ele>132.66666666666669</ele><time>2026-04-09T09:59:23Z</time></trkpt><trkpt lat="38.01821882245412" lon="-1.200782106186724"><ele>129.33333333333334</ele><time>2026-04-09T09:59:25Z</time></trkpt><trkpt lat="38.01813624587794" lon="-1.2008277701190044"><ele>126.0</ele><time>2026-04-09T09:59:27Z</time></trkpt><trkpt lat="38.01807413884314" lon="-1.2008029388817913"><ele>122.66666666666666</ele><time>2026-04-09T09:59:29Z</time></trkpt><trkpt lat="38.01800884866914" lon="-1.2007778435913203"><ele>119.33333333333333</ele><time>2026-04-09T09:59:31Z</time></trkpt><trkpt lat="38.017948278426886" lon="-1.2007409671347922"><ele>116.0</ele><time>2026-04-09T09:59:33Z</time></trkpt><trkpt lat="38.01789504407904" lon="-1.2006979608447135"><ele>115.99999999999999</ele><time>2026-04-09T09:59:35Z</time></trkpt><trkpt lat="38.01780949089331" lon="-1.2006677896266458"><ele>116.0</ele><time>2026-04-09T09:59:38Z</time></trkpt><trkpt lat="38.017730031441296" lon="-1.2006487394810768"><ele>116.0</ele><time>2026-04-09T09:59:41Z</time></trkpt><trkpt lat="38.01766579303302" lon="-1.2006556823191306"><ele>116.0</ele><time>2026-04-09T09:59:43Z</time></trkpt><trkpt lat="38.01759538764333" lon="-1.20066404069751"><ele>115.99999999999999</ele><time>2026-04-09T09:59:45Z</time></trkpt><trkpt lat="38.017526965427955" lon="-1.2007091279712914"><ele>116.0</ele><time>2026-04-09T09:59:47Z</time></trkpt><trkpt lat="38.01746334855898" lon="-1.2007456696749832"><ele>113.99999999999999</ele><time>2026-04-09T09:59:49Z</time></trkpt><trkpt lat="38.01739842528847" lon="-1.2007981590038879"><ele>112.0</ele><time>2026-04-09T09:59:51Z</time></trkpt><trkpt lat="38.01729364215641" lon="-1.2008554722093212"><ele>110.0</ele><time>2026-04-09T09:59:53Z</time></trkpt><trkpt lat="38.017236720469306" lon="-1.200894058149288"><ele>108.0</ele><time>2026-04-09T09:59:54Z</time></trkpt><trkpt lat="38.0171809443127" lon="-1.200934702355099"><ele>105.99999999999999</ele><time>2026-04-09T09:59:55Z</time></trkpt><trkpt lat="38.01712963649541" lon="-1.2009818359159852"><ele>104.0</ele><time>2026-04-09T09:59:56Z</time></trkpt><trkpt lat="38.01705691515087" lon="-1.2010627454395968"><ele>104.0</ele><time>2026-04-09T09:59:58Z</time></trkpt><trkpt lat="38.016976641029515" lon="-1.2010954228668511"><ele>104.0</ele><time>2026-04-09T10:00:00Z</time></trkpt><trkpt lat="38.016907772943775" lon="-1.2011209574626398"><ele>104.0</ele><time>2026-04-09T10:00:02Z</time></trkpt><trkpt lat="38.01682654815885" lon="-1.2011223342333364"><ele>104.0</ele><time>2026-04-09T10:00:07Z</time></trkpt><trkpt lat="38.01681676770497" lon="-1.2010412535036448"><ele>104.0</ele><time>2026-04-09T10:00:13Z</time></trkpt><trkpt lat="38.01688627594059" lon="-1.201004253260412"><ele>104.0</ele><time>2026-04-09T10:00:17Z</time></trkpt><trkpt lat="38.01695289131685" lon="-1.200978884817346"><ele>104.0</ele><time>2026-04-09T10:00:22Z</time></trkpt><trkpt lat="38.017026636775036" lon="-1.2009371280098813"><ele>103.99999999999999</ele><time>2026-04-09T10:00:25Z</time></trkpt><trkpt lat="38.01710058301576" lon="-1.2008896181209971"><ele>104.0</ele><time>2026-04-09T10:00:28Z</time></trkpt><trkpt lat="38.01715877268555" lon="-1.2008336303356235"><ele>104.0</ele><time>2026-04-09T10:00:30Z</time></trkpt><trkpt lat="38.017178845671616" lon="-1.2007385422846746"><ele>104.0</ele><time>2026-04-09T10:00:33Z</time></trkpt><trkpt lat="38.017183745552416" lon="-1.2006152711155402"><ele>103.99999999999999</ele><time>2026-04-09T10:00:35Z</time></trkpt><trkpt lat="38.01710471369181" lon="-1.2005074997833334"><ele>104.0</ele><time>2026-04-09T10:00:38Z</time></trkpt><trkpt lat="38.01703886639075" lon="-1.2004502096157073"><ele>104.99999999999999</ele><time>2026-04-09T10:00:39Z</time></trkpt><trkpt lat="38.016969209197924" lon="-1.200374553867194"><ele>106.0</ele><time>2026-04-09T10:00:41Z</time></trkpt><trkpt lat="38.01692636892837" lon="-1.2002707685431075"><ele>107.0</ele><time>2026-04-09T10:00:44Z</time></trkpt><trkpt lat="38.01688761410922" lon="-1.200205480019707"><ele>108.0</ele><time>2026-04-09T10:00:48Z</time></trkpt><trkpt lat="38.01686999347469" lon="-1.200104219661634"><ele>108.99999999999999</ele><time>2026-04-09T10:00:50Z</time></trkpt><trkpt lat="38.016830679128915" lon="-1.2000333338402036"><ele>110.0</ele><time>2026-04-09T10:00:52Z</time></trkpt><trkpt lat="38.01680783818999" lon="-1.1999514395907342"><ele>109.99999999999999</ele><time>2026-04-09T10:00:54Z</time></trkpt><trkpt lat="38.01680927963557" lon="-1.1998679668789554"><ele>110.0</ele><time>2026-04-09T10:00:57Z</time></trkpt><trkpt lat="38.01681153413229" lon="-1.1997797039852443"><ele>110.0</ele><time>2026-04-09T10:01:06Z</time></trkpt><trkpt lat="38.016825587882735" lon="-1.199692346951045"><ele>110.0</ele><time>2026-04-09T10:01:27Z</time></trkpt><trkpt lat="38.01690131382688" lon="-1.1996703063173264"><ele>110.0</ele><time>2026-04-09T10:01:31Z</time></trkpt><trkpt lat="38.01697218444899" lon="-1.1996850025589938"><ele>109.99999999999999</ele><time>2026-04-09T10:01:35Z</time></trkpt><trkpt lat="38.01702638453843" lon="-1.199736608111941"><ele>110.0</ele><time>2026-04-09T10:01:39Z</time></trkpt><trkpt lat="38.01708651994853" lon="-1.1997664955555893"><ele>110.49999999999999</ele><time>2026-04-09T10:01:41Z</time></trkpt><trkpt lat="38.01717263989928" lon="-1.1997443724849508"><ele>111.0</ele><time>2026-04-09T10:01:44Z</time></trkpt><trkpt lat="38.017253337190965" lon="-1.1997155513489404"><ele>111.5</ele><time>2026-04-09T10:01:46Z</time></trkpt><trkpt lat="38.0173269585668" lon="-1.1996723726345082"><ele>112.0</ele><time>2026-04-09T10:01:49Z</time></trkpt><trkpt lat="38.01739352478947" lon="-1.1995833598338586"><ele>112.49999999999999</ele><time>2026-04-09T10:01:51Z</time></trkpt><trkpt lat="38.01745411720983" lon="-1.1995239151405457"><ele>113.0</ele><time>2026-04-09T10:01:53Z</time></trkpt><trkpt lat="38.01750038446537" lon="-1.1994238036553846"><ele>112.99999999999999</ele><time>2026-04-09T10:01:56Z</time></trkpt><trkpt lat="38.017533875287796" lon="-1.1993376146360881"><ele>113.0</ele><time>2026-04-09T10:01:58Z</time></trkpt><trkpt lat="38.017575089787925" lon="-1.1992436663670316"><ele>113.0</ele><time>2026-04-09T10:02:00Z</time></trkpt><trkpt lat="38.01758778666828" lon="-1.1991592740265848"><ele>113.0</ele><time>2026-04-09T10:02:05Z</time></trkpt><trkpt lat="38.01757047901417" lon="-1.1990673640026586"><ele>112.99999999999999</ele><time>2026-04-09T10:02:08Z</time></trkpt><trkpt lat="38.01753562811406" lon="-1.198982217652009"><ele>113.0</ele><time>2026-04-09T10:02:11Z</time></trkpt><trkpt lat="38.01748249393467" lon="-1.1988430763383104"><ele>116.66666666666666</ele><time>2026-04-09T10:02:14Z</time></trkpt><trkpt lat="38.017419521447415" lon="-1.1987541578334264"><ele>120.33333333333333</ele><time>2026-04-09T10:02:16Z</time></trkpt><trkpt lat="38.01737879913769" lon="-1.1986560492991474"><ele>124.0</ele><time>2026-04-09T10:02:19Z</time></trkpt><trkpt lat="38.01735441288863" lon="-1.1985727600339942"><ele>127.66666666666666</ele><time>2026-04-09T10:02:40Z</time></trkpt><trkpt lat="38.017350825496905" lon="-1.1984773149821908"><ele>131.33333333333334</ele><time>2026-04-09T10:03:01Z</time></trkpt><trkpt lat="38.01737415615991" lon="-1.1983821465035505"><ele>135.0</ele><time>2026-04-09T10:03:04Z</time></trkpt><trkpt lat="38.01738571773302" lon="-1.1982699012553606"><ele>135.0</ele><time>2026-04-09T10:03:08Z</time></trkpt><trkpt lat="38.01737561031083" lon="-1.1981744117513278"><ele>135.0</ele><time>2026-04-09T10:03:11Z</time></trkpt><trkpt lat="38.01732400391065" lon="-1.1980908319666175"><ele>135.0</ele><time>2026-04-09T10:03:14Z</time></trkpt><trkpt lat="38.01729177688521" lon="-1.1980069177383537"><ele>135.0</ele><time>2026-04-09T10:03:17Z</time></trkpt><trkpt lat="38.01724359316463" lon="-1.1979493863411343"><ele>135.0</ele><time>2026-04-09T10:03:21Z</time></trkpt><trkpt lat="38.017175753096225" lon="-1.197892796107542"><ele>135.0</ele><time>2026-04-09T10:03:35Z</time></trkpt><trkpt lat="38.017162890433575" lon="-1.197810810130598"><ele>135.0</ele><time>2026-04-09T10:03:47Z</time></trkpt><trkpt lat="38.01719649131357" lon="-1.197735890012928"><ele>134.83333333333334</ele><time>2026-04-09T10:03:53Z</time></trkpt><trkpt lat="38.01726077283098" lon="-1.1976771707945735"><ele>134.66666666666666</ele><time>2026-04-09T10:03:56Z</time></trkpt><trkpt lat="38.01729878658687" lon="-1.1976099301660552"><ele>134.5</ele><time>2026-04-09T10:04:01Z</time></trkpt><trkpt lat="38.01728924308028" lon="-1.1974950804237994"><ele>134.33333333333331</ele><time>2026-04-09T10:04:04Z</time></trkpt><trkpt lat="38.01726955417318" lon="-1.1974055433628628"><ele>134.16666666666666</ele><time>2026-04-09T10:04:07Z</time></trkpt><trkpt lat="38.01728634169127" lon="-1.1973162850476113"><ele>134.0</ele><time>2026-04-09T10:04:10Z</time></trkpt><trkpt lat="38.01733909633073" lon="-1.1972507324272106"><ele>132.57142857142858</ele><time>2026-04-09T10:04:13Z</time></trkpt><trkpt lat="38.017378686468625" lon="-1.1971722847407675"><ele>131.14285714285714</ele><time>2026-04-09T10:04:16Z</time></trkpt><trkpt lat="38.01740125203721" lon="-1.197092350051858"><ele>129.71428571428572</ele><time>2026-04-09T10:04:19Z</time></trkpt><trkpt lat="38.01733713423724" lon="-1.1970368731500416"><ele>128.28571428571428</ele><time>2026-04-09T10:04:23Z</time></trkpt><trkpt lat="38.01727566374218" lon="-1.197016368228864"><ele>126.85714285714286</ele><time>2026-04-09T10:04:26Z</time></trkpt><trkpt lat="38.017194543316805" lon="-1.1970009616452535"><ele>125.42857142857143</ele><time>2026-04-09T10:04:30Z</time></trkpt><trkpt lat="38.01711094404068" lon="-1.1969993359262607"><ele>124.0</ele><time>2026-04-09T10:04:34Z</time></trkpt><trkpt lat="38.01706679840869" lon="-1.196915248427896"><ele>124.00000000000001</ele><time>2026-04-09T10:04:37Z</time></trkpt><trkpt lat="38.01704314512601" lon="-1.196839293615892"><ele>124.0</ele><time>2026-04-09T10:04:41Z</time></trkpt><trkpt lat="38.01700906074246" lon="-1.1967221746752819"><ele>124.0</ele><time>2026-04-09T10:05:14Z</time></trkpt><trkpt lat="38.01698103182644" lon="-1.1966182541114243"><ele>124.0</ele><time>2026-04-09T10:05:16Z</time></trkpt><trkpt lat="38.01696140251171" lon="-1.1965287719997242"><ele>124.00000000000001</ele><time>2026-04-09T10:05:18Z</time></trkpt><trkpt lat="38.01691350507893" lon="-1.1964248390657934"><ele>124.0</ele><time>2026-04-09T10:05:21Z</time></trkpt><trkpt lat="38.016915816729856" lon="-1.1963189182325604"><ele>124.66666666666667</ele><time>2026-04-09T10:05:26Z</time></trkpt><trkpt lat="38.01693051928946" lon="-1.1961866638528729"><ele>125.33333333333334</ele><time>2026-04-09T10:05:31Z</time></trkpt><trkpt lat="38.016941653110784" lon="-1.196092197095015"><ele>126.0</ele><time>2026-04-09T10:05:34Z</time></trkpt><trkpt lat="38.016948827105104" lon="-1.1959792765678126"><ele>126.66666666666666</ele><time>2026-04-09T10:06:31Z</time></trkpt><trkpt lat="38.016954486834074" lon="-1.1958880123448512"><ele>127.33333333333333</ele><time>2026-04-09T10:06:34Z</time></trkpt><trkpt lat="38.01697282344984" lon="-1.195791954545537"><ele>128.0</ele><time>2026-04-09T10:06:39Z</time></trkpt><trkpt lat="38.01700770035263" lon="-1.195699981089207"><ele>128.66666666666666</ele><time>2026-04-09T10:06:41Z</time></trkpt><trkpt lat="38.01707167374129" lon="-1.1956277680787497"><ele>129.33333333333331</ele><time>2026-04-09T10:06:43Z</time></trkpt><trkpt lat="38.017126094432435" lon="-1.195559739043992"><ele>130.0</ele><time>2026-04-09T10:06:45Z</time></trkpt><trkpt lat="38.01719708727395" lon="-1.195483198867055"><ele>130.66666666666666</ele><time>2026-04-09T10:06:47Z</time></trkpt><trkpt lat="38.0171994623905" lon="-1.1953784216053052"><ele>131.33333333333334</ele><time>2026-04-09T10:06:50Z</time></trkpt><trkpt lat="38.01713653097995" lon="-1.195316990753557"><ele>132.0</ele><time>2026-04-09T10:06:53Z</time></trkpt><trkpt lat="38.01704558502574" lon="-1.1953109384286855"><ele>132.0</ele><time>2026-04-09T10:06:57Z</time></trkpt><trkpt lat="38.016956541621575" lon="-1.1952805082131182"><ele>132.0</ele><time>2026-04-09T10:06:59Z</time></trkpt><trkpt lat="38.01690048947166" lon="-1.1952367178353098"><ele>132.0</ele><time>2026-04-09T10:07:02Z</time></trkpt><trkpt lat="38.01681762844676" lon="-1.1951249258523169"><ele>132.0</ele><time>2026-04-09T10:07:04Z</time></trkpt><trkpt lat="38.01679311837452" lon="-1.195012037411546"><ele>132.0</ele><time>2026-04-09T10:07:06Z</time></trkpt><trkpt lat="38.01677466211346" lon="-1.1949188788560667"><ele>132.0</ele><time>2026-04-09T10:07:07Z</time></trkpt><trkpt lat="38.016745783364755" lon="-1.1948273693865188"><ele>131.79999999999998</ele><time>2026-04-09T10:07:08Z</time></trkpt><trkpt lat="38.01672095949171" lon="-1.194681913502074"><ele>131.6</ele><time>2026-04-09T10:07:10Z</time></trkpt><trkpt lat="38.01670626526659" lon="-1.1945561937079732"><ele>131.39999999999998</ele><time>2026-04-09T10:07:12Z</time></trkpt><trkpt lat="38.01666624934105" lon="-1.1944578741180736"><ele>131.2</ele><time>2026-04-09T10:07:15Z</time></trkpt><trkpt lat="38.01663499001935" lon="-1.194362403373444"><ele>131.0</ele><time>2026-04-09T10:07:18Z</time></trkpt><trkpt lat="38.01663617022415" lon="-1.1942531984585458"><ele>131.4</ele><time>2026-04-09T10:07:21Z</time></trkpt><trkpt lat="38.01663539372885" lon="-1.1940212805470904"><ele>131.8</ele><time>2026-04-09T10:07:24Z</time></trkpt><trkpt lat="38.01662777816198" lon="-1.193896624691099"><ele>132.20000000000002</ele><time>2026-04-09T10:07:26Z</time></trkpt><trkpt lat="38.01661972760749" lon="-1.1937755565917276"><ele>132.6</ele><time>2026-04-09T10:07:28Z</time></trkpt><trkpt lat="38.01662833149009" lon="-1.1936928579285446"><ele>133.0</ele><time>2026-04-09T10:07:30Z</time></trkpt><trkpt lat="38.01667808003141" lon="-1.1936123465342967"><ele>133.0</ele><time>2026-04-09T10:07:32Z</time></trkpt><trkpt lat="38.016727543170504" lon="-1.1935364233978287"><ele>133.0</ele><time>2026-04-09T10:07:34Z</time></trkpt><trkpt lat="38.016773536406866" lon="-1.1934531460577142"><ele>133.0</ele><time>2026-04-09T10:07:37Z</time></trkpt><trkpt lat="38.01672701494862" lon="-1.1933925672981125"><ele>133.0</ele><time>2026-04-09T10:07:39Z</time></trkpt><trkpt lat="38.01666262324426" lon="-1.1933711120842538"><ele>133.0</ele><time>2026-04-09T10:07:40Z</time></trkpt><trkpt lat="38.016568487674576" lon="-1.1933603370803199"><ele>133.0</ele><time>2026-04-09T10:07:42Z</time></trkpt><trkpt lat="38.01647127679338" lon="-1.1933583777587211"><ele>133.4</ele><time>2026-04-09T10:07:44Z</time></trkpt><trkpt lat="38.016405276088875" lon="-1.1933199624102506"><ele>133.8</ele><time>2026-04-09T10:07:47Z</time></trkpt><trkpt lat="38.01635370839184" lon="-1.1932342477532198"><ele>134.2</ele><time>2026-04-09T10:07:49Z</time></trkpt><trkpt lat="38.01634934750205" lon="-1.1930629087505333"><ele>134.6</ele><time>2026-04-09T10:07:51Z</time></trkpt><trkpt lat="38.0163608533134" lon="-1.1929599319309745"><ele>135.0</ele><time>2026-04-09T10:07:52Z</time></trkpt><trkpt lat="38.01634561520491" lon="-1.1928527766448929"><ele>135.0</ele><time>2026-04-09T10:07:54Z</time></trkpt><trkpt lat="38.0163301173275" lon="-1.1927666835117126"><ele>135.0</ele><time>2026-04-09T10:07:57Z</time></trkpt><trkpt lat="38.01627027731278" lon="-1.1926438225927247"><ele>135.0</ele><time>2026-04-09T10:07:59Z</time></trkpt><trkpt lat="38.01623870127406" lon="-1.1925110487362651"><ele>135.0</ele><time>2026-04-09T10:08:01Z</time></trkpt><trkpt lat="38.01623731870807" lon="-1.19239614855787"><ele>135.0</ele><time>2026-04-09T10:08:03Z</time></trkpt><trkpt lat="38.016200202306564" lon="-1.1923000693102657"><ele>135.6</ele><time>2026-04-09T10:08:05Z</time></trkpt><trkpt lat="38.016169506307406" lon="-1.1922190072411663"><ele>136.2</ele><time>2026-04-09T10:08:07Z</time></trkpt><trkpt lat="38.016113455048355" lon="-1.192084100076502"><ele>136.8</ele><time>2026-04-09T10:08:09Z</time></trkpt><trkpt lat="38.01608095856869" lon="-1.1919796433522174"><ele>137.4</ele><time>2026-04-09T10:08:11Z</time></trkpt><trkpt lat="38.01601978498033" lon="-1.1918939542886147"><ele>138.0</ele><time>2026-04-09T10:08:13Z</time></trkpt><trkpt lat="38.01593820356609" lon="-1.1918327850437354"><ele>138.0</ele><time>2026-04-09T10:08:15Z</time></trkpt><trkpt lat="38.01584335994395" lon="-1.191753120788554"><ele>138.0</ele><time>2026-04-09T10:08:17Z</time></trkpt><trkpt lat="38.01577245555834" lon="-1.1916612300258007"><ele>138.0</ele><time>2026-04-09T10:08:19Z</time></trkpt><trkpt lat="38.01575249221968" lon="-1.1915797289082524"><ele>138.0</ele><time>2026-04-09T10:08:20Z</time></trkpt><trkpt lat="38.0157375291208" lon="-1.191493765767999"><ele>138.0</ele><time>2026-04-09T10:08:21Z</time></trkpt><trkpt lat="38.01572094030447" lon="-1.19139753700096"><ele>138.0</ele><time>2026-04-09T10:08:22Z</time></trkpt><trkpt lat="38.015693717061886" lon="-1.1913214129437364"><ele>139.66666666666666</ele><time>2026-04-09T10:08:23Z</time></trkpt><trkpt lat="38.01564386200657" lon="-1.191258345023635"><ele>141.33333333333334</ele><time>2026-04-09T10:08:24Z</time></trkpt><trkpt lat="38.0155752036285" lon="-1.191210636932652"><ele>143.0</ele><time>2026-04-09T10:08:25Z</time></trkpt><trkpt lat="38.01550283371045" lon="-1.1911734618825365"><ele>144.66666666666669</ele><time>2026-04-09T10:08:26Z</time></trkpt><trkpt lat="38.01541072428144" lon="-1.1911349578723716"><ele>146.33333333333334</ele><time>2026-04-09T10:08:27Z</time></trkpt><trkpt lat="38.01532531176126" lon="-1.1911043827167407"><ele>148.0</ele><time>2026-04-09T10:08:28Z</time></trkpt><trkpt lat="38.01525590555083" lon="-1.1910594243959332"><ele>148.0</ele><time>2026-04-09T10:08:29Z</time></trkpt><trkpt lat="38.015198085483135" lon="-1.191000218426096"><ele>148.0</ele><time>2026-04-09T10:08:30Z</time></trkpt><trkpt lat="38.0151438600065" lon="-1.1909229924982503"><ele>148.0</ele><time>2026-04-09T10:08:31Z</time></trkpt><trkpt lat="38.015085581031265" lon="-1.1908100601495686"><ele>148.0</ele><time>2026-04-09T10:08:32Z</time></trkpt><trkpt lat="38.01502678958968" lon="-1.190686011059318"><ele>148.0</ele><time>2026-04-09T10:08:33Z</time></trkpt><trkpt lat="38.01496992304927" lon="-1.1905801014896211"><ele>148.6</ele><time>2026-04-09T10:08:34Z</time></trkpt><trkpt lat="38.01491220810113" lon="-1.19048606824443"><ele>149.20000000000002</ele><time>2026-04-09T10:08:35Z</time></trkpt><trkpt lat="38.0148571822322" lon="-1.1903996962816308"><ele>149.8</ele><time>2026-04-09T10:08:36Z</time></trkpt><trkpt lat="38.014815111923724" lon="-1.1903227170623254"><ele>150.4</ele><time>2026-04-09T10:08:37Z</time></trkpt><trkpt lat="38.01477781922582" lon="-1.1901984682430946"><ele>151.0</ele><time>2026-04-09T10:08:39Z</time></trkpt><trkpt lat="38.01478294931597" lon="-1.1900733088598388"><ele>151.0</ele><time>2026-04-09T10:08:41Z</time></trkpt><trkpt lat="38.014812198785265" lon="-1.1899510203659796"><ele>151.0</ele><time>2026-04-09T10:08:43Z</time></trkpt><trkpt lat="38.01481632911178" lon="-1.1898270201355907"><ele>151.0</ele><time>2026-04-09T10:08:45Z</time></trkpt><trkpt lat="38.01481372792866" lon="-1.1897412211001168"><ele>151.0</ele><time>2026-04-09T10:08:47Z</time></trkpt><trkpt lat="38.0148302266163" lon="-1.1896503465121995"><ele>151.0</ele><time>2026-04-09T10:08:51Z</time></trkpt><trkpt lat="38.014873510069016" lon="-1.1895871254491073"><ele>151.0</ele><time>2026-04-09T10:08:54Z</time></trkpt><trkpt lat="38.014782275244336" lon="-1.189642402228239"><ele>151.0</ele><time>2026-04-09T10:09:10Z</time></trkpt><trkpt lat="38.01472429154954" lon="-1.1896871849293125"><ele>151.0</ele><time>2026-04-09T10:09:11Z</time></trkpt><trkpt lat="38.01465517935097" lon="-1.1897416901919098"><ele>151.0</ele><time>2026-04-09T10:09:12Z</time></trkpt><trkpt lat="38.01458422378849" lon="-1.1898034702946296"><ele>151.0</ele><time>2026-04-09T10:09:13Z</time></trkpt><trkpt lat="38.014507899086915" lon="-1.1898685177899757"><ele>151.0</ele><time>2026-04-09T10:09:14Z</time></trkpt><trkpt lat="38.0144311582645" lon="-1.1899272158765197"><ele>151.0</ele><time>2026-04-09T10:09:15Z</time></trkpt><trkpt lat="38.014350162586545" lon="-1.1899835338104472"><ele>151.0</ele><time>2026-04-09T10:09:16Z</time></trkpt><trkpt lat="38.01427153667368" lon="-1.1900362234273352"><ele>151.0</ele><time>2026-04-09T10:09:17Z</time></trkpt><trkpt lat="38.014209489205214" lon="-1.1900710642264283"><ele>151.0</ele><time>2026-04-09T10:09:18Z</time></trkpt><trkpt lat="38.01412057140334" lon="-1.190180833746324"><ele>151.0</ele><time>2026-04-09T10:09:20Z</time></trkpt><trkpt lat="38.01409136490207" lon="-1.1902653677206032"><ele>151.0</ele><time>2026-04-09T10:09:21Z</time></trkpt><trkpt lat="38.014061631224926" lon="-1.1903618583911673"><ele>151.0</ele><time>2026-04-09T10:09:22Z</time></trkpt><trkpt lat="38.01402442430478" lon="-1.1904670788113396"><ele>150.2</ele><time>2026-04-09T10:09:23Z</time></trkpt><trkpt lat="38.01398145606872" lon="-1.1905843270586276"><ele>149.39999999999998</ele><time>2026-04-09T10:09:24Z</time></trkpt><trkpt lat="38.01392303939313" lon="-1.190694132764107"><ele>148.6</ele><time>2026-04-09T10:09:25Z</time></trkpt><trkpt lat="38.01386531066139" lon="-1.1907767916171839"><ele>147.79999999999998</ele><time>2026-04-09T10:09:26Z</time></trkpt><trkpt lat="38.013809687675796" lon="-1.190860951955417"><ele>147.0</ele><time>2026-04-09T10:09:27Z</time></trkpt><trkpt lat="38.013763408573546" lon="-1.1909388797946932"><ele>147.0</ele><time>2026-04-09T10:09:28Z</time></trkpt><trkpt lat="38.013642080627726" lon="-1.1910201097394069"><ele>147.0</ele><time>2026-04-09T10:09:30Z</time></trkpt><trkpt lat="38.013577306249694" lon="-1.191065828159742"><ele>147.0</ele><time>2026-04-09T10:09:31Z</time></trkpt><trkpt lat="38.013524591185465" lon="-1.1911119734725089"><ele>147.0</ele><time>2026-04-09T10:09:32Z</time></trkpt><trkpt lat="38.01345000101945" lon="-1.1912524777384084"><ele>147.0</ele><time>2026-04-09T10:09:34Z</time></trkpt><trkpt lat="38.01342434460326" lon="-1.191344130936061"><ele>147.0</ele><time>2026-04-09T10:09:35Z</time></trkpt><trkpt lat="38.01340443311833" lon="-1.1914334522842853"><ele>147.0</ele><time>2026-04-09T10:09:36Z</time></trkpt><trkpt lat="38.0133903055862" lon="-1.1915250524316234"><ele>147.0</ele><time>2026-04-09T10:09:37Z</time></trkpt><trkpt lat="38.013382019757685" lon="-1.1916135114512862"><ele>147.0</ele><time>2026-04-09T10:09:38Z</time></trkpt><trkpt lat="38.01336905357469" lon="-1.1917115269875629"><ele>147.0</ele><time>2026-04-09T10:09:39Z</time></trkpt><trkpt lat="38.01335841104486" lon="-1.19181528424621"><ele>147.0</ele><time>2026-04-09T10:09:40Z</time></trkpt><trkpt lat="38.01335322960973" lon="-1.1919264242565362"><ele>147.2</ele><time>2026-04-09T10:09:41Z</time></trkpt><trkpt lat="38.013364103014034" lon="-1.1920588964762164"><ele>147.39999999999998</ele><time>2026-04-09T10:09:42Z</time></trkpt><trkpt lat="38.01339097538291" lon="-1.1921928915174291"><ele>147.60000000000002</ele><time>2026-04-09T10:09:43Z</time></trkpt><trkpt lat="38.01343695953084" lon="-1.1923278380306173"><ele>147.8</ele><time>2026-04-09T10:09:44Z</time></trkpt><trkpt lat="38.01349790668087" lon="-1.1924473944379785"><ele>148.0</ele><time>2026-04-09T10:09:45Z</time></trkpt><trkpt lat="38.01357455473901" lon="-1.1925434881009325"><ele>148.0</ele><time>2026-04-09T10:09:46Z</time></trkpt><trkpt lat="38.01366674206257" lon="-1.1926374397990813"><ele>148.0</ele><time>2026-04-09T10:09:47Z</time></trkpt><trkpt lat="38.01374899131559" lon="-1.1927403864343467"><ele>148.0</ele><time>2026-04-09T10:09:48Z</time></trkpt><trkpt lat="38.01381084893431" lon="-1.1928560635511927"><ele>148.0</ele><time>2026-04-09T10:09:49Z</time></trkpt><trkpt lat="38.01386053082533" lon="-1.19296330982648"><ele>148.0</ele><time>2026-04-09T10:09:50Z</time></trkpt><trkpt lat="38.01389845019653" lon="-1.1930510562918404"><ele>148.0</ele><time>2026-04-09T10:09:51Z</time></trkpt><trkpt lat="38.01392904133964" lon="-1.1931347173159415"><ele>148.0</ele><time>2026-04-09T10:09:52Z</time></trkpt><trkpt lat="38.01393873643093" lon="-1.1932227395088975"><ele>148.0</ele><time>2026-04-09T10:09:53Z</time></trkpt><trkpt lat="38.01391643967757" lon="-1.1933408961071539"><ele>148.0</ele><time>2026-04-09T10:09:54Z</time></trkpt><trkpt lat="38.01386363298912" lon="-1.193500505727792"><ele>148.0</ele><time>2026-04-09T10:09:55Z</time></trkpt><trkpt lat="38.01380826805966" lon="-1.1936653274033187"><ele>147.6</ele><time>2026-04-09T10:09:56Z</time></trkpt><trkpt lat="38.01375356610734" lon="-1.1937946270525286"><ele>147.20000000000002</ele><time>2026-04-09T10:09:57Z</time></trkpt><trkpt lat="38.01369117702497" lon="-1.1939112503127063"><ele>146.8</ele><time>2026-04-09T10:09:58Z</time></trkpt><trkpt lat="38.0136486855481" lon="-1.1940235421788283"><ele>146.4</ele><time>2026-04-09T10:09:59Z</time></trkpt><trkpt lat="38.013621618477714" lon="-1.194147594780238"><ele>146.0</ele><time>2026-04-09T10:10:00Z</time></trkpt><trkpt lat="38.01359228930984" lon="-1.19427305158382"><ele>146.8</ele><time>2026-04-09T10:10:01Z</time></trkpt><trkpt lat="38.01354902689775" lon="-1.1943828795747538"><ele>147.6</ele><time>2026-04-09T10:10:02Z</time></trkpt><trkpt lat="38.01349406430787" lon="-1.1944757736395788"><ele>148.4</ele><time>2026-04-09T10:10:03Z</time></trkpt><trkpt lat="38.01342631007169" lon="-1.1945447687541797"><ele>149.2</ele><time>2026-04-09T10:10:04Z</time></trkpt><trkpt lat="38.013337938732626" lon="-1.1945850570862593"><ele>150.0</ele><time>2026-04-09T10:10:05Z</time></trkpt><trkpt lat="38.013245151027455" lon="-1.1946013261016897"><ele>150.0</ele><time>2026-04-09T10:10:06Z</time></trkpt><trkpt lat="38.01314390786819" lon="-1.194589556256248"><ele>150.0</ele><time>2026-04-09T10:10:07Z</time></trkpt><trkpt lat="38.013060059814826" lon="-1.1945863071405602"><ele>150.0</ele><time>2026-04-09T10:10:08Z</time></trkpt><trkpt lat="38.012981323414586" lon="-1.1945994975785075"><ele>150.0</ele><time>2026-04-09T10:10:09Z</time></trkpt><trkpt lat="38.01289055229187" lon="-1.1946171938572137"><ele>150.0</ele><time>2026-04-09T10:10:10Z</time></trkpt><trkpt lat="38.012792724934734" lon="-1.1946321115562704"><ele>150.0</ele><time>2026-04-09T10:10:11Z</time></trkpt><trkpt lat="38.01270065006757" lon="-1.1946445607792224"><ele>150.0</ele><time>2026-04-09T10:10:12Z</time></trkpt><trkpt lat="38.01262782858703" lon="-1.1946637631351278"><ele>150.0</ele><time>2026-04-09T10:10:13Z</time></trkpt><trkpt lat="38.01256016605659" lon="-1.194680280048733"><ele>150.0</ele><time>2026-04-09T10:10:15Z</time></trkpt><trkpt lat="38.01249302849217" lon="-1.1947315496986126"><ele>150.0</ele><time>2026-04-09T10:10:18Z</time></trkpt><trkpt lat="38.01239520644309" lon="-1.1947891599388099"><ele>150.0</ele><time>2026-04-09T10:10:23Z</time></trkpt><trkpt lat="38.01234754819788" lon="-1.1948486831904988"><ele>149.4</ele><time>2026-04-09T10:10:24Z</time></trkpt><trkpt lat="38.01228638058622" lon="-1.1948967898790568"><ele>148.8</ele><time>2026-04-09T10:10:26Z</time></trkpt><trkpt lat="38.012226186830794" lon="-1.1949326677539471"><ele>148.2</ele><time>2026-04-09T10:10:28Z</time></trkpt><trkpt lat="38.012117153057346" lon="-1.1950749522129014"><ele>147.6</ele><time>2026-04-09T10:10:30Z</time></trkpt><trkpt lat="38.012087696249175" lon="-1.195162960098938"><ele>147.0</ele><time>2026-04-09T10:10:31Z</time></trkpt><trkpt lat="38.012053459802466" lon="-1.1952641072056858"><ele>147.0</ele><time>2026-04-09T10:10:32Z</time></trkpt><trkpt lat="38.01200829637684" lon="-1.1953666750189318"><ele>147.0</ele><time>2026-04-09T10:10:33Z</time></trkpt><trkpt lat="38.011914207398" lon="-1.1954836111503298"><ele>147.0</ele><time>2026-04-09T10:10:34Z</time></trkpt><trkpt lat="38.01179585796562" lon="-1.1955351574099307"><ele>147.0</ele><time>2026-04-09T10:10:35Z</time></trkpt><trkpt lat="38.0116994318873" lon="-1.1955754165581771"><ele>146.79999999999998</ele><time>2026-04-09T10:10:36Z</time></trkpt><trkpt lat="38.011586395370415" lon="-1.1956118276127878"><ele>146.6</ele><time>2026-04-09T10:10:37Z</time></trkpt><trkpt lat="38.01147862241901" lon="-1.1956464819554145"><ele>146.39999999999998</ele><time>2026-04-09T10:10:38Z</time></trkpt><trkpt lat="38.01139658995867" lon="-1.1956911468141782"><ele>146.2</ele><time>2026-04-09T10:10:39Z</time></trkpt><trkpt lat="38.01131799288198" lon="-1.1957395340744108"><ele>146.0</ele><time>2026-04-09T10:10:40Z</time></trkpt><trkpt lat="38.011213299508654" lon="-1.1957960691424658"><ele>146.0</ele><time>2026-04-09T10:10:42Z</time></trkpt><trkpt lat="38.01110798559221" lon="-1.1958320271432639"><ele>146.0</ele><time>2026-04-09T10:10:44Z</time></trkpt><trkpt lat="38.01103574881611" lon="-1.1958449150859727"><ele>146.0</ele><time>2026-04-09T10:10:45Z</time></trkpt><trkpt lat="38.0109642459572" lon="-1.1958428065686126"><ele>146.0</ele><time>2026-04-09T10:10:46Z</time></trkpt><trkpt lat="38.01088545413413" lon="-1.1958668031636874"><ele>146.0</ele><time>2026-04-09T10:10:47Z</time></trkpt><trkpt lat="38.010808039771604" lon="-1.1958898180533966"><ele>146.0</ele><time>2026-04-09T10:10:48Z</time></trkpt><trkpt lat="38.01072538583246" lon="-1.1959199438837518"><ele>146.66666666666666</ele><time>2026-04-09T10:10:49Z</time></trkpt><trkpt lat="38.01064557535218" lon="-1.1959401712349318"><ele>147.33333333333331</ele><time>2026-04-09T10:10:50Z</time></trkpt><trkpt lat="38.010564234986475" lon="-1.1959638928452365"><ele>148.0</ele><time>2026-04-09T10:10:51Z</time></trkpt><trkpt lat="38.01047049693742" lon="-1.1959996115684268"><ele>148.66666666666666</ele><time>2026-04-09T10:10:52Z</time></trkpt><trkpt lat="38.01039977752178" lon="-1.1960390969412715"><ele>149.33333333333334</ele><time>2026-04-09T10:10:53Z</time></trkpt><trkpt lat="38.01032695331567" lon="-1.1960825824813985"><ele>150.0</ele><time>2026-04-09T10:10:54Z</time></trkpt><trkpt lat="38.01024286624294" lon="-1.196189203134724"><ele>150.0</ele><time>2026-04-09T10:10:56Z</time></trkpt><trkpt lat="38.010181473341916" lon="-1.1962476291577078"><ele>150.0</ele><time>2026-04-09T10:10:57Z</time></trkpt><trkpt lat="38.01011014072379" lon="-1.1962946675365875"><ele>150.0</ele><time>2026-04-09T10:10:58Z</time></trkpt><trkpt lat="38.0100193008988" lon="-1.1964069714549401"><ele>150.0</ele><time>2026-04-09T10:11:00Z</time></trkpt><trkpt lat="38.009975868904995" lon="-1.1964788743888866"><ele>150.0</ele><time>2026-04-09T10:11:01Z</time></trkpt><trkpt lat="38.009940372576324" lon="-1.196546332626546"><ele>150.0</ele><time>2026-04-09T10:11:02Z</time></trkpt><trkpt lat="38.009890349617706" lon="-1.1966808195157868"><ele>150.0</ele><time>2026-04-09T10:11:04Z</time></trkpt><trkpt lat="38.009864949363525" lon="-1.1967966296838513"><ele>150.0</ele><time>2026-04-09T10:11:06Z</time></trkpt><trkpt lat="38.00987591419025" lon="-1.1968787641460463"><ele>150.0</ele><time>2026-04-09T10:11:07Z</time></trkpt><trkpt lat="38.00989901797275" lon="-1.197012509328736"><ele>150.0</ele><time>2026-04-09T10:11:09Z</time></trkpt><trkpt lat="38.009909866039884" lon="-1.197120579887884"><ele>150.0</ele><time>2026-04-09T10:11:11Z</time></trkpt><trkpt lat="38.00989887749759" lon="-1.1972043465507047"><ele>150.0</ele><time>2026-04-09T10:11:13Z</time></trkpt><trkpt lat="38.00992420570284" lon="-1.197330872874717"><ele>148.8</ele><time>2026-04-09T10:11:16Z</time></trkpt><trkpt lat="38.00998440905069" lon="-1.1974280793019907"><ele>147.6</ele><time>2026-04-09T10:11:18Z</time></trkpt><trkpt lat="38.010036561923755" lon="-1.1975136112436489"><ele>146.4</ele><time>2026-04-09T10:11:20Z</time></trkpt><trkpt lat="38.010084188111584" lon="-1.1976130977662545"><ele>145.2</ele><time>2026-04-09T10:11:22Z</time></trkpt><trkpt lat="38.01012145593017" lon="-1.1977510171999104"><ele>144.0</ele><time>2026-04-09T10:11:24Z</time></trkpt><trkpt lat="38.01015149508642" lon="-1.1978777122464743"><ele>143.8</ele><time>2026-04-09T10:11:26Z</time></trkpt><trkpt lat="38.0102436117294" lon="-1.1979684141352025"><ele>143.60000000000002</ele><time>2026-04-09T10:11:28Z</time></trkpt><trkpt lat="38.010315920101135" lon="-1.1980532417902716"><ele>143.4</ele><time>2026-04-09T10:11:30Z</time></trkpt><trkpt lat="38.01040102154009" lon="-1.1981415991525746"><ele>143.20000000000002</ele><time>2026-04-09T10:11:32Z</time></trkpt><trkpt lat="38.01046956881579" lon="-1.1982611603102615"><ele>143.0</ele><time>2026-04-09T10:11:34Z</time></trkpt><trkpt lat="38.01050652946318" lon="-1.1983407323272264"><ele>141.0</ele><time>2026-04-09T10:11:36Z</time></trkpt><trkpt lat="38.01053407550002" lon="-1.198419631413716"><ele>139.0</ele><time>2026-04-09T10:11:39Z</time></trkpt><trkpt lat="38.01048735633057" lon="-1.1984855720312186"><ele>137.0</ele><time>2026-04-09T10:11:42Z</time></trkpt><trkpt lat="38.010403947374506" lon="-1.198502586231507"><ele>135.0</ele><time>2026-04-09T10:11:46Z</time></trkpt><trkpt lat="38.01032268548808" lon="-1.1985094897611832"><ele>133.0</ele><time>2026-04-09T10:11:48Z</time></trkpt><trkpt lat="38.01027493795465" lon="-1.1985799401987596"><ele>131.0</ele><time>2026-04-09T10:11:50Z</time></trkpt><trkpt lat="38.01024246220107" lon="-1.1986738484500679"><ele>131.0</ele><time>2026-04-09T10:11:53Z</time></trkpt><trkpt lat="38.01018742813981" lon="-1.1987199028151543"><ele>131.0</ele><time>2026-04-09T10:11:55Z</time></trkpt><trkpt lat="38.01012850029985" lon="-1.1987945628234342"><ele>131.0</ele><time>2026-04-09T10:11:57Z</time></trkpt><trkpt lat="38.01001737271015" lon="-1.1989492740441312"><ele>131.0</ele><time>2026-04-09T10:11:59Z</time></trkpt><trkpt lat="38.009945303220036" lon="-1.1989988850529207"><ele>131.0</ele><time>2026-04-09T10:12:01Z</time></trkpt><trkpt lat="38.00986502582141" lon="-1.199007028525065"><ele>130.0</ele><time>2026-04-09T10:12:03Z</time></trkpt><trkpt lat="38.009797914443006" lon="-1.1990650833413041"><ele>129.0</ele><time>2026-04-09T10:12:05Z</time></trkpt><trkpt lat="38.00975472822556" lon="-1.199162674424014"><ele>128.0</ele><time>2026-04-09T10:12:07Z</time></trkpt><trkpt lat="38.00972306104854" lon="-1.199250536637314"><ele>127.0</ele><time>2026-04-09T10:12:09Z</time></trkpt><trkpt lat="38.009698227792136" lon="-1.199342956264929"><ele>125.99999999999999</ele><time>2026-04-09T10:12:11Z</time></trkpt><trkpt lat="38.00966843383292" lon="-1.199443047971902"><ele>125.0</ele><time>2026-04-09T10:12:13Z</time></trkpt><trkpt lat="38.00960953781262" lon="-1.1995103194931898"><ele>124.99999999999999</ele><time>2026-04-09T10:12:15Z</time></trkpt><trkpt lat="38.00950804599991" lon="-1.1995616063564523"><ele>125.0</ele><time>2026-04-09T10:12:17Z</time></trkpt><trkpt lat="38.00942750329974" lon="-1.199532655398293"><ele>125.0</ele><time>2026-04-09T10:12:18Z</time></trkpt><trkpt lat="38.009384078803336" lon="-1.1995930830831214"><ele>125.0</ele><time>2026-04-09T10:12:21Z</time></trkpt><trkpt lat="38.00935548950835" lon="-1.1996680047976462"><ele>124.99999999999999</ele><time>2026-04-09T10:12:22Z</time></trkpt><trkpt lat="38.0092860308238" lon="-1.1997000240179472"><ele>125.0</ele><time>2026-04-09T10:12:25Z</time></trkpt><trkpt lat="38.009228200763296" lon="-1.199655019575811"><ele>125.42857142857142</ele><time>2026-04-09T10:12:28Z</time></trkpt><trkpt lat="38.00914769440975" lon="-1.1996766339933398"><ele>125.85714285714286</ele><time>2026-04-09T10:12:31Z</time></trkpt><trkpt lat="38.00907772782614" lon="-1.1996976596383564"><ele>126.28571428571428</ele><time>2026-04-09T10:12:33Z</time></trkpt><trkpt lat="38.00899226525881" lon="-1.1996952399002179"><ele>126.71428571428571</ele><time>2026-04-09T10:12:35Z</time></trkpt><trkpt lat="38.00892873236707" lon="-1.1996612593307163"><ele>127.14285714285714</ele><time>2026-04-09T10:12:37Z</time></trkpt><trkpt lat="38.008863773835905" lon="-1.1996678397963505"><ele>127.57142857142857</ele><time>2026-04-09T10:12:39Z</time></trkpt><trkpt lat="38.00880403412299" lon="-1.1997000468079027"><ele>128.0</ele><time>2026-04-09T10:12:41Z</time></trkpt><trkpt lat="38.00872239574442" lon="-1.1997832043705716"><ele>125.75</ele><time>2026-04-09T10:12:43Z</time></trkpt><trkpt lat="38.008657088401094" lon="-1.1998516798223162"><ele>123.5</ele><time>2026-04-09T10:12:46Z</time></trkpt><trkpt lat="38.00848258221779" lon="-1.2000329736725504"><ele>121.25</ele><time>2026-04-09T10:12:48Z</time></trkpt><trkpt lat="38.00843256822175" lon="-1.2001109882148009"><ele>119.0</ele><time>2026-04-09T10:12:50Z</time></trkpt><trkpt lat="38.00843678585764" lon="-1.200225112825457"><ele>118.99999999999999</ele><time>2026-04-09T10:12:53Z</time></trkpt><trkpt lat="38.008358681374304" lon="-1.2002234548590716"><ele>119.0</ele><time>2026-04-09T10:12:55Z</time></trkpt><trkpt lat="38.00828699523412" lon="-1.2001848806626698"><ele>119.0</ele><time>2026-04-09T10:12:56Z</time></trkpt><trkpt lat="38.00822052303051" lon="-1.2001221932236712"><ele>119.0</ele><time>2026-04-09T10:12:59Z</time></trkpt><trkpt lat="38.008151940463584" lon="-1.200180979607665"><ele>118.99999999999999</ele><time>2026-04-09T10:13:02Z</time></trkpt><trkpt lat="38.00811956254828" lon="-1.2002967923104326"><ele>119.0</ele><time>2026-04-09T10:13:04Z</time></trkpt><trkpt lat="38.00804426446795" lon="-1.2002955959357513"><ele>119.16666666666666</ele><time>2026-04-09T10:13:06Z</time></trkpt><trkpt lat="38.00796424298888" lon="-1.2003178499422937"><ele>119.33333333333333</ele><time>2026-04-09T10:13:08Z</time></trkpt><trkpt lat="38.00789559352186" lon="-1.2003707244930544"><ele>119.5</ele><time>2026-04-09T10:13:11Z</time></trkpt><trkpt lat="38.0078461028489" lon="-1.20042581670503"><ele>119.66666666666666</ele><time>2026-04-09T10:13:13Z</time></trkpt><trkpt lat="38.00776282615622" lon="-1.200507152738855"><ele>119.83333333333333</ele><time>2026-04-09T10:13:16Z</time></trkpt><trkpt lat="38.00770340524625" lon="-1.2005527316442166"><ele>120.0</ele><time>2026-04-09T10:13:18Z</time></trkpt><trkpt lat="38.007684283013305" lon="-1.2006505054404422"><ele>119.66666666666667</ele><time>2026-04-09T10:13:21Z</time></trkpt><trkpt lat="38.00766391033778" lon="-1.2007350240898984"><ele>119.33333333333334</ele><time>2026-04-09T10:13:23Z</time></trkpt><trkpt lat="38.007661900326866" lon="-1.200818759445556"><ele>119.0</ele><time>2026-04-09T10:13:25Z</time></trkpt><trkpt lat="38.0076132859025" lon="-1.200886626823885"><ele>118.66666666666667</ele><time>2026-04-09T10:13:27Z</time></trkpt><trkpt lat="38.00755084183197" lon="-1.2009578700134464"><ele>118.33333333333334</ele><time>2026-04-09T10:13:29Z</time></trkpt><trkpt lat="38.007447049698094" lon="-1.2010000773776042"><ele>118.0</ele><time>2026-04-09T10:13:32Z</time></trkpt><trkpt lat="38.007381830683435" lon="-1.2010485566021063"><ele>118.00000000000001</ele><time>2026-04-09T10:13:34Z</time></trkpt><trkpt lat="38.00733756983657" lon="-1.2011492465200475"><ele>118.0</ele><time>2026-04-09T10:13:37Z</time></trkpt><trkpt lat="38.007243504554445" lon="-1.2011860490899304"><ele>118.0</ele><time>2026-04-09T10:13:39Z</time></trkpt><trkpt lat="38.00716984084338" lon="-1.2011888371281294"><ele>118.0</ele><time>2026-04-09T10:13:41Z</time></trkpt><trkpt lat="38.00723630205835" lon="-1.2012161852365504"><ele>118.00000000000001</ele><time>2026-04-09T10:13:48Z</time></trkpt><trkpt lat="38.0073081047733" lon="-1.2012481658793084"><ele>118.0</ele><time>2026-04-09T10:13:49Z</time></trkpt><trkpt lat="38.00739070296499" lon="-1.2012670121264364"><ele>118.0</ele><time>2026-04-09T10:13:51Z</time></trkpt><trkpt lat="38.007459660753995" lon="-1.2012976203921055"><ele>118.00000000000001</ele><time>2026-04-09T10:13:54Z</time></trkpt><trkpt lat="38.00743799836965" lon="-1.2013995620177622"><ele>118.00000000000001</ele><time>2026-04-09T10:13:57Z</time></trkpt><trkpt lat="38.0073480501585" lon="-1.2014612504752218"><ele>118.0</ele><time>2026-04-09T10:14:01Z</time></trkpt><trkpt lat="38.00723789019314" lon="-1.2015009244801822"><ele>118.0</ele><time>2026-04-09T10:14:03Z</time></trkpt><trkpt lat="38.00712668560779" lon="-1.2015087348887488"><ele>116.80000000000001</ele><time>2026-04-09T10:14:05Z</time></trkpt><trkpt lat="38.00703869451601" lon="-1.2015426029155307"><ele>115.60000000000001</ele><time>2026-04-09T10:14:07Z</time></trkpt><trkpt lat="38.00696970276061" lon="-1.2016352154419156"><ele>114.39999999999999</ele><time>2026-04-09T10:14:09Z</time></trkpt><trkpt lat="38.00689136792122" lon="-1.2017532207596433"><ele>113.19999999999999</ele><time>2026-04-09T10:14:11Z</time></trkpt><trkpt lat="38.00683796948408" lon="-1.201854296232247"><ele>112.0</ele><time>2026-04-09T10:14:13Z</time></trkpt><trkpt lat="38.00678326662207" lon="-1.2019298672212066"><ele>112.00000000000001</ele><time>2026-04-09T10:14:15Z</time></trkpt><trkpt lat="38.00674961395283" lon="-1.2020398050442547"><ele>112.0</ele><time>2026-04-09T10:14:17Z</time></trkpt><trkpt lat="38.00669035189255" lon="-1.2021193314385827"><ele>112.0</ele><time>2026-04-09T10:14:21Z</time></trkpt><trkpt lat="38.00662550269899" lon="-1.2021717701955132"><ele>112.0</ele><time>2026-04-09T10:14:24Z</time></trkpt><trkpt lat="38.0066435245801" lon="-1.20226751492075"><ele>112.00000000000001</ele><time>2026-04-09T10:14:28Z</time></trkpt><trkpt lat="38.006613130604926" lon="-1.2023552533187867"><ele>112.0</ele><time>2026-04-09T10:14:31Z</time></trkpt><trkpt lat="38.00655617302113" lon="-1.2024416364541068"><ele>112.00000000000001</ele><time>2026-04-09T10:14:34Z</time></trkpt><trkpt lat="38.006487239467866" lon="-1.2024778502137998"><ele>112.0</ele><time>2026-04-09T10:14:38Z</time></trkpt><trkpt lat="38.00640145453597" lon="-1.2025497648538663"><ele>112.0</ele><time>2026-04-09T10:14:41Z</time></trkpt><trkpt lat="38.00636078997098" lon="-1.202613591862135"><ele>112.0</ele><time>2026-04-09T10:14:44Z</time></trkpt><trkpt lat="38.00627907493528" lon="-1.2026787147982119"><ele>112.00000000000001</ele><time>2026-04-09T10:14:47Z</time></trkpt><trkpt lat="38.00623486028621" lon="-1.2027534811188438"><ele>112.0</ele><time>2026-04-09T10:14:49Z</time></trkpt><trkpt lat="38.006194865143954" lon="-1.2028216853529643"><ele>112.0</ele><time>2026-04-09T10:14:51Z</time></trkpt><trkpt lat="38.006145775133284" lon="-1.2029106986154106"><ele>112.0</ele><time>2026-04-09T10:14:53Z</time></trkpt><trkpt lat="38.00596657129819" lon="-1.2031812417731937"><ele>112.0</ele><time>2026-04-09T10:14:55Z</time></trkpt><trkpt lat="38.0059380265389" lon="-1.2032530810113686"><ele>112.0</ele><time>2026-04-09T10:14:56Z</time></trkpt><trkpt lat="38.005885026000406" lon="-1.2033367719851984"><ele>111.66666666666667</ele><time>2026-04-09T10:14:58Z</time></trkpt><trkpt lat="38.00579828701816" lon="-1.2033888477073413"><ele>111.33333333333334</ele><time>2026-04-09T10:15:00Z</time></trkpt><trkpt lat="38.005714506246214" lon="-1.2033922034734759"><ele>111.0</ele><time>2026-04-09T10:15:02Z</time></trkpt><trkpt lat="38.00562338820591" lon="-1.2033933828272656"><ele>110.66666666666666</ele><time>2026-04-09T10:15:05Z</time></trkpt><trkpt lat="38.005560130548915" lon="-1.2034274131233031"><ele>110.33333333333333</ele><time>2026-04-09T10:15:08Z</time></trkpt><trkpt lat="38.00547831210498" lon="-1.2034799491664139"><ele>110.0</ele><time>2026-04-09T10:22:28Z</time></trkpt><trkpt lat="38.00545464986414" lon="-1.2035649139359113"><ele>109.99999999999999</ele><time>2026-04-09T10:22:40Z</time></trkpt><trkpt lat="38.00550641609099" lon="-1.203505041530608"><ele>110.0</ele><time>2026-04-09T10:29:28Z</time></trkpt><trkpt lat="38.005554162142396" lon="-1.203438869577173"><ele>110.0</ele><time>2026-04-09T10:36:32Z</time></trkpt><trkpt lat="38.005607348754104" lon="-1.2033817249938998"><ele>110.0</ele><time>2026-04-09T10:38:38Z</time></trkpt><trkpt lat="38.005668264373426" lon="-1.203459050323581"><ele>110.0</ele><time>2026-04-09T10:38:42Z</time></trkpt><trkpt lat="38.00573547587419" lon="-1.2034479853352718"><ele>109.99999999999999</ele><time>2026-04-09T10:38:45Z</time></trkpt><trkpt lat="38.005787146207325" lon="-1.2033795738651718"><ele>110.0</ele><time>2026-04-09T10:38:55Z</time></trkpt><trkpt lat="38.0058616083881" lon="-1.203320902459493"><ele>110.4</ele><time>2026-04-09T10:38:58Z</time></trkpt><trkpt lat="38.00593055369278" lon="-1.2032650765435873"><ele>110.8</ele><time>2026-04-09T10:39:00Z</time></trkpt><trkpt lat="38.00599014930964" lon="-1.2031687838363754"><ele>111.19999999999999</ele><time>2026-04-09T10:39:02Z</time></trkpt><trkpt lat="38.00604259125142" lon="-1.2030733460214533"><ele>111.6</ele><time>2026-04-09T10:39:20Z</time></trkpt><trkpt lat="38.00609387802028" lon="-1.2029504555802977"><ele>112.0</ele><time>2026-04-09T10:39:22Z</time></trkpt><trkpt lat="38.00618103579163" lon="-1.2028678930487493"><ele>112.0</ele><time>2026-04-09T10:39:24Z</time></trkpt><trkpt lat="38.006192845550984" lon="-1.2027347426709052"><ele>111.99999999999999</ele><time>2026-04-09T10:39:26Z</time></trkpt><trkpt lat="38.00626622163749" lon="-1.2026287399853821"><ele>111.99999999999999</ele><time>2026-04-09T10:39:28Z</time></trkpt><trkpt lat="38.00635273672293" lon="-1.2025937916699745"><ele>112.0</ele><time>2026-04-09T10:39:30Z</time></trkpt><trkpt lat="38.00642870883585" lon="-1.202540413275385"><ele>112.0</ele><time>2026-04-09T10:39:33Z</time></trkpt><trkpt lat="38.006488000880815" lon="-1.2025059908907147"><ele>112.0</ele><time>2026-04-09T10:39:35Z</time></trkpt><trkpt lat="38.00655600488448" lon="-1.2024591614454045"><ele>112.0</ele><time>2026-04-09T10:39:37Z</time></trkpt><trkpt lat="38.00662430546921" lon="-1.2023872906937294"><ele>112.0</ele><time>2026-04-09T10:39:40Z</time></trkpt><trkpt lat="38.00663049142446" lon="-1.202289452849932"><ele>112.0</ele><time>2026-04-09T10:39:45Z</time></trkpt><trkpt lat="38.00663944089325" lon="-1.2022022627000921"><ele>112.0</ele><time>2026-04-09T10:39:49Z</time></trkpt><trkpt lat="38.00669041609448" lon="-1.202151684980304"><ele>112.0</ele><time>2026-04-09T10:39:54Z</time></trkpt><trkpt lat="38.006726346837354" lon="-1.2020830355561265"><ele>112.0</ele><time>2026-04-09T10:39:57Z</time></trkpt><trkpt lat="38.00677485661713" lon="-1.201964353697399"><ele>112.00000000000001</ele><time>2026-04-09T10:40:00Z</time></trkpt><trkpt lat="38.006817338225765" lon="-1.2018855806779105"><ele>112.0</ele><time>2026-04-09T10:40:02Z</time></trkpt><trkpt lat="38.00686029082329" lon="-1.2017946408031062"><ele>112.0</ele><time>2026-04-09T10:40:03Z</time></trkpt><trkpt lat="38.00690390889486" lon="-1.2017333545924147"><ele>112.0</ele><time>2026-04-09T10:40:04Z</time></trkpt><trkpt lat="38.00695481704586" lon="-1.2016564403698031"><ele>112.00000000000001</ele><time>2026-04-09T10:40:06Z</time></trkpt><trkpt lat="38.00704333148919" lon="-1.2015460222616983"><ele>112.0</ele><time>2026-04-09T10:40:08Z</time></trkpt><trkpt lat="38.007095635577855" lon="-1.2014966971965026"><ele>113.00000000000001</ele><time>2026-04-09T10:40:09Z</time></trkpt><trkpt lat="38.00718698353101" lon="-1.2014632111995747"><ele>114.0</ele><time>2026-04-09T10:40:11Z</time></trkpt><trkpt lat="38.00728653013908" lon="-1.201469525311211"><ele>115.0</ele><time>2026-04-09T10:40:13Z</time></trkpt><trkpt lat="38.00736658902991" lon="-1.2014566980040813"><ele>116.0</ele><time>2026-04-09T10:40:15Z</time></trkpt><trkpt lat="38.007435653465755" lon="-1.2014176552097764"><ele>117.00000000000001</ele><time>2026-04-09T10:40:17Z</time></trkpt><trkpt lat="38.00749056456269" lon="-1.2013346519672026"><ele>118.0</ele><time>2026-04-09T10:40:20Z</time></trkpt><trkpt lat="38.00746362568771" lon="-1.201259799652634"><ele>118.0</ele><time>2026-04-09T10:40:22Z</time></trkpt><trkpt lat="38.007399264377476" lon="-1.2012596892324747"><ele>118.0</ele><time>2026-04-09T10:40:23Z</time></trkpt><trkpt lat="38.00734701541612" lon="-1.2012131491196663"><ele>118.0</ele><time>2026-04-09T10:40:26Z</time></trkpt><trkpt lat="38.0073225384118" lon="-1.2011275289032082"><ele>118.0</ele><time>2026-04-09T10:40:30Z</time></trkpt><trkpt lat="38.00738392136556" lon="-1.20109013815348"><ele>118.0</ele><time>2026-04-09T10:40:34Z</time></trkpt><trkpt lat="38.007437379893744" lon="-1.201010211196139"><ele>118.0</ele><time>2026-04-09T10:41:39Z</time></trkpt><trkpt lat="38.00752539337616" lon="-1.2009689777790449"><ele>118.0</ele><time>2026-04-09T10:41:41Z</time></trkpt><trkpt lat="38.007608085456226" lon="-1.2009598069318823"><ele>118.4</ele><time>2026-04-09T10:41:44Z</time></trkpt><trkpt lat="38.00759003580114" lon="-1.2008340341467025"><ele>118.80000000000001</ele><time>2026-04-09T10:41:47Z</time></trkpt><trkpt lat="38.00756368305059" lon="-1.2006949099442354"><ele>119.2</ele><time>2026-04-09T10:41:49Z</time></trkpt><trkpt lat="38.00760610762237" lon="-1.2005978799219186"><ele>119.6</ele><time>2026-04-09T10:41:51Z</time></trkpt><trkpt lat="38.007648261997986" lon="-1.2005332985930675"><ele>120.0</ele><time>2026-04-09T10:41:52Z</time></trkpt><trkpt lat="38.00775546350339" lon="-1.2004635096635563"><ele>120.0</ele><time>2026-04-09T10:41:54Z</time></trkpt><trkpt lat="38.00786414904326" lon="-1.200373078829051"><ele>120.0</ele><time>2026-04-09T10:41:56Z</time></trkpt><trkpt lat="38.007924106160075" lon="-1.2003352086299093"><ele>120.0</ele><time>2026-04-09T10:41:57Z</time></trkpt><trkpt lat="38.00800426896367" lon="-1.200292694686022"><ele>120.0</ele><time>2026-04-09T10:41:58Z</time></trkpt><trkpt lat="38.00807638025433" lon="-1.2003135611183735"><ele>120.0</ele><time>2026-04-09T10:41:59Z</time></trkpt><trkpt lat="38.008143152929094" lon="-1.2002922069508897"><ele>120.0</ele><time>2026-04-09T10:42:01Z</time></trkpt><trkpt lat="38.00816913267577" lon="-1.2002085145644596"><ele>120.0</ele><time>2026-04-09T10:42:04Z</time></trkpt><trkpt lat="38.00825375978969" lon="-1.2001735430240315"><ele>120.0</ele><time>2026-04-09T10:42:07Z</time></trkpt><trkpt lat="38.00835509650469" lon="-1.2001400235378519"><ele>120.0</ele><time>2026-04-09T10:42:10Z</time></trkpt><trkpt lat="38.0084419398521" lon="-1.2000763438535647"><ele>120.0</ele><time>2026-04-09T10:42:14Z</time></trkpt><trkpt lat="38.00846796416937" lon="-1.1999819967471836"><ele>120.0</ele><time>2026-04-09T10:42:16Z</time></trkpt><trkpt lat="38.00868179142806" lon="-1.1997429793690348"><ele>121.6</ele><time>2026-04-09T10:42:18Z</time></trkpt><trkpt lat="38.00872783875823" lon="-1.1996409990262573"><ele>123.2</ele><time>2026-04-09T10:42:20Z</time></trkpt><trkpt lat="38.008824480167085" lon="-1.1995932831665357"><ele>124.80000000000001</ele><time>2026-04-09T10:42:22Z</time></trkpt><trkpt lat="38.00894397355461" lon="-1.1996447048985142"><ele>126.4</ele><time>2026-04-09T10:42:24Z</time></trkpt><trkpt lat="38.00903091192178" lon="-1.199680401144801"><ele>128.0</ele><time>2026-04-09T10:42:26Z</time></trkpt><trkpt lat="38.00912630619373" lon="-1.199648801536721"><ele>127.4</ele><time>2026-04-09T10:42:28Z</time></trkpt><trkpt lat="38.0092196082981" lon="-1.199645000036092"><ele>126.80000000000001</ele><time>2026-04-09T10:42:30Z</time></trkpt><trkpt lat="38.00930372966628" lon="-1.1996953515968998"><ele>126.2</ele><time>2026-04-09T10:42:32Z</time></trkpt><trkpt lat="38.00939013026051" lon="-1.1996124882058972"><ele>125.6</ele><time>2026-04-09T10:42:36Z</time></trkpt><trkpt lat="38.00944662413167" lon="-1.1995310031877495"><ele>125.0</ele><time>2026-04-09T10:42:37Z</time></trkpt><trkpt lat="38.00951138113861" lon="-1.1994768300031513"><ele>125.0</ele><time>2026-04-09T10:42:38Z</time></trkpt><trkpt lat="38.00961409340421" lon="-1.199462612139932"><ele>125.0</ele><time>2026-04-09T10:42:39Z</time></trkpt><trkpt lat="38.009692058302484" lon="-1.1993862651355525"><ele>125.0</ele><time>2026-04-09T10:42:41Z</time></trkpt><trkpt lat="38.00974429942199" lon="-1.1992317409313404"><ele>125.0</ele><time>2026-04-09T10:42:43Z</time></trkpt><trkpt lat="38.009773878119454" lon="-1.199092115028617"><ele>125.0</ele><time>2026-04-09T10:42:45Z</time></trkpt><trkpt lat="38.00985503623037" lon="-1.198990742553262"><ele>126.2</ele><time>2026-04-09T10:42:47Z</time></trkpt><trkpt lat="38.009949998104844" lon="-1.1989252409736717"><ele>127.4</ele><time>2026-04-09T10:42:49Z</time></trkpt><trkpt lat="38.01003362034428" lon="-1.1989319424240645"><ele>128.6</ele><time>2026-04-09T10:42:51Z</time></trkpt><trkpt lat="38.010125912381966" lon="-1.1988167288856468"><ele>129.8</ele><time>2026-04-09T10:42:53Z</time></trkpt><trkpt lat="38.01018877665711" lon="-1.198720852238593"><ele>131.0</ele><time>2026-04-09T10:42:55Z</time></trkpt><trkpt lat="38.01022576911884" lon="-1.198641544438585"><ele>131.0</ele><time>2026-04-09T10:42:58Z</time></trkpt><trkpt lat="38.01027910659555" lon="-1.1985948153076966"><ele>131.0</ele><time>2026-04-09T10:43:01Z</time></trkpt><trkpt lat="38.010422380442556" lon="-1.1985862601039945"><ele>131.0</ele><time>2026-04-09T10:43:03Z</time></trkpt><trkpt lat="38.0105049552785" lon="-1.1984900090216208"><ele>131.0</ele><time>2026-04-09T10:43:06Z</time></trkpt><trkpt lat="38.010470674793986" lon="-1.1984008844525202"><ele>131.0</ele><time>2026-04-09T10:43:09Z</time></trkpt><trkpt lat="38.01042260375369" lon="-1.198254772906231"><ele>131.0</ele><time>2026-04-09T10:43:11Z</time></trkpt><trkpt lat="38.01037326975514" lon="-1.1981696195892664"><ele>131.0</ele><time>2026-04-09T10:43:12Z</time></trkpt><trkpt lat="38.010310535766976" lon="-1.1980914216109972"><ele>131.0</ele><time>2026-04-09T10:43:13Z</time></trkpt><trkpt lat="38.01024195068334" lon="-1.1980192571947663"><ele>131.0</ele><time>2026-04-09T10:43:14Z</time></trkpt><trkpt lat="38.01018256297804" lon="-1.1979410581634553"><ele>131.0</ele><time>2026-04-09T10:43:15Z</time></trkpt><trkpt lat="38.01013036664873" lon="-1.19786557306819"><ele>131.0</ele><time>2026-04-09T10:43:16Z</time></trkpt><trkpt lat="38.01009823443428" lon="-1.1977879490499899"><ele>133.0</ele><time>2026-04-09T10:43:17Z</time></trkpt><trkpt lat="38.01008822744685" lon="-1.1976920275066596"><ele>135.0</ele><time>2026-04-09T10:43:18Z</time></trkpt><trkpt lat="38.01007404794473" lon="-1.1975879493217212"><ele>137.0</ele><time>2026-04-09T10:43:19Z</time></trkpt><trkpt lat="38.01003573166848" lon="-1.197492327743794"><ele>139.0</ele><time>2026-04-09T10:43:20Z</time></trkpt><trkpt lat="38.00998830272836" lon="-1.1974219172018115"><ele>141.0</ele><time>2026-04-09T10:43:21Z</time></trkpt><trkpt lat="38.00993415988566" lon="-1.1973593514322196"><ele>143.0</ele><time>2026-04-09T10:43:22Z</time></trkpt><trkpt lat="38.009897604881274" lon="-1.1972902987676026"><ele>144.16666666666666</ele><time>2026-04-09T10:43:23Z</time></trkpt><trkpt lat="38.00988647197627" lon="-1.1972017180071532"><ele>145.33333333333331</ele><time>2026-04-09T10:43:24Z</time></trkpt><trkpt lat="38.00989486181705" lon="-1.1971103823495508"><ele>146.5</ele><time>2026-04-09T10:43:25Z</time></trkpt><trkpt lat="38.009909134884836" lon="-1.1970290350310748"><ele>147.66666666666666</ele><time>2026-04-09T10:43:26Z</time></trkpt><trkpt lat="38.00987987000567" lon="-1.1968617181789836"><ele>148.83333333333334</ele><time>2026-04-09T10:43:28Z</time></trkpt><trkpt lat="38.00986782182803" lon="-1.196752796297164"><ele>150.0</ele><time>2026-04-09T10:43:29Z</time></trkpt><trkpt lat="38.00988553226582" lon="-1.1966587837618878"><ele>150.0</ele><time>2026-04-09T10:43:30Z</time></trkpt><trkpt lat="38.00992724379744" lon="-1.196576460019453"><ele>150.0</ele><time>2026-04-09T10:43:31Z</time></trkpt><trkpt lat="38.009997740960216" lon="-1.1964599038178152"><ele>150.0</ele><time>2026-04-09T10:43:32Z</time></trkpt><trkpt lat="38.010075408999974" lon="-1.19634767062803"><ele>150.0</ele><time>2026-04-09T10:43:33Z</time></trkpt><trkpt lat="38.01016333943375" lon="-1.1962596614680547"><ele>150.0</ele><time>2026-04-09T10:43:34Z</time></trkpt><trkpt lat="38.010268322847054" lon="-1.1961737465076705"><ele>150.0</ele><time>2026-04-09T10:43:35Z</time></trkpt><trkpt lat="38.01036225497796" lon="-1.1960944924130668"><ele>150.0</ele><time>2026-04-09T10:43:36Z</time></trkpt><trkpt lat="38.01044584553755" lon="-1.1960201239215387"><ele>150.0</ele><time>2026-04-09T10:43:37Z</time></trkpt><trkpt lat="38.010554900432055" lon="-1.1959678590208644"><ele>150.0</ele><time>2026-04-09T10:43:38Z</time></trkpt><trkpt lat="38.01069602213967" lon="-1.1959209861907518"><ele>150.0</ele><time>2026-04-09T10:43:39Z</time></trkpt><trkpt lat="38.01082231752338" lon="-1.1958727572653585"><ele>150.0</ele><time>2026-04-09T10:43:40Z</time></trkpt><trkpt lat="38.01094966712679" lon="-1.1958457141564538"><ele>150.0</ele><time>2026-04-09T10:43:41Z</time></trkpt><trkpt lat="38.011045622990274" lon="-1.1958327654574754"><ele>150.0</ele><time>2026-04-09T10:43:42Z</time></trkpt><trkpt lat="38.01113205548651" lon="-1.1958223950788547"><ele>150.0</ele><time>2026-04-09T10:43:43Z</time></trkpt><trkpt lat="38.01122541418137" lon="-1.1957890298099467"><ele>149.25</ele><time>2026-04-09T10:43:44Z</time></trkpt><trkpt lat="38.01132449599048" lon="-1.1957292095066314"><ele>148.5</ele><time>2026-04-09T10:43:45Z</time></trkpt><trkpt lat="38.01143262420409" lon="-1.1956621995425831"><ele>147.75</ele><time>2026-04-09T10:43:46Z</time></trkpt><trkpt lat="38.01155689284247" lon="-1.1955899574710218"><ele>147.0</ele><time>2026-04-09T10:43:47Z</time></trkpt><trkpt lat="38.01169145836673" lon="-1.1955377926052484"><ele>147.0</ele><time>2026-04-09T10:43:48Z</time></trkpt><trkpt lat="38.011809479913" lon="-1.195494574944161"><ele>147.0</ele><time>2026-04-09T10:43:49Z</time></trkpt><trkpt lat="38.01191028666124" lon="-1.195438324689746"><ele>147.0</ele><time>2026-04-09T10:43:50Z</time></trkpt><trkpt lat="38.011998073628554" lon="-1.1953481473471756"><ele>147.0</ele><time>2026-04-09T10:43:51Z</time></trkpt><trkpt lat="38.01207833831894" lon="-1.1952264501307441"><ele>147.0</ele><time>2026-04-09T10:43:52Z</time></trkpt><trkpt lat="38.01213850978106" lon="-1.1950922376577457"><ele>147.0</ele><time>2026-04-09T10:43:53Z</time></trkpt><trkpt lat="38.01217958007947" lon="-1.1949364242841372"><ele>147.0</ele><time>2026-04-09T10:43:54Z</time></trkpt><trkpt lat="38.01222840798399" lon="-1.1947997030049606"><ele>147.0</ele><time>2026-04-09T10:43:55Z</time></trkpt><trkpt lat="38.01229021539705" lon="-1.1946912933652132"><ele>146.6</ele><time>2026-04-09T10:43:56Z</time></trkpt><trkpt lat="38.01238731829434" lon="-1.1945955734895353"><ele>146.2</ele><time>2026-04-09T10:43:57Z</time></trkpt><trkpt lat="38.01248886264236" lon="-1.1945106159466858"><ele>145.8</ele><time>2026-04-09T10:43:58Z</time></trkpt><trkpt lat="38.01257895964812" lon="-1.194449133457046"><ele>145.4</ele><time>2026-04-09T10:43:59Z</time></trkpt><trkpt lat="38.01267189292648" lon="-1.194424758337537"><ele>145.0</ele><time>2026-04-09T10:44:00Z</time></trkpt><trkpt lat="38.01277348779056" lon="-1.1944287120973"><ele>146.0</ele><time>2026-04-09T10:44:01Z</time></trkpt><trkpt lat="38.01288367082722" lon="-1.1944585855211007"><ele>147.0</ele><time>2026-04-09T10:44:02Z</time></trkpt><trkpt lat="38.01299746769934" lon="-1.1945084635543264"><ele>148.0</ele><time>2026-04-09T10:44:03Z</time></trkpt><trkpt lat="38.0130996121902" lon="-1.1945512064983077"><ele>149.0</ele><time>2026-04-09T10:44:04Z</time></trkpt><trkpt lat="38.01319580050206" lon="-1.1945728589711815"><ele>150.0</ele><time>2026-04-09T10:44:05Z</time></trkpt><trkpt lat="38.01330035474806" lon="-1.1945689382188673"><ele>150.0</ele><time>2026-04-09T10:44:06Z</time></trkpt><trkpt lat="38.01340417395774" lon="-1.1945451748401381"><ele>150.0</ele><time>2026-04-09T10:44:07Z</time></trkpt><trkpt lat="38.01349042555135" lon="-1.1944890156792218"><ele>150.0</ele><time>2026-04-09T10:44:08Z</time></trkpt><trkpt lat="38.013557577546884" lon="-1.1943914831174414"><ele>150.0</ele><time>2026-04-09T10:44:09Z</time></trkpt><trkpt lat="38.013604860834704" lon="-1.1942648899784216"><ele>150.0</ele><time>2026-04-09T10:44:10Z</time></trkpt><trkpt lat="38.013648710385986" lon="-1.1941098901715483"><ele>149.0</ele><time>2026-04-09T10:44:11Z</time></trkpt><trkpt lat="38.013683146490436" lon="-1.1939459729142887"><ele>148.0</ele><time>2026-04-09T10:44:12Z</time></trkpt><trkpt lat="38.013724440811025" lon="-1.1937991411335032"><ele>147.0</ele><time>2026-04-09T10:44:13Z</time></trkpt><trkpt lat="38.01379222541081" lon="-1.1936549276907136"><ele>146.0</ele><time>2026-04-09T10:44:14Z</time></trkpt><trkpt lat="38.01386685638799" lon="-1.1935124517899756"><ele>146.0</ele><time>2026-04-09T10:44:15Z</time></trkpt><trkpt lat="38.013915847764245" lon="-1.1933577664914432"><ele>146.0</ele><time>2026-04-09T10:44:16Z</time></trkpt><trkpt lat="38.01394214931508" lon="-1.1932104110018027"><ele>146.0</ele><time>2026-04-09T10:44:17Z</time></trkpt><trkpt lat="38.013945732477275" lon="-1.1930846384481464"><ele>146.0</ele><time>2026-04-09T10:44:18Z</time></trkpt><trkpt lat="38.01391488663508" lon="-1.1929727411154147"><ele>146.0</ele><time>2026-04-09T10:44:19Z</time></trkpt><trkpt lat="38.0138524779795" lon="-1.1928740232228714"><ele>146.5</ele><time>2026-04-09T10:44:20Z</time></trkpt><trkpt lat="38.013760363010654" lon="-1.192759642039153"><ele>147.0</ele><time>2026-04-09T10:44:21Z</time></trkpt><trkpt lat="38.01366322694796" lon="-1.1926289757426787"><ele>147.5</ele><time>2026-04-09T10:44:22Z</time></trkpt><trkpt lat="38.01358571443361" lon="-1.1925104844031518"><ele>148.0</ele><time>2026-04-09T10:44:23Z</time></trkpt><trkpt lat="38.01350451011432" lon="-1.192411748280767"><ele>148.25</ele><time>2026-04-09T10:44:24Z</time></trkpt><trkpt lat="38.01343470732626" lon="-1.1923098554352405"><ele>148.5</ele><time>2026-04-09T10:44:25Z</time></trkpt><trkpt lat="38.013391019077055" lon="-1.192176315534693"><ele>148.75</ele><time>2026-04-09T10:44:26Z</time></trkpt><trkpt lat="38.013366713203006" lon="-1.1920255146780905"><ele>149.0</ele><time>2026-04-09T10:44:27Z</time></trkpt><trkpt lat="38.01335583493104" lon="-1.1918849821573985"><ele>149.0</ele><time>2026-04-09T10:44:28Z</time></trkpt><trkpt lat="38.01336246750128" lon="-1.1917563744387394"><ele>149.0</ele><time>2026-04-09T10:44:29Z</time></trkpt><trkpt lat="38.01338138150461" lon="-1.1916177861100339"><ele>149.0</ele><time>2026-04-09T10:44:30Z</time></trkpt><trkpt lat="38.013408007752126" lon="-1.191455151552441"><ele>149.0</ele><time>2026-04-09T10:44:31Z</time></trkpt><trkpt lat="38.013440198714456" lon="-1.1913139514619553"><ele>148.6</ele><time>2026-04-09T10:44:32Z</time></trkpt><trkpt lat="38.013483111690974" lon="-1.1912077512308925"><ele>148.2</ele><time>2026-04-09T10:44:33Z</time></trkpt><trkpt lat="38.01353634912753" lon="-1.191120523532581"><ele>147.79999999999998</ele><time>2026-04-09T10:44:34Z</time></trkpt><trkpt lat="38.01361020207302" lon="-1.1910442306007727"><ele>147.4</ele><time>2026-04-09T10:44:35Z</time></trkpt><trkpt lat="38.013699048423526" lon="-1.1909724760148768"><ele>147.0</ele><time>2026-04-09T10:44:36Z</time></trkpt><trkpt lat="38.01378396700583" lon="-1.1909199059141549"><ele>147.0</ele><time>2026-04-09T10:44:37Z</time></trkpt><trkpt lat="38.01384683309331" lon="-1.190857770362548"><ele>147.0</ele><time>2026-04-09T10:44:38Z</time></trkpt><trkpt lat="38.01389876379875" lon="-1.190759307935042"><ele>147.0</ele><time>2026-04-09T10:44:39Z</time></trkpt><trkpt lat="38.01395913228037" lon="-1.1906531354100658"><ele>147.0</ele><time>2026-04-09T10:44:40Z</time></trkpt><trkpt lat="38.01402488870737" lon="-1.190540201602577"><ele>147.0</ele><time>2026-04-09T10:44:41Z</time></trkpt><trkpt lat="38.01407934721476" lon="-1.190394137157834"><ele>147.0</ele><time>2026-04-09T10:44:42Z</time></trkpt><trkpt lat="38.01412667676886" lon="-1.1902392518725937"><ele>147.0</ele><time>2026-04-09T10:44:43Z</time></trkpt><trkpt lat="38.01417142556607" lon="-1.1901310158165876"><ele>147.0</ele><time>2026-04-09T10:44:44Z</time></trkpt><trkpt lat="38.01423106621138" lon="-1.1900529340584987"><ele>147.0</ele><time>2026-04-09T10:44:45Z</time></trkpt><trkpt lat="38.01429643639506" lon="-1.1899963222605239"><ele>147.0</ele><time>2026-04-09T10:44:46Z</time></trkpt><trkpt lat="38.014364832208365" lon="-1.1899507542695336"><ele>147.0</ele><time>2026-04-09T10:44:47Z</time></trkpt><trkpt lat="38.01443885177826" lon="-1.189898818105147"><ele>147.0</ele><time>2026-04-09T10:44:48Z</time></trkpt><trkpt lat="38.014521691958585" lon="-1.1898472228968453"><ele>147.0</ele><time>2026-04-09T10:44:49Z</time></trkpt><trkpt lat="38.01460950138252" lon="-1.1897887353620045"><ele>147.0</ele><time>2026-04-09T10:44:50Z</time></trkpt><trkpt lat="38.014698825088956" lon="-1.1897124754010582"><ele>147.0</ele><time>2026-04-09T10:44:51Z</time></trkpt><trkpt lat="38.0147910859032" lon="-1.1896280391760659"><ele>147.0</ele><time>2026-04-09T10:44:52Z</time></trkpt><trkpt lat="38.014877832372065" lon="-1.1895445589915963"><ele>147.0</ele><time>2026-04-09T10:44:53Z</time></trkpt><trkpt lat="38.01493048659927" lon="-1.189452880039529"><ele>147.0</ele><time>2026-04-09T10:44:54Z</time></trkpt><trkpt lat="38.01497364673665" lon="-1.1893235130512252"><ele>147.0</ele><time>2026-04-09T10:44:55Z</time></trkpt><trkpt lat="38.01503577728238" lon="-1.1891818807522607"><ele>147.0</ele><time>2026-04-09T10:44:56Z</time></trkpt><trkpt lat="38.01511911525717" lon="-1.1890509985499167"><ele>147.6</ele><time>2026-04-09T10:44:57Z</time></trkpt><trkpt lat="38.01518780172801" lon="-1.1889404336722915"><ele>148.2</ele><time>2026-04-09T10:44:58Z</time></trkpt><trkpt lat="38.015246096088305" lon="-1.188834023357985"><ele>148.8</ele><time>2026-04-09T10:44:59Z</time></trkpt><trkpt lat="38.01529548570919" lon="-1.1887375101368685"><ele>149.4</ele><time>2026-04-09T10:45:00Z</time></trkpt><trkpt lat="38.01534825921615" lon="-1.1886637962543238"><ele>150.0</ele><time>2026-04-09T10:45:01Z</time></trkpt><trkpt lat="38.015397960925014" lon="-1.188593688648478"><ele>149.99999999999997</ele><time>2026-04-09T10:45:02Z</time></trkpt><trkpt lat="38.01544475042766" lon="-1.1885246263834905"><ele>150.0</ele><time>2026-04-09T10:45:03Z</time></trkpt><trkpt lat="38.015490323856156" lon="-1.1884553071016737"><ele>150.0</ele><time>2026-04-09T10:45:04Z</time></trkpt><trkpt lat="38.01553169439822" lon="-1.1883808093188988"><ele>150.0</ele><time>2026-04-09T10:45:05Z</time></trkpt><trkpt lat="38.01556886183227" lon="-1.1882971549079535"><ele>150.0</ele><time>2026-04-09T10:45:06Z</time></trkpt><trkpt lat="38.0156038108128" lon="-1.1882082806316314"><ele>149.99999999999997</ele><time>2026-04-09T10:45:07Z</time></trkpt><trkpt lat="38.01563212749734" lon="-1.188129832835247"><ele>150.0</ele><time>2026-04-09T10:45:08Z</time></trkpt><trkpt lat="38.01566423476287" lon="-1.1880569523697926"><ele>150.66666666666666</ele><time>2026-04-09T10:45:09Z</time></trkpt><trkpt lat="38.01571042551251" lon="-1.1879943991644748"><ele>151.33333333333334</ele><time>2026-04-09T10:45:10Z</time></trkpt><trkpt lat="38.01576191351308" lon="-1.1879450672291225"><ele>152.0</ele><time>2026-04-09T10:45:11Z</time></trkpt><trkpt lat="38.015847045435706" lon="-1.187891929909069"><ele>152.66666666666669</ele><time>2026-04-09T10:45:13Z</time></trkpt><trkpt lat="38.01594703524587" lon="-1.1878227522368046"><ele>153.33333333333334</ele><time>2026-04-09T10:45:15Z</time></trkpt><trkpt lat="38.016007702671885" lon="-1.1877713986215919"><ele>154.0</ele><time>2026-04-09T10:45:16Z</time></trkpt><trkpt lat="38.01611978770108" lon="-1.1877391926074863"><ele>154.0</ele><time>2026-04-09T10:45:18Z</time></trkpt><trkpt lat="38.01618709697201" lon="-1.187713762176332"><ele>154.0</ele><time>2026-04-09T10:45:19Z</time></trkpt><trkpt lat="38.0162534713681" lon="-1.187688441092281"><ele>154.0</ele><time>2026-04-09T10:45:20Z</time></trkpt><trkpt lat="38.01631508108726" lon="-1.187650804440245"><ele>154.0</ele><time>2026-04-09T10:45:21Z</time></trkpt><trkpt lat="38.01636811972107" lon="-1.1875966705285936"><ele>154.0</ele><time>2026-04-09T10:45:22Z</time></trkpt><trkpt lat="38.01647396916701" lon="-1.1875280264414325"><ele>154.0</ele><time>2026-04-09T10:45:24Z</time></trkpt><trkpt lat="38.01656041417305" lon="-1.1874777094139777"><ele>154.0</ele><time>2026-04-09T10:45:26Z</time></trkpt><trkpt lat="38.0166140834702" lon="-1.187376834947891"><ele>154.0</ele><time>2026-04-09T10:45:28Z</time></trkpt><trkpt lat="38.01664150742035" lon="-1.1872930854779808"><ele>154.0</ele><time>2026-04-09T10:45:30Z</time></trkpt><trkpt lat="38.0166945570757" lon="-1.1872315980671762"><ele>154.0</ele><time>2026-04-09T10:45:31Z</time></trkpt><trkpt lat="38.01676323959143" lon="-1.187175729758017"><ele>154.0</ele><time>2026-04-09T10:45:32Z</time></trkpt><trkpt lat="38.01682464212623" lon="-1.1871106495548975"><ele>154.0</ele><time>2026-04-09T10:45:33Z</time></trkpt><trkpt lat="38.016876620438694" lon="-1.1870256942368989"><ele>152.83333333333334</ele><time>2026-04-09T10:45:34Z</time></trkpt><trkpt lat="38.0169252047854" lon="-1.1869370356075242"><ele>151.66666666666669</ele><time>2026-04-09T10:45:35Z</time></trkpt><trkpt lat="38.016992445126355" lon="-1.1868788174005294"><ele>150.5</ele><time>2026-04-09T10:45:36Z</time></trkpt><trkpt lat="38.017052309047116" lon="-1.186821858513428"><ele>149.33333333333334</ele><time>2026-04-09T10:45:37Z</time></trkpt><trkpt lat="38.017093795610364" lon="-1.1867441723848375"><ele>148.16666666666666</ele><time>2026-04-09T10:45:38Z</time></trkpt><trkpt lat="38.0171669124401" lon="-1.1866448848032818"><ele>147.0</ele><time>2026-04-09T10:45:40Z</time></trkpt><trkpt lat="38.017241912597946" lon="-1.1866349619383394"><ele>147.0</ele><time>2026-04-09T10:45:41Z</time></trkpt><trkpt lat="38.01732764954298" lon="-1.1866036259806183"><ele>147.0</ele><time>2026-04-09T10:45:42Z</time></trkpt><trkpt lat="38.017401267336275" lon="-1.18656901739726"><ele>147.0</ele><time>2026-04-09T10:45:43Z</time></trkpt><trkpt lat="38.017469185613336" lon="-1.1865345133143324"><ele>147.0</ele><time>2026-04-09T10:45:44Z</time></trkpt><trkpt lat="38.017536196282585" lon="-1.1865000771838272"><ele>147.0</ele><time>2026-04-09T10:45:45Z</time></trkpt><trkpt lat="38.01760495029856" lon="-1.1864697655623466"><ele>147.0</ele><time>2026-04-09T10:45:46Z</time></trkpt><trkpt lat="38.017666709776236" lon="-1.1864369083042863"><ele>145.0</ele><time>2026-04-09T10:45:47Z</time></trkpt><trkpt lat="38.01772483167012" lon="-1.186397660267235"><ele>143.0</ele><time>2026-04-09T10:45:48Z</time></trkpt><trkpt lat="38.01782693275784" lon="-1.18635872695557"><ele>141.0</ele><time>2026-04-09T10:45:50Z</time></trkpt><trkpt lat="38.0178951797028" lon="-1.1863032644119862"><ele>139.0</ele><time>2026-04-09T10:45:52Z</time></trkpt><trkpt lat="38.017957185328505" lon="-1.186205746569203"><ele>137.0</ele><time>2026-04-09T10:45:54Z</time></trkpt><trkpt lat="38.01799880671402" lon="-1.1861386078965561"><ele>135.0</ele><time>2026-04-09T10:45:55Z</time></trkpt><trkpt lat="38.01805664344031" lon="-1.1860749013094904"><ele>135.0</ele><time>2026-04-09T10:45:56Z</time></trkpt><trkpt lat="38.01810573562534" lon="-1.185997333530493"><ele>135.0</ele><time>2026-04-09T10:45:57Z</time></trkpt><trkpt lat="38.01815737082327" lon="-1.1859086603565878"><ele>135.0</ele><time>2026-04-09T10:45:58Z</time></trkpt><trkpt lat="38.01821620273204" lon="-1.1858142840010095"><ele>135.0</ele><time>2026-04-09T10:45:59Z</time></trkpt><trkpt lat="38.018264061873765" lon="-1.1857189698437054"><ele>135.0</ele><time>2026-04-09T10:46:00Z</time></trkpt><trkpt lat="38.01831016281612" lon="-1.1856182678510834"><ele>135.0</ele><time>2026-04-09T10:46:01Z</time></trkpt><trkpt lat="38.01836023049531" lon="-1.1855343577089876"><ele>134.0</ele><time>2026-04-09T10:46:02Z</time></trkpt><trkpt lat="38.01840703974895" lon="-1.185453806442933"><ele>133.0</ele><time>2026-04-09T10:46:03Z</time></trkpt><trkpt lat="38.01844631130752" lon="-1.1853719875602269"><ele>132.0</ele><time>2026-04-09T10:46:04Z</time></trkpt><trkpt lat="38.01849434442753" lon="-1.1852978141301838"><ele>131.0</ele><time>2026-04-09T10:46:05Z</time></trkpt><trkpt lat="38.01854639688004" lon="-1.1852429888775784"><ele>130.0</ele><time>2026-04-09T10:46:06Z</time></trkpt><trkpt lat="38.018604499484454" lon="-1.18520205643947"><ele>129.0</ele><time>2026-04-09T10:46:07Z</time></trkpt><trkpt lat="38.01865410546775" lon="-1.1851500466416676"><ele>128.0</ele><time>2026-04-09T10:46:08Z</time></trkpt><trkpt lat="38.01870135073019" lon="-1.1850704220637867"><ele>128.0</ele><time>2026-04-09T10:46:09Z</time></trkpt><trkpt lat="38.01874389034863" lon="-1.1849957504529518"><ele>128.0</ele><time>2026-04-09T10:46:10Z</time></trkpt><trkpt lat="38.018814206334426" lon="-1.1848939315791611"><ele>128.0</ele><time>2026-04-09T10:46:12Z</time></trkpt><trkpt lat="38.01891244187805" lon="-1.184869696032122"><ele>128.0</ele><time>2026-04-09T10:46:14Z</time></trkpt><trkpt lat="38.01902087741852" lon="-1.184937661534165"><ele>128.0</ele><time>2026-04-09T10:46:16Z</time></trkpt><trkpt lat="38.01907575657983" lon="-1.1850103162530086"><ele>128.0</ele><time>2026-04-09T10:46:17Z</time></trkpt><trkpt lat="38.019130627381266" lon="-1.1850719714263513"><ele>128.0</ele><time>2026-04-09T10:46:18Z</time></trkpt><trkpt lat="38.01919629262229" lon="-1.1851304006922492"><ele>128.0</ele><time>2026-04-09T10:46:19Z</time></trkpt><trkpt lat="38.01927016078797" lon="-1.1851871210224278"><ele>128.0</ele><time>2026-04-09T10:46:20Z</time></trkpt><trkpt lat="38.01935408901114" lon="-1.1852639673660124"><ele>128.0</ele><time>2026-04-09T10:46:21Z</time></trkpt><trkpt lat="38.01944601747556" lon="-1.185359128472765"><ele>126.0</ele><time>2026-04-09T10:46:22Z</time></trkpt><trkpt lat="38.01954306079005" lon="-1.1854519133979187"><ele>124.0</ele><time>2026-04-09T10:46:23Z</time></trkpt><trkpt lat="38.01965578660639" lon="-1.1855522638419154"><ele>122.0</ele><time>2026-04-09T10:46:24Z</time></trkpt><trkpt lat="38.01975667995349" lon="-1.1856479148750885"><ele>120.0</ele><time>2026-04-09T10:46:25Z</time></trkpt><trkpt lat="38.019847601682706" lon="-1.185739082134986"><ele>119.83333333333333</ele><time>2026-04-09T10:46:26Z</time></trkpt><trkpt lat="38.01992588952241" lon="-1.1858168451923286"><ele>119.66666666666666</ele><time>2026-04-09T10:46:27Z</time></trkpt><trkpt lat="38.019988432346075" lon="-1.1858779030645876"><ele>119.5</ele><time>2026-04-09T10:46:28Z</time></trkpt><trkpt lat="38.02004321795984" lon="-1.1859198159647526"><ele>119.33333333333333</ele><time>2026-04-09T10:46:29Z</time></trkpt><trkpt lat="38.020150569537925" lon="-1.185917650139884"><ele>119.16666666666666</ele><time>2026-04-09T10:46:31Z</time></trkpt><trkpt lat="38.02023391668805" lon="-1.185862380019404"><ele>119.0</ele><time>2026-04-09T10:46:32Z</time></trkpt><trkpt lat="38.0203157524777" lon="-1.1857906590428622"><ele>118.80000000000001</ele><time>2026-04-09T10:46:33Z</time></trkpt><trkpt lat="38.02038897469858" lon="-1.185700836239257"><ele>118.60000000000001</ele><time>2026-04-09T10:46:34Z</time></trkpt><trkpt lat="38.02045148015221" lon="-1.1855986477091431"><ele>118.4</ele><time>2026-04-09T10:46:35Z</time></trkpt><trkpt lat="38.02050727168796" lon="-1.1855207044324785"><ele>118.2</ele><time>2026-04-09T10:46:36Z</time></trkpt><trkpt lat="38.0205686935441" lon="-1.1854440868990281"><ele>118.0</ele><time>2026-04-09T10:46:37Z</time></trkpt><trkpt lat="38.0206425107197" lon="-1.1853690200920763"><ele>118.0</ele><time>2026-04-09T10:46:38Z</time></trkpt><trkpt lat="38.02073691389476" lon="-1.1853099047815325"><ele>118.0</ele><time>2026-04-09T10:46:39Z</time></trkpt><trkpt lat="38.020861561748475" lon="-1.1852502421645512"><ele>118.0</ele><time>2026-04-09T10:46:40Z</time></trkpt><trkpt lat="38.02099024843031" lon="-1.1851670118708202"><ele>118.0</ele><time>2026-04-09T10:46:41Z</time></trkpt><trkpt lat="38.02112530258121" lon="-1.185062994346407"><ele>119.66666666666667</ele><time>2026-04-09T10:46:42Z</time></trkpt><trkpt lat="38.02126274429459" lon="-1.184953778113326"><ele>121.33333333333334</ele><time>2026-04-09T10:46:43Z</time></trkpt><trkpt lat="38.02139941056563" lon="-1.184865652424596"><ele>123.0</ele><time>2026-04-09T10:46:44Z</time></trkpt><trkpt lat="38.02154819308936" lon="-1.1848004617900674"><ele>124.2</ele><time>2026-04-09T10:46:45Z</time></trkpt><trkpt lat="38.02168068145939" lon="-1.18474424045563"><ele>125.4</ele><time>2026-04-09T10:46:46Z</time></trkpt><trkpt lat="38.02180174738537" lon="-1.1847054609087793"><ele>126.60000000000001</ele><time>2026-04-09T10:46:47Z</time></trkpt><trkpt lat="38.02189999166937" lon="-1.1846735530812467"><ele>127.80000000000001</ele><time>2026-04-09T10:46:48Z</time></trkpt><trkpt lat="38.0219792764074" lon="-1.184651672719026"><ele>129.0</ele><time>2026-04-09T10:46:49Z</time></trkpt><trkpt lat="38.02204931766308" lon="-1.1846448240078509"><ele>129.0</ele><time>2026-04-09T10:46:50Z</time></trkpt><trkpt lat="38.02215256760013" lon="-1.1845785243225222"><ele>129.0</ele><time>2026-04-09T10:46:52Z</time></trkpt><trkpt lat="38.02219834197125" lon="-1.184493499138219"><ele>129.0</ele><time>2026-04-09T10:46:53Z</time></trkpt><trkpt lat="38.02224525286144" lon="-1.1844065490907703"><ele>129.0</ele><time>2026-04-09T10:46:54Z</time></trkpt><trkpt lat="38.022309444497566" lon="-1.1843413490115569"><ele>129.0</ele><time>2026-04-09T10:46:55Z</time></trkpt><trkpt lat="38.02237915375361" lon="-1.1842885895621944"><ele>129.0</ele><time>2026-04-09T10:46:56Z</time></trkpt><trkpt lat="38.02244331609943" lon="-1.184227201566043"><ele>130.16666666666666</ele><time>2026-04-09T10:46:57Z</time></trkpt><trkpt lat="38.022500898444534" lon="-1.184171309188631"><ele>131.33333333333334</ele><time>2026-04-09T10:46:58Z</time></trkpt><trkpt lat="38.02261587978084" lon="-1.1840999374540113"><ele>132.5</ele><time>2026-04-09T10:47:00Z</time></trkpt><trkpt lat="38.0226758666686" lon="-1.1840674277383212"><ele>133.66666666666669</ele><time>2026-04-09T10:47:01Z</time></trkpt><trkpt lat="38.02273357807471" lon="-1.1840311187056392"><ele>134.83333333333334</ele><time>2026-04-09T10:47:02Z</time></trkpt><trkpt lat="38.022814293090185" lon="-1.1840006187752847"><ele>136.0</ele><time>2026-04-09T10:47:03Z</time></trkpt><trkpt lat="38.02291047788989" lon="-1.1839734547646723"><ele>135.99999999999997</ele><time>2026-04-09T10:47:04Z</time></trkpt><trkpt lat="38.02298577389797" lon="-1.1839417014885292"><ele>136.0</ele><time>2026-04-09T10:47:05Z</time></trkpt><trkpt lat="38.023054936048226" lon="-1.1839143546700739"><ele>136.0</ele><time>2026-04-09T10:47:06Z</time></trkpt><trkpt lat="38.02312180857924" lon="-1.1838829233292492"><ele>136.0</ele><time>2026-04-09T10:47:07Z</time></trkpt><trkpt lat="38.02318035774578" lon="-1.183848433789204"><ele>136.0</ele><time>2026-04-09T10:47:08Z</time></trkpt><trkpt lat="38.02324040033279" lon="-1.183807554502732"><ele>135.99999999999997</ele><time>2026-04-09T10:47:09Z</time></trkpt><trkpt lat="38.0232975181456" lon="-1.1837647851344337"><ele>136.0</ele><time>2026-04-09T10:47:10Z</time></trkpt><trkpt lat="38.02335185085408" lon="-1.1837116754159926"><ele>137.16666666666669</ele><time>2026-04-09T10:47:11Z</time></trkpt><trkpt lat="38.0233990668271" lon="-1.1836580368157072"><ele>138.33333333333334</ele><time>2026-04-09T10:47:12Z</time></trkpt><trkpt lat="38.02347332282279" lon="-1.1835814769170283"><ele>139.5</ele><time>2026-04-09T10:47:14Z</time></trkpt><trkpt lat="38.023569309334334" lon="-1.183478127645906"><ele>140.66666666666666</ele><time>2026-04-09T10:47:16Z</time></trkpt><trkpt lat="38.023626237325686" lon="-1.1834011734440788"><ele>141.83333333333331</ele><time>2026-04-09T10:47:17Z</time></trkpt><trkpt lat="38.02366740828483" lon="-1.1833305370273115"><ele>143.0</ele><time>2026-04-09T10:47:18Z</time></trkpt><trkpt lat="38.023733606500876" lon="-1.183225651848096"><ele>143.16666666666666</ele><time>2026-04-09T10:47:20Z</time></trkpt><trkpt lat="38.0238122674984" lon="-1.1831778170236666"><ele>143.33333333333331</ele><time>2026-04-09T10:47:22Z</time></trkpt><trkpt lat="38.023862585711676" lon="-1.1831104950456217"><ele>143.5</ele><time>2026-04-09T10:47:23Z</time></trkpt><trkpt lat="38.02390795239943" lon="-1.1830240078401473"><ele>143.66666666666666</ele><time>2026-04-09T10:47:24Z</time></trkpt><trkpt lat="38.02399662209353" lon="-1.182921851811279"><ele>143.83333333333334</ele><time>2026-04-09T10:47:26Z</time></trkpt><trkpt lat="38.02407581331453" lon="-1.1828830135012347"><ele>144.0</ele><time>2026-04-09T10:47:27Z</time></trkpt><trkpt lat="38.02414711506478" lon="-1.1828287277455092"><ele>146.0</ele><time>2026-04-09T10:47:28Z</time></trkpt><trkpt lat="38.024203843007115" lon="-1.1827460204247673"><ele>148.0</ele><time>2026-04-09T10:47:29Z</time></trkpt><trkpt lat="38.024251603344055" lon="-1.1826651913388557"><ele>150.0</ele><time>2026-04-09T10:47:30Z</time></trkpt><trkpt lat="38.02429621821053" lon="-1.1826078362803913"><ele>152.0</ele><time>2026-04-09T10:47:31Z</time></trkpt><trkpt lat="38.02438656718653" lon="-1.1825889387089192"><ele>154.0</ele><time>2026-04-09T10:47:33Z</time></trkpt><trkpt lat="38.02448178298025" lon="-1.1826768086203698"><ele>156.0</ele><time>2026-04-09T10:47:35Z</time></trkpt><trkpt lat="38.0245411904638" lon="-1.1827158419264345"><ele>156.0</ele><time>2026-04-09T10:47:36Z</time></trkpt><trkpt lat="38.0246031892024" lon="-1.1827895108672375"><ele>156.0</ele><time>2026-04-09T10:47:38Z</time></trkpt><trkpt lat="38.02462164399242" lon="-1.1828878842636978"><ele>156.0</ele><time>2026-04-09T10:47:40Z</time></trkpt><trkpt lat="38.02465525107809" lon="-1.183047012496466"><ele>156.0</ele><time>2026-04-09T10:47:43Z</time></trkpt><trkpt lat="38.02468812577221" lon="-1.183200868723834"><ele>156.0</ele><time>2026-04-09T10:47:45Z</time></trkpt><trkpt lat="38.0246967315838" lon="-1.1833230040755527"><ele>154.2</ele><time>2026-04-09T10:47:47Z</time></trkpt><trkpt lat="38.02472316870891" lon="-1.1834729453578896"><ele>152.39999999999998</ele><time>2026-04-09T10:47:49Z</time></trkpt><trkpt lat="38.02472620667668" lon="-1.1836062406221561"><ele>150.6</ele><time>2026-04-09T10:47:51Z</time></trkpt><trkpt lat="38.02475799333107" lon="-1.1836914110104022"><ele>148.79999999999998</ele><time>2026-04-09T10:47:54Z</time></trkpt><trkpt lat="38.0248638711227" lon="-1.1836433326494924"><ele>147.0</ele><time>2026-04-09T10:47:56Z</time></trkpt><trkpt lat="38.024960161317324" lon="-1.1835814492898153"><ele>145.6</ele><time>2026-04-09T10:47:58Z</time></trkpt><trkpt lat="38.02509126807272" lon="-1.1835830035489312"><ele>144.2</ele><time>2026-04-09T10:48:00Z</time></trkpt><trkpt lat="38.025190900127214" lon="-1.1835844451115267"><ele>142.8</ele><time>2026-04-09T10:48:02Z</time></trkpt><trkpt lat="38.0252475143237" lon="-1.1835008311430746"><ele>141.4</ele><time>2026-04-09T10:48:04Z</time></trkpt><trkpt lat="38.02529662850445" lon="-1.1833927686292176"><ele>140.0</ele><time>2026-04-09T10:48:07Z</time></trkpt><trkpt lat="38.02526450975906" lon="-1.1833108566058372"><ele>140.0</ele><time>2026-04-09T10:48:08Z</time></trkpt><trkpt lat="38.025226464686824" lon="-1.1832169929392953"><ele>140.0</ele><time>2026-04-09T10:48:09Z</time></trkpt><trkpt lat="38.025188594775656" lon="-1.1830705711962992"><ele>140.0</ele><time>2026-04-09T10:48:10Z</time></trkpt><trkpt lat="38.02513461443011" lon="-1.1829184329324065"><ele>140.0</ele><time>2026-04-09T10:48:11Z</time></trkpt><trkpt lat="38.025107879990586" lon="-1.1828207368693022"><ele>140.0</ele><time>2026-04-09T10:48:12Z</time></trkpt><trkpt lat="38.02515903796687" lon="-1.1827600249179906"><ele>141.4</ele><time>2026-04-09T10:48:15Z</time></trkpt><trkpt lat="38.02529625421459" lon="-1.1826406774012763"><ele>142.8</ele><time>2026-04-09T10:48:18Z</time></trkpt><trkpt lat="38.02539955357567" lon="-1.1825640342820496"><ele>144.2</ele><time>2026-04-09T10:48:20Z</time></trkpt><trkpt lat="38.02545348761804" lon="-1.1825049806813965"><ele>145.6</ele><time>2026-04-09T10:48:21Z</time></trkpt><trkpt lat="38.02550701631046" lon="-1.1824295193480427"><ele>147.0</ele><time>2026-04-09T10:48:22Z</time></trkpt><trkpt lat="38.02555729127742" lon="-1.1823440879367728"><ele>147.0</ele><time>2026-04-09T10:48:23Z</time></trkpt><trkpt lat="38.02560107198724" lon="-1.1822504022642217"><ele>147.0</ele><time>2026-04-09T10:48:24Z</time></trkpt><trkpt lat="38.02562208689273" lon="-1.1821271599539567"><ele>147.0</ele><time>2026-04-09T10:48:25Z</time></trkpt><trkpt lat="38.02568647948569" lon="-1.1820439050604084"><ele>147.0</ele><time>2026-04-09T10:48:27Z</time></trkpt><trkpt lat="38.025770451143735" lon="-1.1820133246207425"><ele>147.0</ele><time>2026-04-09T10:48:29Z</time></trkpt><trkpt lat="38.02589623970209" lon="-1.1820636003480902"><ele>145.0</ele><time>2026-04-09T10:48:31Z</time></trkpt><trkpt lat="38.025961569476976" lon="-1.1820818329266063"><ele>143.0</ele><time>2026-04-09T10:48:32Z</time></trkpt><trkpt lat="38.02606972470959" lon="-1.182079160328425"><ele>141.0</ele><time>2026-04-09T10:48:34Z</time></trkpt><trkpt lat="38.02618112617336" lon="-1.1820097847122328"><ele>139.0</ele><time>2026-04-09T10:48:36Z</time></trkpt><trkpt lat="38.026245352866816" lon="-1.1819709005887034"><ele>137.0</ele><time>2026-04-09T10:48:37Z</time></trkpt><trkpt lat="38.02636448432229" lon="-1.1819093094569653"><ele>137.0</ele><time>2026-04-09T10:48:39Z</time></trkpt><trkpt lat="38.02649861409224" lon="-1.1818707788632166"><ele>137.0</ele><time>2026-04-09T10:48:41Z</time></trkpt><trkpt lat="38.02660446983429" lon="-1.18187582957716"><ele>137.0</ele><time>2026-04-09T10:48:42Z</time></trkpt><trkpt lat="38.02673595254788" lon="-1.1818740164389643"><ele>137.0</ele><time>2026-04-09T10:48:43Z</time></trkpt><trkpt lat="38.026848428917184" lon="-1.1818630749051722"><ele>137.2</ele><time>2026-04-09T10:48:44Z</time></trkpt><trkpt lat="38.02692627791966" lon="-1.1818734534747302"><ele>137.39999999999998</ele><time>2026-04-09T10:48:45Z</time></trkpt><trkpt lat="38.02699401892013" lon="-1.181906527117299"><ele>137.60000000000002</ele><time>2026-04-09T10:48:46Z</time></trkpt><trkpt lat="38.02706591247662" lon="-1.1820304985421644"><ele>137.8</ele><time>2026-04-09T10:48:48Z</time></trkpt><trkpt lat="38.02713375752185" lon="-1.1821488682004333"><ele>138.0</ele><time>2026-04-09T10:48:50Z</time></trkpt><trkpt lat="38.02723342608026" lon="-1.1821816843632642"><ele>138.0</ele><time>2026-04-09T10:48:52Z</time></trkpt><trkpt lat="38.02731762158132" lon="-1.1821503958404485"><ele>138.0</ele><time>2026-04-09T10:48:53Z</time></trkpt><trkpt lat="38.027425022093134" lon="-1.1821136784373836"><ele>138.0</ele><time>2026-04-09T10:48:54Z</time></trkpt><trkpt lat="38.02754546179949" lon="-1.1820874760796523"><ele>138.0</ele><time>2026-04-09T10:48:55Z</time></trkpt><trkpt lat="38.02764120399352" lon="-1.1820926032823167"><ele>138.0</ele><time>2026-04-09T10:48:56Z</time></trkpt><trkpt lat="38.02774378660658" lon="-1.1821264692754496"><ele>140.25</ele><time>2026-04-09T10:48:57Z</time></trkpt><trkpt lat="38.027854334737135" lon="-1.1821519502851185"><ele>142.5</ele><time>2026-04-09T10:48:58Z</time></trkpt><trkpt lat="38.02799014764023" lon="-1.18214040524218"><ele>144.75</ele><time>2026-04-09T10:48:59Z</time></trkpt><trkpt lat="38.02811529046299" lon="-1.1821199643996518"><ele>147.0</ele><time>2026-04-09T10:49:00Z</time></trkpt><trkpt lat="38.0282099822192" lon="-1.1821210598115124"><ele>147.0</ele><time>2026-04-09T10:49:01Z</time></trkpt><trkpt lat="38.028278378856605" lon="-1.1821399490214477"><ele>147.0</ele><time>2026-04-09T10:49:02Z</time></trkpt><trkpt lat="38.02835619275512" lon="-1.1821306658527109"><ele>147.0</ele><time>2026-04-09T10:49:04Z</time></trkpt><trkpt lat="38.028400941119585" lon="-1.182019450678083"><ele>147.0</ele><time>2026-04-09T10:49:06Z</time></trkpt><trkpt lat="38.02847779535412" lon="-1.1819486560763937"><ele>147.0</ele><time>2026-04-09T10:49:08Z</time></trkpt><trkpt lat="38.028603687619785" lon="-1.1820205635941254"><ele>148.25</ele><time>2026-04-09T10:49:10Z</time></trkpt><trkpt lat="38.02869723621253" lon="-1.182106130066536"><ele>149.5</ele><time>2026-04-09T10:49:11Z</time></trkpt><trkpt lat="38.02880529316015" lon="-1.182209997772976"><ele>150.75</ele><time>2026-04-09T10:49:12Z</time></trkpt><trkpt lat="38.02892439247225" lon="-1.1822984107925802"><ele>152.0</ele><time>2026-04-09T10:49:13Z</time></trkpt><trkpt lat="38.029025330380875" lon="-1.182357923213408"><ele>152.4</ele><time>2026-04-09T10:49:14Z</time></trkpt><trkpt lat="38.02911232549098" lon="-1.1823954314989653"><ele>152.79999999999998</ele><time>2026-04-09T10:49:15Z</time></trkpt><trkpt lat="38.02919303524493" lon="-1.1824169271852651"><ele>153.2</ele><time>2026-04-09T10:49:16Z</time></trkpt><trkpt lat="38.029277223450556" lon="-1.182398307824611"><ele>153.6</ele><time>2026-04-09T10:49:17Z</time></trkpt><trkpt lat="38.0293724412472" lon="-1.1823688633283862"><ele>154.0</ele><time>2026-04-09T10:49:18Z</time></trkpt><trkpt lat="38.02948026715682" lon="-1.1823214128599866"><ele>155.66666666666669</ele><time>2026-04-09T10:49:19Z</time></trkpt><trkpt lat="38.02956709219682" lon="-1.1822877035140555"><ele>157.33333333333334</ele><time>2026-04-09T10:49:20Z</time></trkpt><trkpt lat="38.029630777193304" lon="-1.1822795169642264"><ele>159.0</ele><time>2026-04-09T10:49:21Z</time></trkpt><trkpt lat="38.02971422898799" lon="-1.1822868830962476"><ele>160.66666666666666</ele><time>2026-04-09T10:49:24Z</time></trkpt><trkpt lat="38.029792446259485" lon="-1.1821816496089264"><ele>162.33333333333331</ele><time>2026-04-09T10:49:26Z</time></trkpt><trkpt lat="38.02982315257134" lon="-1.1820805111448314"><ele>164.0</ele><time>2026-04-09T10:49:27Z</time></trkpt><trkpt lat="38.02988565011277" lon="-1.181956386272226"><ele>164.0</ele><time>2026-04-09T10:49:28Z</time></trkpt><trkpt lat="38.029952951427596" lon="-1.1818282211481843"><ele>164.0</ele><time>2026-04-09T10:49:29Z</time></trkpt><trkpt lat="38.03001996224716" lon="-1.1816674357455776"><ele>164.0</ele><time>2026-04-09T10:49:30Z</time></trkpt><trkpt lat="38.03008112028046" lon="-1.1815105275618305"><ele>164.0</ele><time>2026-04-09T10:49:31Z</time></trkpt><trkpt lat="38.03013233718253" lon="-1.1813746474789433"><ele>164.0</ele><time>2026-04-09T10:49:32Z</time></trkpt><trkpt lat="38.03017752674024" lon="-1.1812512015617092"><ele>164.0</ele><time>2026-04-09T10:49:33Z</time></trkpt><trkpt lat="38.030225808482825" lon="-1.1811315643895444"><ele>164.0</ele><time>2026-04-09T10:49:34Z</time></trkpt><trkpt lat="38.0302817195996" lon="-1.1810106458600973"><ele>164.0</ele><time>2026-04-09T10:49:35Z</time></trkpt><trkpt lat="38.0303396306439" lon="-1.1808770303986966"><ele>164.0</ele><time>2026-04-09T10:49:36Z</time></trkpt><trkpt lat="38.03039968168393" lon="-1.1807228716720382"><ele>164.25</ele><time>2026-04-09T10:49:37Z</time></trkpt><trkpt lat="38.03046491930868" lon="-1.1805560741900267"><ele>164.5</ele><time>2026-04-09T10:49:38Z</time></trkpt><trkpt lat="38.03052957725176" lon="-1.1804040483617229"><ele>164.75</ele><time>2026-04-09T10:49:39Z</time></trkpt><trkpt lat="38.03058891782444" lon="-1.1802501483409373"><ele>165.0</ele><time>2026-04-09T10:49:40Z</time></trkpt><trkpt lat="38.03063642666013" lon="-1.1800899636696267"><ele>165.0</ele><time>2026-04-09T10:49:41Z</time></trkpt><trkpt lat="38.030670943895" lon="-1.1799133918489824"><ele>165.0</ele><time>2026-04-09T10:49:42Z</time></trkpt><trkpt lat="38.03070246445893" lon="-1.1797291428337424"><ele>165.0</ele><time>2026-04-09T10:49:43Z</time></trkpt><trkpt lat="38.03073093944321" lon="-1.1795620637097508"><ele>165.0</ele><time>2026-04-09T10:49:44Z</time></trkpt><trkpt lat="38.03075738730827" lon="-1.1794139631132787"><ele>164.75</ele><time>2026-04-09T10:49:45Z</time></trkpt><trkpt lat="38.03078313472558" lon="-1.1792641891309485"><ele>164.5</ele><time>2026-04-09T10:49:46Z</time></trkpt><trkpt lat="38.03082464145913" lon="-1.1791133481854466"><ele>164.25</ele><time>2026-04-09T10:49:47Z</time></trkpt><trkpt lat="38.03088027695594" lon="-1.1789591458612092"><ele>164.0</ele><time>2026-04-09T10:49:48Z</time></trkpt><trkpt lat="38.03095429240074" lon="-1.1787906611536254"><ele>163.25</ele><time>2026-04-09T10:49:49Z</time></trkpt><trkpt lat="38.031023816026206" lon="-1.1786368024391312"><ele>162.5</ele><time>2026-04-09T10:49:50Z</time></trkpt><trkpt lat="38.0310845150876" lon="-1.17848868408373"><ele>161.75</ele><time>2026-04-09T10:49:51Z</time></trkpt><trkpt lat="38.0311435851216" lon="-1.1783449440989935"><ele>161.0</ele><time>2026-04-09T10:49:52Z</time></trkpt><trkpt lat="38.03120664560344" lon="-1.1781994680842824"><ele>159.25</ele><time>2026-04-09T10:49:53Z</time></trkpt><trkpt lat="38.03126775247736" lon="-1.1780588160041734"><ele>157.5</ele><time>2026-04-09T10:49:54Z</time></trkpt><trkpt lat="38.03132774314903" lon="-1.1779168583973443"><ele>155.75</ele><time>2026-04-09T10:49:55Z</time></trkpt><trkpt lat="38.03138611632824" lon="-1.1777732100041352"><ele>154.0</ele><time>2026-04-09T10:49:56Z</time></trkpt><trkpt lat="38.03144526484649" lon="-1.1776356434266075"><ele>154.0</ele><time>2026-04-09T10:49:57Z</time></trkpt><trkpt lat="38.03149986263922" lon="-1.1774976073964727"><ele>154.0</ele><time>2026-04-09T10:49:58Z</time></trkpt><trkpt lat="38.03155595341223" lon="-1.177367629645419"><ele>154.0</ele><time>2026-04-09T10:49:59Z</time></trkpt><trkpt lat="38.03160575144801" lon="-1.1772457632743805"><ele>154.0</ele><time>2026-04-09T10:50:00Z</time></trkpt><trkpt lat="38.03164212031469" lon="-1.1771475231448538"><ele>154.0</ele><time>2026-04-09T10:50:01Z</time></trkpt><trkpt lat="38.03166568050405" lon="-1.177070136705136"><ele>152.75</ele><time>2026-04-09T10:50:02Z</time></trkpt><trkpt lat="38.03167251937238" lon="-1.176932331607611"><ele>151.5</ele><time>2026-04-09T10:50:04Z</time></trkpt><trkpt lat="38.03159655361789" lon="-1.1767994777011728"><ele>150.25</ele><time>2026-04-09T10:50:06Z</time></trkpt><trkpt lat="38.03150142958055" lon="-1.1767148933321432"><ele>149.0</ele><time>2026-04-09T10:50:07Z</time></trkpt><trkpt lat="38.031407003228495" lon="-1.1766515826964816"><ele>149.0</ele><time>2026-04-09T10:50:08Z</time></trkpt><trkpt lat="38.031337837789366" lon="-1.176601705448406"><ele>149.0</ele><time>2026-04-09T10:50:09Z</time></trkpt><trkpt lat="38.031300873323545" lon="-1.1765349684212918"><ele>149.0</ele><time>2026-04-09T10:50:10Z</time></trkpt><trkpt lat="38.03132569536322" lon="-1.1763634122502693"><ele>149.0</ele><time>2026-04-09T10:50:12Z</time></trkpt><trkpt lat="38.031386832955235" lon="-1.1762598429830287"><ele>149.0</ele><time>2026-04-09T10:50:13Z</time></trkpt><trkpt lat="38.03146327854335" lon="-1.1761608776935046"><ele>148.25</ele><time>2026-04-09T10:50:14Z</time></trkpt><trkpt lat="38.03154355034498" lon="-1.1760777006556749"><ele>147.5</ele><time>2026-04-09T10:50:15Z</time></trkpt><trkpt lat="38.03160893078658" lon="-1.1759627264391899"><ele>146.75</ele><time>2026-04-09T10:50:16Z</time></trkpt><trkpt lat="38.0316866396066" lon="-1.1758534797040505"><ele>146.0</ele><time>2026-04-09T10:50:17Z</time></trkpt><trkpt lat="38.031778510384974" lon="-1.1757243234233352"><ele>145.75</ele><time>2026-04-09T10:50:18Z</time></trkpt><trkpt lat="38.03187410217215" lon="-1.17558993596053"><ele>145.5</ele><time>2026-04-09T10:50:19Z</time></trkpt><trkpt lat="38.03196302891631" lon="-1.1754648953015747"><ele>145.25</ele><time>2026-04-09T10:50:20Z</time></trkpt><trkpt lat="38.032056009775815" lon="-1.1753652530177983"><ele>145.0</ele><time>2026-04-09T10:50:21Z</time></trkpt><trkpt lat="38.032121242500025" lon="-1.1752426526454507"><ele>145.0</ele><time>2026-04-09T10:50:22Z</time></trkpt><trkpt lat="38.03219723282482" lon="-1.1751361093363653"><ele>145.0</ele><time>2026-04-09T10:50:23Z</time></trkpt><trkpt lat="38.03227520662816" lon="-1.175026785067626"><ele>145.0</ele><time>2026-04-09T10:50:24Z</time></trkpt><trkpt lat="38.032372506765874" lon="-1.1749095765033573"><ele>145.0</ele><time>2026-04-09T10:50:25Z</time></trkpt><trkpt lat="38.0324371448541" lon="-1.1748200302450311"><ele>145.0</ele><time>2026-04-09T10:50:26Z</time></trkpt><trkpt lat="38.0324978460792" lon="-1.1747362532262107"><ele>145.0</ele><time>2026-04-09T10:50:27Z</time></trkpt><trkpt lat="38.03255813553475" lon="-1.1746550886836244"><ele>145.0</ele><time>2026-04-09T10:50:28Z</time></trkpt><trkpt lat="38.0326214820577" lon="-1.1745792695144235"><ele>145.0</ele><time>2026-04-09T10:50:29Z</time></trkpt><trkpt lat="38.03267917292154" lon="-1.174500870364876"><ele>145.0</ele><time>2026-04-09T10:50:30Z</time></trkpt><trkpt lat="38.03272801312518" lon="-1.1743688636137541"><ele>145.0</ele><time>2026-04-09T10:50:32Z</time></trkpt><trkpt lat="38.03277694469907" lon="-1.1742952003971296"><ele>145.0</ele><time>2026-04-09T10:50:33Z</time></trkpt><trkpt lat="38.0328416018702" lon="-1.1742386401772336"><ele>145.0</ele><time>2026-04-09T10:50:34Z</time></trkpt><trkpt lat="38.032883003844994" lon="-1.1741771055857892"><ele>145.0</ele><time>2026-04-09T10:50:35Z</time></trkpt><trkpt lat="38.032924812227385" lon="-1.1741114290583379"><ele>145.0</ele><time>2026-04-09T10:50:36Z</time></trkpt><trkpt lat="38.032975149699645" lon="-1.1740365455195376"><ele>145.0</ele><time>2026-04-09T10:50:37Z</time></trkpt><trkpt lat="38.033023083439794" lon="-1.1739762026510296"><ele>145.0</ele><time>2026-04-09T10:50:38Z</time></trkpt><trkpt lat="38.03308549887478" lon="-1.1738968097057556"><ele>144.6</ele><time>2026-04-09T10:50:39Z</time></trkpt><trkpt lat="38.03315110190211" lon="-1.1738254057492237"><ele>144.2</ele><time>2026-04-09T10:50:40Z</time></trkpt><trkpt lat="38.03322116924308" lon="-1.1737459634395286"><ele>143.8</ele><time>2026-04-09T10:50:42Z</time></trkpt><trkpt lat="38.03330529782608" lon="-1.1736464421206245"><ele>143.4</ele><time>2026-04-09T10:50:44Z</time></trkpt><trkpt lat="38.03335952474215" lon="-1.1735694243559538"><ele>143.0</ele><time>2026-04-09T10:50:45Z</time></trkpt><trkpt lat="38.03341272703642" lon="-1.1734932682846457"><ele>143.0</ele><time>2026-04-09T10:50:46Z</time></trkpt><trkpt lat="38.033463017968806" lon="-1.1734123892085124"><ele>143.0</ele><time>2026-04-09T10:50:47Z</time></trkpt><trkpt lat="38.033518096601824" lon="-1.173343594145408"><ele>143.0</ele><time>2026-04-09T10:50:48Z</time></trkpt><trkpt lat="38.033586048413305" lon="-1.173272735931826"><ele>143.0</ele><time>2026-04-09T10:50:49Z</time></trkpt><trkpt lat="38.03365219997249" lon="-1.1732051099045204"><ele>143.0</ele><time>2026-04-09T10:50:50Z</time></trkpt><trkpt lat="38.03372652262275" lon="-1.1730941085816213"><ele>143.0</ele><time>2026-04-09T10:50:52Z</time></trkpt><trkpt lat="38.03377464883198" lon="-1.1730401513520112"><ele>143.16666666666666</ele><time>2026-04-09T10:50:53Z</time></trkpt><trkpt lat="38.03382581958854" lon="-1.17297713849401"><ele>143.33333333333331</ele><time>2026-04-09T10:50:54Z</time></trkpt><trkpt lat="38.03387366832723" lon="-1.1729177086791605"><ele>143.5</ele><time>2026-04-09T10:50:55Z</time></trkpt><trkpt lat="38.03393799917983" lon="-1.172851756427985"><ele>143.66666666666666</ele><time>2026-04-09T10:50:56Z</time></trkpt><trkpt lat="38.034015000941956" lon="-1.172786937706886"><ele>143.83333333333334</ele><time>2026-04-09T10:50:57Z</time></trkpt><trkpt lat="38.0341121217415" lon="-1.172727486364019"><ele>144.0</ele><time>2026-04-09T10:50:58Z</time></trkpt><trkpt lat="38.034199683531796" lon="-1.1726740852871822"><ele>144.5</ele><time>2026-04-09T10:50:59Z</time></trkpt><trkpt lat="38.034278425244096" lon="-1.1726182868628745"><ele>145.0</ele><time>2026-04-09T10:51:00Z</time></trkpt><trkpt lat="38.03434247489214" lon="-1.172558390862808"><ele>145.5</ele><time>2026-04-09T10:51:01Z</time></trkpt><trkpt lat="38.03439191292648" lon="-1.1724822507231036"><ele>146.0</ele><time>2026-04-09T10:51:02Z</time></trkpt><trkpt lat="38.034433739907215" lon="-1.1724091475924028"><ele>146.5</ele><time>2026-04-09T10:51:03Z</time></trkpt><trkpt lat="38.03448269187787" lon="-1.1723397991751179"><ele>147.0</ele><time>2026-04-09T10:51:04Z</time></trkpt><trkpt lat="38.034551361761466" lon="-1.1722723202780616"><ele>147.0</ele><time>2026-04-09T10:51:06Z</time></trkpt><trkpt lat="38.034654623333196" lon="-1.1722813939434829"><ele>147.0</ele><time>2026-04-09T10:51:08Z</time></trkpt><trkpt lat="38.03472571559288" lon="-1.1722920402517827"><ele>147.0</ele><time>2026-04-09T10:51:09Z</time></trkpt><trkpt lat="38.034805587357376" lon="-1.172305784745577"><ele>147.0</ele><time>2026-04-09T10:51:10Z</time></trkpt><trkpt lat="38.03488366935883" lon="-1.1723128988946465"><ele>147.0</ele><time>2026-04-09T10:51:11Z</time></trkpt><trkpt lat="38.034949151837885" lon="-1.1723126917179638"><ele>147.0</ele><time>2026-04-09T10:51:12Z</time></trkpt><trkpt lat="38.03503224793813" lon="-1.1723187231785368"><ele>148.16666666666666</ele><time>2026-04-09T10:51:14Z</time></trkpt><trkpt lat="38.035114168504364" lon="-1.172333932968397"><ele>149.33333333333334</ele><time>2026-04-09T10:51:18Z</time></trkpt><trkpt lat="38.03519027965986" lon="-1.1723512831776137"><ele>150.5</ele><time>2026-04-09T10:51:22Z</time></trkpt><trkpt lat="38.0352151393142" lon="-1.1722727465435487"><ele>151.66666666666669</ele><time>2026-04-09T10:52:04Z</time></trkpt><trkpt lat="38.03527741599458" lon="-1.1722124364712374"><ele>152.83333333333334</ele><time>2026-04-09T10:52:07Z</time></trkpt><trkpt lat="38.03537270296872" lon="-1.1722299142086825"><ele>154.0</ele><time>2026-04-09T10:52:09Z</time></trkpt><trkpt lat="38.03546299329755" lon="-1.1721905692818146"><ele>154.0</ele><time>2026-04-09T10:52:10Z</time></trkpt><trkpt lat="38.035502096517966" lon="-1.1722577023429612"><ele>154.0</ele><time>2026-04-09T10:52:11Z</time></trkpt><trkpt lat="38.03554372709409" lon="-1.1723443378027836"><ele>154.0</ele><time>2026-04-09T10:52:12Z</time></trkpt><trkpt lat="38.03559072300902" lon="-1.1724325144922132"><ele>154.0</ele><time>2026-04-09T10:52:13Z</time></trkpt><trkpt lat="38.03565451620371" lon="-1.1725178218270067"><ele>154.0</ele><time>2026-04-09T10:52:14Z</time></trkpt><trkpt lat="38.035719885627415" lon="-1.1725791088338957"><ele>154.0</ele><time>2026-04-09T10:52:15Z</time></trkpt><trkpt lat="38.03578013761651" lon="-1.1726293212641088"><ele>156.8</ele><time>2026-04-09T10:52:16Z</time></trkpt><trkpt lat="38.03584220159596" lon="-1.172766141207224"><ele>159.60000000000002</ele><time>2026-04-09T10:52:18Z</time></trkpt><trkpt lat="38.03591810259602" lon="-1.172864300227926"><ele>162.4</ele><time>2026-04-09T10:52:20Z</time></trkpt><trkpt lat="38.03598780717475" lon="-1.1729104080541364"><ele>165.20000000000002</ele><time>2026-04-09T10:52:21Z</time></trkpt><trkpt lat="38.0360780921233" lon="-1.1729566036674544"><ele>168.0</ele><time>2026-04-09T10:52:22Z</time></trkpt><trkpt lat="38.036163766970354" lon="-1.1730118511296872"><ele>168.0</ele><time>2026-04-09T10:52:23Z</time></trkpt><trkpt lat="38.036238655699265" lon="-1.1730695511203535"><ele>168.0</ele><time>2026-04-09T10:52:24Z</time></trkpt><trkpt lat="38.03630956792424" lon="-1.1731353229054289"><ele>168.0</ele><time>2026-04-09T10:52:25Z</time></trkpt><trkpt lat="38.0363777972647" lon="-1.173211730445282"><ele>168.0</ele><time>2026-04-09T10:52:26Z</time></trkpt><trkpt lat="38.03646779268979" lon="-1.1732849236735878"><ele>168.0</ele><time>2026-04-09T10:52:27Z</time></trkpt><trkpt lat="38.036566419803144" lon="-1.1733727350933323"><ele>166.83333333333334</ele><time>2026-04-09T10:52:28Z</time></trkpt><trkpt lat="38.03662099973081" lon="-1.1734267642001428"><ele>165.66666666666666</ele><time>2026-04-09T10:52:29Z</time></trkpt><trkpt lat="38.036715515147456" lon="-1.1735084679200551"><ele>164.5</ele><time>2026-04-09T10:52:30Z</time></trkpt><trkpt lat="38.0367824810539" lon="-1.1735854162623758"><ele>163.33333333333331</ele><time>2026-04-09T10:52:31Z</time></trkpt><trkpt lat="38.03682277793765" lon="-1.173660909360129"><ele>162.16666666666666</ele><time>2026-04-09T10:52:32Z</time></trkpt><trkpt lat="38.03686774857543" lon="-1.1737628910285594"><ele>161.0</ele><time>2026-04-09T10:52:33Z</time></trkpt><trkpt lat="38.03691803991657" lon="-1.1738541844646313"><ele>163.33333333333331</ele><time>2026-04-09T10:52:34Z</time></trkpt><trkpt lat="38.03698176888026" lon="-1.1739408089538814"><ele>165.66666666666666</ele><time>2026-04-09T10:52:35Z</time></trkpt><trkpt lat="38.03703970383516" lon="-1.1740038553964067"><ele>168.0</ele><time>2026-04-09T10:52:36Z</time></trkpt><trkpt lat="38.03710493311312" lon="-1.1740372980735843"><ele>170.33333333333334</ele><time>2026-04-09T10:52:37Z</time></trkpt><trkpt lat="38.03717221187198" lon="-1.1740841392673322"><ele>172.66666666666669</ele><time>2026-04-09T10:52:38Z</time></trkpt><trkpt lat="38.03722214718334" lon="-1.1741431517526761"><ele>175.0</ele><time>2026-04-09T10:52:39Z</time></trkpt><trkpt lat="38.03730426504853" lon="-1.1742162574814936"><ele>175.8</ele><time>2026-04-09T10:52:41Z</time></trkpt><trkpt lat="38.03739816137375" lon="-1.1742415944731357"><ele>176.6</ele><time>2026-04-09T10:52:43Z</time></trkpt><trkpt lat="38.03749203309216" lon="-1.1742782717783824"><ele>177.39999999999998</ele><time>2026-04-09T10:52:45Z</time></trkpt><trkpt lat="38.037564432756795" lon="-1.1743500927667438"><ele>178.2</ele><time>2026-04-09T10:52:47Z</time></trkpt><trkpt lat="38.03763401986436" lon="-1.1743407071705607"><ele>179.0</ele><time>2026-04-09T10:52:48Z</time></trkpt><trkpt lat="38.037747766697585" lon="-1.174350998651691"><ele>180.6</ele><time>2026-04-09T10:52:49Z</time></trkpt><trkpt lat="38.037862977710894" lon="-1.1743509862582888"><ele>182.2</ele><time>2026-04-09T10:52:50Z</time></trkpt><trkpt lat="38.03795968897725" lon="-1.1743534473177848"><ele>183.79999999999998</ele><time>2026-04-09T10:52:51Z</time></trkpt><trkpt lat="38.03806632698736" lon="-1.1743673465142572"><ele>185.39999999999998</ele><time>2026-04-09T10:52:52Z</time></trkpt><trkpt lat="38.038167459080505" lon="-1.1743677294243833"><ele>187.0</ele><time>2026-04-09T10:52:53Z</time></trkpt><trkpt lat="38.038261517125235" lon="-1.17437770231789"><ele>185.6</ele><time>2026-04-09T10:52:54Z</time></trkpt><trkpt lat="38.03834967106412" lon="-1.1743739019170414"><ele>184.2</ele><time>2026-04-09T10:52:55Z</time></trkpt><trkpt lat="38.038415839583614" lon="-1.1744002660509707"><ele>182.8</ele><time>2026-04-09T10:52:56Z</time></trkpt><trkpt lat="38.03848606245761" lon="-1.1744315481616725"><ele>181.4</ele><time>2026-04-09T10:52:57Z</time></trkpt><trkpt lat="38.03854995250175" lon="-1.1745103033718378"><ele>180.0</ele><time>2026-04-09T10:52:58Z</time></trkpt><trkpt lat="38.03864090768086" lon="-1.1746386080983198"><ele>180.0</ele><time>2026-04-09T10:52:59Z</time></trkpt><trkpt lat="38.03871739428579" lon="-1.1747141054476875"><ele>180.0</ele><time>2026-04-09T10:53:00Z</time></trkpt><trkpt lat="38.03879755750893" lon="-1.174744727613437"><ele>180.0</ele><time>2026-04-09T10:53:01Z</time></trkpt><trkpt lat="38.038869039024796" lon="-1.1747839643043185"><ele>180.0</ele><time>2026-04-09T10:53:02Z</time></trkpt><trkpt lat="38.03895543067332" lon="-1.1748188747605703"><ele>180.0</ele><time>2026-04-09T10:53:03Z</time></trkpt><trkpt lat="38.03903569022842" lon="-1.174853755534121"><ele>180.0</ele><time>2026-04-09T10:53:04Z</time></trkpt><trkpt lat="38.03912698316003" lon="-1.1748872280704616"><ele>179.83333333333334</ele><time>2026-04-09T10:53:05Z</time></trkpt><trkpt lat="38.03919977347914" lon="-1.1749413221737028"><ele>179.66666666666666</ele><time>2026-04-09T10:53:06Z</time></trkpt><trkpt lat="38.03926983710081" lon="-1.1750044730674691"><ele>179.5</ele><time>2026-04-09T10:53:07Z</time></trkpt><trkpt lat="38.03934861272623" lon="-1.1750379754120246"><ele>179.33333333333331</ele><time>2026-04-09T10:53:08Z</time></trkpt><trkpt lat="38.03942476163441" lon="-1.1750962615254248"><ele>179.16666666666666</ele><time>2026-04-09T10:53:09Z</time></trkpt><trkpt lat="38.039495931037344" lon="-1.1751675417075136"><ele>179.0</ele><time>2026-04-09T10:53:10Z</time></trkpt><trkpt lat="38.03958049092258" lon="-1.1752304489501093"><ele>179.0</ele><time>2026-04-09T10:53:11Z</time></trkpt><trkpt lat="38.03965245713623" lon="-1.1752809393033756"><ele>179.0</ele><time>2026-04-09T10:53:12Z</time></trkpt><trkpt lat="38.03973198146028" lon="-1.1753246995408781"><ele>179.0</ele><time>2026-04-09T10:53:13Z</time></trkpt><trkpt lat="38.03980775985621" lon="-1.1753592587957253"><ele>179.0</ele><time>2026-04-09T10:53:14Z</time></trkpt><trkpt lat="38.03987701947575" lon="-1.1754036338327687"><ele>179.0</ele><time>2026-04-09T10:53:15Z</time></trkpt><trkpt lat="38.039945489178" lon="-1.1754539515447198"><ele>179.0</ele><time>2026-04-09T10:53:16Z</time></trkpt><trkpt lat="38.04001917494741" lon="-1.1754860888399044"><ele>178.75</ele><time>2026-04-09T10:53:17Z</time></trkpt><trkpt lat="38.040107272289774" lon="-1.1754925490891064"><ele>178.5</ele><time>2026-04-09T10:53:18Z</time></trkpt><trkpt lat="38.04022250496016" lon="-1.175489360015213"><ele>178.25</ele><time>2026-04-09T10:53:19Z</time></trkpt><trkpt lat="38.040359006534274" lon="-1.1754990025122563"><ele>178.0</ele><time>2026-04-09T10:53:20Z</time></trkpt><trkpt lat="38.04051585449513" lon="-1.175518320161072"><ele>178.0</ele><time>2026-04-09T10:53:21Z</time></trkpt><trkpt lat="38.04065810828354" lon="-1.1755295628389424"><ele>178.0</ele><time>2026-04-09T10:53:22Z</time></trkpt><trkpt lat="38.040762053454124" lon="-1.1755398614268804"><ele>178.0</ele><time>2026-04-09T10:53:23Z</time></trkpt><trkpt lat="38.04085308468507" lon="-1.1755340249280288"><ele>178.0</ele><time>2026-04-09T10:53:25Z</time></trkpt><trkpt lat="38.04085979787903" lon="-1.1756418046792452"><ele>178.0</ele><time>2026-04-09T10:53:32Z</time></trkpt><trkpt lat="38.0408011075738" lon="-1.175707814582731"><ele>177.57142857142856</ele><time>2026-04-09T10:53:33Z</time></trkpt><trkpt lat="38.04073871901177" lon="-1.1757800190310639"><ele>177.14285714285714</ele><time>2026-04-09T10:53:34Z</time></trkpt><trkpt lat="38.04068159921965" lon="-1.1758477120880624"><ele>176.71428571428572</ele><time>2026-04-09T10:53:35Z</time></trkpt><trkpt lat="38.04063229582965" lon="-1.1759170480274042"><ele>176.28571428571428</ele><time>2026-04-09T10:53:36Z</time></trkpt><trkpt lat="38.04058189567588" lon="-1.1759871486678735"><ele>175.85714285714286</ele><time>2026-04-09T10:53:37Z</time></trkpt><trkpt lat="38.04052966612642" lon="-1.176050132192994"><ele>175.42857142857142</ele><time>2026-04-09T10:53:38Z</time></trkpt><trkpt lat="38.0404823511205" lon="-1.17610516026628"><ele>175.0</ele><time>2026-04-09T10:53:39Z</time></trkpt><trkpt lat="38.04041215812367" lon="-1.176195879354521"><ele>175.0</ele><time>2026-04-09T10:53:41Z</time></trkpt><trkpt lat="38.04035395402258" lon="-1.1762760619847863"><ele>175.0</ele><time>2026-04-09T10:53:43Z</time></trkpt><trkpt lat="38.04030478448557" lon="-1.1763470014592092"><ele>175.0</ele><time>2026-04-09T10:53:45Z</time></trkpt><trkpt lat="38.04025508173049" lon="-1.1764167501927876"><ele>175.0</ele><time>2026-04-09T10:53:47Z</time></trkpt><trkpt lat="38.04031757030798" lon="-1.1764674328056912"><ele>175.0</ele><time>2026-04-09T10:53:51Z</time></trkpt><trkpt lat="38.040380029833294" lon="-1.176520610732257"><ele>175.0</ele><time>2026-04-09T10:53:58Z</time></trkpt><trkpt lat="38.04045645882601" lon="-1.1766412709404943"><ele>174.6</ele><time>2026-04-09T10:54:00Z</time></trkpt><trkpt lat="38.040474552073796" lon="-1.1767712018629077"><ele>174.2</ele><time>2026-04-09T10:54:01Z</time></trkpt><trkpt lat="38.04049899472884" lon="-1.1768796480526638"><ele>173.8</ele><time>2026-04-09T10:54:02Z</time></trkpt><trkpt lat="38.04052044571142" lon="-1.1769800983253238"><ele>173.4</ele><time>2026-04-09T10:54:03Z</time></trkpt><trkpt lat="38.040525408745914" lon="-1.1771087485502436"><ele>173.0</ele><time>2026-04-09T10:54:04Z</time></trkpt><trkpt lat="38.04054369547217" lon="-1.1772246452664568"><ele>173.0</ele><time>2026-04-09T10:54:05Z</time></trkpt><trkpt lat="38.040579892840526" lon="-1.1773269384630456"><ele>173.0</ele><time>2026-04-09T10:54:06Z</time></trkpt><trkpt lat="38.04063510697049" lon="-1.1774253928881175"><ele>173.0</ele><time>2026-04-09T10:54:07Z</time></trkpt><trkpt lat="38.04069465475488" lon="-1.1775474597002304"><ele>173.0</ele><time>2026-04-09T10:54:08Z</time></trkpt><trkpt lat="38.040741548970324" lon="-1.1776713102664138"><ele>173.0</ele><time>2026-04-09T10:54:09Z</time></trkpt><trkpt lat="38.040786179041895" lon="-1.1777720747040819"><ele>172.0</ele><time>2026-04-09T10:54:10Z</time></trkpt><trkpt lat="38.04082892934999" lon="-1.177841856953196"><ele>171.0</ele><time>2026-04-09T10:54:11Z</time></trkpt><trkpt lat="38.04085897586077" lon="-1.1779230537339538"><ele>170.0</ele><time>2026-04-09T10:54:12Z</time></trkpt><trkpt lat="38.04086480635939" lon="-1.1780343274450877"><ele>169.0</ele><time>2026-04-09T10:54:13Z</time></trkpt><trkpt lat="38.040865940678664" lon="-1.1781539108882468"><ele>168.0</ele><time>2026-04-09T10:54:14Z</time></trkpt><trkpt lat="38.04085749145037" lon="-1.1782374331470562"><ele>167.0</ele><time>2026-04-09T10:54:15Z</time></trkpt><trkpt lat="38.04088340163447" lon="-1.1783395108408221"><ele>166.66666666666666</ele><time>2026-04-09T10:54:17Z</time></trkpt><trkpt lat="38.0409648261206" lon="-1.178374692172735"><ele>166.33333333333331</ele><time>2026-04-09T10:54:18Z</time></trkpt><trkpt lat="38.0410446492616" lon="-1.1784029949301293"><ele>166.0</ele><time>2026-04-09T10:54:19Z</time></trkpt><trkpt lat="38.04108173860192" lon="-1.1784688058155732"><ele>165.66666666666666</ele><time>2026-04-09T10:54:20Z</time></trkpt><trkpt lat="38.04107234211926" lon="-1.178574069569415"><ele>165.33333333333334</ele><time>2026-04-09T10:54:21Z</time></trkpt><trkpt lat="38.04104348257804" lon="-1.1787057682498825"><ele>165.0</ele><time>2026-04-09T10:54:22Z</time></trkpt><trkpt lat="38.04104044017783" lon="-1.1788537698786066"><ele>165.0</ele><time>2026-04-09T10:54:23Z</time></trkpt><trkpt lat="38.04106097980528" lon="-1.179016438423506"><ele>165.0</ele><time>2026-04-09T10:54:24Z</time></trkpt><trkpt lat="38.041093992901345" lon="-1.1791466644588853"><ele>165.0</ele><time>2026-04-09T10:54:25Z</time></trkpt><trkpt lat="38.04113344308964" lon="-1.1792155816934728"><ele>165.0</ele><time>2026-04-09T10:54:26Z</time></trkpt><trkpt lat="38.04121049704965" lon="-1.1792473707983124"><ele>165.0</ele><time>2026-04-09T10:54:27Z</time></trkpt><trkpt lat="38.041324213377194" lon="-1.1792919958306864"><ele>164.8</ele><time>2026-04-09T10:54:28Z</time></trkpt><trkpt lat="38.041417407936855" lon="-1.1793521080910099"><ele>164.6</ele><time>2026-04-09T10:54:29Z</time></trkpt><trkpt lat="38.04147921309695" lon="-1.1794216913382405"><ele>164.39999999999998</ele><time>2026-04-09T10:54:30Z</time></trkpt><trkpt lat="38.041508194327974" lon="-1.1794955215216616"><ele>164.2</ele><time>2026-04-09T10:54:31Z</time></trkpt><trkpt lat="38.041541553823876" lon="-1.1796443199824205"><ele>164.0</ele><time>2026-04-09T10:54:33Z</time></trkpt><trkpt lat="38.04156651011262" lon="-1.1797504734788233"><ele>164.0</ele><time>2026-04-09T10:54:34Z</time></trkpt><trkpt lat="38.04158670635308" lon="-1.1798337742817084"><ele>164.0</ele><time>2026-04-09T10:54:35Z</time></trkpt><trkpt lat="38.041642697173934" lon="-1.1798849488464975"><ele>164.0</ele><time>2026-04-09T10:54:38Z</time></trkpt><trkpt lat="38.041706707504" lon="-1.180029715232004"><ele>164.0</ele><time>2026-04-09T10:54:40Z</time></trkpt><trkpt lat="38.041734313827725" lon="-1.1801558287158822"><ele>164.0</ele><time>2026-04-09T10:54:41Z</time></trkpt><trkpt lat="38.041769192273996" lon="-1.18024672810996"><ele>163.66666666666666</ele><time>2026-04-09T10:54:42Z</time></trkpt><trkpt lat="38.04188608818948" lon="-1.1802855514834354"><ele>163.33333333333331</ele><time>2026-04-09T10:54:44Z</time></trkpt><trkpt lat="38.04196258625286" lon="-1.1802923234435092"><ele>163.0</ele><time>2026-04-09T10:54:45Z</time></trkpt><trkpt lat="38.042026555123364" lon="-1.1803150836390908"><ele>162.66666666666666</ele><time>2026-04-09T10:54:46Z</time></trkpt><trkpt lat="38.0420760670755" lon="-1.1803703264888663"><ele>162.33333333333334</ele><time>2026-04-09T10:54:47Z</time></trkpt><trkpt lat="38.0421159869998" lon="-1.1804389876164285"><ele>162.0</ele><time>2026-04-09T10:54:48Z</time></trkpt><trkpt lat="38.04220162529275" lon="-1.1805156427042545"><ele>162.0</ele><time>2026-04-09T10:54:50Z</time></trkpt><trkpt lat="38.04228166687292" lon="-1.1805312483820656"><ele>162.0</ele><time>2026-04-09T10:54:51Z</time></trkpt><trkpt lat="38.04235911695468" lon="-1.1805798346969647"><ele>162.0</ele><time>2026-04-09T10:54:52Z</time></trkpt><trkpt lat="38.04241915888217" lon="-1.1806253726501228"><ele>162.0</ele><time>2026-04-09T10:54:53Z</time></trkpt><trkpt lat="38.04247218362087" lon="-1.1806866227043893"><ele>162.0</ele><time>2026-04-09T10:54:54Z</time></trkpt><trkpt lat="38.04253252753381" lon="-1.1807491393753335"><ele>162.0</ele><time>2026-04-09T10:54:55Z</time></trkpt><trkpt lat="38.04260440547679" lon="-1.1808082179527386"><ele>161.66666666666666</ele><time>2026-04-09T10:54:56Z</time></trkpt><trkpt lat="38.042680667327396" lon="-1.1808641067560364"><ele>161.33333333333334</ele><time>2026-04-09T10:54:57Z</time></trkpt><trkpt lat="38.042739225436826" lon="-1.1809233362149913"><ele>161.0</ele><time>2026-04-09T10:54:58Z</time></trkpt><trkpt lat="38.04278212423436" lon="-1.1809937670095318"><ele>160.66666666666669</ele><time>2026-04-09T10:54:59Z</time></trkpt><trkpt lat="38.04283448132584" lon="-1.1810499904112608"><ele>160.33333333333334</ele><time>2026-04-09T10:55:00Z</time></trkpt><trkpt lat="38.0428943959819" lon="-1.1812086371406678"><ele>160.0</ele><time>2026-04-09T10:55:02Z</time></trkpt><trkpt lat="38.04291261822482" lon="-1.18132541050884"><ele>160.0</ele><time>2026-04-09T10:55:03Z</time></trkpt><trkpt lat="38.04294069614541" lon="-1.1814241641469616"><ele>160.0</ele><time>2026-04-09T10:55:04Z</time></trkpt><trkpt lat="38.04297698871633" lon="-1.1815062305301265"><ele>160.0</ele><time>2026-04-09T10:55:05Z</time></trkpt><trkpt lat="38.043027056818104" lon="-1.1815652506402552"><ele>160.0</ele><time>2026-04-09T10:55:06Z</time></trkpt><trkpt lat="38.04309902843919" lon="-1.1816215167961353"><ele>160.0</ele><time>2026-04-09T10:55:07Z</time></trkpt><trkpt lat="38.04318424808247" lon="-1.181666043213572"><ele>160.0</ele><time>2026-04-09T10:55:08Z</time></trkpt><trkpt lat="38.043254290589715" lon="-1.181700149303958"><ele>159.5</ele><time>2026-04-09T10:55:09Z</time></trkpt><trkpt lat="38.043359537193425" lon="-1.1817762780557437"><ele>159.0</ele><time>2026-04-09T10:55:11Z</time></trkpt><trkpt lat="38.043437038356174" lon="-1.181887135450773"><ele>158.5</ele><time>2026-04-09T10:55:13Z</time></trkpt><trkpt lat="38.04350942224526" lon="-1.1819965917684931"><ele>158.0</ele><time>2026-04-09T10:55:15Z</time></trkpt><trkpt lat="38.04358287188088" lon="-1.1821617032141813"><ele>158.0</ele><time>2026-04-09T10:55:17Z</time></trkpt><trkpt lat="38.04362385276437" lon="-1.1822633958285673"><ele>158.0</ele><time>2026-04-09T10:55:18Z</time></trkpt><trkpt lat="38.043661951257626" lon="-1.182371386462469"><ele>158.0</ele><time>2026-04-09T10:55:19Z</time></trkpt><trkpt lat="38.04366150034687" lon="-1.1824613665238497"><ele>158.0</ele><time>2026-04-09T10:55:20Z</time></trkpt><trkpt lat="38.0435846684909" lon="-1.1825787044130378"><ele>158.0</ele><time>2026-04-09T10:55:22Z</time></trkpt><trkpt lat="38.043516771536105" lon="-1.1826499593419753"><ele>157.0</ele><time>2026-04-09T10:55:23Z</time></trkpt><trkpt lat="38.04345330085111" lon="-1.1827156308979905"><ele>156.0</ele><time>2026-04-09T10:55:24Z</time></trkpt><trkpt lat="38.0434037222905" lon="-1.1827722988473341"><ele>155.0</ele><time>2026-04-09T10:55:25Z</time></trkpt><trkpt lat="38.04338248898596" lon="-1.182862443345531"><ele>154.0</ele><time>2026-04-09T10:55:26Z</time></trkpt><trkpt lat="38.04338314519895" lon="-1.1829819009746558"><ele>153.0</ele><time>2026-04-09T10:55:27Z</time></trkpt><trkpt lat="38.04339402632783" lon="-1.1830853840367435"><ele>152.0</ele><time>2026-04-09T10:55:28Z</time></trkpt><trkpt lat="38.04347333737042" lon="-1.1832096176438844"><ele>151.2</ele><time>2026-04-09T10:55:30Z</time></trkpt><trkpt lat="38.043551123523585" lon="-1.1832615286377908"><ele>150.39999999999998</ele><time>2026-04-09T10:55:31Z</time></trkpt><trkpt lat="38.04363161874834" lon="-1.1833196928276877"><ele>149.60000000000002</ele><time>2026-04-09T10:55:32Z</time></trkpt><trkpt lat="38.04368500371408" lon="-1.1833904383774771"><ele>148.8</ele><time>2026-04-09T10:55:33Z</time></trkpt><trkpt lat="38.04370416785165" lon="-1.1835115333196904"><ele>148.0</ele><time>2026-04-09T10:55:34Z</time></trkpt><trkpt lat="38.04372216306797" lon="-1.1836390402812154"><ele>148.0</ele><time>2026-04-09T10:55:35Z</time></trkpt><trkpt lat="38.043747626379194" lon="-1.1837400296697513"><ele>148.0</ele><time>2026-04-09T10:55:36Z</time></trkpt><trkpt lat="38.04378280265678" lon="-1.1838404152218618"><ele>148.0</ele><time>2026-04-09T10:55:37Z</time></trkpt><trkpt lat="38.043808958668315" lon="-1.1839468234912975"><ele>148.0</ele><time>2026-04-09T10:55:38Z</time></trkpt><trkpt lat="38.043813489572194" lon="-1.1840718377263246"><ele>148.0</ele><time>2026-04-09T10:55:39Z</time></trkpt><trkpt lat="38.04380497087097" lon="-1.1841898493037244"><ele>147.66666666666669</ele><time>2026-04-09T10:55:40Z</time></trkpt><trkpt lat="38.043780416410556" lon="-1.1843058924602965"><ele>147.33333333333334</ele><time>2026-04-09T10:55:41Z</time></trkpt><trkpt lat="38.043771163649204" lon="-1.1844169954944634"><ele>147.0</ele><time>2026-04-09T10:55:42Z</time></trkpt><trkpt lat="38.04376899642201" lon="-1.1845115970406972"><ele>146.66666666666666</ele><time>2026-04-09T10:55:43Z</time></trkpt><trkpt lat="38.043802024338724" lon="-1.184588277359216"><ele>146.33333333333331</ele><time>2026-04-09T10:55:45Z</time></trkpt><trkpt lat="38.043825511438094" lon="-1.1846800375471047"><ele>146.0</ele><time>2026-04-09T10:56:00Z</time></trkpt><trkpt lat="38.043870117606716" lon="-1.1847463027309302"><ele>146.0</ele><time>2026-04-09T10:56:01Z</time></trkpt><trkpt lat="38.04390944236394" lon="-1.1848100803030268"><ele>146.0</ele><time>2026-04-09T10:56:02Z</time></trkpt><trkpt lat="38.04395896966273" lon="-1.184906206843784"><ele>146.0</ele><time>2026-04-09T10:56:04Z</time></trkpt><trkpt lat="38.044031249716596" lon="-1.1849815976384512"><ele>146.0</ele><time>2026-04-09T10:56:06Z</time></trkpt><trkpt lat="38.044086526414574" lon="-1.1850817060158452"><ele>146.0</ele><time>2026-04-09T10:56:08Z</time></trkpt><trkpt lat="38.04411534308987" lon="-1.1851871040852495"><ele>146.0</ele><time>2026-04-09T10:56:10Z</time></trkpt><trkpt lat="38.04415820031238" lon="-1.1852554645413713"><ele>145.33333333333331</ele><time>2026-04-09T10:56:12Z</time></trkpt><trkpt lat="38.04427484104369" lon="-1.1852805225676968"><ele>144.66666666666666</ele><time>2026-04-09T10:56:14Z</time></trkpt><trkpt lat="38.0443435436302" lon="-1.1852676119272798"><ele>144.0</ele><time>2026-04-09T10:56:15Z</time></trkpt><trkpt lat="38.04442791949659" lon="-1.185253736371361"><ele>143.33333333333334</ele><time>2026-04-09T10:56:16Z</time></trkpt><trkpt lat="38.044498057965015" lon="-1.1852633549060414"><ele>142.66666666666669</ele><time>2026-04-09T10:56:17Z</time></trkpt><trkpt lat="38.04456774979237" lon="-1.1852913193845245"><ele>142.0</ele><time>2026-04-09T10:56:18Z</time></trkpt><trkpt lat="38.04464074501601" lon="-1.18531380947901"><ele>142.0</ele><time>2026-04-09T10:56:19Z</time></trkpt><trkpt lat="38.04470453238888" lon="-1.1853325271943018"><ele>142.0</ele><time>2026-04-09T10:56:20Z</time></trkpt><trkpt lat="38.04479952078732" lon="-1.1853683349216448"><ele>142.0</ele><time>2026-04-09T10:56:22Z</time></trkpt><trkpt lat="38.044879785235246" lon="-1.1852988913616205"><ele>142.0</ele><time>2026-04-09T10:56:25Z</time></trkpt><trkpt lat="38.04494409440066" lon="-1.1852478840646765"><ele>142.0</ele><time>2026-04-09T10:56:27Z</time></trkpt><trkpt lat="38.04493194980492" lon="-1.1851465903692668"><ele>142.0</ele><time>2026-04-09T10:57:02Z</time></trkpt><trkpt lat="38.044890340416174" lon="-1.1850301794559894"><ele>142.0</ele><time>2026-04-09T10:57:04Z</time></trkpt><trkpt lat="38.04487145133566" lon="-1.1849070402640496"><ele>142.0</ele><time>2026-04-09T10:57:06Z</time></trkpt><trkpt lat="38.044832790811405" lon="-1.1847765145883422"><ele>142.0</ele><time>2026-04-09T10:57:08Z</time></trkpt><trkpt lat="38.04487955864049" lon="-1.1846970785227902"><ele>142.0</ele><time>2026-04-09T10:57:12Z</time></trkpt><trkpt lat="38.04494798342098" lon="-1.1847015030031123"><ele>142.0</ele><time>2026-04-09T10:57:16Z</time></trkpt><trkpt lat="38.045032001203616" lon="-1.1847193957040156"><ele>142.0</ele><time>2026-04-09T10:57:28Z</time></trkpt><trkpt lat="38.045097918438934" lon="-1.1847490033230754"><ele>142.33333333333334</ele><time>2026-04-09T10:57:30Z</time></trkpt><trkpt lat="38.045158912472125" lon="-1.184821290454662"><ele>142.66666666666669</ele><time>2026-04-09T10:57:32Z</time></trkpt><trkpt lat="38.04522470637044" lon="-1.1849273015017414"><ele>143.0</ele><time>2026-04-09T10:57:34Z</time></trkpt><trkpt lat="38.045279533217006" lon="-1.1849958755229493"><ele>143.33333333333334</ele><time>2026-04-09T10:57:36Z</time></trkpt><trkpt lat="38.045344124986585" lon="-1.1850058356684512"><ele>143.66666666666666</ele><time>2026-04-09T10:57:55Z</time></trkpt><trkpt lat="38.045409691113626" lon="-1.184994103714612"><ele>144.0</ele><time>2026-04-09T10:58:09Z</time></trkpt><trkpt lat="38.04547349237486" lon="-1.1849679369305628"><ele>144.0</ele><time>2026-04-09T10:58:13Z</time></trkpt><trkpt lat="38.0455333588856" lon="-1.1849414015471793"><ele>144.0</ele><time>2026-04-09T10:58:18Z</time></trkpt><trkpt lat="38.045598788920074" lon="-1.1849258023649534"><ele>144.0</ele><time>2026-04-09T10:58:22Z</time></trkpt><trkpt lat="38.04564153421444" lon="-1.1849850648907105"><ele>144.0</ele><time>2026-04-09T10:58:29Z</time></trkpt><trkpt lat="38.04560896532797" lon="-1.1851844001559475"><ele>144.0</ele><time>2026-04-09T10:58:34Z</time></trkpt><trkpt lat="38.045588147945104" lon="-1.1853308251276897"><ele>144.0</ele><time>2026-04-09T10:58:36Z</time></trkpt><trkpt lat="38.04558511780545" lon="-1.1854826509415384"><ele>144.0</ele><time>2026-04-09T10:58:38Z</time></trkpt><trkpt lat="38.045584173161835" lon="-1.1856366663845364"><ele>144.0</ele><time>2026-04-09T10:58:40Z</time></trkpt><trkpt lat="38.04557788677554" lon="-1.1858006324070747"><ele>144.0</ele><time>2026-04-09T10:58:42Z</time></trkpt><trkpt lat="38.04556778043515" lon="-1.1858827176696862"><ele>144.0</ele><time>2026-04-09T10:58:43Z</time></trkpt><trkpt lat="38.04556326602859" lon="-1.1859656064044748"><ele>144.16666666666666</ele><time>2026-04-09T10:58:44Z</time></trkpt><trkpt lat="38.04556053714279" lon="-1.1860522846160286"><ele>144.33333333333334</ele><time>2026-04-09T10:58:45Z</time></trkpt><trkpt lat="38.04553828818671" lon="-1.1861832073021215"><ele>144.5</ele><time>2026-04-09T10:58:47Z</time></trkpt><trkpt lat="38.0455700407155" lon="-1.1862812810468597"><ele>144.66666666666669</ele><time>2026-04-09T10:58:49Z</time></trkpt><trkpt lat="38.04565256456617" lon="-1.1862782713219773"><ele>144.83333333333334</ele><time>2026-04-09T10:58:51Z</time></trkpt><trkpt lat="38.04573249973595" lon="-1.1862376295583665"><ele>145.0</ele><time>2026-04-09T10:58:53Z</time></trkpt><trkpt lat="38.045814534953266" lon="-1.1862449954269296"><ele>145.0</ele><time>2026-04-09T10:58:54Z</time></trkpt><trkpt lat="38.04593969579933" lon="-1.186248113610553"><ele>145.0</ele><time>2026-04-09T10:58:56Z</time></trkpt><trkpt lat="38.04600624422881" lon="-1.1862195182905722"><ele>145.0</ele><time>2026-04-09T10:58:57Z</time></trkpt><trkpt lat="38.04607796150306" lon="-1.186158929478138"><ele>145.0</ele><time>2026-04-09T10:58:58Z</time></trkpt><trkpt lat="38.046071829911725" lon="-1.1860272676686423"><ele>145.0</ele><time>2026-04-09T10:58:59Z</time></trkpt><trkpt lat="38.046098948606954" lon="-1.185928104394288"><ele>145.0</ele><time>2026-04-09T10:59:00Z</time></trkpt><trkpt lat="38.04606561533802" lon="-1.1858294422730682"><ele>145.0</ele><time>2026-04-09T10:59:01Z</time></trkpt><trkpt lat="38.04600527297977" lon="-1.1857274962478876"><ele>145.0</ele><time>2026-04-09T10:59:02Z</time></trkpt><trkpt lat="38.04595775302427" lon="-1.1856050626648797"><ele>145.0</ele><time>2026-04-09T10:59:03Z</time></trkpt><trkpt lat="38.045930892965885" lon="-1.1855070216679278"><ele>145.0</ele><time>2026-04-09T10:59:04Z</time></trkpt><trkpt lat="38.04595029896823" lon="-1.1854022158756252"><ele>145.16666666666669</ele><time>2026-04-09T10:59:05Z</time></trkpt><trkpt lat="38.04598474203913" lon="-1.1853241948267437"><ele>145.33333333333334</ele><time>2026-04-09T10:59:06Z</time></trkpt><trkpt lat="38.0460366081018" lon="-1.185230200177605"><ele>145.5</ele><time>2026-04-09T10:59:08Z</time></trkpt><trkpt lat="38.046104621017065" lon="-1.1853001542278412"><ele>145.66666666666666</ele><time>2026-04-09T10:59:11Z</time></trkpt><trkpt lat="38.046144570682664" lon="-1.1853697021610878"><ele>145.83333333333331</ele><time>2026-04-09T10:59:13Z</time></trkpt><trkpt lat="38.046121344417415" lon="-1.1854656728853772"><ele>146.0</ele><time>2026-04-09T10:59:15Z</time></trkpt><trkpt lat="38.04614972254831" lon="-1.1855476639512155"><ele>146.0</ele><time>2026-04-09T10:59:17Z</time></trkpt><trkpt lat="38.04622222221111" lon="-1.1855724916772832"><ele>146.0</ele><time>2026-04-09T10:59:19Z</time></trkpt><trkpt lat="38.0462689992131" lon="-1.1856613771007793"><ele>146.0</ele><time>2026-04-09T10:59:21Z</time></trkpt><trkpt lat="38.046333227320076" lon="-1.1857366958475544"><ele>146.0</ele><time>2026-04-09T10:59:23Z</time></trkpt><trkpt lat="38.04640778293394" lon="-1.1857524916096343"><ele>146.0</ele><time>2026-04-09T10:59:25Z</time></trkpt><trkpt lat="38.04642275229969" lon="-1.1858309116746042"><ele>146.0</ele><time>2026-04-09T10:59:27Z</time></trkpt><trkpt lat="38.04642987577997" lon="-1.185959301046563"><ele>145.8</ele><time>2026-04-09T10:59:29Z</time></trkpt><trkpt lat="38.04642894621085" lon="-1.186062896897003"><ele>145.6</ele><time>2026-04-09T10:59:31Z</time></trkpt><trkpt lat="38.046472311717494" lon="-1.1861790708653661"><ele>145.4</ele><time>2026-04-09T10:59:33Z</time></trkpt><trkpt lat="38.04646797189614" lon="-1.1862993450871362"><ele>145.2</ele><time>2026-04-09T10:59:35Z</time></trkpt><trkpt lat="38.04645824717648" lon="-1.1864662762052103"><ele>145.0</ele><time>2026-04-09T10:59:37Z</time></trkpt><trkpt lat="38.04644887081217" lon="-1.1865681116025761"><ele>143.0</ele><time>2026-04-09T10:59:38Z</time></trkpt><trkpt lat="38.046425921616205" lon="-1.1866643408912307"><ele>141.0</ele><time>2026-04-09T10:59:39Z</time></trkpt><trkpt lat="38.046410804282274" lon="-1.186809097385824"><ele>139.0</ele><time>2026-04-09T10:59:41Z</time></trkpt><trkpt lat="38.0464202337158" lon="-1.186894304980103"><ele>137.0</ele><time>2026-04-09T10:59:42Z</time></trkpt><trkpt lat="38.04638712453554" lon="-1.1869740501302313"><ele>135.0</ele><time>2026-04-09T10:59:43Z</time></trkpt><trkpt lat="38.04633208011007" lon="-1.1870417840703098"><ele>133.0</ele><time>2026-04-09T10:59:44Z</time></trkpt><trkpt lat="38.046293506018884" lon="-1.1871422444489097"><ele>133.0</ele><time>2026-04-09T10:59:45Z</time></trkpt><trkpt lat="38.04627128643559" lon="-1.1872489968779676"><ele>133.0</ele><time>2026-04-09T10:59:46Z</time></trkpt><trkpt lat="38.04627371650288" lon="-1.187353961947001"><ele>133.0</ele><time>2026-04-09T10:59:47Z</time></trkpt><trkpt lat="38.04628009217672" lon="-1.1874875686883273"><ele>133.0</ele><time>2026-04-09T10:59:48Z</time></trkpt><trkpt lat="38.04628313504951" lon="-1.187653006779951"><ele>133.0</ele><time>2026-04-09T10:59:49Z</time></trkpt><trkpt lat="38.04629857782788" lon="-1.1877983945338222"><ele>131.5</ele><time>2026-04-09T10:59:50Z</time></trkpt><trkpt lat="38.04632448657711" lon="-1.1879245812594277"><ele>130.0</ele><time>2026-04-09T10:59:51Z</time></trkpt><trkpt lat="38.046350726952944" lon="-1.188015356518484"><ele>128.5</ele><time>2026-04-09T10:59:52Z</time></trkpt><trkpt lat="38.046391992234796" lon="-1.188098800045979"><ele>127.0</ele><time>2026-04-09T10:59:53Z</time></trkpt><trkpt lat="38.04645013528772" lon="-1.1881569128402067"><ele>125.50000000000001</ele><time>2026-04-09T10:59:54Z</time></trkpt><trkpt lat="38.0464933973231" lon="-1.1882751753546346"><ele>124.0</ele><time>2026-04-09T10:59:56Z</time></trkpt><trkpt lat="38.04648626290775" lon="-1.188373912801466"><ele>124.0</ele><time>2026-04-09T10:59:57Z</time></trkpt><trkpt lat="38.04647489720802" lon="-1.1884823252887302"><ele>124.0</ele><time>2026-04-09T10:59:58Z</time></trkpt><trkpt lat="38.04645586264651" lon="-1.1885691283206141"><ele>124.0</ele><time>2026-04-09T10:59:59Z</time></trkpt><trkpt lat="38.046476082664576" lon="-1.1887313939647615"><ele>124.0</ele><time>2026-04-09T11:00:01Z</time></trkpt><trkpt lat="38.0464876433094" lon="-1.188829227866874"><ele>124.0</ele><time>2026-04-09T11:00:02Z</time></trkpt><trkpt lat="38.04646874778067" lon="-1.1889578354325878"><ele>124.00000000000001</ele><time>2026-04-09T11:00:04Z</time></trkpt><trkpt lat="38.0463740882577" lon="-1.189008110656258"><ele>124.0</ele><time>2026-04-09T11:00:06Z</time></trkpt><trkpt lat="38.04631678758623" lon="-1.1890509329187018"><ele>124.0</ele><time>2026-04-09T11:00:08Z</time></trkpt><trkpt lat="38.04625791409689" lon="-1.1891255084565053"><ele>124.0</ele><time>2026-04-09T11:00:11Z</time></trkpt><trkpt lat="38.04619909511794" lon="-1.1891727063645667"><ele>124.00000000000001</ele><time>2026-04-09T11:00:15Z</time></trkpt><trkpt lat="38.04613850786982" lon="-1.1892090421780503"><ele>124.0</ele><time>2026-04-09T11:00:18Z</time></trkpt><trkpt lat="38.046076366075425" lon="-1.1892892444542256"><ele>123.50000000000001</ele><time>2026-04-09T11:00:21Z</time></trkpt><trkpt lat="38.04604233872435" lon="-1.1893926137464002"><ele>123.0</ele><time>2026-04-09T11:00:24Z</time></trkpt><trkpt lat="38.046000374244414" lon="-1.1895131379696937"><ele>122.5</ele><time>2026-04-09T11:00:26Z</time></trkpt><trkpt lat="38.0459800245666" lon="-1.1896021098564702"><ele>122.0</ele><time>2026-04-09T11:00:29Z</time></trkpt><trkpt lat="38.04594561186083" lon="-1.1896722607349326"><ele>121.50000000000001</ele><time>2026-04-09T11:00:30Z</time></trkpt><trkpt lat="38.04593939411136" lon="-1.1897712606244972"><ele>121.0</ele><time>2026-04-09T11:00:33Z</time></trkpt><trkpt lat="38.04592340997413" lon="-1.1899272273504762"><ele>121.00000000000001</ele><time>2026-04-09T11:00:34Z</time></trkpt><trkpt lat="38.04597482052356" lon="-1.1900113792461304"><ele>121.0</ele><time>2026-04-09T11:00:41Z</time></trkpt><trkpt lat="38.0460127905634" lon="-1.1901191204448232"><ele>121.0</ele><time>2026-04-09T11:00:42Z</time></trkpt><trkpt lat="38.04605567909767" lon="-1.1902149903132464"><ele>121.0</ele><time>2026-04-09T11:00:43Z</time></trkpt><trkpt lat="38.046094427839236" lon="-1.1903064175124156"><ele>121.00000000000001</ele><time>2026-04-09T11:00:44Z</time></trkpt><trkpt lat="38.04612352309761" lon="-1.1904137120792855"><ele>121.0</ele><time>2026-04-09T11:00:45Z</time></trkpt><trkpt lat="38.04613392850159" lon="-1.1905313489447897"><ele>121.0</ele><time>2026-04-09T11:00:46Z</time></trkpt><trkpt lat="38.04613282449805" lon="-1.1906460719007466"><ele>121.0</ele><time>2026-04-09T11:00:47Z</time></trkpt><trkpt lat="38.04609347725269" lon="-1.1907619539163121"><ele>121.0</ele><time>2026-04-09T11:00:48Z</time></trkpt><trkpt lat="38.0460241034294" lon="-1.1908580651483898"><ele>121.0</ele><time>2026-04-09T11:00:50Z</time></trkpt><trkpt lat="38.04608480589947" lon="-1.1910108426405828"><ele>121.0</ele><time>2026-04-09T11:00:52Z</time></trkpt><trkpt lat="38.04614384183778" lon="-1.1910794890683436"><ele>122.8</ele><time>2026-04-09T11:00:53Z</time></trkpt><trkpt lat="38.04618124579916" lon="-1.1911920555293414"><ele>124.6</ele><time>2026-04-09T11:00:54Z</time></trkpt><trkpt lat="38.04620008504276" lon="-1.191338183565284"><ele>126.4</ele><time>2026-04-09T11:00:55Z</time></trkpt><trkpt lat="38.046242239388214" lon="-1.1914672167790175"><ele>128.2</ele><time>2026-04-09T11:00:56Z</time></trkpt><trkpt lat="38.04625619891201" lon="-1.1915923692580208"><ele>130.0</ele><time>2026-04-09T11:00:57Z</time></trkpt><trkpt lat="38.046266430578704" lon="-1.191710581552446"><ele>130.0</ele><time>2026-04-09T11:00:58Z</time></trkpt><trkpt lat="38.046288153592585" lon="-1.1918471225726635"><ele>130.0</ele><time>2026-04-09T11:00:59Z</time></trkpt><trkpt lat="38.04630256190445" lon="-1.1919870258785674"><ele>130.0</ele><time>2026-04-09T11:01:00Z</time></trkpt><trkpt lat="38.04631080003931" lon="-1.1921375034638804"><ele>130.0</ele><time>2026-04-09T11:01:01Z</time></trkpt><trkpt lat="38.04631087539408" lon="-1.192278306679692"><ele>131.2</ele><time>2026-04-09T11:01:02Z</time></trkpt><trkpt lat="38.046294244800265" lon="-1.1924125903887886"><ele>132.4</ele><time>2026-04-09T11:01:03Z</time></trkpt><trkpt lat="38.04625294321804" lon="-1.192563398247695"><ele>133.6</ele><time>2026-04-09T11:01:04Z</time></trkpt><trkpt lat="38.046228534537754" lon="-1.192699365071792"><ele>134.8</ele><time>2026-04-09T11:01:05Z</time></trkpt><trkpt lat="38.04622440619308" lon="-1.1928153864963786"><ele>136.0</ele><time>2026-04-09T11:01:06Z</time></trkpt><trkpt lat="38.04621890299063" lon="-1.1929039873604292"><ele>136.0</ele><time>2026-04-09T11:01:07Z</time></trkpt><trkpt lat="38.04615076239713" lon="-1.1930636649069302"><ele>136.0</ele><time>2026-04-09T11:01:09Z</time></trkpt><trkpt lat="38.04610280460614" lon="-1.1931413225314478"><ele>136.0</ele><time>2026-04-09T11:01:10Z</time></trkpt><trkpt lat="38.04602715665758" lon="-1.1932019504594031"><ele>136.0</ele><time>2026-04-09T11:01:11Z</time></trkpt><trkpt lat="38.045942926846664" lon="-1.1932488463219788"><ele>136.0</ele><time>2026-04-09T11:01:12Z</time></trkpt><trkpt lat="38.04587784590835" lon="-1.193295845141323"><ele>135.6</ele><time>2026-04-09T11:01:13Z</time></trkpt><trkpt lat="38.04583561790846" lon="-1.193369202211371"><ele>135.2</ele><time>2026-04-09T11:01:14Z</time></trkpt><trkpt lat="38.04581329138142" lon="-1.19348714457467"><ele>134.8</ele><time>2026-04-09T11:01:15Z</time></trkpt><trkpt lat="38.04580257468012" lon="-1.1935838922021829"><ele>134.4</ele><time>2026-04-09T11:01:16Z</time></trkpt><trkpt lat="38.04585206268645" lon="-1.1937291330933446"><ele>134.0</ele><time>2026-04-09T11:01:18Z</time></trkpt><trkpt lat="38.045918048153844" lon="-1.1938136115421214"><ele>134.0</ele><time>2026-04-09T11:01:19Z</time></trkpt><trkpt lat="38.04597578604028" lon="-1.1938822522041665"><ele>134.0</ele><time>2026-04-09T11:01:20Z</time></trkpt><trkpt lat="38.04604583263025" lon="-1.1940123917355963"><ele>134.0</ele><time>2026-04-09T11:01:22Z</time></trkpt><trkpt lat="38.046107116579364" lon="-1.1940683482778933"><ele>134.0</ele><time>2026-04-09T11:01:23Z</time></trkpt><trkpt lat="38.04617334359274" lon="-1.1941105783260013"><ele>134.0</ele><time>2026-04-09T11:01:24Z</time></trkpt><trkpt lat="38.046227990852216" lon="-1.1941910513370644"><ele>134.0</ele><time>2026-04-09T11:01:25Z</time></trkpt><trkpt lat="38.04627533908213" lon="-1.1943001412381906"><ele>133.83333333333331</ele><time>2026-04-09T11:01:26Z</time></trkpt><trkpt lat="38.04630990020409" lon="-1.194398148176393"><ele>133.66666666666666</ele><time>2026-04-09T11:01:27Z</time></trkpt><trkpt lat="38.046344208420905" lon="-1.1944876182734327"><ele>133.5</ele><time>2026-04-09T11:01:28Z</time></trkpt><trkpt lat="38.046379453433104" lon="-1.1945833294402786"><ele>133.33333333333334</ele><time>2026-04-09T11:01:29Z</time></trkpt><trkpt lat="38.046420157878025" lon="-1.1946857612378634"><ele>133.16666666666669</ele><time>2026-04-09T11:01:30Z</time></trkpt><trkpt lat="38.046459814411456" lon="-1.1947889495820299"><ele>133.0</ele><time>2026-04-09T11:01:31Z</time></trkpt><trkpt lat="38.046500190356944" lon="-1.1948759807061409"><ele>133.0</ele><time>2026-04-09T11:01:32Z</time></trkpt><trkpt lat="38.04654196821438" lon="-1.194943923841493"><ele>133.0</ele><time>2026-04-09T11:01:33Z</time></trkpt><trkpt lat="38.046639896961324" lon="-1.1949942670284368"><ele>133.0</ele><time>2026-04-09T11:01:35Z</time></trkpt><trkpt lat="38.04670395353854" lon="-1.194993760735638"><ele>133.0</ele><time>2026-04-09T11:01:36Z</time></trkpt><trkpt lat="38.046777282035414" lon="-1.1949891446855923"><ele>133.0</ele><time>2026-04-09T11:01:37Z</time></trkpt><trkpt lat="38.04684672680632" lon="-1.1950167307896837"><ele>133.0</ele><time>2026-04-09T11:01:38Z</time></trkpt><trkpt lat="38.046910036439805" lon="-1.195079528508043"><ele>131.83333333333334</ele><time>2026-04-09T11:01:39Z</time></trkpt><trkpt lat="38.04695963896964" lon="-1.1951381477266447"><ele>130.66666666666669</ele><time>2026-04-09T11:01:40Z</time></trkpt><trkpt lat="38.04701842576208" lon="-1.1952209095063913"><ele>129.5</ele><time>2026-04-09T11:01:42Z</time></trkpt><trkpt lat="38.04707509463321" lon="-1.1953513424726554"><ele>128.33333333333334</ele><time>2026-04-09T11:01:45Z</time></trkpt><trkpt lat="38.04712970463653" lon="-1.195393558368866"><ele>127.16666666666667</ele><time>2026-04-09T11:01:46Z</time></trkpt><trkpt lat="38.04718495912385" lon="-1.1954595067931446"><ele>126.0</ele><time>2026-04-09T11:01:47Z</time></trkpt><trkpt lat="38.04721776609462" lon="-1.1955522038188493"><ele>126.5</ele><time>2026-04-09T11:01:48Z</time></trkpt><trkpt lat="38.04721942273808" lon="-1.195681983997122"><ele>127.0</ele><time>2026-04-09T11:01:49Z</time></trkpt><trkpt lat="38.04722662618733" lon="-1.1958295046452687"><ele>127.5</ele><time>2026-04-09T11:01:50Z</time></trkpt><trkpt lat="38.04726390888677" lon="-1.1959981824906007"><ele>128.0</ele><time>2026-04-09T11:01:51Z</time></trkpt><trkpt lat="38.04732158459934" lon="-1.1961524535778576"><ele>128.0</ele><time>2026-04-09T11:01:52Z</time></trkpt><trkpt lat="38.047361654621284" lon="-1.1963222193815726"><ele>128.0</ele><time>2026-04-09T11:01:53Z</time></trkpt><trkpt lat="38.04737229212912" lon="-1.196463838077355"><ele>128.0</ele><time>2026-04-09T11:01:54Z</time></trkpt><trkpt lat="38.04737820001435" lon="-1.1965767713941007"><ele>128.0</ele><time>2026-04-09T11:01:55Z</time></trkpt><trkpt lat="38.047400219621636" lon="-1.1966633507367073"><ele>128.0</ele><time>2026-04-09T11:01:56Z</time></trkpt><trkpt lat="38.04751063223799" lon="-1.1967518954196779"><ele>127.0</ele><time>2026-04-09T11:01:58Z</time></trkpt><trkpt lat="38.047560918148655" lon="-1.1968520072246074"><ele>126.00000000000001</ele><time>2026-04-09T11:02:00Z</time></trkpt><trkpt lat="38.04751572766228" lon="-1.196958020195335"><ele>125.00000000000001</ele><time>2026-04-09T11:02:02Z</time></trkpt><trkpt lat="38.04747157625449" lon="-1.197027679638469"><ele>124.0</ele><time>2026-04-09T11:02:03Z</time></trkpt><trkpt lat="38.04738971425048" lon="-1.1971353204768675"><ele>123.0</ele><time>2026-04-09T11:02:05Z</time></trkpt><trkpt lat="38.04731794446119" lon="-1.197265032016764"><ele>122.25</ele><time>2026-04-09T11:02:07Z</time></trkpt><trkpt lat="38.04718757892281" lon="-1.1970379489284557"><ele>121.5</ele><time>2026-04-09T11:02:10Z</time></trkpt><trkpt lat="38.047123820187224" lon="-1.1969753996321943"><ele>120.75</ele><time>2026-04-09T11:02:12Z</time></trkpt><trkpt lat="38.04723805440289" lon="-1.1970280550609789"><ele>120.0</ele><time>2026-04-09T11:07:32Z</time></trkpt><trkpt lat="38.047269206082724" lon="-1.1971135434388742"><ele>120.0</ele><time>2026-04-09T11:07:33Z</time></trkpt><trkpt lat="38.047295339094006" lon="-1.197191328001446"><ele>120.0</ele><time>2026-04-09T11:07:34Z</time></trkpt><trkpt lat="38.047320776728" lon="-1.1973347389582685"><ele>120.0</ele><time>2026-04-09T11:07:36Z</time></trkpt><trkpt lat="38.04732944453896" lon="-1.1974321339549463"><ele>120.0</ele><time>2026-04-09T11:07:38Z</time></trkpt><trkpt lat="38.04733996741256" lon="-1.197514800654906"><ele>120.0</ele><time>2026-04-09T11:07:39Z</time></trkpt><trkpt lat="38.04735265424431" lon="-1.1975972173207523"><ele>120.0</ele><time>2026-04-09T11:07:40Z</time></trkpt><trkpt lat="38.047383400441866" lon="-1.1976760208683586"><ele>120.2</ele><time>2026-04-09T11:07:41Z</time></trkpt><trkpt lat="38.04743268324094" lon="-1.1977526607437143"><ele>120.4</ele><time>2026-04-09T11:07:42Z</time></trkpt><trkpt lat="38.047562516291094" lon="-1.1977703667077833"><ele>120.6</ele><time>2026-04-09T11:07:43Z</time></trkpt><trkpt lat="38.04759516507073" lon="-1.1978569005423028"><ele>120.8</ele><time>2026-04-09T11:07:45Z</time></trkpt><trkpt lat="38.04765092088141" lon="-1.1979756401287747"><ele>121.0</ele><time>2026-04-09T11:07:47Z</time></trkpt><trkpt lat="38.04768809458134" lon="-1.1980678404311356"><ele>121.00000000000001</ele><time>2026-04-09T11:07:48Z</time></trkpt><trkpt lat="38.04772565868956" lon="-1.1981628624913732"><ele>121.0</ele><time>2026-04-09T11:07:49Z</time></trkpt><trkpt lat="38.04775862773853" lon="-1.1982530569047682"><ele>121.0</ele><time>2026-04-09T11:07:50Z</time></trkpt><trkpt lat="38.04779607715276" lon="-1.1983586504569754"><ele>121.0</ele><time>2026-04-09T11:07:51Z</time></trkpt><trkpt lat="38.04783716785428" lon="-1.1984811636227672"><ele>121.00000000000001</ele><time>2026-04-09T11:07:52Z</time></trkpt><trkpt lat="38.04786838339557" lon="-1.1985778173624104"><ele>121.0</ele><time>2026-04-09T11:07:53Z</time></trkpt><trkpt lat="38.04789749051458" lon="-1.1986679437338137"><ele>120.6</ele><time>2026-04-09T11:07:54Z</time></trkpt><trkpt lat="38.04792871552922" lon="-1.1987529684688578"><ele>120.19999999999999</ele><time>2026-04-09T11:07:55Z</time></trkpt><trkpt lat="38.04796517158725" lon="-1.1988549239581612"><ele>119.80000000000001</ele><time>2026-04-09T11:07:56Z</time></trkpt><trkpt lat="38.04799477312052" lon="-1.1989337058126852"><ele>119.4</ele><time>2026-04-09T11:07:57Z</time></trkpt><trkpt lat="38.04801237199156" lon="-1.1990629673963744"><ele>119.0</ele><time>2026-04-09T11:07:59Z</time></trkpt><trkpt lat="38.0474827560157" lon="-1.1994275403039087"><ele>117.16666666666666</ele><time>2026-04-09T11:08:00Z</time></trkpt><trkpt lat="38.04741147389428" lon="-1.1994985386422647"><ele>115.33333333333333</ele><time>2026-04-09T11:08:02Z</time></trkpt><trkpt lat="38.04734796333567" lon="-1.1995101936449977"><ele>113.5</ele><time>2026-04-09T11:08:05Z</time></trkpt><trkpt lat="38.047259637233104" lon="-1.1994768318815237"><ele>111.66666666666666</ele><time>2026-04-09T11:08:08Z</time></trkpt><trkpt lat="38.04716270273066" lon="-1.1993807446425868"><ele>109.83333333333333</ele><time>2026-04-09T11:08:10Z</time></trkpt><trkpt lat="38.047089914129025" lon="-1.1993639240433858"><ele>108.0</ele><time>2026-04-09T11:08:11Z</time></trkpt><trkpt lat="38.047021923822996" lon="-1.1993510086382508"><ele>108.0</ele><time>2026-04-09T11:08:12Z</time></trkpt><trkpt lat="38.046914696902164" lon="-1.199315205120496"><ele>108.0</ele><time>2026-04-09T11:08:14Z</time></trkpt><trkpt lat="38.04687204505496" lon="-1.199249175472693"><ele>108.0</ele><time>2026-04-09T11:08:17Z</time></trkpt><trkpt lat="38.04689498980486" lon="-1.1991699255110342"><ele>108.0</ele><time>2026-04-09T11:09:09Z</time></trkpt><trkpt lat="38.04692381877547" lon="-1.199083397924992"><ele>108.0</ele><time>2026-04-09T11:09:13.014Z</time></trkpt><trkpt lat="38.046913099989204" lon="-1.1992138485467898"><ele>108.0</ele><time>2026-04-09T11:09:32.014Z</time></trkpt><trkpt lat="38.04687800226609" lon="-1.199060703352357"><ele>108.0</ele><time>2026-04-09T11:09:49.067Z</time></trkpt><trkpt lat="38.046884233549356" lon="-1.1991412607378793"><ele>108.0</ele><time>2026-04-09T11:10:09Z</time></trkpt></trkseg></trk></gpx>